<?xml version="1.0" encoding="UTF-8" standalone="no" ?>
<gpx xmlns="http://www.topografix.com/GPX/1/1" xmlns:xsi="http://www.w3.org/2001/XMLSchema-instance" xsi:schemaLocation="http://www.topografix.com/GPX/1/1 http://www.topografix.com/GPX/1/1/gpx.xsd" version="1.1" creator="VisuGPX - https://www.visugpx.com">
  <metadata>
    <name>Lacs de Montarouye et de Cul de Gourgs</name>
  </metadata>
  <trk>
    <name><![CDATA[Lacs de Montarouye et de Cul de Gourgs]]></name>
    <extensions>
      <line xmlns="http://www.topografix.com/GPX/gpx_style/0/2">
        <color>0000FF</color>
        <width>4</width>
      </line>
    </extensions>
    <trkseg>
      <trkpt lat="42.94615" lon="0.23921">
        <ele>1230.846</ele>
        <time>2023-07-09T08:51:00Z</time>
      </trkpt>
      <trkpt lat="42.94651" lon="0.23917">
        <ele>1230.688</ele>
        <time>2023-07-09T08:51:01Z</time>
      </trkpt>
      <trkpt lat="42.94646" lon="0.23916">
        <ele>1231.116</ele>
        <time>2023-07-09T08:51:05Z</time>
      </trkpt>
      <trkpt lat="42.94642" lon="0.23914">
        <ele>1231.609</ele>
        <time>2023-07-09T08:51:08Z</time>
      </trkpt>
      <trkpt lat="42.94637" lon="0.23909">
        <ele>1232.895</ele>
        <time>2023-07-09T08:51:13Z</time>
      </trkpt>
      <trkpt lat="42.94634" lon="0.23905">
        <ele>1234.018</ele>
        <time>2023-07-09T08:51:18Z</time>
      </trkpt>
      <trkpt lat="42.9463" lon="0.239">
        <ele>1234.344</ele>
        <time>2023-07-09T08:51:23Z</time>
      </trkpt>
      <trkpt lat="42.94626" lon="0.23896">
        <ele>1235.155</ele>
        <time>2023-07-09T08:51:28Z</time>
      </trkpt>
      <trkpt lat="42.94622" lon="0.23892">
        <ele>1235.735</ele>
        <time>2023-07-09T08:51:33Z</time>
      </trkpt>
      <trkpt lat="42.94618" lon="0.23888">
        <ele>1236.326</ele>
        <time>2023-07-09T08:51:39Z</time>
      </trkpt>
      <trkpt lat="42.94613" lon="0.23883">
        <ele>1238.258</ele>
        <time>2023-07-09T08:51:46Z</time>
      </trkpt>
      <trkpt lat="42.94609" lon="0.23882">
        <ele>1239.66</ele>
        <time>2023-07-09T08:51:51Z</time>
      </trkpt>
      <trkpt lat="42.94605" lon="0.23879">
        <ele>1239.881</ele>
        <time>2023-07-09T08:51:57Z</time>
      </trkpt>
      <trkpt lat="42.946" lon="0.23876">
        <ele>1240.586</ele>
        <time>2023-07-09T08:52:03Z</time>
      </trkpt>
      <trkpt lat="42.94595" lon="0.23873">
        <ele>1241.36</ele>
        <time>2023-07-09T08:52:09Z</time>
      </trkpt>
      <trkpt lat="42.94591" lon="0.2387">
        <ele>1241.526</ele>
        <time>2023-07-09T08:52:14Z</time>
      </trkpt>
      <trkpt lat="42.94587" lon="0.23867">
        <ele>1241.809</ele>
        <time>2023-07-09T08:52:19Z</time>
      </trkpt>
      <trkpt lat="42.94583" lon="0.23863">
        <ele>1242.519</ele>
        <time>2023-07-09T08:52:26Z</time>
      </trkpt>
      <trkpt lat="42.94579" lon="0.23858">
        <ele>1243.142</ele>
        <time>2023-07-09T08:52:32Z</time>
      </trkpt>
      <trkpt lat="42.94575" lon="0.23856">
        <ele>1243.538</ele>
        <time>2023-07-09T08:52:37Z</time>
      </trkpt>
      <trkpt lat="42.9457" lon="0.23854">
        <ele>1243.699</ele>
        <time>2023-07-09T08:52:44Z</time>
      </trkpt>
      <trkpt lat="42.94565" lon="0.23855">
        <ele>1243.719</ele>
        <time>2023-07-09T08:52:50Z</time>
      </trkpt>
      <trkpt lat="42.94559" lon="0.23859">
        <ele>1244.34</ele>
        <time>2023-07-09T08:52:55Z</time>
      </trkpt>
      <trkpt lat="42.94555" lon="0.23863">
        <ele>1244.862</ele>
        <time>2023-07-09T08:53:02Z</time>
      </trkpt>
      <trkpt lat="42.94551" lon="0.23867">
        <ele>1245.794</ele>
        <time>2023-07-09T08:53:10Z</time>
      </trkpt>
      <trkpt lat="42.94545" lon="0.23866">
        <ele>1246.675</ele>
        <time>2023-07-09T08:53:17Z</time>
      </trkpt>
      <trkpt lat="42.9454" lon="0.23867">
        <ele>1246.725</ele>
        <time>2023-07-09T08:53:23Z</time>
      </trkpt>
      <trkpt lat="42.94535" lon="0.23868">
        <ele>1246.926</ele>
        <time>2023-07-09T08:53:28Z</time>
      </trkpt>
      <trkpt lat="42.94531" lon="0.2387">
        <ele>1246.908</ele>
        <time>2023-07-09T08:53:35Z</time>
      </trkpt>
      <trkpt lat="42.94527" lon="0.23874">
        <ele>1246.909</ele>
        <time>2023-07-09T08:53:39Z</time>
      </trkpt>
      <trkpt lat="42.94523" lon="0.23878">
        <ele>1247.173</ele>
        <time>2023-07-09T08:53:44Z</time>
      </trkpt>
      <trkpt lat="42.94519" lon="0.23883">
        <ele>1247.286</ele>
        <time>2023-07-09T08:53:50Z</time>
      </trkpt>
      <trkpt lat="42.94516" lon="0.23889">
        <ele>1248.462</ele>
        <time>2023-07-09T08:53:56Z</time>
      </trkpt>
      <trkpt lat="42.94512" lon="0.23895">
        <ele>1249.793</ele>
        <time>2023-07-09T08:54:01Z</time>
      </trkpt>
      <trkpt lat="42.9451" lon="0.23901">
        <ele>1250.143</ele>
        <time>2023-07-09T08:54:04Z</time>
      </trkpt>
      <trkpt lat="42.94506" lon="0.23906">
        <ele>1250.524</ele>
        <time>2023-07-09T08:54:09Z</time>
      </trkpt>
      <trkpt lat="42.94502" lon="0.23912">
        <ele>1250.486</ele>
        <time>2023-07-09T08:54:15Z</time>
      </trkpt>
      <trkpt lat="42.94498" lon="0.23917">
        <ele>1250.428</ele>
        <time>2023-07-09T08:54:20Z</time>
      </trkpt>
      <trkpt lat="42.94495" lon="0.23921">
        <ele>1250.489</ele>
        <time>2023-07-09T08:54:26Z</time>
      </trkpt>
      <trkpt lat="42.94492" lon="0.23926">
        <ele>1250.411</ele>
        <time>2023-07-09T08:54:31Z</time>
      </trkpt>
      <trkpt lat="42.94488" lon="0.2393">
        <ele>1250.421</ele>
        <time>2023-07-09T08:54:34Z</time>
      </trkpt>
      <trkpt lat="42.94485" lon="0.23938">
        <ele>1250.703</ele>
        <time>2023-07-09T08:54:39Z</time>
      </trkpt>
      <trkpt lat="42.94483" lon="0.23945">
        <ele>1251.009</ele>
        <time>2023-07-09T08:54:45Z</time>
      </trkpt>
      <trkpt lat="42.9448" lon="0.2395">
        <ele>1251.762</ele>
        <time>2023-07-09T08:54:53Z</time>
      </trkpt>
      <trkpt lat="42.94477" lon="0.23956">
        <ele>1252.975</ele>
        <time>2023-07-09T08:54:58Z</time>
      </trkpt>
      <trkpt lat="42.94476" lon="0.23963">
        <ele>1253.691</ele>
        <time>2023-07-09T08:55:02Z</time>
      </trkpt>
      <trkpt lat="42.94472" lon="0.23968">
        <ele>1253.692</ele>
        <time>2023-07-09T08:55:07Z</time>
      </trkpt>
      <trkpt lat="42.9447" lon="0.23974">
        <ele>1253.812</ele>
        <time>2023-07-09T08:55:12Z</time>
      </trkpt>
      <trkpt lat="42.94466" lon="0.2398">
        <ele>1253.713</ele>
        <time>2023-07-09T08:55:18Z</time>
      </trkpt>
      <trkpt lat="42.94464" lon="0.23985">
        <ele>1253.825</ele>
        <time>2023-07-09T08:55:24Z</time>
      </trkpt>
      <trkpt lat="42.94461" lon="0.23991">
        <ele>1253.957</ele>
        <time>2023-07-09T08:55:28Z</time>
      </trkpt>
      <trkpt lat="42.94458" lon="0.23997">
        <ele>1253.858</ele>
        <time>2023-07-09T08:55:34Z</time>
      </trkpt>
      <trkpt lat="42.94454" lon="0.24003">
        <ele>1253.812</ele>
        <time>2023-07-09T08:55:39Z</time>
      </trkpt>
      <trkpt lat="42.94452" lon="0.24009">
        <ele>1253.832</ele>
        <time>2023-07-09T08:55:44Z</time>
      </trkpt>
      <trkpt lat="42.9445" lon="0.24015">
        <ele>1254.205</ele>
        <time>2023-07-09T08:55:48Z</time>
      </trkpt>
      <trkpt lat="42.94447" lon="0.2402">
        <ele>1254.609</ele>
        <time>2023-07-09T08:55:53Z</time>
      </trkpt>
      <trkpt lat="42.94444" lon="0.24026">
        <ele>1254.712</ele>
        <time>2023-07-09T08:55:57Z</time>
      </trkpt>
      <trkpt lat="42.94441" lon="0.24031">
        <ele>1255.215</ele>
        <time>2023-07-09T08:56:02Z</time>
      </trkpt>
      <trkpt lat="42.94437" lon="0.24035">
        <ele>1255.851</ele>
        <time>2023-07-09T08:56:06Z</time>
      </trkpt>
      <trkpt lat="42.94433" lon="0.24039">
        <ele>1256.162</ele>
        <time>2023-07-09T08:56:11Z</time>
      </trkpt>
      <trkpt lat="42.9443" lon="0.24046">
        <ele>1256.352</ele>
        <time>2023-07-09T08:56:17Z</time>
      </trkpt>
      <trkpt lat="42.94426" lon="0.24049">
        <ele>1256.323</ele>
        <time>2023-07-09T08:56:22Z</time>
      </trkpt>
      <trkpt lat="42.94423" lon="0.24054">
        <ele>1256.365</ele>
        <time>2023-07-09T08:56:26Z</time>
      </trkpt>
      <trkpt lat="42.94418" lon="0.24057">
        <ele>1256.277</ele>
        <time>2023-07-09T08:56:31Z</time>
      </trkpt>
      <trkpt lat="42.94414" lon="0.24059">
        <ele>1256.358</ele>
        <time>2023-07-09T08:56:35Z</time>
      </trkpt>
      <trkpt lat="42.94409" lon="0.24063">
        <ele>1256.312</ele>
        <time>2023-07-09T08:56:40Z</time>
      </trkpt>
      <trkpt lat="42.94406" lon="0.24058">
        <ele>1256.232</ele>
        <time>2023-07-09T08:56:44Z</time>
      </trkpt>
      <trkpt lat="42.94401" lon="0.2406">
        <ele>1256.305</ele>
        <time>2023-07-09T08:56:50Z</time>
      </trkpt>
      <trkpt lat="42.94396" lon="0.2406">
        <ele>1256.309</ele>
        <time>2023-07-09T08:56:55Z</time>
      </trkpt>
      <trkpt lat="42.94392" lon="0.24057">
        <ele>1256.332</ele>
        <time>2023-07-09T08:57:00Z</time>
      </trkpt>
      <trkpt lat="42.94387" lon="0.24056">
        <ele>1255.825</ele>
        <time>2023-07-09T08:57:05Z</time>
      </trkpt>
      <trkpt lat="42.94382" lon="0.24056">
        <ele>1255.511</ele>
        <time>2023-07-09T08:57:10Z</time>
      </trkpt>
      <trkpt lat="42.94377" lon="0.24056">
        <ele>1255.582</ele>
        <time>2023-07-09T08:57:15Z</time>
      </trkpt>
      <trkpt lat="42.94372" lon="0.24054">
        <ele>1255.562</ele>
        <time>2023-07-09T08:57:20Z</time>
      </trkpt>
      <trkpt lat="42.94367" lon="0.24052">
        <ele>1255.973</ele>
        <time>2023-07-09T08:57:25Z</time>
      </trkpt>
      <trkpt lat="42.94363" lon="0.2405">
        <ele>1256.335</ele>
        <time>2023-07-09T08:57:32Z</time>
      </trkpt>
      <trkpt lat="42.94357" lon="0.24048">
        <ele>1256.537</ele>
        <time>2023-07-09T08:57:38Z</time>
      </trkpt>
      <trkpt lat="42.94352" lon="0.24047">
        <ele>1257.158</ele>
        <time>2023-07-09T08:57:43Z</time>
      </trkpt>
      <trkpt lat="42.94348" lon="0.24045">
        <ele>1258.326</ele>
        <time>2023-07-09T08:57:48Z</time>
      </trkpt>
      <trkpt lat="42.94343" lon="0.24046">
        <ele>1259.347</ele>
        <time>2023-07-09T08:57:52Z</time>
      </trkpt>
      <trkpt lat="42.94338" lon="0.24048">
        <ele>1260.011</ele>
        <time>2023-07-09T08:57:57Z</time>
      </trkpt>
      <trkpt lat="42.94336" lon="0.24054">
        <ele>1261.009</ele>
        <time>2023-07-09T08:58:02Z</time>
      </trkpt>
      <trkpt lat="42.94333" lon="0.24059">
        <ele>1261.713</ele>
        <time>2023-07-09T08:58:06Z</time>
      </trkpt>
      <trkpt lat="42.94331" lon="0.24065">
        <ele>1261.896</ele>
        <time>2023-07-09T08:58:12Z</time>
      </trkpt>
      <trkpt lat="42.94329" lon="0.24071">
        <ele>1262.762</ele>
        <time>2023-07-09T08:58:17Z</time>
      </trkpt>
      <trkpt lat="42.94327" lon="0.24078">
        <ele>1264.223</ele>
        <time>2023-07-09T08:58:23Z</time>
      </trkpt>
      <trkpt lat="42.94325" lon="0.24084">
        <ele>1265.163</ele>
        <time>2023-07-09T08:58:29Z</time>
      </trkpt>
      <trkpt lat="42.94324" lon="0.24092">
        <ele>1265.444</ele>
        <time>2023-07-09T08:58:34Z</time>
      </trkpt>
      <trkpt lat="42.94322" lon="0.24098">
        <ele>1265.916</ele>
        <time>2023-07-09T08:58:38Z</time>
      </trkpt>
      <trkpt lat="42.94319" lon="0.24103">
        <ele>1267.198</ele>
        <time>2023-07-09T08:58:45Z</time>
      </trkpt>
      <trkpt lat="42.94315" lon="0.24107">
        <ele>1267.339</ele>
        <time>2023-07-09T08:58:49Z</time>
      </trkpt>
      <trkpt lat="42.94312" lon="0.24113">
        <ele>1267.948</ele>
        <time>2023-07-09T08:58:55Z</time>
      </trkpt>
      <trkpt lat="42.94308" lon="0.24118">
        <ele>1268.161</ele>
        <time>2023-07-09T08:58:59Z</time>
      </trkpt>
      <trkpt lat="42.94304" lon="0.24123">
        <ele>1268.617</ele>
        <time>2023-07-09T08:59:06Z</time>
      </trkpt>
      <trkpt lat="42.943" lon="0.24127">
        <ele>1269.409</ele>
        <time>2023-07-09T08:59:10Z</time>
      </trkpt>
      <trkpt lat="42.94298" lon="0.24132">
        <ele>1269.925</ele>
        <time>2023-07-09T08:59:14Z</time>
      </trkpt>
      <trkpt lat="42.94295" lon="0.24138">
        <ele>1270.268</ele>
        <time>2023-07-09T08:59:20Z</time>
      </trkpt>
      <trkpt lat="42.94296" lon="0.24146">
        <ele>1270.784</ele>
        <time>2023-07-09T08:59:26Z</time>
      </trkpt>
      <trkpt lat="42.94298" lon="0.24151">
        <ele>1271.155</ele>
        <time>2023-07-09T08:59:30Z</time>
      </trkpt>
      <trkpt lat="42.94302" lon="0.24157">
        <ele>1271.225</ele>
        <time>2023-07-09T08:59:36Z</time>
      </trkpt>
      <trkpt lat="42.94303" lon="0.24163">
        <ele>1271.426</ele>
        <time>2023-07-09T08:59:42Z</time>
      </trkpt>
      <trkpt lat="42.94305" lon="0.2417">
        <ele>1272.018</ele>
        <time>2023-07-09T08:59:46Z</time>
      </trkpt>
      <trkpt lat="42.94306" lon="0.24176">
        <ele>1272.54</ele>
        <time>2023-07-09T08:59:51Z</time>
      </trkpt>
      <trkpt lat="42.94308" lon="0.24182">
        <ele>1272.861</ele>
        <time>2023-07-09T08:59:57Z</time>
      </trkpt>
      <trkpt lat="42.9431" lon="0.24189">
        <ele>1273.137</ele>
        <time>2023-07-09T09:00:02Z</time>
      </trkpt>
      <trkpt lat="42.94312" lon="0.24195">
        <ele>1273.749</ele>
        <time>2023-07-09T09:00:07Z</time>
      </trkpt>
      <trkpt lat="42.94314" lon="0.24201">
        <ele>1274.713</ele>
        <time>2023-07-09T09:00:13Z</time>
      </trkpt>
      <trkpt lat="42.94316" lon="0.24207">
        <ele>1275.209</ele>
        <time>2023-07-09T09:00:19Z</time>
      </trkpt>
      <trkpt lat="42.94317" lon="0.24214">
        <ele>1275.494</ele>
        <time>2023-07-09T09:00:23Z</time>
      </trkpt>
      <trkpt lat="42.9432" lon="0.24221">
        <ele>1275.737</ele>
        <time>2023-07-09T09:00:28Z</time>
      </trkpt>
      <trkpt lat="42.94322" lon="0.24226">
        <ele>1276.063</ele>
        <time>2023-07-09T09:00:32Z</time>
      </trkpt>
      <trkpt lat="42.94323" lon="0.24232">
        <ele>1276.814</ele>
        <time>2023-07-09T09:00:36Z</time>
      </trkpt>
      <trkpt lat="42.94323" lon="0.24239">
        <ele>1277.714</ele>
        <time>2023-07-09T09:00:41Z</time>
      </trkpt>
      <trkpt lat="42.94324" lon="0.24246">
        <ele>1278.295</ele>
        <time>2023-07-09T09:00:48Z</time>
      </trkpt>
      <trkpt lat="42.94324" lon="0.24252">
        <ele>1278.667</ele>
        <time>2023-07-09T09:00:53Z</time>
      </trkpt>
      <trkpt lat="42.94325" lon="0.24259">
        <ele>1279.069</ele>
        <time>2023-07-09T09:00:57Z</time>
      </trkpt>
      <trkpt lat="42.94328" lon="0.24267">
        <ele>1279.69</ele>
        <time>2023-07-09T09:01:02Z</time>
      </trkpt>
      <trkpt lat="42.94327" lon="0.24274">
        <ele>1280.383</ele>
        <time>2023-07-09T09:01:09Z</time>
      </trkpt>
      <trkpt lat="42.94327" lon="0.24281">
        <ele>1281.025</ele>
        <time>2023-07-09T09:01:14Z</time>
      </trkpt>
      <trkpt lat="42.94328" lon="0.24288">
        <ele>1281.517</ele>
        <time>2023-07-09T09:01:20Z</time>
      </trkpt>
      <trkpt lat="42.94327" lon="0.24294">
        <ele>1281.609</ele>
        <time>2023-07-09T09:01:24Z</time>
      </trkpt>
      <trkpt lat="42.94325" lon="0.243">
        <ele>1282.069</ele>
        <time>2023-07-09T09:01:29Z</time>
      </trkpt>
      <trkpt lat="42.94324" lon="0.24306">
        <ele>1282.692</ele>
        <time>2023-07-09T09:01:33Z</time>
      </trkpt>
      <trkpt lat="42.94323" lon="0.24313">
        <ele>1282.958</ele>
        <time>2023-07-09T09:01:38Z</time>
      </trkpt>
      <trkpt lat="42.94321" lon="0.24319">
        <ele>1283.489</ele>
        <time>2023-07-09T09:01:43Z</time>
      </trkpt>
      <trkpt lat="42.94319" lon="0.24324">
        <ele>1284.019</ele>
        <time>2023-07-09T09:01:47Z</time>
      </trkpt>
      <trkpt lat="42.94318" lon="0.24332">
        <ele>1284.59</ele>
        <time>2023-07-09T09:01:52Z</time>
      </trkpt>
      <trkpt lat="42.94317" lon="0.24339">
        <ele>1284.792</ele>
        <time>2023-07-09T09:01:56Z</time>
      </trkpt>
      <trkpt lat="42.94316" lon="0.24346">
        <ele>1285.624</ele>
        <time>2023-07-09T09:02:00Z</time>
      </trkpt>
      <trkpt lat="42.94313" lon="0.24352">
        <ele>1287.045</ele>
        <time>2023-07-09T09:02:06Z</time>
      </trkpt>
      <trkpt lat="42.94311" lon="0.24358">
        <ele>1287.352</ele>
        <time>2023-07-09T09:02:14Z</time>
      </trkpt>
      <trkpt lat="42.94308" lon="0.24366">
        <ele>1287.653</ele>
        <time>2023-07-09T09:02:20Z</time>
      </trkpt>
      <trkpt lat="42.94306" lon="0.24372">
        <ele>1287.808</ele>
        <time>2023-07-09T09:02:26Z</time>
      </trkpt>
      <trkpt lat="42.94304" lon="0.24378">
        <ele>1287.809</ele>
        <time>2023-07-09T09:02:31Z</time>
      </trkpt>
      <trkpt lat="42.94301" lon="0.24384">
        <ele>1288.086</ele>
        <time>2023-07-09T09:02:36Z</time>
      </trkpt>
      <trkpt lat="42.94299" lon="0.2439">
        <ele>1288.939</ele>
        <time>2023-07-09T09:02:41Z</time>
      </trkpt>
      <trkpt lat="42.94296" lon="0.24396">
        <ele>1290.175</ele>
        <time>2023-07-09T09:02:45Z</time>
      </trkpt>
      <trkpt lat="42.94293" lon="0.24401">
        <ele>1290.446</ele>
        <time>2023-07-09T09:02:50Z</time>
      </trkpt>
      <trkpt lat="42.94291" lon="0.24406">
        <ele>1291.076</ele>
        <time>2023-07-09T09:02:54Z</time>
      </trkpt>
      <trkpt lat="42.94288" lon="0.24413">
        <ele>1291.547</ele>
        <time>2023-07-09T09:03:00Z</time>
      </trkpt>
      <trkpt lat="42.94285" lon="0.24419">
        <ele>1291.989</ele>
        <time>2023-07-09T09:03:04Z</time>
      </trkpt>
      <trkpt lat="42.94281" lon="0.24424">
        <ele>1292.211</ele>
        <time>2023-07-09T09:03:10Z</time>
      </trkpt>
      <trkpt lat="42.94279" lon="0.2443">
        <ele>1292.232</ele>
        <time>2023-07-09T09:03:14Z</time>
      </trkpt>
      <trkpt lat="42.94275" lon="0.24435">
        <ele>1292.389</ele>
        <time>2023-07-09T09:03:19Z</time>
      </trkpt>
      <trkpt lat="42.94272" lon="0.2444">
        <ele>1292.606</ele>
        <time>2023-07-09T09:03:24Z</time>
      </trkpt>
      <trkpt lat="42.94269" lon="0.24445">
        <ele>1292.626</ele>
        <time>2023-07-09T09:03:30Z</time>
      </trkpt>
      <trkpt lat="42.94266" lon="0.24451">
        <ele>1293.409</ele>
        <time>2023-07-09T09:03:35Z</time>
      </trkpt>
      <trkpt lat="42.94261" lon="0.24457">
        <ele>1294.059</ele>
        <time>2023-07-09T09:03:41Z</time>
      </trkpt>
      <trkpt lat="42.94258" lon="0.24463">
        <ele>1295.162</ele>
        <time>2023-07-09T09:03:45Z</time>
      </trkpt>
      <trkpt lat="42.94254" lon="0.24468">
        <ele>1295.198</ele>
        <time>2023-07-09T09:03:52Z</time>
      </trkpt>
      <trkpt lat="42.94249" lon="0.24471">
        <ele>1295.949</ele>
        <time>2023-07-09T09:03:59Z</time>
      </trkpt>
      <trkpt lat="42.94246" lon="0.24475">
        <ele>1295.979</ele>
        <time>2023-07-09T09:04:03Z</time>
      </trkpt>
      <trkpt lat="42.94242" lon="0.24479">
        <ele>1296.18</ele>
        <time>2023-07-09T09:04:08Z</time>
      </trkpt>
      <trkpt lat="42.94239" lon="0.24485">
        <ele>1296.232</ele>
        <time>2023-07-09T09:04:12Z</time>
      </trkpt>
      <trkpt lat="42.94235" lon="0.24489">
        <ele>1296.284</ele>
        <time>2023-07-09T09:04:17Z</time>
      </trkpt>
      <trkpt lat="42.94231" lon="0.24493">
        <ele>1296.275</ele>
        <time>2023-07-09T09:04:23Z</time>
      </trkpt>
      <trkpt lat="42.94228" lon="0.24498">
        <ele>1296.961</ele>
        <time>2023-07-09T09:04:29Z</time>
      </trkpt>
      <trkpt lat="42.94223" lon="0.24501">
        <ele>1297.621</ele>
        <time>2023-07-09T09:04:34Z</time>
      </trkpt>
      <trkpt lat="42.94219" lon="0.24505">
        <ele>1298.013</ele>
        <time>2023-07-09T09:04:40Z</time>
      </trkpt>
      <trkpt lat="42.94214" lon="0.2451">
        <ele>1298.009</ele>
        <time>2023-07-09T09:04:46Z</time>
      </trkpt>
      <trkpt lat="42.9421" lon="0.24514">
        <ele>1298.537</ele>
        <time>2023-07-09T09:04:51Z</time>
      </trkpt>
      <trkpt lat="42.94206" lon="0.24518">
        <ele>1298.73</ele>
        <time>2023-07-09T09:04:56Z</time>
      </trkpt>
      <trkpt lat="42.94202" lon="0.24523">
        <ele>1298.996</ele>
        <time>2023-07-09T09:05:00Z</time>
      </trkpt>
      <trkpt lat="42.94198" lon="0.24525">
        <ele>1299.397</ele>
        <time>2023-07-09T09:05:05Z</time>
      </trkpt>
      <trkpt lat="42.94194" lon="0.24528">
        <ele>1300.137</ele>
        <time>2023-07-09T09:05:11Z</time>
      </trkpt>
      <trkpt lat="42.94189" lon="0.24533">
        <ele>1300.738</ele>
        <time>2023-07-09T09:05:17Z</time>
      </trkpt>
      <trkpt lat="42.94185" lon="0.24537">
        <ele>1301.11</ele>
        <time>2023-07-09T09:05:22Z</time>
      </trkpt>
      <trkpt lat="42.9418" lon="0.24539">
        <ele>1301.632</ele>
        <time>2023-07-09T09:05:26Z</time>
      </trkpt>
      <trkpt lat="42.94176" lon="0.24541">
        <ele>1301.733</ele>
        <time>2023-07-09T09:05:32Z</time>
      </trkpt>
      <trkpt lat="42.94171" lon="0.24543">
        <ele>1301.744</ele>
        <time>2023-07-09T09:05:36Z</time>
      </trkpt>
      <trkpt lat="42.94167" lon="0.24545">
        <ele>1302.005</ele>
        <time>2023-07-09T09:05:40Z</time>
      </trkpt>
      <trkpt lat="42.94161" lon="0.24546">
        <ele>1302.115</ele>
        <time>2023-07-09T09:05:46Z</time>
      </trkpt>
      <trkpt lat="42.94156" lon="0.24546">
        <ele>1302.709</ele>
        <time>2023-07-09T09:05:52Z</time>
      </trkpt>
      <trkpt lat="42.9415" lon="0.24546">
        <ele>1303.595</ele>
        <time>2023-07-09T09:05:58Z</time>
      </trkpt>
      <trkpt lat="42.94144" lon="0.24547">
        <ele>1303.738</ele>
        <time>2023-07-09T09:06:05Z</time>
      </trkpt>
      <trkpt lat="42.94139" lon="0.24546">
        <ele>1303.884</ele>
        <time>2023-07-09T09:06:11Z</time>
      </trkpt>
      <trkpt lat="42.94134" lon="0.24545">
        <ele>1303.835</ele>
        <time>2023-07-09T09:06:16Z</time>
      </trkpt>
      <trkpt lat="42.9413" lon="0.24543">
        <ele>1303.895</ele>
        <time>2023-07-09T09:06:23Z</time>
      </trkpt>
      <trkpt lat="42.94125" lon="0.24544">
        <ele>1303.986</ele>
        <time>2023-07-09T09:06:28Z</time>
      </trkpt>
      <trkpt lat="42.9412" lon="0.24544">
        <ele>1304.528</ele>
        <time>2023-07-09T09:06:33Z</time>
      </trkpt>
      <trkpt lat="42.94116" lon="0.24542">
        <ele>1305.19</ele>
        <time>2023-07-09T09:06:38Z</time>
      </trkpt>
      <trkpt lat="42.9411" lon="0.24541">
        <ele>1306.071</ele>
        <time>2023-07-09T09:06:43Z</time>
      </trkpt>
      <trkpt lat="42.94106" lon="0.2454">
        <ele>1306.927</ele>
        <time>2023-07-09T09:06:49Z</time>
      </trkpt>
      <trkpt lat="42.94101" lon="0.24539">
        <ele>1307.868</ele>
        <time>2023-07-09T09:06:54Z</time>
      </trkpt>
      <trkpt lat="42.94097" lon="0.24534">
        <ele>1308.014</ele>
        <time>2023-07-09T09:06:58Z</time>
      </trkpt>
      <trkpt lat="42.94093" lon="0.2453">
        <ele>1308.209</ele>
        <time>2023-07-09T09:07:03Z</time>
      </trkpt>
      <trkpt lat="42.9409" lon="0.24525">
        <ele>1308.263</ele>
        <time>2023-07-09T09:07:07Z</time>
      </trkpt>
      <trkpt lat="42.94086" lon="0.24521">
        <ele>1308.146</ele>
        <time>2023-07-09T09:07:12Z</time>
      </trkpt>
      <trkpt lat="42.94081" lon="0.24517">
        <ele>1308.152</ele>
        <time>2023-07-09T09:07:19Z</time>
      </trkpt>
      <trkpt lat="42.94076" lon="0.24516">
        <ele>1308.153</ele>
        <time>2023-07-09T09:07:24Z</time>
      </trkpt>
      <trkpt lat="42.9407" lon="0.24518">
        <ele>1308.573</ele>
        <time>2023-07-09T09:07:29Z</time>
      </trkpt>
      <trkpt lat="42.94066" lon="0.24521">
        <ele>1309.264</ele>
        <time>2023-07-09T09:07:33Z</time>
      </trkpt>
      <trkpt lat="42.94062" lon="0.24525">
        <ele>1310.876</ele>
        <time>2023-07-09T09:07:38Z</time>
      </trkpt>
      <trkpt lat="42.94057" lon="0.24528">
        <ele>1312.068</ele>
        <time>2023-07-09T09:07:43Z</time>
      </trkpt>
      <trkpt lat="42.94053" lon="0.24533">
        <ele>1312.129</ele>
        <time>2023-07-09T09:07:47Z</time>
      </trkpt>
      <trkpt lat="42.94049" lon="0.24537">
        <ele>1312.477</ele>
        <time>2023-07-09T09:07:53Z</time>
      </trkpt>
      <trkpt lat="42.94045" lon="0.24541">
        <ele>1312.361</ele>
        <time>2023-07-09T09:07:59Z</time>
      </trkpt>
      <trkpt lat="42.94042" lon="0.24548">
        <ele>1312.427</ele>
        <time>2023-07-09T09:08:04Z</time>
      </trkpt>
      <trkpt lat="42.94037" lon="0.24553">
        <ele>1313.009</ele>
        <time>2023-07-09T09:08:09Z</time>
      </trkpt>
      <trkpt lat="42.94032" lon="0.24554">
        <ele>1312.818</ele>
        <time>2023-07-09T09:08:16Z</time>
      </trkpt>
      <trkpt lat="42.94027" lon="0.24557">
        <ele>1313.161</ele>
        <time>2023-07-09T09:08:22Z</time>
      </trkpt>
      <trkpt lat="42.94022" lon="0.2456">
        <ele>1313.127</ele>
        <time>2023-07-09T09:08:27Z</time>
      </trkpt>
      <trkpt lat="42.94017" lon="0.24564">
        <ele>1312.738</ele>
        <time>2023-07-09T09:08:31Z</time>
      </trkpt>
      <trkpt lat="42.94012" lon="0.24565">
        <ele>1312.598</ele>
        <time>2023-07-09T09:08:36Z</time>
      </trkpt>
      <trkpt lat="42.94008" lon="0.24567">
        <ele>1312.229</ele>
        <time>2023-07-09T09:08:41Z</time>
      </trkpt>
      <trkpt lat="42.94004" lon="0.24572">
        <ele>1312.131</ele>
        <time>2023-07-09T09:08:45Z</time>
      </trkpt>
      <trkpt lat="42.93999" lon="0.24574">
        <ele>1312.123</ele>
        <time>2023-07-09T09:08:49Z</time>
      </trkpt>
      <trkpt lat="42.93994" lon="0.24576">
        <ele>1312.094</ele>
        <time>2023-07-09T09:08:54Z</time>
      </trkpt>
      <trkpt lat="42.9399" lon="0.24579">
        <ele>1311.779</ele>
        <time>2023-07-09T09:08:59Z</time>
      </trkpt>
      <trkpt lat="42.93984" lon="0.24582">
        <ele>1311.705</ele>
        <time>2023-07-09T09:09:04Z</time>
      </trkpt>
      <trkpt lat="42.9398" lon="0.24585">
        <ele>1311.925</ele>
        <time>2023-07-09T09:09:09Z</time>
      </trkpt>
      <trkpt lat="42.93975" lon="0.24587">
        <ele>1312.309</ele>
        <time>2023-07-09T09:09:14Z</time>
      </trkpt>
      <trkpt lat="42.93969" lon="0.24589">
        <ele>1312.338</ele>
        <time>2023-07-09T09:09:20Z</time>
      </trkpt>
      <trkpt lat="42.93964" lon="0.24591">
        <ele>1313.141</ele>
        <time>2023-07-09T09:09:27Z</time>
      </trkpt>
      <trkpt lat="42.93957" lon="0.24592">
        <ele>1313.547</ele>
        <time>2023-07-09T09:09:32Z</time>
      </trkpt>
      <trkpt lat="42.93953" lon="0.24594">
        <ele>1313.598</ele>
        <time>2023-07-09T09:09:37Z</time>
      </trkpt>
      <trkpt lat="42.93948" lon="0.24595">
        <ele>1313.198</ele>
        <time>2023-07-09T09:09:41Z</time>
      </trkpt>
      <trkpt lat="42.93944" lon="0.24597">
        <ele>1313.089</ele>
        <time>2023-07-09T09:09:46Z</time>
      </trkpt>
      <trkpt lat="42.93939" lon="0.246">
        <ele>1313.041</ele>
        <time>2023-07-09T09:09:49Z</time>
      </trkpt>
      <trkpt lat="42.93934" lon="0.24601">
        <ele>1312.643</ele>
        <time>2023-07-09T09:09:55Z</time>
      </trkpt>
      <trkpt lat="42.93929" lon="0.24601">
        <ele>1312.694</ele>
        <time>2023-07-09T09:09:59Z</time>
      </trkpt>
      <trkpt lat="42.93924" lon="0.24601">
        <ele>1312.671</ele>
        <time>2023-07-09T09:10:04Z</time>
      </trkpt>
      <trkpt lat="42.93919" lon="0.246">
        <ele>1312.641</ele>
        <time>2023-07-09T09:10:10Z</time>
      </trkpt>
      <trkpt lat="42.93914" lon="0.24601">
        <ele>1313.115</ele>
        <time>2023-07-09T09:10:15Z</time>
      </trkpt>
      <trkpt lat="42.93909" lon="0.24599">
        <ele>1313.109</ele>
        <time>2023-07-09T09:10:20Z</time>
      </trkpt>
      <trkpt lat="42.93904" lon="0.24599">
        <ele>1313.418</ele>
        <time>2023-07-09T09:10:24Z</time>
      </trkpt>
      <trkpt lat="42.93899" lon="0.24599">
        <ele>1313.991</ele>
        <time>2023-07-09T09:10:31Z</time>
      </trkpt>
      <trkpt lat="42.93895" lon="0.24596">
        <ele>1314.017</ele>
        <time>2023-07-09T09:10:36Z</time>
      </trkpt>
      <trkpt lat="42.9389" lon="0.24596">
        <ele>1314.088</ele>
        <time>2023-07-09T09:10:41Z</time>
      </trkpt>
      <trkpt lat="42.93885" lon="0.24595">
        <ele>1314.428</ele>
        <time>2023-07-09T09:10:45Z</time>
      </trkpt>
      <trkpt lat="42.9388" lon="0.24596">
        <ele>1314.459</ele>
        <time>2023-07-09T09:10:51Z</time>
      </trkpt>
      <trkpt lat="42.93876" lon="0.24597">
        <ele>1314.431</ele>
        <time>2023-07-09T09:10:55Z</time>
      </trkpt>
      <trkpt lat="42.93871" lon="0.246">
        <ele>1314.723</ele>
        <time>2023-07-09T09:10:59Z</time>
      </trkpt>
      <trkpt lat="42.93866" lon="0.24602">
        <ele>1314.914</ele>
        <time>2023-07-09T09:11:04Z</time>
      </trkpt>
      <trkpt lat="42.93861" lon="0.24604">
        <ele>1315.613</ele>
        <time>2023-07-09T09:11:08Z</time>
      </trkpt>
      <trkpt lat="42.93857" lon="0.24606">
        <ele>1317.143</ele>
        <time>2023-07-09T09:11:13Z</time>
      </trkpt>
      <trkpt lat="42.93852" lon="0.24607">
        <ele>1317.407</ele>
        <time>2023-07-09T09:11:18Z</time>
      </trkpt>
      <trkpt lat="42.93845" lon="0.24609">
        <ele>1317.909</ele>
        <time>2023-07-09T09:11:24Z</time>
      </trkpt>
      <trkpt lat="42.9384" lon="0.2461">
        <ele>1317.532</ele>
        <time>2023-07-09T09:11:30Z</time>
      </trkpt>
      <trkpt lat="42.93835" lon="0.24609">
        <ele>1317.295</ele>
        <time>2023-07-09T09:11:35Z</time>
      </trkpt>
      <trkpt lat="42.9383" lon="0.24608">
        <ele>1317.241</ele>
        <time>2023-07-09T09:11:40Z</time>
      </trkpt>
      <trkpt lat="42.93825" lon="0.24607">
        <ele>1317.222</ele>
        <time>2023-07-09T09:11:45Z</time>
      </trkpt>
      <trkpt lat="42.93819" lon="0.24606">
        <ele>1317.332</ele>
        <time>2023-07-09T09:11:51Z</time>
      </trkpt>
      <trkpt lat="42.93814" lon="0.24604">
        <ele>1317.673</ele>
        <time>2023-07-09T09:11:57Z</time>
      </trkpt>
      <trkpt lat="42.93808" lon="0.24602">
        <ele>1318.015</ele>
        <time>2023-07-09T09:12:02Z</time>
      </trkpt>
      <trkpt lat="42.93803" lon="0.246">
        <ele>1318.147</ele>
        <time>2023-07-09T09:12:08Z</time>
      </trkpt>
      <trkpt lat="42.93798" lon="0.246">
        <ele>1318.238</ele>
        <time>2023-07-09T09:12:13Z</time>
      </trkpt>
      <trkpt lat="42.93793" lon="0.24599">
        <ele>1318.335</ele>
        <time>2023-07-09T09:12:19Z</time>
      </trkpt>
      <trkpt lat="42.9379" lon="0.24595">
        <ele>1318.586</ele>
        <time>2023-07-09T09:12:25Z</time>
      </trkpt>
      <trkpt lat="42.93785" lon="0.24593">
        <ele>1318.814</ele>
        <time>2023-07-09T09:12:29Z</time>
      </trkpt>
      <trkpt lat="42.9378" lon="0.24593">
        <ele>1318.909</ele>
        <time>2023-07-09T09:12:33Z</time>
      </trkpt>
      <trkpt lat="42.93775" lon="0.24595">
        <ele>1319.074</ele>
        <time>2023-07-09T09:12:38Z</time>
      </trkpt>
      <trkpt lat="42.93769" lon="0.24596">
        <ele>1319.457</ele>
        <time>2023-07-09T09:12:43Z</time>
      </trkpt>
      <trkpt lat="42.93764" lon="0.24595">
        <ele>1319.633</ele>
        <time>2023-07-09T09:12:48Z</time>
      </trkpt>
      <trkpt lat="42.93761" lon="0.24591">
        <ele>1319.664</ele>
        <time>2023-07-09T09:12:53Z</time>
      </trkpt>
      <trkpt lat="42.93756" lon="0.2459">
        <ele>1319.554</ele>
        <time>2023-07-09T09:12:58Z</time>
      </trkpt>
      <trkpt lat="42.9375" lon="0.2459">
        <ele>1319.545</ele>
        <time>2023-07-09T09:13:03Z</time>
      </trkpt>
      <trkpt lat="42.93746" lon="0.24586">
        <ele>1319.627</ele>
        <time>2023-07-09T09:13:09Z</time>
      </trkpt>
      <trkpt lat="42.93742" lon="0.24584">
        <ele>1320.279</ele>
        <time>2023-07-09T09:13:14Z</time>
      </trkpt>
      <trkpt lat="42.93737" lon="0.2458">
        <ele>1321.45</ele>
        <time>2023-07-09T09:13:20Z</time>
      </trkpt>
      <trkpt lat="42.93732" lon="0.24578">
        <ele>1322.098</ele>
        <time>2023-07-09T09:13:24Z</time>
      </trkpt>
      <trkpt lat="42.93727" lon="0.24576">
        <ele>1322.215</ele>
        <time>2023-07-09T09:13:30Z</time>
      </trkpt>
      <trkpt lat="42.93723" lon="0.24571">
        <ele>1323.526</ele>
        <time>2023-07-09T09:13:35Z</time>
      </trkpt>
      <trkpt lat="42.93718" lon="0.24572">
        <ele>1325.209</ele>
        <time>2023-07-09T09:13:40Z</time>
      </trkpt>
      <trkpt lat="42.93713" lon="0.24573">
        <ele>1325.99</ele>
        <time>2023-07-09T09:13:44Z</time>
      </trkpt>
      <trkpt lat="42.93708" lon="0.24576">
        <ele>1325.733</ele>
        <time>2023-07-09T09:13:49Z</time>
      </trkpt>
      <trkpt lat="42.93703" lon="0.2458">
        <ele>1325.249</ele>
        <time>2023-07-09T09:13:53Z</time>
      </trkpt>
      <trkpt lat="42.93697" lon="0.24578">
        <ele>1324.04</ele>
        <time>2023-07-09T09:13:58Z</time>
      </trkpt>
      <trkpt lat="42.93692" lon="0.24578">
        <ele>1323.83</ele>
        <time>2023-07-09T09:14:03Z</time>
      </trkpt>
      <trkpt lat="42.93688" lon="0.24579">
        <ele>1322.521</ele>
        <time>2023-07-09T09:14:08Z</time>
      </trkpt>
      <trkpt lat="42.93685" lon="0.24585">
        <ele>1321.223</ele>
        <time>2023-07-09T09:14:13Z</time>
      </trkpt>
      <trkpt lat="42.93686" lon="0.24592">
        <ele>1321.245</ele>
        <time>2023-07-09T09:14:20Z</time>
      </trkpt>
      <trkpt lat="42.93689" lon="0.24597">
        <ele>1321.256</ele>
        <time>2023-07-09T09:14:26Z</time>
      </trkpt>
      <trkpt lat="42.93692" lon="0.24602">
        <ele>1322.452</ele>
        <time>2023-07-09T09:14:31Z</time>
      </trkpt>
      <trkpt lat="42.93696" lon="0.24607">
        <ele>1324.253</ele>
        <time>2023-07-09T09:14:36Z</time>
      </trkpt>
      <trkpt lat="42.937" lon="0.24611">
        <ele>1325.008</ele>
        <time>2023-07-09T09:14:41Z</time>
      </trkpt>
      <trkpt lat="42.93704" lon="0.24615">
        <ele>1325.809</ele>
        <time>2023-07-09T09:14:46Z</time>
      </trkpt>
      <trkpt lat="42.93707" lon="0.2462">
        <ele>1326.666</ele>
        <time>2023-07-09T09:14:50Z</time>
      </trkpt>
      <trkpt lat="42.93709" lon="0.24627">
        <ele>1326.939</ele>
        <time>2023-07-09T09:14:55Z</time>
      </trkpt>
      <trkpt lat="42.93711" lon="0.24633">
        <ele>1327.145</ele>
        <time>2023-07-09T09:14:59Z</time>
      </trkpt>
      <trkpt lat="42.93714" lon="0.2464">
        <ele>1327.566</ele>
        <time>2023-07-09T09:15:05Z</time>
      </trkpt>
      <trkpt lat="42.93716" lon="0.24646">
        <ele>1328.086</ele>
        <time>2023-07-09T09:15:09Z</time>
      </trkpt>
      <trkpt lat="42.93716" lon="0.24652">
        <ele>1328.957</ele>
        <time>2023-07-09T09:15:15Z</time>
      </trkpt>
      <trkpt lat="42.93716" lon="0.24659">
        <ele>1329.569</ele>
        <time>2023-07-09T09:15:20Z</time>
      </trkpt>
      <trkpt lat="42.93716" lon="0.24666">
        <ele>1329.891</ele>
        <time>2023-07-09T09:15:25Z</time>
      </trkpt>
      <trkpt lat="42.93718" lon="0.24674">
        <ele>1330.312</ele>
        <time>2023-07-09T09:15:31Z</time>
      </trkpt>
      <trkpt lat="42.93717" lon="0.2468">
        <ele>1330.885</ele>
        <time>2023-07-09T09:15:37Z</time>
      </trkpt>
      <trkpt lat="42.93718" lon="0.24687">
        <ele>1330.589</ele>
        <time>2023-07-09T09:15:43Z</time>
      </trkpt>
      <trkpt lat="42.9372" lon="0.24692">
        <ele>1331.017</ele>
        <time>2023-07-09T09:15:47Z</time>
      </trkpt>
      <trkpt lat="42.9372" lon="0.247">
        <ele>1331.209</ele>
        <time>2023-07-09T09:15:53Z</time>
      </trkpt>
      <trkpt lat="42.93721" lon="0.24707">
        <ele>1331.349</ele>
        <time>2023-07-09T09:15:58Z</time>
      </trkpt>
      <trkpt lat="42.9372" lon="0.24713">
        <ele>1331.392</ele>
        <time>2023-07-09T09:16:03Z</time>
      </trkpt>
      <trkpt lat="42.93719" lon="0.24719">
        <ele>1331.798</ele>
        <time>2023-07-09T09:16:08Z</time>
      </trkpt>
      <trkpt lat="42.93717" lon="0.24726">
        <ele>1332.069</ele>
        <time>2023-07-09T09:16:13Z</time>
      </trkpt>
      <trkpt lat="42.93716" lon="0.24733">
        <ele>1332.299</ele>
        <time>2023-07-09T09:16:19Z</time>
      </trkpt>
      <trkpt lat="42.93715" lon="0.2474">
        <ele>1332.65</ele>
        <time>2023-07-09T09:16:25Z</time>
      </trkpt>
      <trkpt lat="42.93715" lon="0.24747">
        <ele>1333.072</ele>
        <time>2023-07-09T09:16:30Z</time>
      </trkpt>
      <trkpt lat="42.93716" lon="0.24753">
        <ele>1333.114</ele>
        <time>2023-07-09T09:16:35Z</time>
      </trkpt>
      <trkpt lat="42.93718" lon="0.24759">
        <ele>1333.535</ele>
        <time>2023-07-09T09:16:42Z</time>
      </trkpt>
      <trkpt lat="42.9372" lon="0.24765">
        <ele>1334.315</ele>
        <time>2023-07-09T09:16:46Z</time>
      </trkpt>
      <trkpt lat="42.93723" lon="0.24771">
        <ele>1334.965</ele>
        <time>2023-07-09T09:16:51Z</time>
      </trkpt>
      <trkpt lat="42.93726" lon="0.24775">
        <ele>1335.111</ele>
        <time>2023-07-09T09:16:55Z</time>
      </trkpt>
      <trkpt lat="42.93728" lon="0.24782">
        <ele>1335.109</ele>
        <time>2023-07-09T09:17:00Z</time>
      </trkpt>
      <trkpt lat="42.9373" lon="0.24788">
        <ele>1335.232</ele>
        <time>2023-07-09T09:17:04Z</time>
      </trkpt>
      <trkpt lat="42.93733" lon="0.24793">
        <ele>1335.265</ele>
        <time>2023-07-09T09:17:10Z</time>
      </trkpt>
      <trkpt lat="42.93734" lon="0.248">
        <ele>1335.311</ele>
        <time>2023-07-09T09:17:16Z</time>
      </trkpt>
      <trkpt lat="42.93736" lon="0.24806">
        <ele>1335.312</ele>
        <time>2023-07-09T09:17:21Z</time>
      </trkpt>
      <trkpt lat="42.93737" lon="0.24812">
        <ele>1335.662</ele>
        <time>2023-07-09T09:17:26Z</time>
      </trkpt>
      <trkpt lat="42.93737" lon="0.2482">
        <ele>1336.073</ele>
        <time>2023-07-09T09:17:32Z</time>
      </trkpt>
      <trkpt lat="42.93737" lon="0.24826">
        <ele>1336.415</ele>
        <time>2023-07-09T09:17:37Z</time>
      </trkpt>
      <trkpt lat="42.93736" lon="0.24833">
        <ele>1337.577</ele>
        <time>2023-07-09T09:17:42Z</time>
      </trkpt>
      <trkpt lat="42.93733" lon="0.24839">
        <ele>1338.668</ele>
        <time>2023-07-09T09:17:46Z</time>
      </trkpt>
      <trkpt lat="42.93731" lon="0.24845">
        <ele>1338.977</ele>
        <time>2023-07-09T09:17:51Z</time>
      </trkpt>
      <trkpt lat="42.93729" lon="0.24852">
        <ele>1338.961</ele>
        <time>2023-07-09T09:17:57Z</time>
      </trkpt>
      <trkpt lat="42.93728" lon="0.24858">
        <ele>1339.327</ele>
        <time>2023-07-09T09:18:00Z</time>
      </trkpt>
      <trkpt lat="42.93728" lon="0.24865">
        <ele>1339.809</ele>
        <time>2023-07-09T09:18:07Z</time>
      </trkpt>
      <trkpt lat="42.93729" lon="0.24871">
        <ele>1340.248</ele>
        <time>2023-07-09T09:18:11Z</time>
      </trkpt>
      <trkpt lat="42.93733" lon="0.24876">
        <ele>1340.221</ele>
        <time>2023-07-09T09:18:18Z</time>
      </trkpt>
      <trkpt lat="42.93735" lon="0.24883">
        <ele>1340.127</ele>
        <time>2023-07-09T09:18:23Z</time>
      </trkpt>
      <trkpt lat="42.93738" lon="0.24888">
        <ele>1340.128</ele>
        <time>2023-07-09T09:18:28Z</time>
      </trkpt>
      <trkpt lat="42.93739" lon="0.24894">
        <ele>1339.948</ele>
        <time>2023-07-09T09:18:34Z</time>
      </trkpt>
      <trkpt lat="42.93743" lon="0.249">
        <ele>1339.729</ele>
        <time>2023-07-09T09:18:39Z</time>
      </trkpt>
      <trkpt lat="42.93744" lon="0.24906">
        <ele>1339.681</ele>
        <time>2023-07-09T09:18:46Z</time>
      </trkpt>
      <trkpt lat="42.93746" lon="0.24912">
        <ele>1339.653</ele>
        <time>2023-07-09T09:18:51Z</time>
      </trkpt>
      <trkpt lat="42.93748" lon="0.24919">
        <ele>1339.764</ele>
        <time>2023-07-09T09:18:54Z</time>
      </trkpt>
      <trkpt lat="42.93751" lon="0.24923">
        <ele>1339.821</ele>
        <time>2023-07-09T09:19:01Z</time>
      </trkpt>
      <trkpt lat="42.93756" lon="0.24928">
        <ele>1340.241</ele>
        <time>2023-07-09T09:19:05Z</time>
      </trkpt>
      <trkpt lat="42.93759" lon="0.24933">
        <ele>1340.605</ele>
        <time>2023-07-09T09:19:10Z</time>
      </trkpt>
      <trkpt lat="42.93762" lon="0.24939">
        <ele>1341.509</ele>
        <time>2023-07-09T09:19:16Z</time>
      </trkpt>
      <trkpt lat="42.93763" lon="0.24945">
        <ele>1342.833</ele>
        <time>2023-07-09T09:19:21Z</time>
      </trkpt>
      <trkpt lat="42.93766" lon="0.24952">
        <ele>1344.116</ele>
        <time>2023-07-09T09:19:28Z</time>
      </trkpt>
      <trkpt lat="42.9377" lon="0.24957">
        <ele>1344.962</ele>
        <time>2023-07-09T09:19:33Z</time>
      </trkpt>
      <trkpt lat="42.93772" lon="0.24963">
        <ele>1345.353</ele>
        <time>2023-07-09T09:19:38Z</time>
      </trkpt>
      <trkpt lat="42.93775" lon="0.24968">
        <ele>1345.863</ele>
        <time>2023-07-09T09:19:42Z</time>
      </trkpt>
      <trkpt lat="42.93778" lon="0.24972">
        <ele>1346.324</ele>
        <time>2023-07-09T09:19:47Z</time>
      </trkpt>
      <trkpt lat="42.93781" lon="0.24979">
        <ele>1346.566</ele>
        <time>2023-07-09T09:19:52Z</time>
      </trkpt>
      <trkpt lat="42.93784" lon="0.24985">
        <ele>1346.768</ele>
        <time>2023-07-09T09:19:57Z</time>
      </trkpt>
      <trkpt lat="42.93786" lon="0.24991">
        <ele>1347.299</ele>
        <time>2023-07-09T09:20:03Z</time>
      </trkpt>
      <trkpt lat="42.93788" lon="0.24998">
        <ele>1347.865</ele>
        <time>2023-07-09T09:20:09Z</time>
      </trkpt>
      <trkpt lat="42.93789" lon="0.25004">
        <ele>1348.168</ele>
        <time>2023-07-09T09:20:15Z</time>
      </trkpt>
      <trkpt lat="42.93791" lon="0.2501">
        <ele>1348.314</ele>
        <time>2023-07-09T09:20:19Z</time>
      </trkpt>
      <trkpt lat="42.93789" lon="0.25016">
        <ele>1348.309</ele>
        <time>2023-07-09T09:20:26Z</time>
      </trkpt>
      <trkpt lat="42.93784" lon="0.25018">
        <ele>1347.967</ele>
        <time>2023-07-09T09:20:32Z</time>
      </trkpt>
      <trkpt lat="42.9378" lon="0.25015">
        <ele>1347.89</ele>
        <time>2023-07-09T09:20:39Z</time>
      </trkpt>
      <trkpt lat="42.93776" lon="0.25011">
        <ele>1347.436</ele>
        <time>2023-07-09T09:20:44Z</time>
      </trkpt>
      <trkpt lat="42.93772" lon="0.25008">
        <ele>1347.467</ele>
        <time>2023-07-09T09:20:49Z</time>
      </trkpt>
      <trkpt lat="42.93767" lon="0.25006">
        <ele>1347.467</ele>
        <time>2023-07-09T09:20:54Z</time>
      </trkpt>
      <trkpt lat="42.93763" lon="0.25003">
        <ele>1347.428</ele>
        <time>2023-07-09T09:20:59Z</time>
      </trkpt>
      <trkpt lat="42.93758" lon="0.25001">
        <ele>1347.32</ele>
        <time>2023-07-09T09:21:04Z</time>
      </trkpt>
      <trkpt lat="42.93753" lon="0.24998">
        <ele>1347.572</ele>
        <time>2023-07-09T09:21:09Z</time>
      </trkpt>
      <trkpt lat="42.93749" lon="0.24995">
        <ele>1347.853</ele>
        <time>2023-07-09T09:21:13Z</time>
      </trkpt>
      <trkpt lat="42.93744" lon="0.24993">
        <ele>1348.128</ele>
        <time>2023-07-09T09:21:19Z</time>
      </trkpt>
      <trkpt lat="42.93739" lon="0.24992">
        <ele>1348.589</ele>
        <time>2023-07-09T09:21:24Z</time>
      </trkpt>
      <trkpt lat="42.93733" lon="0.24991">
        <ele>1348.717</ele>
        <time>2023-07-09T09:21:29Z</time>
      </trkpt>
      <trkpt lat="42.93728" lon="0.24989">
        <ele>1348.809</ele>
        <time>2023-07-09T09:21:34Z</time>
      </trkpt>
      <trkpt lat="42.93723" lon="0.24989">
        <ele>1349.053</ele>
        <time>2023-07-09T09:21:37Z</time>
      </trkpt>
      <trkpt lat="42.93718" lon="0.24987">
        <ele>1349.256</ele>
        <time>2023-07-09T09:21:43Z</time>
      </trkpt>
      <trkpt lat="42.93713" lon="0.24987">
        <ele>1349.672</ele>
        <time>2023-07-09T09:21:49Z</time>
      </trkpt>
      <trkpt lat="42.93708" lon="0.24986">
        <ele>1350.773</ele>
        <time>2023-07-09T09:21:52Z</time>
      </trkpt>
      <trkpt lat="42.93703" lon="0.24983">
        <ele>1350.923</ele>
        <time>2023-07-09T09:21:57Z</time>
      </trkpt>
      <trkpt lat="42.93698" lon="0.24982">
        <ele>1350.914</ele>
        <time>2023-07-09T09:22:01Z</time>
      </trkpt>
      <trkpt lat="42.93694" lon="0.24979">
        <ele>1351.036</ele>
        <time>2023-07-09T09:22:07Z</time>
      </trkpt>
      <trkpt lat="42.93689" lon="0.24978">
        <ele>1350.688</ele>
        <time>2023-07-09T09:22:12Z</time>
      </trkpt>
      <trkpt lat="42.93684" lon="0.24979">
        <ele>1350.659</ele>
        <time>2023-07-09T09:22:17Z</time>
      </trkpt>
      <trkpt lat="42.9368" lon="0.24976">
        <ele>1350.611</ele>
        <time>2023-07-09T09:22:22Z</time>
      </trkpt>
      <trkpt lat="42.93674" lon="0.24977">
        <ele>1350.721</ele>
        <time>2023-07-09T09:22:26Z</time>
      </trkpt>
      <trkpt lat="42.93669" lon="0.24977">
        <ele>1351.103</ele>
        <time>2023-07-09T09:22:31Z</time>
      </trkpt>
      <trkpt lat="42.93664" lon="0.24975">
        <ele>1351.809</ele>
        <time>2023-07-09T09:22:35Z</time>
      </trkpt>
      <trkpt lat="42.93658" lon="0.24972">
        <ele>1352.142</ele>
        <time>2023-07-09T09:22:41Z</time>
      </trkpt>
      <trkpt lat="42.93653" lon="0.24971">
        <ele>1351.995</ele>
        <time>2023-07-09T09:22:45Z</time>
      </trkpt>
      <trkpt lat="42.93648" lon="0.24969">
        <ele>1351.891</ele>
        <time>2023-07-09T09:22:50Z</time>
      </trkpt>
      <trkpt lat="42.93643" lon="0.2497">
        <ele>1351.832</ele>
        <time>2023-07-09T09:22:55Z</time>
      </trkpt>
      <trkpt lat="42.93638" lon="0.24971">
        <ele>1351.962</ele>
        <time>2023-07-09T09:23:00Z</time>
      </trkpt>
      <trkpt lat="42.93634" lon="0.24968">
        <ele>1352.313</ele>
        <time>2023-07-09T09:23:03Z</time>
      </trkpt>
      <trkpt lat="42.93629" lon="0.24967">
        <ele>1353.085</ele>
        <time>2023-07-09T09:23:06Z</time>
      </trkpt>
      <trkpt lat="42.93625" lon="0.24965">
        <ele>1353.277</ele>
        <time>2023-07-09T09:23:12Z</time>
      </trkpt>
      <trkpt lat="42.9362" lon="0.24962">
        <ele>1353.998</ele>
        <time>2023-07-09T09:23:17Z</time>
      </trkpt>
      <trkpt lat="42.93615" lon="0.24964">
        <ele>1354.749</ele>
        <time>2023-07-09T09:23:22Z</time>
      </trkpt>
      <trkpt lat="42.93609" lon="0.24962">
        <ele>1355.002</ele>
        <time>2023-07-09T09:23:28Z</time>
      </trkpt>
      <trkpt lat="42.93604" lon="0.24963">
        <ele>1355.022</ele>
        <time>2023-07-09T09:23:32Z</time>
      </trkpt>
      <trkpt lat="42.93599" lon="0.24963">
        <ele>1354.709</ele>
        <time>2023-07-09T09:23:36Z</time>
      </trkpt>
      <trkpt lat="42.93595" lon="0.2496">
        <ele>1355.045</ele>
        <time>2023-07-09T09:23:41Z</time>
      </trkpt>
      <trkpt lat="42.93589" lon="0.2496">
        <ele>1354.688</ele>
        <time>2023-07-09T09:23:46Z</time>
      </trkpt>
      <trkpt lat="42.93584" lon="0.24959">
        <ele>1354.914</ele>
        <time>2023-07-09T09:23:52Z</time>
      </trkpt>
      <trkpt lat="42.93579" lon="0.24959">
        <ele>1354.435</ele>
        <time>2023-07-09T09:23:56Z</time>
      </trkpt>
      <trkpt lat="42.93574" lon="0.24955">
        <ele>1354.795</ele>
        <time>2023-07-09T09:24:03Z</time>
      </trkpt>
      <trkpt lat="42.9357" lon="0.24956">
        <ele>1354.786</ele>
        <time>2023-07-09T09:24:06Z</time>
      </trkpt>
      <trkpt lat="42.93564" lon="0.24952">
        <ele>1354.578</ele>
        <time>2023-07-09T09:24:13Z</time>
      </trkpt>
      <trkpt lat="42.93559" lon="0.24952">
        <ele>1354.55</ele>
        <time>2023-07-09T09:24:16Z</time>
      </trkpt>
      <trkpt lat="42.93555" lon="0.24951">
        <ele>1354.581</ele>
        <time>2023-07-09T09:24:20Z</time>
      </trkpt>
      <trkpt lat="42.9355" lon="0.24953">
        <ele>1354.556</ele>
        <time>2023-07-09T09:24:24Z</time>
      </trkpt>
      <trkpt lat="42.93545" lon="0.24951">
        <ele>1354.359</ele>
        <time>2023-07-09T09:24:31Z</time>
      </trkpt>
      <trkpt lat="42.93541" lon="0.24951">
        <ele>1354.314</ele>
        <time>2023-07-09T09:24:34Z</time>
      </trkpt>
      <trkpt lat="42.93536" lon="0.24952">
        <ele>1354.309</ele>
        <time>2023-07-09T09:24:38Z</time>
      </trkpt>
      <trkpt lat="42.9353" lon="0.24951">
        <ele>1354.516</ele>
        <time>2023-07-09T09:24:44Z</time>
      </trkpt>
      <trkpt lat="42.93524" lon="0.24948">
        <ele>1354.299</ele>
        <time>2023-07-09T09:24:51Z</time>
      </trkpt>
      <trkpt lat="42.93517" lon="0.24947">
        <ele>1354.595</ele>
        <time>2023-07-09T09:24:57Z</time>
      </trkpt>
      <trkpt lat="42.93511" lon="0.2495">
        <ele>1354.516</ele>
        <time>2023-07-09T09:25:02Z</time>
      </trkpt>
      <trkpt lat="42.93507" lon="0.24953">
        <ele>1354.066</ele>
        <time>2023-07-09T09:25:07Z</time>
      </trkpt>
      <trkpt lat="42.93502" lon="0.24954">
        <ele>1354.067</ele>
        <time>2023-07-09T09:25:12Z</time>
      </trkpt>
      <trkpt lat="42.93498" lon="0.24953">
        <ele>1353.939</ele>
        <time>2023-07-09T09:25:17Z</time>
      </trkpt>
      <trkpt lat="42.93493" lon="0.24951">
        <ele>1353.991</ele>
        <time>2023-07-09T09:25:21Z</time>
      </trkpt>
      <trkpt lat="42.93488" lon="0.2495">
        <ele>1353.182</ele>
        <time>2023-07-09T09:25:24Z</time>
      </trkpt>
      <trkpt lat="42.93482" lon="0.2495">
        <ele>1353.027</ele>
        <time>2023-07-09T09:25:31Z</time>
      </trkpt>
      <trkpt lat="42.93477" lon="0.2495">
        <ele>1352.168</ele>
        <time>2023-07-09T09:25:36Z</time>
      </trkpt>
      <trkpt lat="42.93472" lon="0.24949">
        <ele>1351.614</ele>
        <time>2023-07-09T09:25:40Z</time>
      </trkpt>
      <trkpt lat="42.93467" lon="0.24949">
        <ele>1350.909</ele>
        <time>2023-07-09T09:25:45Z</time>
      </trkpt>
      <trkpt lat="42.93462" lon="0.2495">
        <ele>1350.633</ele>
        <time>2023-07-09T09:25:49Z</time>
      </trkpt>
      <trkpt lat="42.93458" lon="0.24948">
        <ele>1350.636</ele>
        <time>2023-07-09T09:25:52Z</time>
      </trkpt>
      <trkpt lat="42.93452" lon="0.24948">
        <ele>1350.892</ele>
        <time>2023-07-09T09:25:57Z</time>
      </trkpt>
      <trkpt lat="42.93448" lon="0.24946">
        <ele>1350.863</ele>
        <time>2023-07-09T09:26:02Z</time>
      </trkpt>
      <trkpt lat="42.93443" lon="0.24943">
        <ele>1351.133</ele>
        <time>2023-07-09T09:26:06Z</time>
      </trkpt>
      <trkpt lat="42.93438" lon="0.24942">
        <ele>1351.254</ele>
        <time>2023-07-09T09:26:10Z</time>
      </trkpt>
      <trkpt lat="42.93432" lon="0.24941">
        <ele>1351.276</ele>
        <time>2023-07-09T09:26:16Z</time>
      </trkpt>
      <trkpt lat="42.93427" lon="0.24939">
        <ele>1351.138</ele>
        <time>2023-07-09T09:26:21Z</time>
      </trkpt>
      <trkpt lat="42.93423" lon="0.24942">
        <ele>1351.199</ele>
        <time>2023-07-09T09:26:25Z</time>
      </trkpt>
      <trkpt lat="42.93419" lon="0.24938">
        <ele>1351.214</ele>
        <time>2023-07-09T09:26:30Z</time>
      </trkpt>
      <trkpt lat="42.93415" lon="0.24935">
        <ele>1350.954</ele>
        <time>2023-07-09T09:26:35Z</time>
      </trkpt>
      <trkpt lat="42.9341" lon="0.24935">
        <ele>1350.709</ele>
        <time>2023-07-09T09:26:38Z</time>
      </trkpt>
      <trkpt lat="42.93405" lon="0.24933">
        <ele>1350.409</ele>
        <time>2023-07-09T09:26:42Z</time>
      </trkpt>
      <trkpt lat="42.934" lon="0.24933">
        <ele>1349.852</ele>
        <time>2023-07-09T09:26:47Z</time>
      </trkpt>
      <trkpt lat="42.93395" lon="0.24929">
        <ele>1349.645</ele>
        <time>2023-07-09T09:26:51Z</time>
      </trkpt>
      <trkpt lat="42.9339" lon="0.24927">
        <ele>1349.591</ele>
        <time>2023-07-09T09:26:56Z</time>
      </trkpt>
      <trkpt lat="42.93384" lon="0.24926">
        <ele>1349.532</ele>
        <time>2023-07-09T09:27:00Z</time>
      </trkpt>
      <trkpt lat="42.9338" lon="0.24923">
        <ele>1349.472</ele>
        <time>2023-07-09T09:27:06Z</time>
      </trkpt>
      <trkpt lat="42.93375" lon="0.2492">
        <ele>1349.683</ele>
        <time>2023-07-09T09:27:11Z</time>
      </trkpt>
      <trkpt lat="42.9337" lon="0.24919">
        <ele>1349.695</ele>
        <time>2023-07-09T09:27:15Z</time>
      </trkpt>
      <trkpt lat="42.93365" lon="0.24917">
        <ele>1349.467</ele>
        <time>2023-07-09T09:27:20Z</time>
      </trkpt>
      <trkpt lat="42.93359" lon="0.24915">
        <ele>1349.298</ele>
        <time>2023-07-09T09:27:25Z</time>
      </trkpt>
      <trkpt lat="42.93355" lon="0.2491">
        <ele>1348.778</ele>
        <time>2023-07-09T09:27:31Z</time>
      </trkpt>
      <trkpt lat="42.9335" lon="0.24909">
        <ele>1348.033</ele>
        <time>2023-07-09T09:27:36Z</time>
      </trkpt>
      <trkpt lat="42.93345" lon="0.24905">
        <ele>1347.426</ele>
        <time>2023-07-09T09:27:40Z</time>
      </trkpt>
      <trkpt lat="42.93341" lon="0.24899">
        <ele>1346.909</ele>
        <time>2023-07-09T09:27:46Z</time>
      </trkpt>
      <trkpt lat="42.93337" lon="0.24895">
        <ele>1346.968</ele>
        <time>2023-07-09T09:27:49Z</time>
      </trkpt>
      <trkpt lat="42.93333" lon="0.24891">
        <ele>1346.921</ele>
        <time>2023-07-09T09:27:55Z</time>
      </trkpt>
      <trkpt lat="42.93329" lon="0.24887">
        <ele>1346.967</ele>
        <time>2023-07-09T09:27:59Z</time>
      </trkpt>
      <trkpt lat="42.93325" lon="0.24884">
        <ele>1346.828</ele>
        <time>2023-07-09T09:28:04Z</time>
      </trkpt>
      <trkpt lat="42.93321" lon="0.2488">
        <ele>1346.898</ele>
        <time>2023-07-09T09:28:09Z</time>
      </trkpt>
      <trkpt lat="42.93318" lon="0.24875">
        <ele>1346.669</ele>
        <time>2023-07-09T09:28:13Z</time>
      </trkpt>
      <trkpt lat="42.93314" lon="0.24872">
        <ele>1346.281</ele>
        <time>2023-07-09T09:28:17Z</time>
      </trkpt>
      <trkpt lat="42.93309" lon="0.24869">
        <ele>1346.213</ele>
        <time>2023-07-09T09:28:22Z</time>
      </trkpt>
      <trkpt lat="42.93305" lon="0.24863">
        <ele>1346.214</ele>
        <time>2023-07-09T09:28:26Z</time>
      </trkpt>
      <trkpt lat="42.933" lon="0.24859">
        <ele>1346.257</ele>
        <time>2023-07-09T09:28:33Z</time>
      </trkpt>
      <trkpt lat="42.93296" lon="0.24855">
        <ele>1346.2</ele>
        <time>2023-07-09T09:28:37Z</time>
      </trkpt>
      <trkpt lat="42.93292" lon="0.24851">
        <ele>1346.32</ele>
        <time>2023-07-09T09:28:40Z</time>
      </trkpt>
      <trkpt lat="42.93288" lon="0.24846">
        <ele>1346.509</ele>
        <time>2023-07-09T09:28:48Z</time>
      </trkpt>
      <trkpt lat="42.93285" lon="0.24841">
        <ele>1346.716</ele>
        <time>2023-07-09T09:28:53Z</time>
      </trkpt>
      <trkpt lat="42.9328" lon="0.24836">
        <ele>1346.799</ele>
        <time>2023-07-09T09:28:57Z</time>
      </trkpt>
      <trkpt lat="42.93276" lon="0.24831">
        <ele>1347.285</ele>
        <time>2023-07-09T09:29:02Z</time>
      </trkpt>
      <trkpt lat="42.93272" lon="0.24829">
        <ele>1347.656</ele>
        <time>2023-07-09T09:29:06Z</time>
      </trkpt>
      <trkpt lat="42.93268" lon="0.24826">
        <ele>1347.766</ele>
        <time>2023-07-09T09:29:10Z</time>
      </trkpt>
      <trkpt lat="42.93265" lon="0.24822">
        <ele>1347.677</ele>
        <time>2023-07-09T09:29:14Z</time>
      </trkpt>
      <trkpt lat="42.9326" lon="0.24817">
        <ele>1347.389</ele>
        <time>2023-07-09T09:29:19Z</time>
      </trkpt>
      <trkpt lat="42.93256" lon="0.24814">
        <ele>1347.351</ele>
        <time>2023-07-09T09:29:23Z</time>
      </trkpt>
      <trkpt lat="42.93252" lon="0.2481">
        <ele>1347.052</ele>
        <time>2023-07-09T09:29:28Z</time>
      </trkpt>
      <trkpt lat="42.93247" lon="0.24806">
        <ele>1346.938</ele>
        <time>2023-07-09T09:29:33Z</time>
      </trkpt>
      <trkpt lat="42.93243" lon="0.24802">
        <ele>1346.47</ele>
        <time>2023-07-09T09:29:38Z</time>
      </trkpt>
      <trkpt lat="42.9324" lon="0.24797">
        <ele>1345.517</ele>
        <time>2023-07-09T09:29:42Z</time>
      </trkpt>
      <trkpt lat="42.93236" lon="0.24792">
        <ele>1344.909</ele>
        <time>2023-07-09T09:29:46Z</time>
      </trkpt>
      <trkpt lat="42.93232" lon="0.24789">
        <ele>1344.714</ele>
        <time>2023-07-09T09:29:50Z</time>
      </trkpt>
      <trkpt lat="42.93228" lon="0.24785">
        <ele>1344.627</ele>
        <time>2023-07-09T09:29:56Z</time>
      </trkpt>
      <trkpt lat="42.93223" lon="0.24783">
        <ele>1344.683</ele>
        <time>2023-07-09T09:30:00Z</time>
      </trkpt>
      <trkpt lat="42.9322" lon="0.24779">
        <ele>1344.644</ele>
        <time>2023-07-09T09:30:04Z</time>
      </trkpt>
      <trkpt lat="42.93216" lon="0.24773">
        <ele>1344.294</ele>
        <time>2023-07-09T09:30:08Z</time>
      </trkpt>
      <trkpt lat="42.93212" lon="0.2477">
        <ele>1344.275</ele>
        <time>2023-07-09T09:30:13Z</time>
      </trkpt>
      <trkpt lat="42.93207" lon="0.24766">
        <ele>1343.857</ele>
        <time>2023-07-09T09:30:20Z</time>
      </trkpt>
      <trkpt lat="42.93203" lon="0.24763">
        <ele>1343.899</ele>
        <time>2023-07-09T09:30:25Z</time>
      </trkpt>
      <trkpt lat="42.93199" lon="0.24759">
        <ele>1343.77</ele>
        <time>2023-07-09T09:30:29Z</time>
      </trkpt>
      <trkpt lat="42.93196" lon="0.24754">
        <ele>1343.841</ele>
        <time>2023-07-09T09:30:32Z</time>
      </trkpt>
      <trkpt lat="42.93193" lon="0.24748">
        <ele>1344.081</ele>
        <time>2023-07-09T09:30:38Z</time>
      </trkpt>
      <trkpt lat="42.9319" lon="0.24743">
        <ele>1344.109</ele>
        <time>2023-07-09T09:30:43Z</time>
      </trkpt>
      <trkpt lat="42.93187" lon="0.24737">
        <ele>1344.309</ele>
        <time>2023-07-09T09:30:48Z</time>
      </trkpt>
      <trkpt lat="42.93184" lon="0.24731">
        <ele>1344.395</ele>
        <time>2023-07-09T09:30:53Z</time>
      </trkpt>
      <trkpt lat="42.9318" lon="0.24726">
        <ele>1345.078</ele>
        <time>2023-07-09T09:30:58Z</time>
      </trkpt>
      <trkpt lat="42.93176" lon="0.24722">
        <ele>1346.194</ele>
        <time>2023-07-09T09:31:02Z</time>
      </trkpt>
      <trkpt lat="42.9317" lon="0.24718">
        <ele>1346.785</ele>
        <time>2023-07-09T09:31:07Z</time>
      </trkpt>
      <trkpt lat="42.93166" lon="0.24715">
        <ele>1346.795</ele>
        <time>2023-07-09T09:31:13Z</time>
      </trkpt>
      <trkpt lat="42.93162" lon="0.24712">
        <ele>1346.796</ele>
        <time>2023-07-09T09:31:16Z</time>
      </trkpt>
      <trkpt lat="42.93156" lon="0.24709">
        <ele>1347.018</ele>
        <time>2023-07-09T09:31:22Z</time>
      </trkpt>
      <trkpt lat="42.93152" lon="0.24707">
        <ele>1346.77</ele>
        <time>2023-07-09T09:31:27Z</time>
      </trkpt>
      <trkpt lat="42.93149" lon="0.24703">
        <ele>1346.691</ele>
        <time>2023-07-09T09:31:31Z</time>
      </trkpt>
      <trkpt lat="42.93145" lon="0.24697">
        <ele>1346.683</ele>
        <time>2023-07-09T09:31:35Z</time>
      </trkpt>
      <trkpt lat="42.93141" lon="0.24694">
        <ele>1346.825</ele>
        <time>2023-07-09T09:31:39Z</time>
      </trkpt>
      <trkpt lat="42.93137" lon="0.24689">
        <ele>1346.917</ele>
        <time>2023-07-09T09:31:43Z</time>
      </trkpt>
      <trkpt lat="42.93134" lon="0.24684">
        <ele>1346.609</ele>
        <time>2023-07-09T09:31:47Z</time>
      </trkpt>
      <trkpt lat="42.93129" lon="0.24683">
        <ele>1346.989</ele>
        <time>2023-07-09T09:31:52Z</time>
      </trkpt>
      <trkpt lat="42.93126" lon="0.24677">
        <ele>1347.042</ele>
        <time>2023-07-09T09:31:57Z</time>
      </trkpt>
      <trkpt lat="42.93123" lon="0.24672">
        <ele>1347.288</ele>
        <time>2023-07-09T09:32:00Z</time>
      </trkpt>
      <trkpt lat="42.93119" lon="0.24668">
        <ele>1347.289</ele>
        <time>2023-07-09T09:32:04Z</time>
      </trkpt>
      <trkpt lat="42.93115" lon="0.24665">
        <ele>1347.239</ele>
        <time>2023-07-09T09:32:10Z</time>
      </trkpt>
      <trkpt lat="42.93112" lon="0.24659">
        <ele>1347.45</ele>
        <time>2023-07-09T09:32:14Z</time>
      </trkpt>
      <trkpt lat="42.93108" lon="0.24654">
        <ele>1347.432</ele>
        <time>2023-07-09T09:32:19Z</time>
      </trkpt>
      <trkpt lat="42.93104" lon="0.2465">
        <ele>1347.634</ele>
        <time>2023-07-09T09:32:23Z</time>
      </trkpt>
      <trkpt lat="42.931" lon="0.24647">
        <ele>1347.625</ele>
        <time>2023-07-09T09:32:28Z</time>
      </trkpt>
      <trkpt lat="42.93095" lon="0.24642">
        <ele>1347.886</ele>
        <time>2023-07-09T09:32:33Z</time>
      </trkpt>
      <trkpt lat="42.93091" lon="0.24639">
        <ele>1348.16</ele>
        <time>2023-07-09T09:32:37Z</time>
      </trkpt>
      <trkpt lat="42.93087" lon="0.24632">
        <ele>1348.226</ele>
        <time>2023-07-09T09:32:42Z</time>
      </trkpt>
      <trkpt lat="42.93082" lon="0.24631">
        <ele>1348.309</ele>
        <time>2023-07-09T09:35:38Z</time>
      </trkpt>
      <trkpt lat="42.93079" lon="0.24627">
        <ele>1348.339</ele>
        <time>2023-07-09T09:36:03Z</time>
      </trkpt>
      <trkpt lat="42.93077" lon="0.24621">
        <ele>1348.362</ele>
        <time>2023-07-09T09:36:07Z</time>
      </trkpt>
      <trkpt lat="42.93073" lon="0.24617">
        <ele>1348.988</ele>
        <time>2023-07-09T09:36:15Z</time>
      </trkpt>
      <trkpt lat="42.9307" lon="0.24611">
        <ele>1349.349</ele>
        <time>2023-07-09T09:36:20Z</time>
      </trkpt>
      <trkpt lat="42.93071" lon="0.24604">
        <ele>1349.589</ele>
        <time>2023-07-09T09:36:33Z</time>
      </trkpt>
      <trkpt lat="42.93068" lon="0.24598">
        <ele>1350.14</ele>
        <time>2023-07-09T09:36:39Z</time>
      </trkpt>
      <trkpt lat="42.93066" lon="0.24592">
        <ele>1350.992</ele>
        <time>2023-07-09T09:36:46Z</time>
      </trkpt>
      <trkpt lat="42.93062" lon="0.24588">
        <ele>1351.464</ele>
        <time>2023-07-09T09:36:51Z</time>
      </trkpt>
      <trkpt lat="42.9306" lon="0.24582">
        <ele>1352.045</ele>
        <time>2023-07-09T09:37:00Z</time>
      </trkpt>
      <trkpt lat="42.93057" lon="0.24577">
        <ele>1353.076</ele>
        <time>2023-07-09T09:37:05Z</time>
      </trkpt>
      <trkpt lat="42.93054" lon="0.24571">
        <ele>1353.79</ele>
        <time>2023-07-09T09:37:13Z</time>
      </trkpt>
      <trkpt lat="42.93054" lon="0.24564">
        <ele>1354.419</ele>
        <time>2023-07-09T09:37:20Z</time>
      </trkpt>
      <trkpt lat="42.93051" lon="0.24559">
        <ele>1355.509</ele>
        <time>2023-07-09T09:37:27Z</time>
      </trkpt>
      <trkpt lat="42.93047" lon="0.24555">
        <ele>1357.058</ele>
        <time>2023-07-09T09:37:36Z</time>
      </trkpt>
      <trkpt lat="42.93044" lon="0.2455">
        <ele>1358.571</ele>
        <time>2023-07-09T09:37:43Z</time>
      </trkpt>
      <trkpt lat="42.93041" lon="0.24544">
        <ele>1359.167</ele>
        <time>2023-07-09T09:37:50Z</time>
      </trkpt>
      <trkpt lat="42.93041" lon="0.24538">
        <ele>1359.488</ele>
        <time>2023-07-09T09:38:00Z</time>
      </trkpt>
      <trkpt lat="42.9304" lon="0.24532">
        <ele>1360.048</ele>
        <time>2023-07-09T09:38:10Z</time>
      </trkpt>
      <trkpt lat="42.93038" lon="0.24525">
        <ele>1361.019</ele>
        <time>2023-07-09T09:38:21Z</time>
      </trkpt>
      <trkpt lat="42.93034" lon="0.24522">
        <ele>1361.911</ele>
        <time>2023-07-09T09:38:27Z</time>
      </trkpt>
      <trkpt lat="42.93033" lon="0.24516">
        <ele>1362.393</ele>
        <time>2023-07-09T09:38:36Z</time>
      </trkpt>
      <trkpt lat="42.9303" lon="0.24511">
        <ele>1363.174</ele>
        <time>2023-07-09T09:38:41Z</time>
      </trkpt>
      <trkpt lat="42.93027" lon="0.24505">
        <ele>1364.798</ele>
        <time>2023-07-09T09:38:49Z</time>
      </trkpt>
      <trkpt lat="42.93024" lon="0.245">
        <ele>1366.415</ele>
        <time>2023-07-09T09:38:56Z</time>
      </trkpt>
      <trkpt lat="42.9302" lon="0.24497">
        <ele>1368.626</ele>
        <time>2023-07-09T09:39:05Z</time>
      </trkpt>
      <trkpt lat="42.93018" lon="0.2449">
        <ele>1370.709</ele>
        <time>2023-07-09T09:39:15Z</time>
      </trkpt>
      <trkpt lat="42.93016" lon="0.24485">
        <ele>1372.16</ele>
        <time>2023-07-09T09:39:24Z</time>
      </trkpt>
      <trkpt lat="42.93013" lon="0.24479">
        <ele>1373.653</ele>
        <time>2023-07-09T09:39:35Z</time>
      </trkpt>
      <trkpt lat="42.93009" lon="0.24474">
        <ele>1374.479</ele>
        <time>2023-07-09T09:39:43Z</time>
      </trkpt>
      <trkpt lat="42.93005" lon="0.2447">
        <ele>1375.18</ele>
        <time>2023-07-09T09:39:49Z</time>
      </trkpt>
      <trkpt lat="42.93002" lon="0.24465">
        <ele>1376.24</ele>
        <time>2023-07-09T09:40:01Z</time>
      </trkpt>
      <trkpt lat="42.92998" lon="0.24461">
        <ele>1376.891</ele>
        <time>2023-07-09T09:40:10Z</time>
      </trkpt>
      <trkpt lat="42.92995" lon="0.24455">
        <ele>1377.073</ele>
        <time>2023-07-09T09:40:16Z</time>
      </trkpt>
      <trkpt lat="42.92993" lon="0.24449">
        <ele>1377.215</ele>
        <time>2023-07-09T09:40:21Z</time>
      </trkpt>
      <trkpt lat="42.92989" lon="0.24448">
        <ele>1377.676</ele>
        <time>2023-07-09T09:40:29Z</time>
      </trkpt>
      <trkpt lat="42.92984" lon="0.24446">
        <ele>1377.898</ele>
        <time>2023-07-09T09:40:32Z</time>
      </trkpt>
      <trkpt lat="42.92979" lon="0.24442">
        <ele>1377.815</ele>
        <time>2023-07-09T09:40:40Z</time>
      </trkpt>
      <trkpt lat="42.92976" lon="0.24436">
        <ele>1378.026</ele>
        <time>2023-07-09T09:40:47Z</time>
      </trkpt>
      <trkpt lat="42.92972" lon="0.24431">
        <ele>1378.009</ele>
        <time>2023-07-09T09:40:54Z</time>
      </trkpt>
      <trkpt lat="42.92967" lon="0.24429">
        <ele>1378.06</ele>
        <time>2023-07-09T09:41:04Z</time>
      </trkpt>
      <trkpt lat="42.92966" lon="0.24423">
        <ele>1378.113</ele>
        <time>2023-07-09T09:41:08Z</time>
      </trkpt>
      <trkpt lat="42.92963" lon="0.24417">
        <ele>1378.689</ele>
        <time>2023-07-09T09:41:14Z</time>
      </trkpt>
      <trkpt lat="42.92959" lon="0.24413">
        <ele>1379.39</ele>
        <time>2023-07-09T09:41:23Z</time>
      </trkpt>
      <trkpt lat="42.92955" lon="0.24407">
        <ele>1380.15</ele>
        <time>2023-07-09T09:41:30Z</time>
      </trkpt>
      <trkpt lat="42.92951" lon="0.24403">
        <ele>1380.841</ele>
        <time>2023-07-09T09:41:42Z</time>
      </trkpt>
      <trkpt lat="42.92947" lon="0.24399">
        <ele>1382.443</ele>
        <time>2023-07-09T09:41:49Z</time>
      </trkpt>
      <trkpt lat="42.92942" lon="0.24397">
        <ele>1383.965</ele>
        <time>2023-07-09T09:41:54Z</time>
      </trkpt>
      <trkpt lat="42.92938" lon="0.24396">
        <ele>1384.076</ele>
        <time>2023-07-09T09:41:58Z</time>
      </trkpt>
      <trkpt lat="42.92934" lon="0.24392">
        <ele>1385.023</ele>
        <time>2023-07-09T09:42:04Z</time>
      </trkpt>
      <trkpt lat="42.9293" lon="0.24386">
        <ele>1386.083</ele>
        <time>2023-07-09T09:42:12Z</time>
      </trkpt>
      <trkpt lat="42.92927" lon="0.24382">
        <ele>1386.211</ele>
        <time>2023-07-09T09:42:18Z</time>
      </trkpt>
      <trkpt lat="42.92922" lon="0.24378">
        <ele>1386.409</ele>
        <time>2023-07-09T09:42:26Z</time>
      </trkpt>
      <trkpt lat="42.92919" lon="0.24374">
        <ele>1387.143</ele>
        <time>2023-07-09T09:42:34Z</time>
      </trkpt>
      <trkpt lat="42.92913" lon="0.24373">
        <ele>1387.686</ele>
        <time>2023-07-09T09:42:42Z</time>
      </trkpt>
      <trkpt lat="42.92908" lon="0.24371">
        <ele>1387.622</ele>
        <time>2023-07-09T09:42:48Z</time>
      </trkpt>
      <trkpt lat="42.92905" lon="0.24365">
        <ele>1387.873</ele>
        <time>2023-07-09T09:42:53Z</time>
      </trkpt>
      <trkpt lat="42.92902" lon="0.24361">
        <ele>1387.933</ele>
        <time>2023-07-09T09:43:01Z</time>
      </trkpt>
      <trkpt lat="42.92899" lon="0.24356">
        <ele>1387.924</ele>
        <time>2023-07-09T09:43:08Z</time>
      </trkpt>
      <trkpt lat="42.92895" lon="0.24352">
        <ele>1388.576</ele>
        <time>2023-07-09T09:43:18Z</time>
      </trkpt>
      <trkpt lat="42.92889" lon="0.2435">
        <ele>1389.858</ele>
        <time>2023-07-09T09:43:23Z</time>
      </trkpt>
      <trkpt lat="42.92884" lon="0.24351">
        <ele>1390.719</ele>
        <time>2023-07-09T09:43:29Z</time>
      </trkpt>
      <trkpt lat="42.92882" lon="0.24345">
        <ele>1391.187</ele>
        <time>2023-07-09T09:43:38Z</time>
      </trkpt>
      <trkpt lat="42.92878" lon="0.2434">
        <ele>1391.742</ele>
        <time>2023-07-09T09:43:46Z</time>
      </trkpt>
      <trkpt lat="42.92874" lon="0.24337">
        <ele>1392.526</ele>
        <time>2023-07-09T09:43:53Z</time>
      </trkpt>
      <trkpt lat="42.9287" lon="0.24333">
        <ele>1393.509</ele>
        <time>2023-07-09T09:44:02Z</time>
      </trkpt>
      <trkpt lat="42.92866" lon="0.2433">
        <ele>1395.199</ele>
        <time>2023-07-09T09:44:11Z</time>
      </trkpt>
      <trkpt lat="42.92864" lon="0.24325">
        <ele>1396.222</ele>
        <time>2023-07-09T09:44:20Z</time>
      </trkpt>
      <trkpt lat="42.9286" lon="0.24321">
        <ele>1397.268</ele>
        <time>2023-07-09T09:44:27Z</time>
      </trkpt>
      <trkpt lat="42.92857" lon="0.24316">
        <ele>1399.059</ele>
        <time>2023-07-09T09:44:36Z</time>
      </trkpt>
      <trkpt lat="42.92854" lon="0.24311">
        <ele>1400.129</ele>
        <time>2023-07-09T09:44:41Z</time>
      </trkpt>
      <trkpt lat="42.92849" lon="0.2431">
        <ele>1400.95</ele>
        <time>2023-07-09T09:44:49Z</time>
      </trkpt>
      <trkpt lat="42.92845" lon="0.24306">
        <ele>1401.762</ele>
        <time>2023-07-09T09:44:57Z</time>
      </trkpt>
      <trkpt lat="42.92841" lon="0.24303">
        <ele>1402.214</ele>
        <time>2023-07-09T09:45:07Z</time>
      </trkpt>
      <trkpt lat="42.92838" lon="0.24298">
        <ele>1402.855</ele>
        <time>2023-07-09T09:45:23Z</time>
      </trkpt>
      <trkpt lat="42.92835" lon="0.24293">
        <ele>1403.676</ele>
        <time>2023-07-09T09:45:30Z</time>
      </trkpt>
      <trkpt lat="42.92832" lon="0.24287">
        <ele>1405.59</ele>
        <time>2023-07-09T09:45:45Z</time>
      </trkpt>
      <trkpt lat="42.92828" lon="0.24283">
        <ele>1407.019</ele>
        <time>2023-07-09T09:45:52Z</time>
      </trkpt>
      <trkpt lat="42.92826" lon="0.24276">
        <ele>1408.409</ele>
        <time>2023-07-09T09:45:58Z</time>
      </trkpt>
      <trkpt lat="42.92821" lon="0.24274">
        <ele>1409.868</ele>
        <time>2023-07-09T09:46:07Z</time>
      </trkpt>
      <trkpt lat="42.92817" lon="0.24268">
        <ele>1410.191</ele>
        <time>2023-07-09T09:46:14Z</time>
      </trkpt>
      <trkpt lat="42.92813" lon="0.24264">
        <ele>1410.787</ele>
        <time>2023-07-09T09:46:22Z</time>
      </trkpt>
      <trkpt lat="42.92809" lon="0.24266">
        <ele>1412.338</ele>
        <time>2023-07-09T09:46:26Z</time>
      </trkpt>
      <trkpt lat="42.92808" lon="0.2426">
        <ele>1414.538</ele>
        <time>2023-07-09T09:46:34Z</time>
      </trkpt>
      <trkpt lat="42.92803" lon="0.24258">
        <ele>1415.879</ele>
        <time>2023-07-09T09:46:40Z</time>
      </trkpt>
      <trkpt lat="42.92799" lon="0.24255">
        <ele>1417.011</ele>
        <time>2023-07-09T09:46:48Z</time>
      </trkpt>
      <trkpt lat="42.92794" lon="0.24254">
        <ele>1417.823</ele>
        <time>2023-07-09T09:47:00Z</time>
      </trkpt>
      <trkpt lat="42.9279" lon="0.24251">
        <ele>1419.284</ele>
        <time>2023-07-09T09:47:08Z</time>
      </trkpt>
      <trkpt lat="42.92787" lon="0.24245">
        <ele>1421.931</ele>
        <time>2023-07-09T09:47:15Z</time>
      </trkpt>
      <trkpt lat="42.92783" lon="0.2424">
        <ele>1423.661</ele>
        <time>2023-07-09T09:47:26Z</time>
      </trkpt>
      <trkpt lat="42.92779" lon="0.24235">
        <ele>1424.607</ele>
        <time>2023-07-09T09:47:33Z</time>
      </trkpt>
      <trkpt lat="42.92774" lon="0.24234">
        <ele>1426.909</ele>
        <time>2023-07-09T09:47:44Z</time>
      </trkpt>
      <trkpt lat="42.9277" lon="0.2423">
        <ele>1429.584</ele>
        <time>2023-07-09T09:47:52Z</time>
      </trkpt>
      <trkpt lat="42.92766" lon="0.24226">
        <ele>1430.637</ele>
        <time>2023-07-09T09:48:00Z</time>
      </trkpt>
      <trkpt lat="42.92762" lon="0.24225">
        <ele>1431.123</ele>
        <time>2023-07-09T09:48:07Z</time>
      </trkpt>
      <trkpt lat="42.92757" lon="0.24223">
        <ele>1432.794</ele>
        <time>2023-07-09T09:48:17Z</time>
      </trkpt>
      <trkpt lat="42.92752" lon="0.24225">
        <ele>1434.464</ele>
        <time>2023-07-09T09:48:24Z</time>
      </trkpt>
      <trkpt lat="42.92747" lon="0.24223">
        <ele>1435.145</ele>
        <time>2023-07-09T09:48:29Z</time>
      </trkpt>
      <trkpt lat="42.92744" lon="0.24217">
        <ele>1436.027</ele>
        <time>2023-07-09T09:48:43Z</time>
      </trkpt>
      <trkpt lat="42.92739" lon="0.24215">
        <ele>1436.959</ele>
        <time>2023-07-09T09:48:51Z</time>
      </trkpt>
      <trkpt lat="42.92735" lon="0.24212">
        <ele>1437.68</ele>
        <time>2023-07-09T09:49:03Z</time>
      </trkpt>
      <trkpt lat="42.9273" lon="0.24212">
        <ele>1438.865</ele>
        <time>2023-07-09T09:49:11Z</time>
      </trkpt>
      <trkpt lat="42.92725" lon="0.2421">
        <ele>1441.568</ele>
        <time>2023-07-09T09:49:24Z</time>
      </trkpt>
      <trkpt lat="42.92721" lon="0.24205">
        <ele>1443.814</ele>
        <time>2023-07-09T09:49:39Z</time>
      </trkpt>
      <trkpt lat="42.92717" lon="0.24201">
        <ele>1444.209</ele>
        <time>2023-07-09T09:49:44Z</time>
      </trkpt>
      <trkpt lat="42.92713" lon="0.24203">
        <ele>1445.927</ele>
        <time>2023-07-09T09:49:50Z</time>
      </trkpt>
      <trkpt lat="42.92708" lon="0.242">
        <ele>1447.76</ele>
        <time>2023-07-09T09:49:56Z</time>
      </trkpt>
      <trkpt lat="42.92704" lon="0.24204">
        <ele>1448.066</ele>
        <time>2023-07-09T09:50:01Z</time>
      </trkpt>
      <trkpt lat="42.92699" lon="0.24205">
        <ele>1448.377</ele>
        <time>2023-07-09T09:50:07Z</time>
      </trkpt>
      <trkpt lat="42.92696" lon="0.242">
        <ele>1449.057</ele>
        <time>2023-07-09T09:50:17Z</time>
      </trkpt>
      <trkpt lat="42.92691" lon="0.242">
        <ele>1449.628</ele>
        <time>2023-07-09T09:50:25Z</time>
      </trkpt>
      <trkpt lat="42.92689" lon="0.24195">
        <ele>1450.46</ele>
        <time>2023-07-09T09:50:32Z</time>
      </trkpt>
      <trkpt lat="42.92684" lon="0.24194">
        <ele>1451.262</ele>
        <time>2023-07-09T09:50:41Z</time>
      </trkpt>
      <trkpt lat="42.92681" lon="0.24189">
        <ele>1451.723</ele>
        <time>2023-07-09T09:50:51Z</time>
      </trkpt>
      <trkpt lat="42.92676" lon="0.24187">
        <ele>1452.667</ele>
        <time>2023-07-09T09:51:03Z</time>
      </trkpt>
      <trkpt lat="42.92672" lon="0.24184">
        <ele>1453.981</ele>
        <time>2023-07-09T09:51:17Z</time>
      </trkpt>
      <trkpt lat="42.92667" lon="0.24182">
        <ele>1455.819</ele>
        <time>2023-07-09T09:51:25Z</time>
      </trkpt>
      <trkpt lat="42.92663" lon="0.24179">
        <ele>1457.309</ele>
        <time>2023-07-09T09:51:32Z</time>
      </trkpt>
      <trkpt lat="42.92658" lon="0.24178">
        <ele>1458.657</ele>
        <time>2023-07-09T09:51:50Z</time>
      </trkpt>
      <trkpt lat="42.92654" lon="0.2418">
        <ele>1459.62</ele>
        <time>2023-07-09T09:51:55Z</time>
      </trkpt>
      <trkpt lat="42.92651" lon="0.24175">
        <ele>1460.396</ele>
        <time>2023-07-09T09:52:00Z</time>
      </trkpt>
      <trkpt lat="42.92646" lon="0.24174">
        <ele>1461.347</ele>
        <time>2023-07-09T09:52:10Z</time>
      </trkpt>
      <trkpt lat="42.92641" lon="0.24172">
        <ele>1461.767</ele>
        <time>2023-07-09T09:52:21Z</time>
      </trkpt>
      <trkpt lat="42.92636" lon="0.24173">
        <ele>1462.638</ele>
        <time>2023-07-09T09:52:31Z</time>
      </trkpt>
      <trkpt lat="42.92631" lon="0.24171">
        <ele>1463.79</ele>
        <time>2023-07-09T09:52:37Z</time>
      </trkpt>
      <trkpt lat="42.92627" lon="0.24168">
        <ele>1464.222</ele>
        <time>2023-07-09T09:52:46Z</time>
      </trkpt>
      <trkpt lat="42.92622" lon="0.24166">
        <ele>1464.533</ele>
        <time>2023-07-09T09:52:58Z</time>
      </trkpt>
      <trkpt lat="42.92619" lon="0.24162">
        <ele>1465.636</ele>
        <time>2023-07-09T09:53:03Z</time>
      </trkpt>
      <trkpt lat="42.92614" lon="0.24159">
        <ele>1466.717</ele>
        <time>2023-07-09T09:53:09Z</time>
      </trkpt>
      <trkpt lat="42.9261" lon="0.24158">
        <ele>1466.918</ele>
        <time>2023-07-09T09:53:19Z</time>
      </trkpt>
      <trkpt lat="42.92604" lon="0.24159">
        <ele>1468.209</ele>
        <time>2023-07-09T09:53:25Z</time>
      </trkpt>
      <trkpt lat="42.92598" lon="0.24158">
        <ele>1470.234</ele>
        <time>2023-07-09T09:53:33Z</time>
      </trkpt>
      <trkpt lat="42.92593" lon="0.24159">
        <ele>1471.977</ele>
        <time>2023-07-09T09:53:41Z</time>
      </trkpt>
      <trkpt lat="42.92588" lon="0.24158">
        <ele>1472.753</ele>
        <time>2023-07-09T09:53:47Z</time>
      </trkpt>
      <trkpt lat="42.92584" lon="0.24154">
        <ele>1472.824</ele>
        <time>2023-07-09T09:53:54Z</time>
      </trkpt>
      <trkpt lat="42.92579" lon="0.24154">
        <ele>1473.124</ele>
        <time>2023-07-09T09:54:01Z</time>
      </trkpt>
      <trkpt lat="42.92574" lon="0.24152">
        <ele>1474.085</ele>
        <time>2023-07-09T09:54:08Z</time>
      </trkpt>
      <trkpt lat="42.92568" lon="0.24152">
        <ele>1475.487</ele>
        <time>2023-07-09T09:54:22Z</time>
      </trkpt>
      <trkpt lat="42.92564" lon="0.24149">
        <ele>1476.429</ele>
        <time>2023-07-09T09:54:31Z</time>
      </trkpt>
      <trkpt lat="42.9256" lon="0.24146">
        <ele>1477.13</ele>
        <time>2023-07-09T09:54:38Z</time>
      </trkpt>
      <trkpt lat="42.92556" lon="0.24142">
        <ele>1478.081</ele>
        <time>2023-07-09T09:54:48Z</time>
      </trkpt>
      <trkpt lat="42.92554" lon="0.24137">
        <ele>1479.261</ele>
        <time>2023-07-09T09:54:54Z</time>
      </trkpt>
      <trkpt lat="42.92549" lon="0.24135">
        <ele>1480.117</ele>
        <time>2023-07-09T09:55:03Z</time>
      </trkpt>
      <trkpt lat="42.92544" lon="0.24134">
        <ele>1481.409</ele>
        <time>2023-07-09T09:55:09Z</time>
      </trkpt>
      <trkpt lat="42.92539" lon="0.24133">
        <ele>1482.819</ele>
        <time>2023-07-09T09:55:19Z</time>
      </trkpt>
      <trkpt lat="42.92536" lon="0.24128">
        <ele>1483.462</ele>
        <time>2023-07-09T09:55:25Z</time>
      </trkpt>
      <trkpt lat="42.92532" lon="0.24127">
        <ele>1484.668</ele>
        <time>2023-07-09T09:55:31Z</time>
      </trkpt>
      <trkpt lat="42.92526" lon="0.24127">
        <ele>1486.499</ele>
        <time>2023-07-09T09:55:37Z</time>
      </trkpt>
      <trkpt lat="42.92521" lon="0.24125">
        <ele>1487.779</ele>
        <time>2023-07-09T09:55:44Z</time>
      </trkpt>
      <trkpt lat="42.9252" lon="0.24119">
        <ele>1488.16</ele>
        <time>2023-07-09T09:55:50Z</time>
      </trkpt>
      <trkpt lat="42.92515" lon="0.24117">
        <ele>1488.862</ele>
        <time>2023-07-09T09:55:56Z</time>
      </trkpt>
      <trkpt lat="42.9251" lon="0.24116">
        <ele>1490.464</ele>
        <time>2023-07-09T09:56:36Z</time>
      </trkpt>
      <trkpt lat="42.92505" lon="0.24118">
        <ele>1491.855</ele>
        <time>2023-07-09T09:56:41Z</time>
      </trkpt>
      <trkpt lat="42.92499" lon="0.24119">
        <ele>1492.289</ele>
        <time>2023-07-09T09:56:50Z</time>
      </trkpt>
      <trkpt lat="42.92494" lon="0.2412">
        <ele>1492.206</ele>
        <time>2023-07-09T09:56:56Z</time>
      </trkpt>
      <trkpt lat="42.92489" lon="0.24123">
        <ele>1492.626</ele>
        <time>2023-07-09T09:57:03Z</time>
      </trkpt>
      <trkpt lat="42.92484" lon="0.24125">
        <ele>1493.109</ele>
        <time>2023-07-09T09:57:10Z</time>
      </trkpt>
      <trkpt lat="42.92479" lon="0.24121">
        <ele>1493.339</ele>
        <time>2023-07-09T09:57:18Z</time>
      </trkpt>
      <trkpt lat="42.92474" lon="0.24122">
        <ele>1493.962</ele>
        <time>2023-07-09T09:57:23Z</time>
      </trkpt>
      <trkpt lat="42.92469" lon="0.24121">
        <ele>1494.328</ele>
        <time>2023-07-09T09:57:31Z</time>
      </trkpt>
      <trkpt lat="42.92463" lon="0.24122">
        <ele>1494.659</ele>
        <time>2023-07-09T09:57:38Z</time>
      </trkpt>
      <trkpt lat="42.92459" lon="0.24123">
        <ele>1495.159</ele>
        <time>2023-07-09T09:57:44Z</time>
      </trkpt>
      <trkpt lat="42.92454" lon="0.24124">
        <ele>1496.53</ele>
        <time>2023-07-09T09:57:51Z</time>
      </trkpt>
      <trkpt lat="42.92449" lon="0.24122">
        <ele>1497.942</ele>
        <time>2023-07-09T09:58:01Z</time>
      </trkpt>
      <trkpt lat="42.92443" lon="0.24123">
        <ele>1498.534</ele>
        <time>2023-07-09T09:58:09Z</time>
      </trkpt>
      <trkpt lat="42.92438" lon="0.24123">
        <ele>1499.235</ele>
        <time>2023-07-09T09:58:16Z</time>
      </trkpt>
      <trkpt lat="42.92433" lon="0.24123">
        <ele>1500.454</ele>
        <time>2023-07-09T09:58:25Z</time>
      </trkpt>
      <trkpt lat="42.92428" lon="0.24123">
        <ele>1501.456</ele>
        <time>2023-07-09T09:58:33Z</time>
      </trkpt>
      <trkpt lat="42.92423" lon="0.24123">
        <ele>1502.011</ele>
        <time>2023-07-09T09:58:41Z</time>
      </trkpt>
      <trkpt lat="42.92417" lon="0.24125">
        <ele>1502.509</ele>
        <time>2023-07-09T09:58:45Z</time>
      </trkpt>
      <trkpt lat="42.92412" lon="0.24127">
        <ele>1502.596</ele>
        <time>2023-07-09T09:58:50Z</time>
      </trkpt>
      <trkpt lat="42.92407" lon="0.24128">
        <ele>1502.749</ele>
        <time>2023-07-09T09:58:56Z</time>
      </trkpt>
      <trkpt lat="42.92401" lon="0.24128">
        <ele>1502.935</ele>
        <time>2023-07-09T09:59:03Z</time>
      </trkpt>
      <trkpt lat="42.92396" lon="0.24128">
        <ele>1502.866</ele>
        <time>2023-07-09T09:59:10Z</time>
      </trkpt>
      <trkpt lat="42.92391" lon="0.24128">
        <ele>1502.966</ele>
        <time>2023-07-09T09:59:16Z</time>
      </trkpt>
      <trkpt lat="42.92386" lon="0.24126">
        <ele>1503.027</ele>
        <time>2023-07-09T09:59:24Z</time>
      </trkpt>
      <trkpt lat="42.9238" lon="0.24127">
        <ele>1503.319</ele>
        <time>2023-07-09T09:59:30Z</time>
      </trkpt>
      <trkpt lat="42.92376" lon="0.24126">
        <ele>1503.661</ele>
        <time>2023-07-09T09:59:36Z</time>
      </trkpt>
      <trkpt lat="42.9237" lon="0.24127">
        <ele>1504.652</ele>
        <time>2023-07-09T09:59:41Z</time>
      </trkpt>
      <trkpt lat="42.92365" lon="0.24128">
        <ele>1505.847</ele>
        <time>2023-07-09T09:59:48Z</time>
      </trkpt>
      <trkpt lat="42.9236" lon="0.2413">
        <ele>1506.329</ele>
        <time>2023-07-09T09:59:53Z</time>
      </trkpt>
      <trkpt lat="42.92355" lon="0.24131">
        <ele>1506.421</ele>
        <time>2023-07-09T09:59:59Z</time>
      </trkpt>
      <trkpt lat="42.9235" lon="0.24131">
        <ele>1506.609</ele>
        <time>2023-07-09T10:00:08Z</time>
      </trkpt>
      <trkpt lat="42.92346" lon="0.24132">
        <ele>1507.035</ele>
        <time>2023-07-09T10:00:15Z</time>
      </trkpt>
      <trkpt lat="42.9234" lon="0.24133">
        <ele>1507.388</ele>
        <time>2023-07-09T10:00:22Z</time>
      </trkpt>
      <trkpt lat="42.92335" lon="0.24135">
        <ele>1507.664</ele>
        <time>2023-07-09T10:00:27Z</time>
      </trkpt>
      <trkpt lat="42.9233" lon="0.24135">
        <ele>1508.175</ele>
        <time>2023-07-09T10:00:30Z</time>
      </trkpt>
      <trkpt lat="42.92326" lon="0.24138">
        <ele>1509.075</ele>
        <time>2023-07-09T10:00:37Z</time>
      </trkpt>
      <trkpt lat="42.9232" lon="0.2414">
        <ele>1509.836</ele>
        <time>2023-07-09T10:00:44Z</time>
      </trkpt>
      <trkpt lat="42.92316" lon="0.24141">
        <ele>1510.488</ele>
        <time>2023-07-09T10:00:49Z</time>
      </trkpt>
      <trkpt lat="42.92309" lon="0.24142">
        <ele>1511.22</ele>
        <time>2023-07-09T10:00:57Z</time>
      </trkpt>
      <trkpt lat="42.92304" lon="0.24143">
        <ele>1511.721</ele>
        <time>2023-07-09T10:01:03Z</time>
      </trkpt>
      <trkpt lat="42.923" lon="0.2414">
        <ele>1511.894</ele>
        <time>2023-07-09T10:01:12Z</time>
      </trkpt>
      <trkpt lat="42.92295" lon="0.24144">
        <ele>1512.457</ele>
        <time>2023-07-09T10:01:17Z</time>
      </trkpt>
      <trkpt lat="42.9229" lon="0.24146">
        <ele>1513.522</ele>
        <time>2023-07-09T10:01:22Z</time>
      </trkpt>
      <trkpt lat="42.92285" lon="0.24144">
        <ele>1514.609</ele>
        <time>2023-07-09T10:01:31Z</time>
      </trkpt>
      <trkpt lat="42.92281" lon="0.24146">
        <ele>1515.35</ele>
        <time>2023-07-09T10:01:35Z</time>
      </trkpt>
      <trkpt lat="42.92276" lon="0.24148">
        <ele>1515.693</ele>
        <time>2023-07-09T10:01:39Z</time>
      </trkpt>
      <trkpt lat="42.92271" lon="0.24148">
        <ele>1516.149</ele>
        <time>2023-07-09T10:01:45Z</time>
      </trkpt>
      <trkpt lat="42.92266" lon="0.2415">
        <ele>1516.64</ele>
        <time>2023-07-09T10:01:54Z</time>
      </trkpt>
      <trkpt lat="42.92261" lon="0.24152">
        <ele>1516.96</ele>
        <time>2023-07-09T10:02:00Z</time>
      </trkpt>
      <trkpt lat="42.92256" lon="0.24151">
        <ele>1517.471</ele>
        <time>2023-07-09T10:02:06Z</time>
      </trkpt>
      <trkpt lat="42.92251" lon="0.24154">
        <ele>1518.123</ele>
        <time>2023-07-09T10:02:09Z</time>
      </trkpt>
      <trkpt lat="42.92246" lon="0.24153">
        <ele>1518.755</ele>
        <time>2023-07-09T10:02:16Z</time>
      </trkpt>
      <trkpt lat="42.92242" lon="0.24156">
        <ele>1519.046</ele>
        <time>2023-07-09T10:02:22Z</time>
      </trkpt>
      <trkpt lat="42.92237" lon="0.24156">
        <ele>1520.281</ele>
        <time>2023-07-09T10:02:28Z</time>
      </trkpt>
      <trkpt lat="42.92233" lon="0.24155">
        <ele>1521.561</ele>
        <time>2023-07-09T10:02:33Z</time>
      </trkpt>
      <trkpt lat="42.92228" lon="0.24157">
        <ele>1522.117</ele>
        <time>2023-07-09T10:02:37Z</time>
      </trkpt>
      <trkpt lat="42.92223" lon="0.2416">
        <ele>1522.509</ele>
        <time>2023-07-09T10:02:42Z</time>
      </trkpt>
      <trkpt lat="42.92218" lon="0.2416">
        <ele>1522.619</ele>
        <time>2023-07-09T10:02:48Z</time>
      </trkpt>
      <trkpt lat="42.92214" lon="0.2416">
        <ele>1522.812</ele>
        <time>2023-07-09T10:02:54Z</time>
      </trkpt>
      <trkpt lat="42.92209" lon="0.24161">
        <ele>1523.248</ele>
        <time>2023-07-09T10:03:00Z</time>
      </trkpt>
      <trkpt lat="42.92204" lon="0.24163">
        <ele>1523.729</ele>
        <time>2023-07-09T10:03:05Z</time>
      </trkpt>
      <trkpt lat="42.92199" lon="0.24162">
        <ele>1524.239</ele>
        <time>2023-07-09T10:03:12Z</time>
      </trkpt>
      <trkpt lat="42.92194" lon="0.24165">
        <ele>1524.35</ele>
        <time>2023-07-09T10:03:16Z</time>
      </trkpt>
      <trkpt lat="42.92189" lon="0.24166">
        <ele>1524.792</ele>
        <time>2023-07-09T10:03:22Z</time>
      </trkpt>
      <trkpt lat="42.92183" lon="0.24167">
        <ele>1524.764</ele>
        <time>2023-07-09T10:03:31Z</time>
      </trkpt>
      <trkpt lat="42.92177" lon="0.24168">
        <ele>1525.185</ele>
        <time>2023-07-09T10:03:38Z</time>
      </trkpt>
      <trkpt lat="42.92173" lon="0.24171">
        <ele>1525.075</ele>
        <time>2023-07-09T10:03:42Z</time>
      </trkpt>
      <trkpt lat="42.92167" lon="0.24171">
        <ele>1525.228</ele>
        <time>2023-07-09T10:03:49Z</time>
      </trkpt>
      <trkpt lat="42.92162" lon="0.24172">
        <ele>1526.32</ele>
        <time>2023-07-09T10:03:54Z</time>
      </trkpt>
      <trkpt lat="42.92157" lon="0.24173">
        <ele>1526.309</ele>
        <time>2023-07-09T10:04:00Z</time>
      </trkpt>
      <trkpt lat="42.92153" lon="0.24176">
        <ele>1526.598</ele>
        <time>2023-07-09T10:04:05Z</time>
      </trkpt>
      <trkpt lat="42.92147" lon="0.24177">
        <ele>1526.411</ele>
        <time>2023-07-09T10:04:11Z</time>
      </trkpt>
      <trkpt lat="42.92143" lon="0.24176">
        <ele>1526.597</ele>
        <time>2023-07-09T10:04:19Z</time>
      </trkpt>
      <trkpt lat="42.92138" lon="0.24179">
        <ele>1527.158</ele>
        <time>2023-07-09T10:04:28Z</time>
      </trkpt>
      <trkpt lat="42.92134" lon="0.24183">
        <ele>1527.748</ele>
        <time>2023-07-09T10:04:33Z</time>
      </trkpt>
      <trkpt lat="42.92128" lon="0.24185">
        <ele>1528.229</ele>
        <time>2023-07-09T10:04:39Z</time>
      </trkpt>
      <trkpt lat="42.92122" lon="0.24187">
        <ele>1529.111</ele>
        <time>2023-07-09T10:04:45Z</time>
      </trkpt>
      <trkpt lat="42.92118" lon="0.24187">
        <ele>1529.733</ele>
        <time>2023-07-09T10:04:49Z</time>
      </trkpt>
      <trkpt lat="42.92112" lon="0.2419">
        <ele>1529.834</ele>
        <time>2023-07-09T10:04:52Z</time>
      </trkpt>
      <trkpt lat="42.92108" lon="0.24193">
        <ele>1530.157</ele>
        <time>2023-07-09T10:04:57Z</time>
      </trkpt>
      <trkpt lat="42.92102" lon="0.24192">
        <ele>1530.3</ele>
        <time>2023-07-09T10:05:05Z</time>
      </trkpt>
      <trkpt lat="42.92097" lon="0.24193">
        <ele>1531.02</ele>
        <time>2023-07-09T10:05:10Z</time>
      </trkpt>
      <trkpt lat="42.92092" lon="0.24195">
        <ele>1531.709</ele>
        <time>2023-07-09T10:05:16Z</time>
      </trkpt>
      <trkpt lat="42.92088" lon="0.24196">
        <ele>1532.296</ele>
        <time>2023-07-09T10:05:23Z</time>
      </trkpt>
      <trkpt lat="42.92083" lon="0.242">
        <ele>1532.659</ele>
        <time>2023-07-09T10:05:29Z</time>
      </trkpt>
      <trkpt lat="42.92078" lon="0.24201">
        <ele>1532.845</ele>
        <time>2023-07-09T10:05:35Z</time>
      </trkpt>
      <trkpt lat="42.92073" lon="0.24202">
        <ele>1534.196</ele>
        <time>2023-07-09T10:05:40Z</time>
      </trkpt>
      <trkpt lat="42.92069" lon="0.24203">
        <ele>1534.936</ele>
        <time>2023-07-09T10:05:46Z</time>
      </trkpt>
      <trkpt lat="42.92064" lon="0.24206">
        <ele>1535.137</ele>
        <time>2023-07-09T10:05:50Z</time>
      </trkpt>
      <trkpt lat="42.92059" lon="0.24206">
        <ele>1535.559</ele>
        <time>2023-07-09T10:05:55Z</time>
      </trkpt>
      <trkpt lat="42.92054" lon="0.24209">
        <ele>1535.951</ele>
        <time>2023-07-09T10:05:59Z</time>
      </trkpt>
      <trkpt lat="42.92049" lon="0.24208">
        <ele>1536.292</ele>
        <time>2023-07-09T10:06:07Z</time>
      </trkpt>
      <trkpt lat="42.92044" lon="0.24209">
        <ele>1536.384</ele>
        <time>2023-07-09T10:06:12Z</time>
      </trkpt>
      <trkpt lat="42.92039" lon="0.2421">
        <ele>1536.407</ele>
        <time>2023-07-09T10:06:19Z</time>
      </trkpt>
      <trkpt lat="42.92034" lon="0.24209">
        <ele>1536.517</ele>
        <time>2023-07-09T10:06:24Z</time>
      </trkpt>
      <trkpt lat="42.92029" lon="0.2421">
        <ele>1536.709</ele>
        <time>2023-07-09T10:06:29Z</time>
      </trkpt>
      <trkpt lat="42.92025" lon="0.24214">
        <ele>1537.269</ele>
        <time>2023-07-09T10:06:33Z</time>
      </trkpt>
      <trkpt lat="42.92021" lon="0.24212">
        <ele>1538.162</ele>
        <time>2023-07-09T10:06:37Z</time>
      </trkpt>
      <trkpt lat="42.92015" lon="0.24213">
        <ele>1538.788</ele>
        <time>2023-07-09T10:06:42Z</time>
      </trkpt>
      <trkpt lat="42.9201" lon="0.24212">
        <ele>1539.139</ele>
        <time>2023-07-09T10:06:50Z</time>
      </trkpt>
      <trkpt lat="42.92005" lon="0.24213">
        <ele>1539.529</ele>
        <time>2023-07-09T10:06:56Z</time>
      </trkpt>
      <trkpt lat="42.92" lon="0.24216">
        <ele>1540.72</ele>
        <time>2023-07-09T10:07:01Z</time>
      </trkpt>
      <trkpt lat="42.91995" lon="0.24215">
        <ele>1541.922</ele>
        <time>2023-07-09T10:07:06Z</time>
      </trkpt>
      <trkpt lat="42.9199" lon="0.24217">
        <ele>1542.734</ele>
        <time>2023-07-09T10:07:11Z</time>
      </trkpt>
      <trkpt lat="42.91986" lon="0.2422">
        <ele>1543.595</ele>
        <time>2023-07-09T10:07:15Z</time>
      </trkpt>
      <trkpt lat="42.91981" lon="0.24223">
        <ele>1543.716</ele>
        <time>2023-07-09T10:07:18Z</time>
      </trkpt>
      <trkpt lat="42.91976" lon="0.24221">
        <ele>1543.776</ele>
        <time>2023-07-09T10:07:26Z</time>
      </trkpt>
      <trkpt lat="42.91971" lon="0.2422">
        <ele>1543.813</ele>
        <time>2023-07-09T10:07:32Z</time>
      </trkpt>
      <trkpt lat="42.91967" lon="0.24219">
        <ele>1543.909</ele>
        <time>2023-07-09T10:07:38Z</time>
      </trkpt>
      <trkpt lat="42.91961" lon="0.24217">
        <ele>1544.292</ele>
        <time>2023-07-09T10:07:43Z</time>
      </trkpt>
      <trkpt lat="42.91956" lon="0.24217">
        <ele>1544.745</ele>
        <time>2023-07-09T10:07:49Z</time>
      </trkpt>
      <trkpt lat="42.91951" lon="0.24216">
        <ele>1545.571</ele>
        <time>2023-07-09T10:07:54Z</time>
      </trkpt>
      <trkpt lat="42.91946" lon="0.24215">
        <ele>1546.162</ele>
        <time>2023-07-09T10:08:01Z</time>
      </trkpt>
      <trkpt lat="42.91941" lon="0.24216">
        <ele>1546.462</ele>
        <time>2023-07-09T10:08:08Z</time>
      </trkpt>
      <trkpt lat="42.91936" lon="0.24216">
        <ele>1546.763</ele>
        <time>2023-07-09T10:08:12Z</time>
      </trkpt>
      <trkpt lat="42.91931" lon="0.24216">
        <ele>1546.945</ele>
        <time>2023-07-09T10:08:17Z</time>
      </trkpt>
      <trkpt lat="42.91927" lon="0.24218">
        <ele>1547.237</ele>
        <time>2023-07-09T10:08:21Z</time>
      </trkpt>
      <trkpt lat="42.91922" lon="0.24218">
        <ele>1547.418</ele>
        <time>2023-07-09T10:08:26Z</time>
      </trkpt>
      <trkpt lat="42.91916" lon="0.24219">
        <ele>1547.536</ele>
        <time>2023-07-09T10:08:32Z</time>
      </trkpt>
      <trkpt lat="42.91911" lon="0.24218">
        <ele>1547.817</ele>
        <time>2023-07-09T10:08:39Z</time>
      </trkpt>
      <trkpt lat="42.91905" lon="0.24221">
        <ele>1548.118</ele>
        <time>2023-07-09T10:08:45Z</time>
      </trkpt>
      <trkpt lat="42.91902" lon="0.24217">
        <ele>1548.809</ele>
        <time>2023-07-09T10:08:53Z</time>
      </trkpt>
      <trkpt lat="42.91897" lon="0.24217">
        <ele>1549.694</ele>
        <time>2023-07-09T10:08:56Z</time>
      </trkpt>
      <trkpt lat="42.91892" lon="0.24217">
        <ele>1550.067</ele>
        <time>2023-07-09T10:09:06Z</time>
      </trkpt>
      <trkpt lat="42.91887" lon="0.24219">
        <ele>1550.223</ele>
        <time>2023-07-09T10:09:14Z</time>
      </trkpt>
      <trkpt lat="42.91882" lon="0.24221">
        <ele>1550.614</ele>
        <time>2023-07-09T10:09:21Z</time>
      </trkpt>
      <trkpt lat="42.91887" lon="0.24222">
        <ele>1551.034</ele>
        <time>2023-07-09T10:10:37Z</time>
      </trkpt>
      <trkpt lat="42.91882" lon="0.24218">
        <ele>1551.375</ele>
        <time>2023-07-09T10:11:09Z</time>
      </trkpt>
      <trkpt lat="42.91887" lon="0.24222">
        <ele>1551.647</ele>
        <time>2023-07-09T10:11:54Z</time>
      </trkpt>
      <trkpt lat="42.91882" lon="0.2422">
        <ele>1551.319</ele>
        <time>2023-07-09T10:12:31Z</time>
      </trkpt>
      <trkpt lat="42.91877" lon="0.24222">
        <ele>1551.26</ele>
        <time>2023-07-09T10:12:36Z</time>
      </trkpt>
      <trkpt lat="42.91872" lon="0.24223">
        <ele>1551.111</ele>
        <time>2023-07-09T10:12:40Z</time>
      </trkpt>
      <trkpt lat="42.91867" lon="0.24223">
        <ele>1551.421</ele>
        <time>2023-07-09T10:12:44Z</time>
      </trkpt>
      <trkpt lat="42.91862" lon="0.24225">
        <ele>1551.503</ele>
        <time>2023-07-09T10:12:49Z</time>
      </trkpt>
      <trkpt lat="42.91857" lon="0.24226">
        <ele>1551.509</ele>
        <time>2023-07-09T10:12:54Z</time>
      </trkpt>
      <trkpt lat="42.91853" lon="0.24227">
        <ele>1551.872</ele>
        <time>2023-07-09T10:13:00Z</time>
      </trkpt>
      <trkpt lat="42.91849" lon="0.24223">
        <ele>1552.185</ele>
        <time>2023-07-09T10:13:07Z</time>
      </trkpt>
      <trkpt lat="42.91844" lon="0.24224">
        <ele>1552.591</ele>
        <time>2023-07-09T10:13:11Z</time>
      </trkpt>
      <trkpt lat="42.91839" lon="0.24227">
        <ele>1552.962</ele>
        <time>2023-07-09T10:13:15Z</time>
      </trkpt>
      <trkpt lat="42.91835" lon="0.24226">
        <ele>1553.672</ele>
        <time>2023-07-09T10:13:21Z</time>
      </trkpt>
      <trkpt lat="42.91828" lon="0.24227">
        <ele>1554.213</ele>
        <time>2023-07-09T10:13:26Z</time>
      </trkpt>
      <trkpt lat="42.91824" lon="0.24229">
        <ele>1554.335</ele>
        <time>2023-07-09T10:13:31Z</time>
      </trkpt>
      <trkpt lat="42.91819" lon="0.24228">
        <ele>1554.767</ele>
        <time>2023-07-09T10:13:38Z</time>
      </trkpt>
      <trkpt lat="42.91815" lon="0.24231">
        <ele>1555.148</ele>
        <time>2023-07-09T10:13:41Z</time>
      </trkpt>
      <trkpt lat="42.9181" lon="0.2423">
        <ele>1555.354</ele>
        <time>2023-07-09T10:13:47Z</time>
      </trkpt>
      <trkpt lat="42.91805" lon="0.24231">
        <ele>1555.756</ele>
        <time>2023-07-09T10:13:53Z</time>
      </trkpt>
      <trkpt lat="42.918" lon="0.24233">
        <ele>1556.511</ele>
        <time>2023-07-09T10:13:58Z</time>
      </trkpt>
      <trkpt lat="42.91796" lon="0.24235">
        <ele>1557.109</ele>
        <time>2023-07-09T10:14:03Z</time>
      </trkpt>
      <trkpt lat="42.91792" lon="0.24231">
        <ele>1557.386</ele>
        <time>2023-07-09T10:14:09Z</time>
      </trkpt>
      <trkpt lat="42.91787" lon="0.24231">
        <ele>1557.859</ele>
        <time>2023-07-09T10:14:14Z</time>
      </trkpt>
      <trkpt lat="42.91782" lon="0.24231">
        <ele>1558.195</ele>
        <time>2023-07-09T10:14:20Z</time>
      </trkpt>
      <trkpt lat="42.91778" lon="0.24234">
        <ele>1558.176</ele>
        <time>2023-07-09T10:14:27Z</time>
      </trkpt>
      <trkpt lat="42.91773" lon="0.24231">
        <ele>1558.126</ele>
        <time>2023-07-09T10:14:43Z</time>
      </trkpt>
      <trkpt lat="42.91769" lon="0.24229">
        <ele>1558.387</ele>
        <time>2023-07-09T10:14:48Z</time>
      </trkpt>
      <trkpt lat="42.91764" lon="0.24233">
        <ele>1558.139</ele>
        <time>2023-07-09T10:14:56Z</time>
      </trkpt>
      <trkpt lat="42.91759" lon="0.24233">
        <ele>1558.191</ele>
        <time>2023-07-09T10:15:03Z</time>
      </trkpt>
      <trkpt lat="42.91754" lon="0.24237">
        <ele>1558.172</ele>
        <time>2023-07-09T10:15:16Z</time>
      </trkpt>
      <trkpt lat="42.9175" lon="0.24241">
        <ele>1558.782</ele>
        <time>2023-07-09T10:15:21Z</time>
      </trkpt>
      <trkpt lat="42.91745" lon="0.24245">
        <ele>1559.143</ele>
        <time>2023-07-09T10:15:27Z</time>
      </trkpt>
      <trkpt lat="42.9174" lon="0.24248">
        <ele>1559.417</ele>
        <time>2023-07-09T10:15:33Z</time>
      </trkpt>
      <trkpt lat="42.91735" lon="0.2425">
        <ele>1559.409</ele>
        <time>2023-07-09T10:15:41Z</time>
      </trkpt>
      <trkpt lat="42.9173" lon="0.24252">
        <ele>1560.369</ele>
        <time>2023-07-09T10:15:49Z</time>
      </trkpt>
      <trkpt lat="42.91725" lon="0.24255">
        <ele>1560.672</ele>
        <time>2023-07-09T10:15:54Z</time>
      </trkpt>
      <trkpt lat="42.91719" lon="0.24255">
        <ele>1561.518</ele>
        <time>2023-07-09T10:16:00Z</time>
      </trkpt>
      <trkpt lat="42.91714" lon="0.24253">
        <ele>1561.159</ele>
        <time>2023-07-09T10:16:10Z</time>
      </trkpt>
      <trkpt lat="42.91709" lon="0.24254">
        <ele>1561.149</ele>
        <time>2023-07-09T10:16:16Z</time>
      </trkpt>
      <trkpt lat="42.91705" lon="0.24259">
        <ele>1561.58</ele>
        <time>2023-07-09T10:16:19Z</time>
      </trkpt>
      <trkpt lat="42.917" lon="0.24254">
        <ele>1561.582</ele>
        <time>2023-07-09T10:16:27Z</time>
      </trkpt>
      <trkpt lat="42.91695" lon="0.24253">
        <ele>1561.514</ele>
        <time>2023-07-09T10:16:33Z</time>
      </trkpt>
      <trkpt lat="42.91691" lon="0.24258">
        <ele>1561.765</ele>
        <time>2023-07-09T10:16:41Z</time>
      </trkpt>
      <trkpt lat="42.91686" lon="0.24259">
        <ele>1562.362</ele>
        <time>2023-07-09T10:16:46Z</time>
      </trkpt>
      <trkpt lat="42.91681" lon="0.24264">
        <ele>1562.783</ele>
        <time>2023-07-09T10:16:54Z</time>
      </trkpt>
      <trkpt lat="42.91679" lon="0.24271">
        <ele>1563.511</ele>
        <time>2023-07-09T10:17:01Z</time>
      </trkpt>
      <trkpt lat="42.91676" lon="0.24276">
        <ele>1564.309</ele>
        <time>2023-07-09T10:17:07Z</time>
      </trkpt>
      <trkpt lat="42.91671" lon="0.24277">
        <ele>1564.377</ele>
        <time>2023-07-09T10:17:13Z</time>
      </trkpt>
      <trkpt lat="42.91667" lon="0.24279">
        <ele>1564.34</ele>
        <time>2023-07-09T10:17:19Z</time>
      </trkpt>
      <trkpt lat="42.91662" lon="0.24282">
        <ele>1564.336</ele>
        <time>2023-07-09T10:17:25Z</time>
      </trkpt>
      <trkpt lat="42.91658" lon="0.24285">
        <ele>1564.457</ele>
        <time>2023-07-09T10:17:29Z</time>
      </trkpt>
      <trkpt lat="42.91653" lon="0.24288">
        <ele>1564.467</ele>
        <time>2023-07-09T10:17:35Z</time>
      </trkpt>
      <trkpt lat="42.91649" lon="0.24292">
        <ele>1564.488</ele>
        <time>2023-07-09T10:17:39Z</time>
      </trkpt>
      <trkpt lat="42.91645" lon="0.24295">
        <ele>1564.77</ele>
        <time>2023-07-09T10:17:46Z</time>
      </trkpt>
      <trkpt lat="42.9164" lon="0.24297">
        <ele>1565.422</ele>
        <time>2023-07-09T10:17:52Z</time>
      </trkpt>
      <trkpt lat="42.91635" lon="0.24301">
        <ele>1566.263</ele>
        <time>2023-07-09T10:17:58Z</time>
      </trkpt>
      <trkpt lat="42.91631" lon="0.24303">
        <ele>1566.513</ele>
        <time>2023-07-09T10:18:03Z</time>
      </trkpt>
      <trkpt lat="42.91624" lon="0.24306">
        <ele>1567.043</ele>
        <time>2023-07-09T10:18:08Z</time>
      </trkpt>
      <trkpt lat="42.91619" lon="0.24306">
        <ele>1567.507</ele>
        <time>2023-07-09T10:18:14Z</time>
      </trkpt>
      <trkpt lat="42.91615" lon="0.2431">
        <ele>1567.609</ele>
        <time>2023-07-09T10:18:19Z</time>
      </trkpt>
      <trkpt lat="42.9161" lon="0.24311">
        <ele>1567.622</ele>
        <time>2023-07-09T10:18:26Z</time>
      </trkpt>
      <trkpt lat="42.91604" lon="0.24311">
        <ele>1568.225</ele>
        <time>2023-07-09T10:18:36Z</time>
      </trkpt>
      <trkpt lat="42.91598" lon="0.24314">
        <ele>1568.291</ele>
        <time>2023-07-09T10:18:46Z</time>
      </trkpt>
      <trkpt lat="42.91595" lon="0.24318">
        <ele>1568.412</ele>
        <time>2023-07-09T10:18:54Z</time>
      </trkpt>
      <trkpt lat="42.9159" lon="0.2432">
        <ele>1569.312</ele>
        <time>2023-07-09T10:19:00Z</time>
      </trkpt>
      <trkpt lat="42.91586" lon="0.24323">
        <ele>1570.063</ele>
        <time>2023-07-09T10:19:05Z</time>
      </trkpt>
      <trkpt lat="42.91581" lon="0.24325">
        <ele>1570.545</ele>
        <time>2023-07-09T10:19:09Z</time>
      </trkpt>
      <trkpt lat="42.91576" lon="0.24325">
        <ele>1571.557</ele>
        <time>2023-07-09T10:19:15Z</time>
      </trkpt>
      <trkpt lat="42.91572" lon="0.24326">
        <ele>1572.028</ele>
        <time>2023-07-09T10:19:23Z</time>
      </trkpt>
      <trkpt lat="42.91567" lon="0.24329">
        <ele>1572.247</ele>
        <time>2023-07-09T10:19:34Z</time>
      </trkpt>
      <trkpt lat="42.91565" lon="0.24335">
        <ele>1572.629</ele>
        <time>2023-07-09T10:19:41Z</time>
      </trkpt>
      <trkpt lat="42.91561" lon="0.2434">
        <ele>1573.121</ele>
        <time>2023-07-09T10:19:46Z</time>
      </trkpt>
      <trkpt lat="42.91556" lon="0.24342">
        <ele>1573.109</ele>
        <time>2023-07-09T10:19:54Z</time>
      </trkpt>
      <trkpt lat="42.91551" lon="0.24343">
        <ele>1573.635</ele>
        <time>2023-07-09T10:19:59Z</time>
      </trkpt>
      <trkpt lat="42.91546" lon="0.24345">
        <ele>1573.678</ele>
        <time>2023-07-09T10:20:04Z</time>
      </trkpt>
      <trkpt lat="42.91542" lon="0.24346">
        <ele>1573.384</ele>
        <time>2023-07-09T10:20:10Z</time>
      </trkpt>
      <trkpt lat="42.91537" lon="0.24347">
        <ele>1572.885</ele>
        <time>2023-07-09T10:20:15Z</time>
      </trkpt>
      <trkpt lat="42.91531" lon="0.24346">
        <ele>1572.875</ele>
        <time>2023-07-09T10:20:20Z</time>
      </trkpt>
      <trkpt lat="42.91527" lon="0.24347">
        <ele>1572.686</ele>
        <time>2023-07-09T10:20:27Z</time>
      </trkpt>
      <trkpt lat="42.91522" lon="0.24348">
        <ele>1572.478</ele>
        <time>2023-07-09T10:20:32Z</time>
      </trkpt>
      <trkpt lat="42.91517" lon="0.24349">
        <ele>1572.63</ele>
        <time>2023-07-09T10:20:37Z</time>
      </trkpt>
      <trkpt lat="42.91512" lon="0.2435">
        <ele>1572.761</ele>
        <time>2023-07-09T10:20:43Z</time>
      </trkpt>
      <trkpt lat="42.91506" lon="0.24351">
        <ele>1573.198</ele>
        <time>2023-07-09T10:20:48Z</time>
      </trkpt>
      <trkpt lat="42.91502" lon="0.24354">
        <ele>1573.915</ele>
        <time>2023-07-09T10:20:53Z</time>
      </trkpt>
      <trkpt lat="42.91497" lon="0.24353">
        <ele>1574.126</ele>
        <time>2023-07-09T10:20:58Z</time>
      </trkpt>
      <trkpt lat="42.91493" lon="0.24352">
        <ele>1574.609</ele>
        <time>2023-07-09T10:21:04Z</time>
      </trkpt>
      <trkpt lat="42.91488" lon="0.24354">
        <ele>1574.86</ele>
        <time>2023-07-09T10:21:10Z</time>
      </trkpt>
      <trkpt lat="42.91483" lon="0.24356">
        <ele>1574.813</ele>
        <time>2023-07-09T10:21:15Z</time>
      </trkpt>
      <trkpt lat="42.91478" lon="0.24357">
        <ele>1575.259</ele>
        <time>2023-07-09T10:21:21Z</time>
      </trkpt>
      <trkpt lat="42.91474" lon="0.24361">
        <ele>1575.74</ele>
        <time>2023-07-09T10:21:28Z</time>
      </trkpt>
      <trkpt lat="42.9147" lon="0.24365">
        <ele>1575.95</ele>
        <time>2023-07-09T10:21:35Z</time>
      </trkpt>
      <trkpt lat="42.91465" lon="0.24366">
        <ele>1576.131</ele>
        <time>2023-07-09T10:21:42Z</time>
      </trkpt>
      <trkpt lat="42.91461" lon="0.24366">
        <ele>1576.153</ele>
        <time>2023-07-09T10:21:52Z</time>
      </trkpt>
      <trkpt lat="42.91456" lon="0.24368">
        <ele>1576.415</ele>
        <time>2023-07-09T10:21:58Z</time>
      </trkpt>
      <trkpt lat="42.91452" lon="0.24371">
        <ele>1576.896</ele>
        <time>2023-07-09T10:22:04Z</time>
      </trkpt>
      <trkpt lat="42.91447" lon="0.24369">
        <ele>1577.164</ele>
        <time>2023-07-09T10:22:10Z</time>
      </trkpt>
      <trkpt lat="42.91442" lon="0.2437">
        <ele>1577.606</ele>
        <time>2023-07-09T10:22:17Z</time>
      </trkpt>
      <trkpt lat="42.91438" lon="0.2437">
        <ele>1577.916</ele>
        <time>2023-07-09T10:22:24Z</time>
      </trkpt>
      <trkpt lat="42.91432" lon="0.2437">
        <ele>1578.609</ele>
        <time>2023-07-09T10:22:31Z</time>
      </trkpt>
      <trkpt lat="42.91427" lon="0.24369">
        <ele>1579.717</ele>
        <time>2023-07-09T10:22:37Z</time>
      </trkpt>
      <trkpt lat="42.91423" lon="0.24372">
        <ele>1580.38</ele>
        <time>2023-07-09T10:22:41Z</time>
      </trkpt>
      <trkpt lat="42.91418" lon="0.2437">
        <ele>1580.436</ele>
        <time>2023-07-09T10:22:48Z</time>
      </trkpt>
      <trkpt lat="42.91414" lon="0.24368">
        <ele>1580.677</ele>
        <time>2023-07-09T10:22:55Z</time>
      </trkpt>
      <trkpt lat="42.91408" lon="0.24367">
        <ele>1580.547</ele>
        <time>2023-07-09T10:23:02Z</time>
      </trkpt>
      <trkpt lat="42.91403" lon="0.24368">
        <ele>1580.598</ele>
        <time>2023-07-09T10:23:08Z</time>
      </trkpt>
      <trkpt lat="42.91399" lon="0.24368">
        <ele>1580.64</ele>
        <time>2023-07-09T10:23:13Z</time>
      </trkpt>
      <trkpt lat="42.91393" lon="0.2437">
        <ele>1580.762</ele>
        <time>2023-07-09T10:23:18Z</time>
      </trkpt>
      <trkpt lat="42.91389" lon="0.24372">
        <ele>1580.723</ele>
        <time>2023-07-09T10:23:24Z</time>
      </trkpt>
      <trkpt lat="42.91384" lon="0.24373">
        <ele>1581.085</ele>
        <time>2023-07-09T10:23:28Z</time>
      </trkpt>
      <trkpt lat="42.9138" lon="0.24372">
        <ele>1581.589</ele>
        <time>2023-07-09T10:23:31Z</time>
      </trkpt>
      <trkpt lat="42.91374" lon="0.24373">
        <ele>1581.817</ele>
        <time>2023-07-09T10:23:37Z</time>
      </trkpt>
      <trkpt lat="42.9137" lon="0.24372">
        <ele>1582.009</ele>
        <time>2023-07-09T10:23:41Z</time>
      </trkpt>
      <trkpt lat="42.91365" lon="0.24372">
        <ele>1582.019</ele>
        <time>2023-07-09T10:23:48Z</time>
      </trkpt>
      <trkpt lat="42.9136" lon="0.24372">
        <ele>1582.092</ele>
        <time>2023-07-09T10:23:54Z</time>
      </trkpt>
      <trkpt lat="42.91355" lon="0.24367">
        <ele>1581.918</ele>
        <time>2023-07-09T10:24:01Z</time>
      </trkpt>
      <trkpt lat="42.91351" lon="0.24366">
        <ele>1581.969</ele>
        <time>2023-07-09T10:24:05Z</time>
      </trkpt>
      <trkpt lat="42.91345" lon="0.24366">
        <ele>1581.969</ele>
        <time>2023-07-09T10:24:11Z</time>
      </trkpt>
      <trkpt lat="42.9134" lon="0.24366">
        <ele>1582.52</ele>
        <time>2023-07-09T10:24:16Z</time>
      </trkpt>
      <trkpt lat="42.91335" lon="0.24364">
        <ele>1583.272</ele>
        <time>2023-07-09T10:24:22Z</time>
      </trkpt>
      <trkpt lat="42.91329" lon="0.24366">
        <ele>1583.244</ele>
        <time>2023-07-09T10:24:27Z</time>
      </trkpt>
      <trkpt lat="42.91325" lon="0.24362">
        <ele>1583.465</ele>
        <time>2023-07-09T10:24:33Z</time>
      </trkpt>
      <trkpt lat="42.9132" lon="0.24364">
        <ele>1583.623</ele>
        <time>2023-07-09T10:24:38Z</time>
      </trkpt>
      <trkpt lat="42.91315" lon="0.24367">
        <ele>1583.883</ele>
        <time>2023-07-09T10:24:43Z</time>
      </trkpt>
      <trkpt lat="42.91311" lon="0.24365">
        <ele>1584.111</ele>
        <time>2023-07-09T10:24:48Z</time>
      </trkpt>
      <trkpt lat="42.91306" lon="0.24364">
        <ele>1584.309</ele>
        <time>2023-07-09T10:24:53Z</time>
      </trkpt>
      <trkpt lat="42.91301" lon="0.24363">
        <ele>1584.533</ele>
        <time>2023-07-09T10:25:00Z</time>
      </trkpt>
      <trkpt lat="42.91297" lon="0.24359">
        <ele>1584.746</ele>
        <time>2023-07-09T10:25:06Z</time>
      </trkpt>
      <trkpt lat="42.91294" lon="0.24354">
        <ele>1584.732</ele>
        <time>2023-07-09T10:25:13Z</time>
      </trkpt>
      <trkpt lat="42.9129" lon="0.24351">
        <ele>1584.763</ele>
        <time>2023-07-09T10:25:18Z</time>
      </trkpt>
      <trkpt lat="42.91285" lon="0.2435">
        <ele>1584.753</ele>
        <time>2023-07-09T10:25:23Z</time>
      </trkpt>
      <trkpt lat="42.91279" lon="0.24348">
        <ele>1585.074</ele>
        <time>2023-07-09T10:25:28Z</time>
      </trkpt>
      <trkpt lat="42.91275" lon="0.24346">
        <ele>1585.256</ele>
        <time>2023-07-09T10:25:34Z</time>
      </trkpt>
      <trkpt lat="42.9127" lon="0.24345">
        <ele>1585.448</ele>
        <time>2023-07-09T10:25:39Z</time>
      </trkpt>
      <trkpt lat="42.91266" lon="0.24344">
        <ele>1585.749</ele>
        <time>2023-07-09T10:25:44Z</time>
      </trkpt>
      <trkpt lat="42.91261" lon="0.24343">
        <ele>1585.973</ele>
        <time>2023-07-09T10:25:49Z</time>
      </trkpt>
      <trkpt lat="42.91256" lon="0.24343">
        <ele>1586.685</ele>
        <time>2023-07-09T10:25:56Z</time>
      </trkpt>
      <trkpt lat="42.91252" lon="0.24338">
        <ele>1587.213</ele>
        <time>2023-07-09T10:26:05Z</time>
      </trkpt>
      <trkpt lat="42.91247" lon="0.24336">
        <ele>1587.509</ele>
        <time>2023-07-09T10:26:12Z</time>
      </trkpt>
      <trkpt lat="42.91243" lon="0.24336">
        <ele>1588.148</ele>
        <time>2023-07-09T10:26:16Z</time>
      </trkpt>
      <trkpt lat="42.91238" lon="0.24333">
        <ele>1588.671</ele>
        <time>2023-07-09T10:26:22Z</time>
      </trkpt>
      <trkpt lat="42.91234" lon="0.24331">
        <ele>1589.727</ele>
        <time>2023-07-09T10:26:26Z</time>
      </trkpt>
      <trkpt lat="42.91229" lon="0.2433">
        <ele>1590.878</ele>
        <time>2023-07-09T10:26:32Z</time>
      </trkpt>
      <trkpt lat="42.91226" lon="0.24325">
        <ele>1591.268</ele>
        <time>2023-07-09T10:26:38Z</time>
      </trkpt>
      <trkpt lat="42.91221" lon="0.24323">
        <ele>1591.489</ele>
        <time>2023-07-09T10:26:42Z</time>
      </trkpt>
      <trkpt lat="42.91217" lon="0.24319">
        <ele>1591.941</ele>
        <time>2023-07-09T10:26:50Z</time>
      </trkpt>
      <trkpt lat="42.91213" lon="0.24319">
        <ele>1592.493</ele>
        <time>2023-07-09T10:26:56Z</time>
      </trkpt>
      <trkpt lat="42.91208" lon="0.2432">
        <ele>1592.484</ele>
        <time>2023-07-09T10:27:02Z</time>
      </trkpt>
      <trkpt lat="42.91204" lon="0.24322">
        <ele>1592.492</ele>
        <time>2023-07-09T10:27:07Z</time>
      </trkpt>
      <trkpt lat="42.91199" lon="0.24322">
        <ele>1592.873</ele>
        <time>2023-07-09T10:27:13Z</time>
      </trkpt>
      <trkpt lat="42.91194" lon="0.24322">
        <ele>1593.22</ele>
        <time>2023-07-09T10:27:17Z</time>
      </trkpt>
      <trkpt lat="42.91189" lon="0.24322">
        <ele>1593.509</ele>
        <time>2023-07-09T10:27:21Z</time>
      </trkpt>
      <trkpt lat="42.91183" lon="0.2432">
        <ele>1593.88</ele>
        <time>2023-07-09T10:27:30Z</time>
      </trkpt>
      <trkpt lat="42.91178" lon="0.24321">
        <ele>1593.993</ele>
        <time>2023-07-09T10:27:36Z</time>
      </trkpt>
      <trkpt lat="42.91173" lon="0.24321">
        <ele>1594.619</ele>
        <time>2023-07-09T10:27:43Z</time>
      </trkpt>
      <trkpt lat="42.91169" lon="0.24317">
        <ele>1595.49</ele>
        <time>2023-07-09T10:27:49Z</time>
      </trkpt>
      <trkpt lat="42.91165" lon="0.24314">
        <ele>1595.94</ele>
        <time>2023-07-09T10:27:59Z</time>
      </trkpt>
      <trkpt lat="42.9116" lon="0.2431">
        <ele>1597.021</ele>
        <time>2023-07-09T10:28:09Z</time>
      </trkpt>
      <trkpt lat="42.91156" lon="0.24306">
        <ele>1598.453</ele>
        <time>2023-07-09T10:28:17Z</time>
      </trkpt>
      <trkpt lat="42.91152" lon="0.24301">
        <ele>1599.555</ele>
        <time>2023-07-09T10:28:28Z</time>
      </trkpt>
      <trkpt lat="42.91152" lon="0.24294">
        <ele>1600.826</ele>
        <time>2023-07-09T10:28:35Z</time>
      </trkpt>
      <trkpt lat="42.91148" lon="0.2429">
        <ele>1601.986</ele>
        <time>2023-07-09T10:28:48Z</time>
      </trkpt>
      <trkpt lat="42.91145" lon="0.24286">
        <ele>1602.86</ele>
        <time>2023-07-09T10:28:58Z</time>
      </trkpt>
      <trkpt lat="42.91142" lon="0.24281">
        <ele>1603.826</ele>
        <time>2023-07-09T10:29:06Z</time>
      </trkpt>
      <trkpt lat="42.91139" lon="0.24276">
        <ele>1605.009</ele>
        <time>2023-07-09T10:29:12Z</time>
      </trkpt>
      <trkpt lat="42.91138" lon="0.2427">
        <ele>1606.449</ele>
        <time>2023-07-09T10:29:22Z</time>
      </trkpt>
      <trkpt lat="42.91134" lon="0.24265">
        <ele>1607.692</ele>
        <time>2023-07-09T10:29:34Z</time>
      </trkpt>
      <trkpt lat="42.91129" lon="0.2426">
        <ele>1608.268</ele>
        <time>2023-07-09T10:29:42Z</time>
      </trkpt>
      <trkpt lat="42.91126" lon="0.24255">
        <ele>1610.069</ele>
        <time>2023-07-09T10:29:54Z</time>
      </trkpt>
      <trkpt lat="42.91124" lon="0.24249">
        <ele>1612.299</ele>
        <time>2023-07-09T10:30:04Z</time>
      </trkpt>
      <trkpt lat="42.9112" lon="0.24244">
        <ele>1614.02</ele>
        <time>2023-07-09T10:30:16Z</time>
      </trkpt>
      <trkpt lat="42.91117" lon="0.24239">
        <ele>1616.572</ele>
        <time>2023-07-09T10:30:23Z</time>
      </trkpt>
      <trkpt lat="42.91114" lon="0.24233">
        <ele>1618.934</ele>
        <time>2023-07-09T10:30:34Z</time>
      </trkpt>
      <trkpt lat="42.9111" lon="0.2423">
        <ele>1620.365</ele>
        <time>2023-07-09T10:30:45Z</time>
      </trkpt>
      <trkpt lat="42.91106" lon="0.24227">
        <ele>1622.017</ele>
        <time>2023-07-09T10:30:56Z</time>
      </trkpt>
      <trkpt lat="42.91101" lon="0.24225">
        <ele>1623.887</ele>
        <time>2023-07-09T10:31:10Z</time>
      </trkpt>
      <trkpt lat="42.91096" lon="0.24225">
        <ele>1625.815</ele>
        <time>2023-07-09T10:31:18Z</time>
      </trkpt>
      <trkpt lat="42.91092" lon="0.24221">
        <ele>1628.709</ele>
        <time>2023-07-09T10:31:26Z</time>
      </trkpt>
      <trkpt lat="42.91087" lon="0.24217">
        <ele>1630.662</ele>
        <time>2023-07-09T10:31:34Z</time>
      </trkpt>
      <trkpt lat="42.91083" lon="0.24212">
        <ele>1632.135</ele>
        <time>2023-07-09T10:31:53Z</time>
      </trkpt>
      <trkpt lat="42.91085" lon="0.24206">
        <ele>1633.281</ele>
        <time>2023-07-09T10:33:27Z</time>
      </trkpt>
      <trkpt lat="42.91082" lon="0.24201">
        <ele>1633.792</ele>
        <time>2023-07-09T10:39:58Z</time>
      </trkpt>
      <trkpt lat="42.91081" lon="0.24193">
        <ele>1634.812</ele>
        <time>2023-07-09T10:40:01Z</time>
      </trkpt>
      <trkpt lat="42.91079" lon="0.24187">
        <ele>1634.833</ele>
        <time>2023-07-09T10:40:08Z</time>
      </trkpt>
      <trkpt lat="42.91077" lon="0.2418">
        <ele>1634.925</ele>
        <time>2023-07-09T10:40:16Z</time>
      </trkpt>
      <trkpt lat="42.91075" lon="0.24174">
        <ele>1636.977</ele>
        <time>2023-07-09T10:40:25Z</time>
      </trkpt>
      <trkpt lat="42.91074" lon="0.24167">
        <ele>1639.648</ele>
        <time>2023-07-09T10:40:34Z</time>
      </trkpt>
      <trkpt lat="42.91073" lon="0.24161">
        <ele>1641.762</ele>
        <time>2023-07-09T10:40:43Z</time>
      </trkpt>
      <trkpt lat="42.91073" lon="0.24153">
        <ele>1643.883</ele>
        <time>2023-07-09T10:40:52Z</time>
      </trkpt>
      <trkpt lat="42.91072" lon="0.24148">
        <ele>1644.911</ele>
        <time>2023-07-09T10:41:01Z</time>
      </trkpt>
      <trkpt lat="42.91072" lon="0.24141">
        <ele>1646.509</ele>
        <time>2023-07-09T10:41:08Z</time>
      </trkpt>
      <trkpt lat="42.9107" lon="0.24134">
        <ele>1648.567</ele>
        <time>2023-07-09T10:41:20Z</time>
      </trkpt>
      <trkpt lat="42.91065" lon="0.24132">
        <ele>1650.18</ele>
        <time>2023-07-09T10:41:27Z</time>
      </trkpt>
      <trkpt lat="42.91061" lon="0.24127">
        <ele>1651.116</ele>
        <time>2023-07-09T10:41:31Z</time>
      </trkpt>
      <trkpt lat="42.91058" lon="0.24122">
        <ele>1651.467</ele>
        <time>2023-07-09T10:41:39Z</time>
      </trkpt>
      <trkpt lat="42.91056" lon="0.24116">
        <ele>1652.217</ele>
        <time>2023-07-09T10:41:45Z</time>
      </trkpt>
      <trkpt lat="42.91054" lon="0.2411">
        <ele>1652.818</ele>
        <time>2023-07-09T10:41:55Z</time>
      </trkpt>
      <trkpt lat="42.91048" lon="0.24106">
        <ele>1653.29</ele>
        <time>2023-07-09T10:42:00Z</time>
      </trkpt>
      <trkpt lat="42.91046" lon="0.24101">
        <ele>1653.862</ele>
        <time>2023-07-09T10:42:04Z</time>
      </trkpt>
      <trkpt lat="42.91042" lon="0.24096">
        <ele>1654.153</ele>
        <time>2023-07-09T10:42:10Z</time>
      </trkpt>
      <trkpt lat="42.91038" lon="0.24092">
        <ele>1654.832</ele>
        <time>2023-07-09T10:42:15Z</time>
      </trkpt>
      <trkpt lat="42.91036" lon="0.24086">
        <ele>1655.592</ele>
        <time>2023-07-09T10:42:22Z</time>
      </trkpt>
      <trkpt lat="42.91033" lon="0.2408">
        <ele>1655.811</ele>
        <time>2023-07-09T10:42:26Z</time>
      </trkpt>
      <trkpt lat="42.91029" lon="0.24076">
        <ele>1656.109</ele>
        <time>2023-07-09T10:42:30Z</time>
      </trkpt>
      <trkpt lat="42.91025" lon="0.24071">
        <ele>1656.534</ele>
        <time>2023-07-09T10:42:34Z</time>
      </trkpt>
      <trkpt lat="42.91021" lon="0.24066">
        <ele>1656.947</ele>
        <time>2023-07-09T10:42:43Z</time>
      </trkpt>
      <trkpt lat="42.91017" lon="0.24063">
        <ele>1657.473</ele>
        <time>2023-07-09T10:42:48Z</time>
      </trkpt>
      <trkpt lat="42.91012" lon="0.24056">
        <ele>1657.924</ele>
        <time>2023-07-09T10:42:52Z</time>
      </trkpt>
      <trkpt lat="42.91009" lon="0.2405">
        <ele>1658.094</ele>
        <time>2023-07-09T10:42:58Z</time>
      </trkpt>
      <trkpt lat="42.91006" lon="0.24042">
        <ele>1658.455</ele>
        <time>2023-07-09T10:43:04Z</time>
      </trkpt>
      <trkpt lat="42.91003" lon="0.24037">
        <ele>1658.777</ele>
        <time>2023-07-09T10:43:10Z</time>
      </trkpt>
      <trkpt lat="42.91001" lon="0.2403">
        <ele>1659.389</ele>
        <time>2023-07-09T10:43:16Z</time>
      </trkpt>
      <trkpt lat="42.90998" lon="0.24024">
        <ele>1660.23</ele>
        <time>2023-07-09T10:43:21Z</time>
      </trkpt>
      <trkpt lat="42.90994" lon="0.24021">
        <ele>1660.234</ele>
        <time>2023-07-09T10:43:27Z</time>
      </trkpt>
      <trkpt lat="42.90989" lon="0.24018">
        <ele>1660.155</ele>
        <time>2023-07-09T10:43:31Z</time>
      </trkpt>
      <trkpt lat="42.90985" lon="0.24013">
        <ele>1660.41</ele>
        <time>2023-07-09T10:43:38Z</time>
      </trkpt>
      <trkpt lat="42.90981" lon="0.24008">
        <ele>1660.509</ele>
        <time>2023-07-09T10:43:45Z</time>
      </trkpt>
      <trkpt lat="42.90977" lon="0.24006">
        <ele>1660.274</ele>
        <time>2023-07-09T10:43:50Z</time>
      </trkpt>
      <trkpt lat="42.90972" lon="0.24003">
        <ele>1660.067</ele>
        <time>2023-07-09T10:43:56Z</time>
      </trkpt>
      <trkpt lat="42.90968" lon="0.24003">
        <ele>1660.233</ele>
        <time>2023-07-09T10:44:01Z</time>
      </trkpt>
      <trkpt lat="42.90963" lon="0.24">
        <ele>1660.424</ele>
        <time>2023-07-09T10:44:05Z</time>
      </trkpt>
      <trkpt lat="42.9096" lon="0.23995">
        <ele>1660.464</ele>
        <time>2023-07-09T10:44:09Z</time>
      </trkpt>
      <trkpt lat="42.90956" lon="0.23992">
        <ele>1660.615</ele>
        <time>2023-07-09T10:44:13Z</time>
      </trkpt>
      <trkpt lat="42.90951" lon="0.23988">
        <ele>1660.967</ele>
        <time>2023-07-09T10:44:19Z</time>
      </trkpt>
      <trkpt lat="42.90948" lon="0.23984">
        <ele>1661.129</ele>
        <time>2023-07-09T10:44:24Z</time>
      </trkpt>
      <trkpt lat="42.90943" lon="0.23981">
        <ele>1661.56</ele>
        <time>2023-07-09T10:44:30Z</time>
      </trkpt>
      <trkpt lat="42.90939" lon="0.23977">
        <ele>1661.874</ele>
        <time>2023-07-09T10:44:35Z</time>
      </trkpt>
      <trkpt lat="42.90937" lon="0.23971">
        <ele>1662.256</ele>
        <time>2023-07-09T10:44:40Z</time>
      </trkpt>
      <trkpt lat="42.90931" lon="0.23967">
        <ele>1662.521</ele>
        <time>2023-07-09T10:44:45Z</time>
      </trkpt>
      <trkpt lat="42.90927" lon="0.23964">
        <ele>1663.009</ele>
        <time>2023-07-09T10:44:50Z</time>
      </trkpt>
      <trkpt lat="42.90923" lon="0.2396">
        <ele>1663.678</ele>
        <time>2023-07-09T10:44:55Z</time>
      </trkpt>
      <trkpt lat="42.90919" lon="0.23956">
        <ele>1664.771</ele>
        <time>2023-07-09T10:45:00Z</time>
      </trkpt>
      <trkpt lat="42.90915" lon="0.23953">
        <ele>1665.317</ele>
        <time>2023-07-09T10:45:04Z</time>
      </trkpt>
      <trkpt lat="42.90911" lon="0.23949">
        <ele>1665.458</ele>
        <time>2023-07-09T10:45:10Z</time>
      </trkpt>
      <trkpt lat="42.90906" lon="0.23946">
        <ele>1665.418</ele>
        <time>2023-07-09T10:45:18Z</time>
      </trkpt>
      <trkpt lat="42.90904" lon="0.2394">
        <ele>1665.439</ele>
        <time>2023-07-09T10:45:24Z</time>
      </trkpt>
      <trkpt lat="42.90899" lon="0.23937">
        <ele>1665.441</ele>
        <time>2023-07-09T10:45:32Z</time>
      </trkpt>
      <trkpt lat="42.90894" lon="0.23936">
        <ele>1665.423</ele>
        <time>2023-07-09T10:45:41Z</time>
      </trkpt>
      <trkpt lat="42.90889" lon="0.23934">
        <ele>1666.044</ele>
        <time>2023-07-09T10:45:48Z</time>
      </trkpt>
      <trkpt lat="42.90884" lon="0.23934">
        <ele>1666.798</ele>
        <time>2023-07-09T10:45:56Z</time>
      </trkpt>
      <trkpt lat="42.90879" lon="0.23936">
        <ele>1667.115</ele>
        <time>2023-07-09T10:46:05Z</time>
      </trkpt>
      <trkpt lat="42.90873" lon="0.23938">
        <ele>1667.126</ele>
        <time>2023-07-09T10:46:15Z</time>
      </trkpt>
      <trkpt lat="42.90869" lon="0.23941">
        <ele>1667.209</ele>
        <time>2023-07-09T10:46:21Z</time>
      </trkpt>
      <trkpt lat="42.90864" lon="0.23943">
        <ele>1667.92</ele>
        <time>2023-07-09T10:46:34Z</time>
      </trkpt>
      <trkpt lat="42.9086" lon="0.23941">
        <ele>1668.843</ele>
        <time>2023-07-09T10:46:42Z</time>
      </trkpt>
      <trkpt lat="42.90855" lon="0.23939">
        <ele>1670.189</ele>
        <time>2023-07-09T10:46:54Z</time>
      </trkpt>
      <trkpt lat="42.9085" lon="0.23938">
        <ele>1671.86</ele>
        <time>2023-07-09T10:47:06Z</time>
      </trkpt>
      <trkpt lat="42.90846" lon="0.23935">
        <ele>1673.47</ele>
        <time>2023-07-09T10:47:19Z</time>
      </trkpt>
      <trkpt lat="42.90842" lon="0.23938">
        <ele>1674.731</ele>
        <time>2023-07-09T10:47:26Z</time>
      </trkpt>
      <trkpt lat="42.90838" lon="0.23933">
        <ele>1676.833</ele>
        <time>2023-07-09T10:47:39Z</time>
      </trkpt>
      <trkpt lat="42.90834" lon="0.23931">
        <ele>1678.715</ele>
        <time>2023-07-09T10:47:47Z</time>
      </trkpt>
      <trkpt lat="42.90829" lon="0.23928">
        <ele>1680.816</ele>
        <time>2023-07-09T10:47:58Z</time>
      </trkpt>
      <trkpt lat="42.90824" lon="0.23927">
        <ele>1683.379</ele>
        <time>2023-07-09T10:48:06Z</time>
      </trkpt>
      <trkpt lat="42.90819" lon="0.23924">
        <ele>1685.105</ele>
        <time>2023-07-09T10:48:20Z</time>
      </trkpt>
      <trkpt lat="42.90816" lon="0.23917">
        <ele>1686.625</ele>
        <time>2023-07-09T10:48:27Z</time>
      </trkpt>
      <trkpt lat="42.90812" lon="0.23912">
        <ele>1688.009</ele>
        <time>2023-07-09T10:48:41Z</time>
      </trkpt>
      <trkpt lat="42.90807" lon="0.23909">
        <ele>1688.858</ele>
        <time>2023-07-09T10:48:54Z</time>
      </trkpt>
      <trkpt lat="42.90803" lon="0.23904">
        <ele>1689.771</ele>
        <time>2023-07-09T10:49:00Z</time>
      </trkpt>
      <trkpt lat="42.908" lon="0.23899">
        <ele>1690.187</ele>
        <time>2023-07-09T10:49:08Z</time>
      </trkpt>
      <trkpt lat="42.90796" lon="0.23896">
        <ele>1691.168</ele>
        <time>2023-07-09T10:49:14Z</time>
      </trkpt>
      <trkpt lat="42.90792" lon="0.23891">
        <ele>1691.868</ele>
        <time>2023-07-09T10:49:26Z</time>
      </trkpt>
      <trkpt lat="42.90788" lon="0.23886">
        <ele>1692.149</ele>
        <time>2023-07-09T10:49:32Z</time>
      </trkpt>
      <trkpt lat="42.90788" lon="0.23878">
        <ele>1692.851</ele>
        <time>2023-07-09T10:49:43Z</time>
      </trkpt>
      <trkpt lat="42.90784" lon="0.23868">
        <ele>1693.443</ele>
        <time>2023-07-09T10:49:55Z</time>
      </trkpt>
      <trkpt lat="42.90789" lon="0.23868">
        <ele>1695.164</ele>
        <time>2023-07-09T10:50:03Z</time>
      </trkpt>
      <trkpt lat="42.90789" lon="0.23861">
        <ele>1695.839</ele>
        <time>2023-07-09T10:50:12Z</time>
      </trkpt>
      <trkpt lat="42.90785" lon="0.23856">
        <ele>1696.101</ele>
        <time>2023-07-09T10:50:20Z</time>
      </trkpt>
      <trkpt lat="42.90786" lon="0.2385">
        <ele>1696.821</ele>
        <time>2023-07-09T10:50:28Z</time>
      </trkpt>
      <trkpt lat="42.90784" lon="0.23842">
        <ele>1697.609</ele>
        <time>2023-07-09T10:50:34Z</time>
      </trkpt>
      <trkpt lat="42.9078" lon="0.23839">
        <ele>1698.594</ele>
        <time>2023-07-09T10:50:44Z</time>
      </trkpt>
      <trkpt lat="42.90779" lon="0.23833">
        <ele>1699.647</ele>
        <time>2023-07-09T10:50:52Z</time>
      </trkpt>
      <trkpt lat="42.90777" lon="0.23826">
        <ele>1701.213</ele>
        <time>2023-07-09T10:51:04Z</time>
      </trkpt>
      <trkpt lat="42.90772" lon="0.23822">
        <ele>1703.574</ele>
        <time>2023-07-09T10:51:12Z</time>
      </trkpt>
      <trkpt lat="42.9077" lon="0.23816">
        <ele>1706.094</ele>
        <time>2023-07-09T10:51:25Z</time>
      </trkpt>
      <trkpt lat="42.90767" lon="0.23811">
        <ele>1707.585</ele>
        <time>2023-07-09T10:51:37Z</time>
      </trkpt>
      <trkpt lat="42.90763" lon="0.23807">
        <ele>1709.157</ele>
        <time>2023-07-09T10:51:46Z</time>
      </trkpt>
      <trkpt lat="42.90759" lon="0.23802">
        <ele>1710.269</ele>
        <time>2023-07-09T10:51:50Z</time>
      </trkpt>
      <trkpt lat="42.90758" lon="0.23795">
        <ele>1710.66</ele>
        <time>2023-07-09T10:51:56Z</time>
      </trkpt>
      <trkpt lat="42.90756" lon="0.23787">
        <ele>1711.365</ele>
        <time>2023-07-09T10:52:01Z</time>
      </trkpt>
      <trkpt lat="42.90754" lon="0.23782">
        <ele>1712.168</ele>
        <time>2023-07-09T10:52:11Z</time>
      </trkpt>
      <trkpt lat="42.90753" lon="0.23775">
        <ele>1713.114</ele>
        <time>2023-07-09T10:52:19Z</time>
      </trkpt>
      <trkpt lat="42.90749" lon="0.23772">
        <ele>1715.309</ele>
        <time>2023-07-09T10:52:28Z</time>
      </trkpt>
      <trkpt lat="42.90748" lon="0.23765">
        <ele>1717.277</ele>
        <time>2023-07-09T10:52:32Z</time>
      </trkpt>
      <trkpt lat="42.90749" lon="0.23759">
        <ele>1717.81</ele>
        <time>2023-07-09T10:52:45Z</time>
      </trkpt>
      <trkpt lat="42.90748" lon="0.23753">
        <ele>1718.836</ele>
        <time>2023-07-09T10:52:53Z</time>
      </trkpt>
      <trkpt lat="42.90748" lon="0.23747">
        <ele>1720.567</ele>
        <time>2023-07-09T10:53:00Z</time>
      </trkpt>
      <trkpt lat="42.90747" lon="0.2374">
        <ele>1721.687</ele>
        <time>2023-07-09T10:53:07Z</time>
      </trkpt>
      <trkpt lat="42.90746" lon="0.23734">
        <ele>1722.228</ele>
        <time>2023-07-09T10:53:16Z</time>
      </trkpt>
      <trkpt lat="42.90743" lon="0.23729">
        <ele>1722.74</ele>
        <time>2023-07-09T10:53:22Z</time>
      </trkpt>
      <trkpt lat="42.90738" lon="0.23723">
        <ele>1723.082</ele>
        <time>2023-07-09T10:53:30Z</time>
      </trkpt>
      <trkpt lat="42.90733" lon="0.23722">
        <ele>1723.383</ele>
        <time>2023-07-09T10:53:37Z</time>
      </trkpt>
      <trkpt lat="42.9073" lon="0.23718">
        <ele>1723.519</ele>
        <time>2023-07-09T10:53:44Z</time>
      </trkpt>
      <trkpt lat="42.90725" lon="0.23716">
        <ele>1723.609</ele>
        <time>2023-07-09T10:53:48Z</time>
      </trkpt>
      <trkpt lat="42.90722" lon="0.23709">
        <ele>1724.219</ele>
        <time>2023-07-09T10:53:55Z</time>
      </trkpt>
      <trkpt lat="42.90721" lon="0.23703">
        <ele>1724.809</ele>
        <time>2023-07-09T10:54:01Z</time>
      </trkpt>
      <trkpt lat="42.90719" lon="0.23695">
        <ele>1725.172</ele>
        <time>2023-07-09T10:54:08Z</time>
      </trkpt>
      <trkpt lat="42.90718" lon="0.23688">
        <ele>1725.485</ele>
        <time>2023-07-09T10:54:12Z</time>
      </trkpt>
      <trkpt lat="42.90716" lon="0.23681">
        <ele>1725.671</ele>
        <time>2023-07-09T10:54:17Z</time>
      </trkpt>
      <trkpt lat="42.90714" lon="0.23675">
        <ele>1725.742</ele>
        <time>2023-07-09T10:54:21Z</time>
      </trkpt>
      <trkpt lat="42.90712" lon="0.2367">
        <ele>1725.782</ele>
        <time>2023-07-09T10:54:25Z</time>
      </trkpt>
      <trkpt lat="42.9071" lon="0.23664">
        <ele>1726.223</ele>
        <time>2023-07-09T10:54:29Z</time>
      </trkpt>
      <trkpt lat="42.90708" lon="0.23658">
        <ele>1727.135</ele>
        <time>2023-07-09T10:54:33Z</time>
      </trkpt>
      <trkpt lat="42.90706" lon="0.23652">
        <ele>1727.857</ele>
        <time>2023-07-09T10:54:37Z</time>
      </trkpt>
      <trkpt lat="42.90703" lon="0.23647">
        <ele>1728.258</ele>
        <time>2023-07-09T10:54:42Z</time>
      </trkpt>
      <trkpt lat="42.90702" lon="0.2364">
        <ele>1728.469</ele>
        <time>2023-07-09T10:54:47Z</time>
      </trkpt>
      <trkpt lat="42.90699" lon="0.23635">
        <ele>1728.504</ele>
        <time>2023-07-09T10:54:51Z</time>
      </trkpt>
      <trkpt lat="42.90697" lon="0.23629">
        <ele>1728.724</ele>
        <time>2023-07-09T10:54:55Z</time>
      </trkpt>
      <trkpt lat="42.90694" lon="0.23624">
        <ele>1729.009</ele>
        <time>2023-07-09T10:55:01Z</time>
      </trkpt>
      <trkpt lat="42.90691" lon="0.23618">
        <ele>1729.577</ele>
        <time>2023-07-09T10:55:06Z</time>
      </trkpt>
      <trkpt lat="42.90688" lon="0.23613">
        <ele>1729.66</ele>
        <time>2023-07-09T10:55:11Z</time>
      </trkpt>
      <trkpt lat="42.90684" lon="0.2361">
        <ele>1729.696</ele>
        <time>2023-07-09T10:55:16Z</time>
      </trkpt>
      <trkpt lat="42.90681" lon="0.23605">
        <ele>1729.647</ele>
        <time>2023-07-09T10:55:22Z</time>
      </trkpt>
      <trkpt lat="42.90677" lon="0.236">
        <ele>1729.657</ele>
        <time>2023-07-09T10:55:29Z</time>
      </trkpt>
      <trkpt lat="42.90672" lon="0.23599">
        <ele>1729.688</ele>
        <time>2023-07-09T10:55:35Z</time>
      </trkpt>
      <trkpt lat="42.90671" lon="0.23592">
        <ele>1730.13</ele>
        <time>2023-07-09T10:55:41Z</time>
      </trkpt>
      <trkpt lat="42.90669" lon="0.23586">
        <ele>1730.812</ele>
        <time>2023-07-09T10:55:46Z</time>
      </trkpt>
      <trkpt lat="42.90668" lon="0.23579">
        <ele>1730.873</ele>
        <time>2023-07-09T10:55:51Z</time>
      </trkpt>
      <trkpt lat="42.90666" lon="0.23573">
        <ele>1731.122</ele>
        <time>2023-07-09T10:55:56Z</time>
      </trkpt>
      <trkpt lat="42.90663" lon="0.23567">
        <ele>1731.762</ele>
        <time>2023-07-09T10:56:01Z</time>
      </trkpt>
      <trkpt lat="42.90659" lon="0.23561">
        <ele>1733.008</ele>
        <time>2023-07-09T10:56:09Z</time>
      </trkpt>
      <trkpt lat="42.90656" lon="0.23556">
        <ele>1734.909</ele>
        <time>2023-07-09T10:56:15Z</time>
      </trkpt>
      <trkpt lat="42.90654" lon="0.23549">
        <ele>1736.183</ele>
        <time>2023-07-09T10:56:22Z</time>
      </trkpt>
      <trkpt lat="42.90649" lon="0.23548">
        <ele>1736.996</ele>
        <time>2023-07-09T10:56:28Z</time>
      </trkpt>
      <trkpt lat="42.90644" lon="0.2355">
        <ele>1736.872</ele>
        <time>2023-07-09T10:56:34Z</time>
      </trkpt>
      <trkpt lat="42.90639" lon="0.23549">
        <ele>1737.023</ele>
        <time>2023-07-09T10:56:41Z</time>
      </trkpt>
      <trkpt lat="42.90635" lon="0.23551">
        <ele>1737.063</ele>
        <time>2023-07-09T10:58:41Z</time>
      </trkpt>
      <trkpt lat="42.9063" lon="0.23553">
        <ele>1736.874</ele>
        <time>2023-07-09T10:58:44Z</time>
      </trkpt>
      <trkpt lat="42.90625" lon="0.23553">
        <ele>1735.916</ele>
        <time>2023-07-09T10:58:48Z</time>
      </trkpt>
      <trkpt lat="42.9062" lon="0.2355">
        <ele>1735.658</ele>
        <time>2023-07-09T10:58:52Z</time>
      </trkpt>
      <trkpt lat="42.90615" lon="0.23547">
        <ele>1735.659</ele>
        <time>2023-07-09T10:58:56Z</time>
      </trkpt>
      <trkpt lat="42.90609" lon="0.23546">
        <ele>1735.661</ele>
        <time>2023-07-09T10:59:00Z</time>
      </trkpt>
      <trkpt lat="42.90605" lon="0.23542">
        <ele>1737.021</ele>
        <time>2023-07-09T10:59:04Z</time>
      </trkpt>
      <trkpt lat="42.90601" lon="0.2354">
        <ele>1737.113</ele>
        <time>2023-07-09T10:59:08Z</time>
      </trkpt>
      <trkpt lat="42.90595" lon="0.23538">
        <ele>1737.509</ele>
        <time>2023-07-09T10:59:12Z</time>
      </trkpt>
      <trkpt lat="42.9059" lon="0.23537">
        <ele>1738.297</ele>
        <time>2023-07-09T10:59:17Z</time>
      </trkpt>
      <trkpt lat="42.90585" lon="0.23534">
        <ele>1738.76</ele>
        <time>2023-07-09T10:59:21Z</time>
      </trkpt>
      <trkpt lat="42.9058" lon="0.23535">
        <ele>1740.096</ele>
        <time>2023-07-09T10:59:25Z</time>
      </trkpt>
      <trkpt lat="42.90575" lon="0.23535">
        <ele>1742.287</ele>
        <time>2023-07-09T10:59:30Z</time>
      </trkpt>
      <trkpt lat="42.90571" lon="0.23531">
        <ele>1744.167</ele>
        <time>2023-07-09T10:59:36Z</time>
      </trkpt>
      <trkpt lat="42.90566" lon="0.23529">
        <ele>1745.138</ele>
        <time>2023-07-09T10:59:44Z</time>
      </trkpt>
      <trkpt lat="42.90561" lon="0.23534">
        <ele>1746.16</ele>
        <time>2023-07-09T10:59:50Z</time>
      </trkpt>
      <trkpt lat="42.90555" lon="0.23533">
        <ele>1747.872</ele>
        <time>2023-07-09T10:59:54Z</time>
      </trkpt>
      <trkpt lat="42.90551" lon="0.23538">
        <ele>1748.933</ele>
        <time>2023-07-09T11:00:02Z</time>
      </trkpt>
      <trkpt lat="42.90546" lon="0.2354">
        <ele>1749.869</ele>
        <time>2023-07-09T11:00:06Z</time>
      </trkpt>
      <trkpt lat="42.90541" lon="0.23544">
        <ele>1750.204</ele>
        <time>2023-07-09T11:00:12Z</time>
      </trkpt>
      <trkpt lat="42.90536" lon="0.23548">
        <ele>1750.524</ele>
        <time>2023-07-09T11:00:16Z</time>
      </trkpt>
      <trkpt lat="42.90532" lon="0.2355">
        <ele>1750.609</ele>
        <time>2023-07-09T11:00:20Z</time>
      </trkpt>
      <trkpt lat="42.90528" lon="0.23553">
        <ele>1750.797</ele>
        <time>2023-07-09T11:00:24Z</time>
      </trkpt>
      <trkpt lat="42.90523" lon="0.23553">
        <ele>1751.03</ele>
        <time>2023-07-09T11:00:29Z</time>
      </trkpt>
      <trkpt lat="42.90517" lon="0.23553">
        <ele>1751.096</ele>
        <time>2023-07-09T11:00:34Z</time>
      </trkpt>
      <trkpt lat="42.90512" lon="0.23556">
        <ele>1751.437</ele>
        <time>2023-07-09T11:00:41Z</time>
      </trkpt>
      <trkpt lat="42.90506" lon="0.23556">
        <ele>1752.057</ele>
        <time>2023-07-09T11:00:46Z</time>
      </trkpt>
      <trkpt lat="42.90502" lon="0.23558">
        <ele>1753.688</ele>
        <time>2023-07-09T11:00:51Z</time>
      </trkpt>
      <trkpt lat="42.90499" lon="0.23563">
        <ele>1754.86</ele>
        <time>2023-07-09T11:00:55Z</time>
      </trkpt>
      <trkpt lat="42.90496" lon="0.23568">
        <ele>1755.682</ele>
        <time>2023-07-09T11:01:00Z</time>
      </trkpt>
      <trkpt lat="42.90491" lon="0.2357">
        <ele>1757.063</ele>
        <time>2023-07-09T11:01:06Z</time>
      </trkpt>
      <trkpt lat="42.90485" lon="0.23572">
        <ele>1758.397</ele>
        <time>2023-07-09T11:01:13Z</time>
      </trkpt>
      <trkpt lat="42.90481" lon="0.23577">
        <ele>1760.523</ele>
        <time>2023-07-09T11:01:22Z</time>
      </trkpt>
      <trkpt lat="42.90478" lon="0.23572">
        <ele>1763.125</ele>
        <time>2023-07-09T11:01:41Z</time>
      </trkpt>
      <trkpt lat="42.90473" lon="0.23573">
        <ele>1764.709</ele>
        <time>2023-07-09T11:01:50Z</time>
      </trkpt>
      <trkpt lat="42.90469" lon="0.23575">
        <ele>1765.36</ele>
        <time>2023-07-09T11:02:05Z</time>
      </trkpt>
      <trkpt lat="42.90466" lon="0.2358">
        <ele>1766.583</ele>
        <time>2023-07-09T11:02:44Z</time>
      </trkpt>
      <trkpt lat="42.90463" lon="0.23575">
        <ele>1767.339</ele>
        <time>2023-07-09T11:03:47Z</time>
      </trkpt>
      <trkpt lat="42.90467" lon="0.23573">
        <ele>1767.97</ele>
        <time>2023-07-09T11:04:34Z</time>
      </trkpt>
      <trkpt lat="42.90463" lon="0.23572">
        <ele>1768.59</ele>
        <time>2023-07-09T11:04:44Z</time>
      </trkpt>
      <trkpt lat="42.90458" lon="0.23568">
        <ele>1768.811</ele>
        <time>2023-07-09T11:04:50Z</time>
      </trkpt>
      <trkpt lat="42.90456" lon="0.23561">
        <ele>1768.853</ele>
        <time>2023-07-09T11:05:28Z</time>
      </trkpt>
      <trkpt lat="42.90455" lon="0.23554">
        <ele>1768.925</ele>
        <time>2023-07-09T11:05:37Z</time>
      </trkpt>
      <trkpt lat="42.9046" lon="0.23549">
        <ele>1769.086</ele>
        <time>2023-07-09T11:05:57Z</time>
      </trkpt>
      <trkpt lat="42.90464" lon="0.23545">
        <ele>1770.713</ele>
        <time>2023-07-09T11:06:03Z</time>
      </trkpt>
      <trkpt lat="42.90465" lon="0.23538">
        <ele>1771.443</ele>
        <time>2023-07-09T11:06:20Z</time>
      </trkpt>
      <trkpt lat="42.9047" lon="0.23536">
        <ele>1772.507</ele>
        <time>2023-07-09T11:06:41Z</time>
      </trkpt>
      <trkpt lat="42.90471" lon="0.23529">
        <ele>1775.309</ele>
        <time>2023-07-09T11:06:53Z</time>
      </trkpt>
      <trkpt lat="42.90467" lon="0.23526">
        <ele>1779.072</ele>
        <time>2023-07-09T11:07:09Z</time>
      </trkpt>
      <trkpt lat="42.90465" lon="0.2352">
        <ele>1780.415</ele>
        <time>2023-07-09T11:07:16Z</time>
      </trkpt>
      <trkpt lat="42.90465" lon="0.23513">
        <ele>1781.051</ele>
        <time>2023-07-09T11:07:24Z</time>
      </trkpt>
      <trkpt lat="42.90461" lon="0.23508">
        <ele>1782.262</ele>
        <time>2023-07-09T11:07:28Z</time>
      </trkpt>
      <trkpt lat="42.9046" lon="0.23502">
        <ele>1783.512</ele>
        <time>2023-07-09T11:07:33Z</time>
      </trkpt>
      <trkpt lat="42.90457" lon="0.23497">
        <ele>1784.133</ele>
        <time>2023-07-09T11:07:38Z</time>
      </trkpt>
      <trkpt lat="42.90453" lon="0.23493">
        <ele>1784.645</ele>
        <time>2023-07-09T11:07:45Z</time>
      </trkpt>
      <trkpt lat="42.90448" lon="0.23493">
        <ele>1785.427</ele>
        <time>2023-07-09T11:07:55Z</time>
      </trkpt>
      <trkpt lat="42.90444" lon="0.23496">
        <ele>1786.758</ele>
        <time>2023-07-09T11:08:00Z</time>
      </trkpt>
      <trkpt lat="42.90439" lon="0.23498">
        <ele>1788.016</ele>
        <time>2023-07-09T11:08:07Z</time>
      </trkpt>
      <trkpt lat="42.90434" lon="0.23498">
        <ele>1788.776</ele>
        <time>2023-07-09T11:08:13Z</time>
      </trkpt>
      <trkpt lat="42.90429" lon="0.23497">
        <ele>1789.613</ele>
        <time>2023-07-09T11:08:51Z</time>
      </trkpt>
      <trkpt lat="42.90424" lon="0.23498">
        <ele>1790.609</ele>
        <time>2023-07-09T11:08:59Z</time>
      </trkpt>
      <trkpt lat="42.9042" lon="0.23502">
        <ele>1792.152</ele>
        <time>2023-07-09T11:09:10Z</time>
      </trkpt>
      <trkpt lat="42.90418" lon="0.23508">
        <ele>1793.865</ele>
        <time>2023-07-09T11:09:18Z</time>
      </trkpt>
      <trkpt lat="42.90414" lon="0.23502">
        <ele>1797.022</ele>
        <time>2023-07-09T11:10:04Z</time>
      </trkpt>
      <trkpt lat="42.90409" lon="0.23501">
        <ele>1797.573</ele>
        <time>2023-07-09T11:10:09Z</time>
      </trkpt>
      <trkpt lat="42.90406" lon="0.23497">
        <ele>1797.585</ele>
        <time>2023-07-09T11:10:14Z</time>
      </trkpt>
      <trkpt lat="42.90402" lon="0.23492">
        <ele>1798.317</ele>
        <time>2023-07-09T11:10:19Z</time>
      </trkpt>
      <trkpt lat="42.90396" lon="0.23489">
        <ele>1798.968</ele>
        <time>2023-07-09T11:10:30Z</time>
      </trkpt>
      <trkpt lat="42.90391" lon="0.23489">
        <ele>1799.641</ele>
        <time>2023-07-09T11:10:35Z</time>
      </trkpt>
      <trkpt lat="42.90387" lon="0.23486">
        <ele>1801.381</ele>
        <time>2023-07-09T11:10:44Z</time>
      </trkpt>
      <trkpt lat="42.90382" lon="0.23484">
        <ele>1803.009</ele>
        <time>2023-07-09T11:10:53Z</time>
      </trkpt>
      <trkpt lat="42.90378" lon="0.23487">
        <ele>1804.009</ele>
        <time>2023-07-09T11:11:01Z</time>
      </trkpt>
      <trkpt lat="42.90373" lon="0.23489">
        <ele>1804.935</ele>
        <time>2023-07-09T11:11:11Z</time>
      </trkpt>
      <trkpt lat="42.90368" lon="0.23492">
        <ele>1807.628</ele>
        <time>2023-07-09T11:11:16Z</time>
      </trkpt>
      <trkpt lat="42.90365" lon="0.23497">
        <ele>1811.914</ele>
        <time>2023-07-09T11:11:21Z</time>
      </trkpt>
      <trkpt lat="42.90362" lon="0.23502">
        <ele>1814.055</ele>
        <time>2023-07-09T11:11:28Z</time>
      </trkpt>
      <trkpt lat="42.90357" lon="0.23507">
        <ele>1815.185</ele>
        <time>2023-07-09T11:11:34Z</time>
      </trkpt>
      <trkpt lat="42.90352" lon="0.23509">
        <ele>1816.256</ele>
        <time>2023-07-09T11:11:41Z</time>
      </trkpt>
      <trkpt lat="42.90347" lon="0.23512">
        <ele>1816.578</ele>
        <time>2023-07-09T11:11:48Z</time>
      </trkpt>
      <trkpt lat="42.90343" lon="0.23513">
        <ele>1816.77</ele>
        <time>2023-07-09T11:11:54Z</time>
      </trkpt>
      <trkpt lat="42.90338" lon="0.23512">
        <ele>1817.141</ele>
        <time>2023-07-09T11:12:01Z</time>
      </trkpt>
      <trkpt lat="42.90332" lon="0.23513">
        <ele>1817.414</ele>
        <time>2023-07-09T11:12:07Z</time>
      </trkpt>
      <trkpt lat="42.90328" lon="0.23512">
        <ele>1818.054</ele>
        <time>2023-07-09T11:12:13Z</time>
      </trkpt>
      <trkpt lat="42.90323" lon="0.2351">
        <ele>1818.609</ele>
        <time>2023-07-09T11:12:19Z</time>
      </trkpt>
      <trkpt lat="42.90317" lon="0.2351">
        <ele>1819.209</ele>
        <time>2023-07-09T11:12:25Z</time>
      </trkpt>
      <trkpt lat="42.90312" lon="0.23509">
        <ele>1820.122</ele>
        <time>2023-07-09T11:12:30Z</time>
      </trkpt>
      <trkpt lat="42.90308" lon="0.23505">
        <ele>1820.855</ele>
        <time>2023-07-09T11:12:35Z</time>
      </trkpt>
      <trkpt lat="42.90303" lon="0.23503">
        <ele>1821.641</ele>
        <time>2023-07-09T11:12:40Z</time>
      </trkpt>
      <trkpt lat="42.90298" lon="0.235">
        <ele>1822.792</ele>
        <time>2023-07-09T11:12:46Z</time>
      </trkpt>
      <trkpt lat="42.90295" lon="0.23494">
        <ele>1823.412</ele>
        <time>2023-07-09T11:12:53Z</time>
      </trkpt>
      <trkpt lat="42.9029" lon="0.23496">
        <ele>1824.593</ele>
        <time>2023-07-09T11:12:59Z</time>
      </trkpt>
      <trkpt lat="42.90285" lon="0.23496">
        <ele>1825.675</ele>
        <time>2023-07-09T11:13:07Z</time>
      </trkpt>
      <trkpt lat="42.9028" lon="0.23501">
        <ele>1826.017</ele>
        <time>2023-07-09T11:13:11Z</time>
      </trkpt>
      <trkpt lat="42.90274" lon="0.23504">
        <ele>1828.828</ele>
        <time>2023-07-09T11:13:17Z</time>
      </trkpt>
      <trkpt lat="42.9027" lon="0.23504">
        <ele>1829.342</ele>
        <time>2023-07-09T11:13:23Z</time>
      </trkpt>
      <trkpt lat="42.90265" lon="0.23504">
        <ele>1830.122</ele>
        <time>2023-07-09T11:13:30Z</time>
      </trkpt>
      <trkpt lat="42.90259" lon="0.23503">
        <ele>1830.114</ele>
        <time>2023-07-09T11:13:37Z</time>
      </trkpt>
      <trkpt lat="42.90255" lon="0.23504">
        <ele>1830.409</ele>
        <time>2023-07-09T11:13:41Z</time>
      </trkpt>
      <trkpt lat="42.90251" lon="0.235">
        <ele>1830.595</ele>
        <time>2023-07-09T11:13:48Z</time>
      </trkpt>
      <trkpt lat="42.90246" lon="0.23499">
        <ele>1830.518</ele>
        <time>2023-07-09T11:13:52Z</time>
      </trkpt>
      <trkpt lat="42.9024" lon="0.23499">
        <ele>1830.684</ele>
        <time>2023-07-09T11:13:58Z</time>
      </trkpt>
      <trkpt lat="42.90235" lon="0.23502">
        <ele>1830.655</ele>
        <time>2023-07-09T11:14:05Z</time>
      </trkpt>
      <trkpt lat="42.9023" lon="0.23499">
        <ele>1831.085</ele>
        <time>2023-07-09T11:14:16Z</time>
      </trkpt>
      <trkpt lat="42.90227" lon="0.23493">
        <ele>1832.196</ele>
        <time>2023-07-09T11:14:32Z</time>
      </trkpt>
      <trkpt lat="42.90223" lon="0.23498">
        <ele>1833.518</ele>
        <time>2023-07-09T11:14:42Z</time>
      </trkpt>
      <trkpt lat="42.90217" lon="0.23498">
        <ele>1836.12</ele>
        <time>2023-07-09T11:14:49Z</time>
      </trkpt>
      <trkpt lat="42.90212" lon="0.23501">
        <ele>1837.041</ele>
        <time>2023-07-09T11:14:52Z</time>
      </trkpt>
      <trkpt lat="42.90208" lon="0.23498">
        <ele>1838.117</ele>
        <time>2023-07-09T11:15:03Z</time>
      </trkpt>
      <trkpt lat="42.90203" lon="0.235">
        <ele>1838.587</ele>
        <time>2023-07-09T11:15:09Z</time>
      </trkpt>
      <trkpt lat="42.902" lon="0.23495">
        <ele>1838.915</ele>
        <time>2023-07-09T11:15:20Z</time>
      </trkpt>
      <trkpt lat="42.90195" lon="0.23496">
        <ele>1839.309</ele>
        <time>2023-07-09T11:15:26Z</time>
      </trkpt>
      <trkpt lat="42.90191" lon="0.235">
        <ele>1840.252</ele>
        <time>2023-07-09T11:15:32Z</time>
      </trkpt>
      <trkpt lat="42.90187" lon="0.23505">
        <ele>1841.885</ele>
        <time>2023-07-09T11:15:41Z</time>
      </trkpt>
      <trkpt lat="42.9018" lon="0.23502">
        <ele>1844.881</ele>
        <time>2023-07-09T11:15:48Z</time>
      </trkpt>
      <trkpt lat="42.90175" lon="0.23503">
        <ele>1845.472</ele>
        <time>2023-07-09T11:15:56Z</time>
      </trkpt>
      <trkpt lat="42.90171" lon="0.23506">
        <ele>1846.622</ele>
        <time>2023-07-09T11:16:02Z</time>
      </trkpt>
      <trkpt lat="42.90166" lon="0.23506">
        <ele>1846.763</ele>
        <time>2023-07-09T11:16:07Z</time>
      </trkpt>
      <trkpt lat="42.90162" lon="0.23505">
        <ele>1846.935</ele>
        <time>2023-07-09T11:16:17Z</time>
      </trkpt>
      <trkpt lat="42.90157" lon="0.23508">
        <ele>1847.087</ele>
        <time>2023-07-09T11:16:23Z</time>
      </trkpt>
      <trkpt lat="42.90152" lon="0.23507">
        <ele>1847.428</ele>
        <time>2023-07-09T11:16:29Z</time>
      </trkpt>
      <trkpt lat="42.90147" lon="0.23508">
        <ele>1848.197</ele>
        <time>2023-07-09T11:16:39Z</time>
      </trkpt>
      <trkpt lat="42.90141" lon="0.23511">
        <ele>1848.723</ele>
        <time>2023-07-09T11:16:46Z</time>
      </trkpt>
      <trkpt lat="42.90136" lon="0.23512">
        <ele>1849.225</ele>
        <time>2023-07-09T11:16:58Z</time>
      </trkpt>
      <trkpt lat="42.90131" lon="0.23512">
        <ele>1850.909</ele>
        <time>2023-07-09T11:17:03Z</time>
      </trkpt>
      <trkpt lat="42.90126" lon="0.23511">
        <ele>1852.57</ele>
        <time>2023-07-09T11:17:09Z</time>
      </trkpt>
      <trkpt lat="42.90123" lon="0.23515">
        <ele>1853.593</ele>
        <time>2023-07-09T11:17:13Z</time>
      </trkpt>
      <trkpt lat="42.90122" lon="0.23521">
        <ele>1853.889</ele>
        <time>2023-07-09T11:17:18Z</time>
      </trkpt>
      <trkpt lat="42.9012" lon="0.23529">
        <ele>1853.88</ele>
        <time>2023-07-09T11:17:23Z</time>
      </trkpt>
      <trkpt lat="42.90117" lon="0.23534">
        <ele>1853.82</ele>
        <time>2023-07-09T11:17:30Z</time>
      </trkpt>
      <trkpt lat="42.90112" lon="0.23539">
        <ele>1852.611</ele>
        <time>2023-07-09T11:17:36Z</time>
      </trkpt>
      <trkpt lat="42.90108" lon="0.23544">
        <ele>1852.013</ele>
        <time>2023-07-09T11:17:42Z</time>
      </trkpt>
      <trkpt lat="42.90103" lon="0.23545">
        <ele>1851.445</ele>
        <time>2023-07-09T11:17:46Z</time>
      </trkpt>
      <trkpt lat="42.90098" lon="0.23545">
        <ele>1851.536</ele>
        <time>2023-07-09T11:17:51Z</time>
      </trkpt>
      <trkpt lat="42.90092" lon="0.23541">
        <ele>1851.956</ele>
        <time>2023-07-09T11:18:00Z</time>
      </trkpt>
      <trkpt lat="42.90087" lon="0.2354">
        <ele>1852.159</ele>
        <time>2023-07-09T11:18:06Z</time>
      </trkpt>
      <trkpt lat="42.90082" lon="0.23542">
        <ele>1855.114</ele>
        <time>2023-07-09T11:18:12Z</time>
      </trkpt>
      <trkpt lat="42.90077" lon="0.23544">
        <ele>1855.609</ele>
        <time>2023-07-09T11:18:19Z</time>
      </trkpt>
      <trkpt lat="42.90072" lon="0.23543">
        <ele>1857.916</ele>
        <time>2023-07-09T11:18:26Z</time>
      </trkpt>
      <trkpt lat="42.90069" lon="0.23548">
        <ele>1859.739</ele>
        <time>2023-07-09T11:18:33Z</time>
      </trkpt>
      <trkpt lat="42.90064" lon="0.23544">
        <ele>1859.885</ele>
        <time>2023-07-09T11:18:44Z</time>
      </trkpt>
      <trkpt lat="42.90059" lon="0.23543">
        <ele>1860.346</ele>
        <time>2023-07-09T11:18:52Z</time>
      </trkpt>
      <trkpt lat="42.90054" lon="0.23541">
        <ele>1861.386</ele>
        <time>2023-07-09T11:18:58Z</time>
      </trkpt>
      <trkpt lat="42.90049" lon="0.23543">
        <ele>1862.877</ele>
        <time>2023-07-09T11:19:05Z</time>
      </trkpt>
      <trkpt lat="42.90044" lon="0.23541">
        <ele>1864.619</ele>
        <time>2023-07-09T11:19:12Z</time>
      </trkpt>
      <trkpt lat="42.90039" lon="0.23541">
        <ele>1865.871</ele>
        <time>2023-07-09T11:19:17Z</time>
      </trkpt>
      <trkpt lat="42.90035" lon="0.23543">
        <ele>1866.772</ele>
        <time>2023-07-09T11:19:27Z</time>
      </trkpt>
      <trkpt lat="42.9003" lon="0.23543">
        <ele>1867.773</ele>
        <time>2023-07-09T11:19:32Z</time>
      </trkpt>
      <trkpt lat="42.90025" lon="0.23541">
        <ele>1869.185</ele>
        <time>2023-07-09T11:19:49Z</time>
      </trkpt>
      <trkpt lat="42.90021" lon="0.23539">
        <ele>1870.213</ele>
        <time>2023-07-09T11:19:54Z</time>
      </trkpt>
      <trkpt lat="42.90016" lon="0.23538">
        <ele>1872.109</ele>
        <time>2023-07-09T11:20:02Z</time>
      </trkpt>
      <trkpt lat="42.90011" lon="0.23535">
        <ele>1873.898</ele>
        <time>2023-07-09T11:20:11Z</time>
      </trkpt>
      <trkpt lat="42.90007" lon="0.23533">
        <ele>1874.341</ele>
        <time>2023-07-09T11:20:18Z</time>
      </trkpt>
      <trkpt lat="42.90002" lon="0.23531">
        <ele>1875.767</ele>
        <time>2023-07-09T11:20:26Z</time>
      </trkpt>
      <trkpt lat="42.89997" lon="0.2353">
        <ele>1877.558</ele>
        <time>2023-07-09T11:20:37Z</time>
      </trkpt>
      <trkpt lat="42.89992" lon="0.23527">
        <ele>1878.528</ele>
        <time>2023-07-09T11:20:46Z</time>
      </trkpt>
      <trkpt lat="42.89987" lon="0.23526">
        <ele>1879.269</ele>
        <time>2023-07-09T11:20:56Z</time>
      </trkpt>
      <trkpt lat="42.89982" lon="0.23526">
        <ele>1880.951</ele>
        <time>2023-07-09T11:21:01Z</time>
      </trkpt>
      <trkpt lat="42.89978" lon="0.23522">
        <ele>1882.763</ele>
        <time>2023-07-09T11:21:07Z</time>
      </trkpt>
      <trkpt lat="42.89972" lon="0.23521">
        <ele>1884.064</ele>
        <time>2023-07-09T11:21:17Z</time>
      </trkpt>
      <trkpt lat="42.89968" lon="0.23517">
        <ele>1884.628</ele>
        <time>2023-07-09T11:21:25Z</time>
      </trkpt>
      <trkpt lat="42.89964" lon="0.23514">
        <ele>1886.389</ele>
        <time>2023-07-09T11:21:32Z</time>
      </trkpt>
      <trkpt lat="42.89959" lon="0.23512">
        <ele>1888.317</ele>
        <time>2023-07-09T11:21:40Z</time>
      </trkpt>
      <trkpt lat="42.89954" lon="0.2351">
        <ele>1889.309</ele>
        <time>2023-07-09T11:21:46Z</time>
      </trkpt>
      <trkpt lat="42.8995" lon="0.23506">
        <ele>1890.683</ele>
        <time>2023-07-09T11:21:55Z</time>
      </trkpt>
      <trkpt lat="42.89946" lon="0.23505">
        <ele>1891.336</ele>
        <time>2023-07-09T11:22:05Z</time>
      </trkpt>
      <trkpt lat="42.89941" lon="0.23504">
        <ele>1892.622</ele>
        <time>2023-07-09T11:22:12Z</time>
      </trkpt>
      <trkpt lat="42.89937" lon="0.23506">
        <ele>1894.233</ele>
        <time>2023-07-09T11:22:20Z</time>
      </trkpt>
      <trkpt lat="42.89931" lon="0.23508">
        <ele>1895.483</ele>
        <time>2023-07-09T11:22:25Z</time>
      </trkpt>
      <trkpt lat="42.89926" lon="0.23506">
        <ele>1897.654</ele>
        <time>2023-07-09T11:22:38Z</time>
      </trkpt>
      <trkpt lat="42.89921" lon="0.23505">
        <ele>1899.016</ele>
        <time>2023-07-09T11:22:49Z</time>
      </trkpt>
      <trkpt lat="42.89916" lon="0.23506">
        <ele>1900.528</ele>
        <time>2023-07-09T11:22:56Z</time>
      </trkpt>
      <trkpt lat="42.89911" lon="0.23507">
        <ele>1902.019</ele>
        <time>2023-07-09T11:23:10Z</time>
      </trkpt>
      <trkpt lat="42.89907" lon="0.23504">
        <ele>1902.799</ele>
        <time>2023-07-09T11:23:31Z</time>
      </trkpt>
      <trkpt lat="42.89902" lon="0.23507">
        <ele>1903.907</ele>
        <time>2023-07-09T11:23:51Z</time>
      </trkpt>
      <trkpt lat="42.89896" lon="0.23506">
        <ele>1909.95</ele>
        <time>2023-07-09T11:24:46Z</time>
      </trkpt>
      <trkpt lat="42.89889" lon="0.235">
        <ele>1912.21</ele>
        <time>2023-07-09T11:27:24Z</time>
      </trkpt>
      <trkpt lat="42.89886" lon="0.23496">
        <ele>1912.821</ele>
        <time>2023-07-09T11:27:29Z</time>
      </trkpt>
      <trkpt lat="42.89882" lon="0.23491">
        <ele>1913.363</ele>
        <time>2023-07-09T11:27:37Z</time>
      </trkpt>
      <trkpt lat="42.89877" lon="0.23488">
        <ele>1913.755</ele>
        <time>2023-07-09T11:27:43Z</time>
      </trkpt>
      <trkpt lat="42.89873" lon="0.23488">
        <ele>1914.056</ele>
        <time>2023-07-09T11:27:48Z</time>
      </trkpt>
      <trkpt lat="42.89869" lon="0.23484">
        <ele>1913.995</ele>
        <time>2023-07-09T11:27:56Z</time>
      </trkpt>
      <trkpt lat="42.89864" lon="0.23485">
        <ele>1913.949</ele>
        <time>2023-07-09T11:28:07Z</time>
      </trkpt>
      <trkpt lat="42.8986" lon="0.23483">
        <ele>1913.923</ele>
        <time>2023-07-09T11:28:46Z</time>
      </trkpt>
      <trkpt lat="42.89855" lon="0.23478">
        <ele>1913.509</ele>
        <time>2023-07-09T11:28:51Z</time>
      </trkpt>
      <trkpt lat="42.8985" lon="0.23477">
        <ele>1912.95</ele>
        <time>2023-07-09T11:28:55Z</time>
      </trkpt>
      <trkpt lat="42.89845" lon="0.23471">
        <ele>1912.913</ele>
        <time>2023-07-09T11:29:01Z</time>
      </trkpt>
      <trkpt lat="42.89844" lon="0.23477">
        <ele>1912.939</ele>
        <time>2023-07-09T11:29:05Z</time>
      </trkpt>
      <trkpt lat="42.89839" lon="0.23475">
        <ele>1913.83</ele>
        <time>2023-07-09T11:29:11Z</time>
      </trkpt>
      <trkpt lat="42.89834" lon="0.23478">
        <ele>1914.37</ele>
        <time>2023-07-09T11:29:17Z</time>
      </trkpt>
      <trkpt lat="42.89829" lon="0.23478">
        <ele>1914.331</ele>
        <time>2023-07-09T11:29:24Z</time>
      </trkpt>
      <trkpt lat="42.89825" lon="0.23482">
        <ele>1914.343</ele>
        <time>2023-07-09T11:29:31Z</time>
      </trkpt>
      <trkpt lat="42.89821" lon="0.23487">
        <ele>1913.745</ele>
        <time>2023-07-09T11:29:38Z</time>
      </trkpt>
      <trkpt lat="42.89816" lon="0.23486">
        <ele>1913.266</ele>
        <time>2023-07-09T11:29:46Z</time>
      </trkpt>
      <trkpt lat="42.89812" lon="0.23491">
        <ele>1913.184</ele>
        <time>2023-07-09T11:29:52Z</time>
      </trkpt>
      <trkpt lat="42.89807" lon="0.23492">
        <ele>1912.307</ele>
        <time>2023-07-09T11:30:02Z</time>
      </trkpt>
      <trkpt lat="42.89803" lon="0.23497">
        <ele>1911.317</ele>
        <time>2023-07-09T11:30:06Z</time>
      </trkpt>
      <trkpt lat="42.89797" lon="0.23499">
        <ele>1910.809</ele>
        <time>2023-07-09T11:30:11Z</time>
      </trkpt>
      <trkpt lat="42.89792" lon="0.23498">
        <ele>1910.819</ele>
        <time>2023-07-09T11:30:16Z</time>
      </trkpt>
      <trkpt lat="42.89787" lon="0.23499">
        <ele>1910.752</ele>
        <time>2023-07-09T11:30:20Z</time>
      </trkpt>
      <trkpt lat="42.89783" lon="0.23501">
        <ele>1910.178</ele>
        <time>2023-07-09T11:30:25Z</time>
      </trkpt>
      <trkpt lat="42.89778" lon="0.23501">
        <ele>1910.189</ele>
        <time>2023-07-09T11:30:32Z</time>
      </trkpt>
      <trkpt lat="42.89773" lon="0.23501">
        <ele>1910.059</ele>
        <time>2023-07-09T11:30:38Z</time>
      </trkpt>
      <trkpt lat="42.89768" lon="0.23503">
        <ele>1910.32</ele>
        <time>2023-07-09T11:30:47Z</time>
      </trkpt>
      <trkpt lat="42.89765" lon="0.23509">
        <ele>1910.342</ele>
        <time>2023-07-09T11:30:58Z</time>
      </trkpt>
      <trkpt lat="42.89764" lon="0.23516">
        <ele>1910.454</ele>
        <time>2023-07-09T11:31:04Z</time>
      </trkpt>
      <trkpt lat="42.89762" lon="0.23522">
        <ele>1910.575</ele>
        <time>2023-07-09T11:31:10Z</time>
      </trkpt>
      <trkpt lat="42.89761" lon="0.2353">
        <ele>1910.621</ele>
        <time>2023-07-09T11:31:16Z</time>
      </trkpt>
      <trkpt lat="42.89762" lon="0.23537">
        <ele>1910.941</ele>
        <time>2023-07-09T11:31:23Z</time>
      </trkpt>
      <trkpt lat="42.89763" lon="0.23543">
        <ele>1910.905</ele>
        <time>2023-07-09T11:31:31Z</time>
      </trkpt>
      <trkpt lat="42.89767" lon="0.23548">
        <ele>1910.709</ele>
        <time>2023-07-09T11:31:57Z</time>
      </trkpt>
      <trkpt lat="42.89765" lon="0.23554">
        <ele>1910.763</ele>
        <time>2023-07-09T11:32:01Z</time>
      </trkpt>
      <trkpt lat="42.8976" lon="0.2356">
        <ele>1910.536</ele>
        <time>2023-07-09T11:32:06Z</time>
      </trkpt>
      <trkpt lat="42.89758" lon="0.23566">
        <ele>1910.582</ele>
        <time>2023-07-09T11:32:13Z</time>
      </trkpt>
      <trkpt lat="42.89753" lon="0.23567">
        <ele>1910.593</ele>
        <time>2023-07-09T11:32:18Z</time>
      </trkpt>
      <trkpt lat="42.89749" lon="0.23566">
        <ele>1910.983</ele>
        <time>2023-07-09T11:32:30Z</time>
      </trkpt>
      <trkpt lat="42.89744" lon="0.23567">
        <ele>1911.874</ele>
        <time>2023-07-09T11:32:38Z</time>
      </trkpt>
      <trkpt lat="42.8974" lon="0.23563">
        <ele>1913.646</ele>
        <time>2023-07-09T11:32:44Z</time>
      </trkpt>
      <trkpt lat="42.89736" lon="0.23559">
        <ele>1915.178</ele>
        <time>2023-07-09T11:32:52Z</time>
      </trkpt>
      <trkpt lat="42.89733" lon="0.23553">
        <ele>1916.799</ele>
        <time>2023-07-09T11:33:01Z</time>
      </trkpt>
      <trkpt lat="42.89731" lon="0.23547">
        <ele>1918.112</ele>
        <time>2023-07-09T11:33:08Z</time>
      </trkpt>
      <trkpt lat="42.89727" lon="0.23543">
        <ele>1919.332</ele>
        <time>2023-07-09T11:33:16Z</time>
      </trkpt>
      <trkpt lat="42.89724" lon="0.23537">
        <ele>1920.505</ele>
        <time>2023-07-09T11:34:17Z</time>
      </trkpt>
      <trkpt lat="42.89719" lon="0.23533">
        <ele>1921.309</ele>
        <time>2023-07-09T11:34:20Z</time>
      </trkpt>
      <trkpt lat="42.89715" lon="0.23529">
        <ele>1922.092</ele>
        <time>2023-07-09T11:34:28Z</time>
      </trkpt>
      <trkpt lat="42.89712" lon="0.23523">
        <ele>1922.135</ele>
        <time>2023-07-09T11:34:34Z</time>
      </trkpt>
      <trkpt lat="42.89711" lon="0.23516">
        <ele>1923.231</ele>
        <time>2023-07-09T11:34:40Z</time>
      </trkpt>
      <trkpt lat="42.89706" lon="0.23514">
        <ele>1924.972</ele>
        <time>2023-07-09T11:34:45Z</time>
      </trkpt>
      <trkpt lat="42.89702" lon="0.23511">
        <ele>1926.732</ele>
        <time>2023-07-09T11:34:49Z</time>
      </trkpt>
      <trkpt lat="42.89697" lon="0.2351">
        <ele>1928.123</ele>
        <time>2023-07-09T11:34:56Z</time>
      </trkpt>
      <trkpt lat="42.89692" lon="0.23508">
        <ele>1929.335</ele>
        <time>2023-07-09T11:35:03Z</time>
      </trkpt>
      <trkpt lat="42.89688" lon="0.2351">
        <ele>1931.487</ele>
        <time>2023-07-09T11:35:10Z</time>
      </trkpt>
      <trkpt lat="42.89684" lon="0.23511">
        <ele>1933.448</ele>
        <time>2023-07-09T11:35:16Z</time>
      </trkpt>
      <trkpt lat="42.89678" lon="0.2351">
        <ele>1934.916</ele>
        <time>2023-07-09T11:35:23Z</time>
      </trkpt>
      <trkpt lat="42.89673" lon="0.23514">
        <ele>1936.276</ele>
        <time>2023-07-09T11:35:32Z</time>
      </trkpt>
      <trkpt lat="42.89668" lon="0.23514">
        <ele>1937.613</ele>
        <time>2023-07-09T11:35:37Z</time>
      </trkpt>
      <trkpt lat="42.89663" lon="0.23512">
        <ele>1939.809</ele>
        <time>2023-07-09T11:35:42Z</time>
      </trkpt>
      <trkpt lat="42.89659" lon="0.23508">
        <ele>1941.192</ele>
        <time>2023-07-09T11:35:51Z</time>
      </trkpt>
      <trkpt lat="42.89654" lon="0.23511">
        <ele>1941.625</ele>
        <time>2023-07-09T11:35:58Z</time>
      </trkpt>
      <trkpt lat="42.89649" lon="0.23512">
        <ele>1942.981</ele>
        <time>2023-07-09T11:36:02Z</time>
      </trkpt>
      <trkpt lat="42.89644" lon="0.23512">
        <ele>1944.712</ele>
        <time>2023-07-09T11:36:10Z</time>
      </trkpt>
      <trkpt lat="42.8964" lon="0.2351">
        <ele>1945.822</ele>
        <time>2023-07-09T11:36:17Z</time>
      </trkpt>
      <trkpt lat="42.89635" lon="0.23513">
        <ele>1947.013</ele>
        <time>2023-07-09T11:36:22Z</time>
      </trkpt>
      <trkpt lat="42.8963" lon="0.23513">
        <ele>1948.315</ele>
        <time>2023-07-09T11:36:26Z</time>
      </trkpt>
      <trkpt lat="42.89626" lon="0.23516">
        <ele>1949.597</ele>
        <time>2023-07-09T11:36:34Z</time>
      </trkpt>
      <trkpt lat="42.89621" lon="0.23513">
        <ele>1950.778</ele>
        <time>2023-07-09T11:36:40Z</time>
      </trkpt>
      <trkpt lat="42.89618" lon="0.23517">
        <ele>1951.684</ele>
        <time>2023-07-09T11:36:47Z</time>
      </trkpt>
      <trkpt lat="42.89613" lon="0.23517">
        <ele>1953.407</ele>
        <time>2023-07-09T11:36:53Z</time>
      </trkpt>
      <trkpt lat="42.89608" lon="0.2352">
        <ele>1954.817</ele>
        <time>2023-07-09T11:37:01Z</time>
      </trkpt>
      <trkpt lat="42.89604" lon="0.23523">
        <ele>1955.309</ele>
        <time>2023-07-09T11:37:10Z</time>
      </trkpt>
      <trkpt lat="42.89599" lon="0.23524">
        <ele>1955.659</ele>
        <time>2023-07-09T11:37:16Z</time>
      </trkpt>
      <trkpt lat="42.89593" lon="0.23524">
        <ele>1956.352</ele>
        <time>2023-07-09T11:37:24Z</time>
      </trkpt>
      <trkpt lat="42.89589" lon="0.23526">
        <ele>1957.168</ele>
        <time>2023-07-09T11:37:28Z</time>
      </trkpt>
      <trkpt lat="42.89583" lon="0.23526">
        <ele>1958.229</ele>
        <time>2023-07-09T11:37:33Z</time>
      </trkpt>
      <trkpt lat="42.89579" lon="0.23526">
        <ele>1959.259</ele>
        <time>2023-07-09T11:37:40Z</time>
      </trkpt>
      <trkpt lat="42.89574" lon="0.23525">
        <ele>1959.53</ele>
        <time>2023-07-09T11:37:45Z</time>
      </trkpt>
      <trkpt lat="42.8957" lon="0.23522">
        <ele>1960.662</ele>
        <time>2023-07-09T11:37:50Z</time>
      </trkpt>
      <trkpt lat="42.89565" lon="0.23521">
        <ele>1962.264</ele>
        <time>2023-07-09T11:37:56Z</time>
      </trkpt>
      <trkpt lat="42.8956" lon="0.23519">
        <ele>1963.135</ele>
        <time>2023-07-09T11:38:04Z</time>
      </trkpt>
      <trkpt lat="42.89555" lon="0.23517">
        <ele>1964.045</ele>
        <time>2023-07-09T11:38:09Z</time>
      </trkpt>
      <trkpt lat="42.8955" lon="0.23517">
        <ele>1965.947</ele>
        <time>2023-07-09T11:38:15Z</time>
      </trkpt>
      <trkpt lat="42.89545" lon="0.23519">
        <ele>1967.211</ele>
        <time>2023-07-09T11:38:20Z</time>
      </trkpt>
      <trkpt lat="42.89541" lon="0.23518">
        <ele>1967.809</ele>
        <time>2023-07-09T11:38:25Z</time>
      </trkpt>
      <trkpt lat="42.89536" lon="0.23518">
        <ele>1968.545</ele>
        <time>2023-07-09T11:38:30Z</time>
      </trkpt>
      <trkpt lat="42.89531" lon="0.23519">
        <ele>1968.538</ele>
        <time>2023-07-09T11:38:35Z</time>
      </trkpt>
      <trkpt lat="42.89526" lon="0.23521">
        <ele>1968.564</ele>
        <time>2023-07-09T11:38:42Z</time>
      </trkpt>
      <trkpt lat="42.89522" lon="0.23519">
        <ele>1968.795</ele>
        <time>2023-07-09T11:38:47Z</time>
      </trkpt>
      <trkpt lat="42.89517" lon="0.23515">
        <ele>1968.775</ele>
        <time>2023-07-09T11:38:53Z</time>
      </trkpt>
      <trkpt lat="42.89512" lon="0.23516">
        <ele>1968.726</ele>
        <time>2023-07-09T11:38:58Z</time>
      </trkpt>
      <trkpt lat="42.89507" lon="0.23515">
        <ele>1969.038</ele>
        <time>2023-07-09T11:39:06Z</time>
      </trkpt>
      <trkpt lat="42.89502" lon="0.23513">
        <ele>1969.27</ele>
        <time>2023-07-09T11:39:14Z</time>
      </trkpt>
      <trkpt lat="42.89497" lon="0.23511">
        <ele>1969.211</ele>
        <time>2023-07-09T11:39:19Z</time>
      </trkpt>
      <trkpt lat="42.89492" lon="0.23509">
        <ele>1969.226</ele>
        <time>2023-07-09T11:39:26Z</time>
      </trkpt>
      <trkpt lat="42.89487" lon="0.23508">
        <ele>1969.147</ele>
        <time>2023-07-09T11:39:31Z</time>
      </trkpt>
      <trkpt lat="42.89483" lon="0.23504">
        <ele>1968.711</ele>
        <time>2023-07-09T11:39:36Z</time>
      </trkpt>
      <trkpt lat="42.89479" lon="0.23499">
        <ele>1968.709</ele>
        <time>2023-07-09T11:39:43Z</time>
      </trkpt>
      <trkpt lat="42.89475" lon="0.23495">
        <ele>1968.713</ele>
        <time>2023-07-09T11:39:51Z</time>
      </trkpt>
      <trkpt lat="42.89471" lon="0.23491">
        <ele>1968.826</ele>
        <time>2023-07-09T11:39:59Z</time>
      </trkpt>
      <trkpt lat="42.89467" lon="0.23488">
        <ele>1970.812</ele>
        <time>2023-07-09T11:40:06Z</time>
      </trkpt>
      <trkpt lat="42.89463" lon="0.23485">
        <ele>1973.763</ele>
        <time>2023-07-09T11:40:15Z</time>
      </trkpt>
      <trkpt lat="42.89459" lon="0.2348">
        <ele>1975.223</ele>
        <time>2023-07-09T11:40:22Z</time>
      </trkpt>
      <trkpt lat="42.89454" lon="0.23478">
        <ele>1976.034</ele>
        <time>2023-07-09T11:40:29Z</time>
      </trkpt>
      <trkpt lat="42.89449" lon="0.23477">
        <ele>1977.356</ele>
        <time>2023-07-09T11:40:36Z</time>
      </trkpt>
      <trkpt lat="42.89446" lon="0.23473">
        <ele>1978.158</ele>
        <time>2023-07-09T11:40:45Z</time>
      </trkpt>
      <trkpt lat="42.89441" lon="0.23476">
        <ele>1978.799</ele>
        <time>2023-07-09T11:41:17Z</time>
      </trkpt>
      <trkpt lat="42.89436" lon="0.23471">
        <ele>1979.559</ele>
        <time>2023-07-09T11:41:24Z</time>
      </trkpt>
      <trkpt lat="42.89431" lon="0.23468">
        <ele>1979.903</ele>
        <time>2023-07-09T11:41:30Z</time>
      </trkpt>
      <trkpt lat="42.8943" lon="0.23461">
        <ele>1980.923</ele>
        <time>2023-07-09T11:41:36Z</time>
      </trkpt>
      <trkpt lat="42.89426" lon="0.23458">
        <ele>1982.309</ele>
        <time>2023-07-09T11:41:45Z</time>
      </trkpt>
      <trkpt lat="42.89423" lon="0.23452">
        <ele>1982.886</ele>
        <time>2023-07-09T11:41:50Z</time>
      </trkpt>
      <trkpt lat="42.89419" lon="0.23448">
        <ele>1983.289</ele>
        <time>2023-07-09T11:41:55Z</time>
      </trkpt>
      <trkpt lat="42.89414" lon="0.23445">
        <ele>1983.865</ele>
        <time>2023-07-09T11:42:01Z</time>
      </trkpt>
      <trkpt lat="42.8941" lon="0.23442">
        <ele>1984.386</ele>
        <time>2023-07-09T11:42:10Z</time>
      </trkpt>
      <trkpt lat="42.89405" lon="0.2344">
        <ele>1984.686</ele>
        <time>2023-07-09T11:42:16Z</time>
      </trkpt>
      <trkpt lat="42.89401" lon="0.23436">
        <ele>1985.247</ele>
        <time>2023-07-09T11:42:23Z</time>
      </trkpt>
      <trkpt lat="42.89396" lon="0.23434">
        <ele>1985.939</ele>
        <time>2023-07-09T11:42:28Z</time>
      </trkpt>
      <trkpt lat="42.89392" lon="0.23432">
        <ele>1986.711</ele>
        <time>2023-07-09T11:42:39Z</time>
      </trkpt>
      <trkpt lat="42.89387" lon="0.2343">
        <ele>1987.792</ele>
        <time>2023-07-09T11:42:44Z</time>
      </trkpt>
      <trkpt lat="42.89381" lon="0.23428">
        <ele>1988.827</ele>
        <time>2023-07-09T11:42:51Z</time>
      </trkpt>
      <trkpt lat="42.89376" lon="0.23425">
        <ele>1990.068</ele>
        <time>2023-07-09T11:43:00Z</time>
      </trkpt>
      <trkpt lat="42.89372" lon="0.23421">
        <ele>1990.514</ele>
        <time>2023-07-09T11:43:13Z</time>
      </trkpt>
      <trkpt lat="42.89366" lon="0.23418">
        <ele>1992.609</ele>
        <time>2023-07-09T11:43:22Z</time>
      </trkpt>
      <trkpt lat="42.89362" lon="0.23419">
        <ele>1995.433</ele>
        <time>2023-07-09T11:43:33Z</time>
      </trkpt>
      <trkpt lat="42.89357" lon="0.23421">
        <ele>1996.026</ele>
        <time>2023-07-09T11:43:49Z</time>
      </trkpt>
      <trkpt lat="42.89352" lon="0.23422">
        <ele>1996.612</ele>
        <time>2023-07-09T11:43:53Z</time>
      </trkpt>
      <trkpt lat="42.89346" lon="0.23423">
        <ele>1997.533</ele>
        <time>2023-07-09T11:44:00Z</time>
      </trkpt>
      <trkpt lat="42.89341" lon="0.23425">
        <ele>1998.433</ele>
        <time>2023-07-09T11:44:07Z</time>
      </trkpt>
      <trkpt lat="42.89337" lon="0.23427">
        <ele>1998.814</ele>
        <time>2023-07-09T11:44:14Z</time>
      </trkpt>
      <trkpt lat="42.89332" lon="0.23431">
        <ele>1999.716</ele>
        <time>2023-07-09T11:44:23Z</time>
      </trkpt>
      <trkpt lat="42.89327" lon="0.23432">
        <ele>2000.788</ele>
        <time>2023-07-09T11:44:27Z</time>
      </trkpt>
      <trkpt lat="42.89322" lon="0.23436">
        <ele>2001.429</ele>
        <time>2023-07-09T11:44:31Z</time>
      </trkpt>
      <trkpt lat="42.89317" lon="0.23439">
        <ele>2001.936</ele>
        <time>2023-07-09T11:44:35Z</time>
      </trkpt>
      <trkpt lat="42.89313" lon="0.23433">
        <ele>2002.217</ele>
        <time>2023-07-09T11:44:39Z</time>
      </trkpt>
      <trkpt lat="42.89308" lon="0.23435">
        <ele>2002.218</ele>
        <time>2023-07-09T11:44:48Z</time>
      </trkpt>
      <trkpt lat="42.89302" lon="0.23432">
        <ele>2002.209</ele>
        <time>2023-07-09T11:44:53Z</time>
      </trkpt>
      <trkpt lat="42.89298" lon="0.23435">
        <ele>2004.034</ele>
        <time>2023-07-09T11:45:01Z</time>
      </trkpt>
      <trkpt lat="42.89293" lon="0.23436">
        <ele>2005.587</ele>
        <time>2023-07-09T11:45:06Z</time>
      </trkpt>
      <trkpt lat="42.89288" lon="0.23437">
        <ele>2005.743</ele>
        <time>2023-07-09T11:45:13Z</time>
      </trkpt>
      <trkpt lat="42.89283" lon="0.23438">
        <ele>2006.344</ele>
        <time>2023-07-09T11:45:22Z</time>
      </trkpt>
      <trkpt lat="42.89279" lon="0.23444">
        <ele>2006.824</ele>
        <time>2023-07-09T11:45:28Z</time>
      </trkpt>
      <trkpt lat="42.89276" lon="0.23449">
        <ele>2007.045</ele>
        <time>2023-07-09T11:45:33Z</time>
      </trkpt>
      <trkpt lat="42.89272" lon="0.23453">
        <ele>2007.367</ele>
        <time>2023-07-09T11:45:41Z</time>
      </trkpt>
      <trkpt lat="42.89269" lon="0.23459">
        <ele>2007.349</ele>
        <time>2023-07-09T11:45:47Z</time>
      </trkpt>
      <trkpt lat="42.89264" lon="0.23463">
        <ele>2007.36</ele>
        <time>2023-07-09T11:45:54Z</time>
      </trkpt>
      <trkpt lat="42.8926" lon="0.23466">
        <ele>2007.092</ele>
        <time>2023-07-09T11:46:00Z</time>
      </trkpt>
      <trkpt lat="42.89256" lon="0.23468">
        <ele>2006.573</ele>
        <time>2023-07-09T11:46:16Z</time>
      </trkpt>
      <trkpt lat="42.89251" lon="0.23471">
        <ele>2005.62</ele>
        <time>2023-07-09T11:46:20Z</time>
      </trkpt>
      <trkpt lat="42.89247" lon="0.2347">
        <ele>2005.209</ele>
        <time>2023-07-09T11:46:25Z</time>
      </trkpt>
      <trkpt lat="42.89242" lon="0.23468">
        <ele>2005.26</ele>
        <time>2023-07-09T11:46:31Z</time>
      </trkpt>
      <trkpt lat="42.89236" lon="0.23469">
        <ele>2005.253</ele>
        <time>2023-07-09T11:46:38Z</time>
      </trkpt>
      <trkpt lat="42.8923" lon="0.23467">
        <ele>2006.039</ele>
        <time>2023-07-09T11:46:48Z</time>
      </trkpt>
      <trkpt lat="42.89226" lon="0.23465">
        <ele>2006.93</ele>
        <time>2023-07-09T11:46:53Z</time>
      </trkpt>
      <trkpt lat="42.89221" lon="0.23465">
        <ele>2007.88</ele>
        <time>2023-07-09T11:47:00Z</time>
      </trkpt>
      <trkpt lat="42.89217" lon="0.23462">
        <ele>2008.651</ele>
        <time>2023-07-09T11:47:06Z</time>
      </trkpt>
      <trkpt lat="42.89211" lon="0.23459">
        <ele>2008.793</ele>
        <time>2023-07-09T11:47:15Z</time>
      </trkpt>
      <trkpt lat="42.89206" lon="0.2346">
        <ele>2009.685</ele>
        <time>2023-07-09T11:47:23Z</time>
      </trkpt>
      <trkpt lat="42.89202" lon="0.23458">
        <ele>2010.486</ele>
        <time>2023-07-09T11:47:30Z</time>
      </trkpt>
      <trkpt lat="42.89197" lon="0.23457">
        <ele>2010.443</ele>
        <time>2023-07-09T11:47:38Z</time>
      </trkpt>
      <trkpt lat="42.89193" lon="0.23453">
        <ele>2010.664</ele>
        <time>2023-07-09T11:47:46Z</time>
      </trkpt>
      <trkpt lat="42.89187" lon="0.23454">
        <ele>2011.31</ele>
        <time>2023-07-09T11:47:58Z</time>
      </trkpt>
      <trkpt lat="42.89182" lon="0.23455">
        <ele>2011.809</ele>
        <time>2023-07-09T11:48:05Z</time>
      </trkpt>
      <trkpt lat="42.89177" lon="0.23457">
        <ele>2011.885</ele>
        <time>2023-07-09T11:48:14Z</time>
      </trkpt>
      <trkpt lat="42.89173" lon="0.23459">
        <ele>2011.868</ele>
        <time>2023-07-09T11:48:24Z</time>
      </trkpt>
      <trkpt lat="42.89168" lon="0.23461">
        <ele>2011.694</ele>
        <time>2023-07-09T11:48:29Z</time>
      </trkpt>
      <trkpt lat="42.89162" lon="0.23464">
        <ele>2010.715</ele>
        <time>2023-07-09T11:48:35Z</time>
      </trkpt>
      <trkpt lat="42.89158" lon="0.23469">
        <ele>2009.875</ele>
        <time>2023-07-09T11:48:43Z</time>
      </trkpt>
      <trkpt lat="42.89154" lon="0.2347">
        <ele>2009.866</ele>
        <time>2023-07-09T11:48:50Z</time>
      </trkpt>
      <trkpt lat="42.89151" lon="0.23475">
        <ele>2009.858</ele>
        <time>2023-07-09T11:48:55Z</time>
      </trkpt>
      <trkpt lat="42.8915" lon="0.23481">
        <ele>2010.25</ele>
        <time>2023-07-09T11:49:01Z</time>
      </trkpt>
      <trkpt lat="42.89148" lon="0.23487">
        <ele>2010.331</ele>
        <time>2023-07-09T11:49:08Z</time>
      </trkpt>
      <trkpt lat="42.89147" lon="0.23494">
        <ele>2011.084</ele>
        <time>2023-07-09T11:49:16Z</time>
      </trkpt>
      <trkpt lat="42.89145" lon="0.235">
        <ele>2011.907</ele>
        <time>2023-07-09T11:49:22Z</time>
      </trkpt>
      <trkpt lat="42.89143" lon="0.23506">
        <ele>2012.317</ele>
        <time>2023-07-09T11:49:33Z</time>
      </trkpt>
      <trkpt lat="42.8914" lon="0.23511">
        <ele>2012.409</ele>
        <time>2023-07-09T11:49:40Z</time>
      </trkpt>
      <trkpt lat="42.89136" lon="0.23515">
        <ele>2012.459</ele>
        <time>2023-07-09T11:49:45Z</time>
      </trkpt>
      <trkpt lat="42.89134" lon="0.23521">
        <ele>2012.642</ele>
        <time>2023-07-09T11:49:49Z</time>
      </trkpt>
      <trkpt lat="42.8913" lon="0.23525">
        <ele>2012.988</ele>
        <time>2023-07-09T11:49:55Z</time>
      </trkpt>
      <trkpt lat="42.89125" lon="0.23528">
        <ele>2013.199</ele>
        <time>2023-07-09T11:50:00Z</time>
      </trkpt>
      <trkpt lat="42.89121" lon="0.23535">
        <ele>2013.469</ele>
        <time>2023-07-09T11:50:06Z</time>
      </trkpt>
      <trkpt lat="42.89118" lon="0.2354">
        <ele>2013.41</ele>
        <time>2023-07-09T11:50:13Z</time>
      </trkpt>
      <trkpt lat="42.89113" lon="0.2354">
        <ele>2013.852</ele>
        <time>2023-07-09T11:50:20Z</time>
      </trkpt>
      <trkpt lat="42.89109" lon="0.23543">
        <ele>2014.084</ele>
        <time>2023-07-09T11:50:29Z</time>
      </trkpt>
      <trkpt lat="42.89103" lon="0.23544">
        <ele>2014.135</ele>
        <time>2023-07-09T11:50:35Z</time>
      </trkpt>
      <trkpt lat="42.89098" lon="0.23544">
        <ele>2014.933</ele>
        <time>2023-07-09T11:50:46Z</time>
      </trkpt>
      <trkpt lat="42.89092" lon="0.23542">
        <ele>2016.023</ele>
        <time>2023-07-09T11:50:53Z</time>
      </trkpt>
      <trkpt lat="42.89087" lon="0.23542">
        <ele>2017.215</ele>
        <time>2023-07-09T11:51:01Z</time>
      </trkpt>
      <trkpt lat="42.89083" lon="0.23541">
        <ele>2018.509</ele>
        <time>2023-07-09T11:51:06Z</time>
      </trkpt>
      <trkpt lat="42.89078" lon="0.23541">
        <ele>2020.284</ele>
        <time>2023-07-09T11:51:12Z</time>
      </trkpt>
      <trkpt lat="42.89073" lon="0.23543">
        <ele>2021.637</ele>
        <time>2023-07-09T11:51:17Z</time>
      </trkpt>
      <trkpt lat="42.89069" lon="0.23543">
        <ele>2021.963</ele>
        <time>2023-07-09T11:51:25Z</time>
      </trkpt>
      <trkpt lat="42.89064" lon="0.23545">
        <ele>2022.764</ele>
        <time>2023-07-09T11:51:31Z</time>
      </trkpt>
      <trkpt lat="42.89059" lon="0.23547">
        <ele>2023.774</ele>
        <time>2023-07-09T11:51:37Z</time>
      </trkpt>
      <trkpt lat="42.89054" lon="0.23545">
        <ele>2024.575</ele>
        <time>2023-07-09T11:51:45Z</time>
      </trkpt>
      <trkpt lat="42.89049" lon="0.23546">
        <ele>2025.957</ele>
        <time>2023-07-09T11:51:54Z</time>
      </trkpt>
      <trkpt lat="42.89045" lon="0.23546">
        <ele>2027.529</ele>
        <time>2023-07-09T11:52:01Z</time>
      </trkpt>
      <trkpt lat="42.8904" lon="0.23551">
        <ele>2029.47</ele>
        <time>2023-07-09T11:52:12Z</time>
      </trkpt>
      <trkpt lat="42.89036" lon="0.23548">
        <ele>2031.366</ele>
        <time>2023-07-09T11:52:21Z</time>
      </trkpt>
      <trkpt lat="42.89032" lon="0.23545">
        <ele>2032.329</ele>
        <time>2023-07-09T11:52:28Z</time>
      </trkpt>
      <trkpt lat="42.89027" lon="0.23545">
        <ele>2033.221</ele>
        <time>2023-07-09T11:52:34Z</time>
      </trkpt>
      <trkpt lat="42.89022" lon="0.23544">
        <ele>2034.509</ele>
        <time>2023-07-09T11:52:41Z</time>
      </trkpt>
      <trkpt lat="42.89017" lon="0.23545">
        <ele>2035.987</ele>
        <time>2023-07-09T11:52:51Z</time>
      </trkpt>
      <trkpt lat="42.89012" lon="0.23543">
        <ele>2037.17</ele>
        <time>2023-07-09T11:53:01Z</time>
      </trkpt>
      <trkpt lat="42.89008" lon="0.23546">
        <ele>2037.936</ele>
        <time>2023-07-09T11:53:09Z</time>
      </trkpt>
      <trkpt lat="42.89003" lon="0.23547">
        <ele>2038.997</ele>
        <time>2023-07-09T11:53:17Z</time>
      </trkpt>
      <trkpt lat="42.88998" lon="0.23548">
        <ele>2040.147</ele>
        <time>2023-07-09T11:53:25Z</time>
      </trkpt>
      <trkpt lat="42.88993" lon="0.2355">
        <ele>2041.238</ele>
        <time>2023-07-09T11:53:33Z</time>
      </trkpt>
      <trkpt lat="42.88988" lon="0.23552">
        <ele>2042.17</ele>
        <time>2023-07-09T11:53:43Z</time>
      </trkpt>
      <trkpt lat="42.88984" lon="0.23553">
        <ele>2042.772</ele>
        <time>2023-07-09T11:54:05Z</time>
      </trkpt>
      <trkpt lat="42.88978" lon="0.23551">
        <ele>2043.443</ele>
        <time>2023-07-09T11:54:18Z</time>
      </trkpt>
      <trkpt lat="42.88975" lon="0.23558">
        <ele>2044.533</ele>
        <time>2023-07-09T11:54:26Z</time>
      </trkpt>
      <trkpt lat="42.8897" lon="0.23558">
        <ele>2045.223</ele>
        <time>2023-07-09T11:54:32Z</time>
      </trkpt>
      <trkpt lat="42.88966" lon="0.23555">
        <ele>2045.415</ele>
        <time>2023-07-09T11:54:38Z</time>
      </trkpt>
      <trkpt lat="42.88961" lon="0.23559">
        <ele>2045.509</ele>
        <time>2023-07-09T11:54:43Z</time>
      </trkpt>
      <trkpt lat="42.88957" lon="0.23561">
        <ele>2046.024</ele>
        <time>2023-07-09T11:54:48Z</time>
      </trkpt>
      <trkpt lat="42.88952" lon="0.2356">
        <ele>2046.667</ele>
        <time>2023-07-09T11:54:55Z</time>
      </trkpt>
      <trkpt lat="42.88947" lon="0.23559">
        <ele>2047.163</ele>
        <time>2023-07-09T11:55:01Z</time>
      </trkpt>
      <trkpt lat="42.88943" lon="0.23556">
        <ele>2048.114</ele>
        <time>2023-07-09T11:55:07Z</time>
      </trkpt>
      <trkpt lat="42.88939" lon="0.23553">
        <ele>2049.354</ele>
        <time>2023-07-09T11:55:15Z</time>
      </trkpt>
      <trkpt lat="42.88934" lon="0.2355">
        <ele>2050.325</ele>
        <time>2023-07-09T11:55:22Z</time>
      </trkpt>
      <trkpt lat="42.8893" lon="0.23545">
        <ele>2051.447</ele>
        <time>2023-07-09T11:55:27Z</time>
      </trkpt>
      <trkpt lat="42.88926" lon="0.23542">
        <ele>2052.289</ele>
        <time>2023-07-09T11:55:32Z</time>
      </trkpt>
      <trkpt lat="42.88921" lon="0.23541">
        <ele>2052.41</ele>
        <time>2023-07-09T11:55:41Z</time>
      </trkpt>
      <trkpt lat="42.88916" lon="0.2354">
        <ele>2052.781</ele>
        <time>2023-07-09T11:55:47Z</time>
      </trkpt>
      <trkpt lat="42.88912" lon="0.23542">
        <ele>2053.161</ele>
        <time>2023-07-09T11:55:53Z</time>
      </trkpt>
      <trkpt lat="42.88907" lon="0.23542">
        <ele>2053.117</ele>
        <time>2023-07-09T11:55:58Z</time>
      </trkpt>
      <trkpt lat="42.88903" lon="0.23538">
        <ele>2053.509</ele>
        <time>2023-07-09T11:56:04Z</time>
      </trkpt>
      <trkpt lat="42.889" lon="0.23532">
        <ele>2053.629</ele>
        <time>2023-07-09T11:56:11Z</time>
      </trkpt>
      <trkpt lat="42.88897" lon="0.23527">
        <ele>2053.752</ele>
        <time>2023-07-09T11:56:17Z</time>
      </trkpt>
      <trkpt lat="42.88891" lon="0.23527">
        <ele>2053.638</ele>
        <time>2023-07-09T11:56:22Z</time>
      </trkpt>
      <trkpt lat="42.88886" lon="0.23526">
        <ele>2053.919</ele>
        <time>2023-07-09T11:56:31Z</time>
      </trkpt>
      <trkpt lat="42.88882" lon="0.23526">
        <ele>2054.429</ele>
        <time>2023-07-09T11:56:38Z</time>
      </trkpt>
      <trkpt lat="42.88877" lon="0.23527">
        <ele>2054.97</ele>
        <time>2023-07-09T11:56:44Z</time>
      </trkpt>
      <trkpt lat="42.88872" lon="0.23528">
        <ele>2055.142</ele>
        <time>2023-07-09T11:56:53Z</time>
      </trkpt>
      <trkpt lat="42.88867" lon="0.23528">
        <ele>2055.564</ele>
        <time>2023-07-09T11:57:01Z</time>
      </trkpt>
      <trkpt lat="42.88862" lon="0.2353">
        <ele>2056.645</ele>
        <time>2023-07-09T11:57:10Z</time>
      </trkpt>
      <trkpt lat="42.88857" lon="0.23528">
        <ele>2058.178</ele>
        <time>2023-07-09T11:57:17Z</time>
      </trkpt>
      <trkpt lat="42.88853" lon="0.23526">
        <ele>2058.833</ele>
        <time>2023-07-09T11:57:23Z</time>
      </trkpt>
      <trkpt lat="42.88848" lon="0.23524">
        <ele>2059.426</ele>
        <time>2023-07-09T11:57:30Z</time>
      </trkpt>
      <trkpt lat="42.88844" lon="0.23524">
        <ele>2060.109</ele>
        <time>2023-07-09T11:57:36Z</time>
      </trkpt>
      <trkpt lat="42.88839" lon="0.23522">
        <ele>2060.578</ele>
        <time>2023-07-09T11:57:41Z</time>
      </trkpt>
      <trkpt lat="42.88835" lon="0.2352">
        <ele>2061.111</ele>
        <time>2023-07-09T11:57:46Z</time>
      </trkpt>
      <trkpt lat="42.8883" lon="0.23522">
        <ele>2061.697</ele>
        <time>2023-07-09T11:57:52Z</time>
      </trkpt>
      <trkpt lat="42.88826" lon="0.23525">
        <ele>2061.938</ele>
        <time>2023-07-09T11:57:58Z</time>
      </trkpt>
      <trkpt lat="42.88822" lon="0.23528">
        <ele>2062.078</ele>
        <time>2023-07-09T11:58:05Z</time>
      </trkpt>
      <trkpt lat="42.88817" lon="0.23526">
        <ele>2062.019</ele>
        <time>2023-07-09T11:58:12Z</time>
      </trkpt>
      <trkpt lat="42.88812" lon="0.23524">
        <ele>2062.221</ele>
        <time>2023-07-09T11:58:17Z</time>
      </trkpt>
      <trkpt lat="42.88808" lon="0.23522">
        <ele>2062.973</ele>
        <time>2023-07-09T11:58:22Z</time>
      </trkpt>
      <trkpt lat="42.88803" lon="0.23519">
        <ele>2063.864</ele>
        <time>2023-07-09T11:58:27Z</time>
      </trkpt>
      <trkpt lat="42.888" lon="0.23515">
        <ele>2064.774</ele>
        <time>2023-07-09T11:58:32Z</time>
      </trkpt>
      <trkpt lat="42.88795" lon="0.23513">
        <ele>2065.756</ele>
        <time>2023-07-09T11:58:40Z</time>
      </trkpt>
      <trkpt lat="42.88791" lon="0.23512">
        <ele>2066.421</ele>
        <time>2023-07-09T11:58:48Z</time>
      </trkpt>
      <trkpt lat="42.88786" lon="0.23508">
        <ele>2067.609</ele>
        <time>2023-07-09T11:58:54Z</time>
      </trkpt>
      <trkpt lat="42.88781" lon="0.23508">
        <ele>2068.678</ele>
        <time>2023-07-09T11:59:00Z</time>
      </trkpt>
      <trkpt lat="42.88776" lon="0.23507">
        <ele>2068.891</ele>
        <time>2023-07-09T11:59:07Z</time>
      </trkpt>
      <trkpt lat="42.88772" lon="0.23511">
        <ele>2069.417</ele>
        <time>2023-07-09T11:59:52Z</time>
      </trkpt>
      <trkpt lat="42.88768" lon="0.23509">
        <ele>2069.698</ele>
        <time>2023-07-09T12:03:19Z</time>
      </trkpt>
      <trkpt lat="42.88763" lon="0.23507">
        <ele>2069.798</ele>
        <time>2023-07-09T12:03:24Z</time>
      </trkpt>
      <trkpt lat="42.88758" lon="0.23504">
        <ele>2069.939</ele>
        <time>2023-07-09T12:03:28Z</time>
      </trkpt>
      <trkpt lat="42.88754" lon="0.23502">
        <ele>2070.051</ele>
        <time>2023-07-09T12:03:31Z</time>
      </trkpt>
      <trkpt lat="42.88748" lon="0.23503">
        <ele>2070.343</ele>
        <time>2023-07-09T12:03:36Z</time>
      </trkpt>
      <trkpt lat="42.88743" lon="0.23503">
        <ele>2070.344</ele>
        <time>2023-07-09T12:03:40Z</time>
      </trkpt>
      <trkpt lat="42.88738" lon="0.23502">
        <ele>2071.363</ele>
        <time>2023-07-09T12:03:45Z</time>
      </trkpt>
      <trkpt lat="42.88735" lon="0.23507">
        <ele>2072.344</ele>
        <time>2023-07-09T12:03:49Z</time>
      </trkpt>
      <trkpt lat="42.88731" lon="0.23503">
        <ele>2072.518</ele>
        <time>2023-07-09T12:03:55Z</time>
      </trkpt>
      <trkpt lat="42.88726" lon="0.23502">
        <ele>2072.609</ele>
        <time>2023-07-09T12:04:00Z</time>
      </trkpt>
      <trkpt lat="42.88719" lon="0.23499">
        <ele>2073.797</ele>
        <time>2023-07-09T12:05:38Z</time>
      </trkpt>
      <trkpt lat="42.88715" lon="0.23497">
        <ele>2074.057</ele>
        <time>2023-07-09T12:05:43Z</time>
      </trkpt>
      <trkpt lat="42.8871" lon="0.23496">
        <ele>2074.148</ele>
        <time>2023-07-09T12:05:49Z</time>
      </trkpt>
      <trkpt lat="42.88704" lon="0.23496">
        <ele>2074.23</ele>
        <time>2023-07-09T12:05:55Z</time>
      </trkpt>
      <trkpt lat="42.88698" lon="0.23495">
        <ele>2074.312</ele>
        <time>2023-07-09T12:06:01Z</time>
      </trkpt>
      <trkpt lat="42.88693" lon="0.23495">
        <ele>2074.523</ele>
        <time>2023-07-09T12:06:07Z</time>
      </trkpt>
      <trkpt lat="42.88687" lon="0.23489">
        <ele>2074.676</ele>
        <time>2023-07-09T12:06:13Z</time>
      </trkpt>
      <trkpt lat="42.88683" lon="0.23488">
        <ele>2074.69</ele>
        <time>2023-07-09T12:06:21Z</time>
      </trkpt>
      <trkpt lat="42.88679" lon="0.23485">
        <ele>2074.619</ele>
        <time>2023-07-09T12:06:27Z</time>
      </trkpt>
      <trkpt lat="42.88673" lon="0.23484">
        <ele>2074.509</ele>
        <time>2023-07-09T12:06:32Z</time>
      </trkpt>
      <trkpt lat="42.88669" lon="0.23487">
        <ele>2074.678</ele>
        <time>2023-07-09T12:06:39Z</time>
      </trkpt>
      <trkpt lat="42.88665" lon="0.23492">
        <ele>2074.651</ele>
        <time>2023-07-09T12:06:45Z</time>
      </trkpt>
      <trkpt lat="42.88662" lon="0.23497">
        <ele>2074.727</ele>
        <time>2023-07-09T12:06:51Z</time>
      </trkpt>
      <trkpt lat="42.88658" lon="0.23494">
        <ele>2074.728</ele>
        <time>2023-07-09T12:06:56Z</time>
      </trkpt>
      <trkpt lat="42.88654" lon="0.23489">
        <ele>2074.878</ele>
        <time>2023-07-09T12:07:01Z</time>
      </trkpt>
      <trkpt lat="42.88649" lon="0.2349">
        <ele>2074.819</ele>
        <time>2023-07-09T12:07:07Z</time>
      </trkpt>
      <trkpt lat="42.88645" lon="0.23485">
        <ele>2074.831</ele>
        <time>2023-07-09T12:07:14Z</time>
      </trkpt>
      <trkpt lat="42.8864" lon="0.23484">
        <ele>2074.533</ele>
        <time>2023-07-09T12:07:19Z</time>
      </trkpt>
      <trkpt lat="42.88635" lon="0.2348">
        <ele>2074.164</ele>
        <time>2023-07-09T12:07:26Z</time>
      </trkpt>
      <trkpt lat="42.88631" lon="0.2348">
        <ele>2074.143</ele>
        <time>2023-07-09T12:07:32Z</time>
      </trkpt>
      <trkpt lat="42.88626" lon="0.23478">
        <ele>2074.164</ele>
        <time>2023-07-09T12:07:36Z</time>
      </trkpt>
      <trkpt lat="42.88622" lon="0.23481">
        <ele>2073.91</ele>
        <time>2023-07-09T12:07:43Z</time>
      </trkpt>
      <trkpt lat="42.88621" lon="0.23474">
        <ele>2073.809</ele>
        <time>2023-07-09T12:07:49Z</time>
      </trkpt>
      <trkpt lat="42.88616" lon="0.23472">
        <ele>2073.675</ele>
        <time>2023-07-09T12:07:54Z</time>
      </trkpt>
      <trkpt lat="42.88612" lon="0.23472">
        <ele>2073.198</ele>
        <time>2023-07-09T12:07:58Z</time>
      </trkpt>
      <trkpt lat="42.88606" lon="0.23474">
        <ele>2071.694</ele>
        <time>2023-07-09T12:08:05Z</time>
      </trkpt>
      <trkpt lat="42.88601" lon="0.23474">
        <ele>2070.335</ele>
        <time>2023-07-09T12:08:12Z</time>
      </trkpt>
      <trkpt lat="42.88596" lon="0.23475">
        <ele>2069.515</ele>
        <time>2023-07-09T12:08:16Z</time>
      </trkpt>
      <trkpt lat="42.88592" lon="0.23473">
        <ele>2069.326</ele>
        <time>2023-07-09T12:08:21Z</time>
      </trkpt>
      <trkpt lat="42.88587" lon="0.23471">
        <ele>2069.238</ele>
        <time>2023-07-09T12:08:26Z</time>
      </trkpt>
      <trkpt lat="42.88582" lon="0.23471">
        <ele>2069.16</ele>
        <time>2023-07-09T12:08:33Z</time>
      </trkpt>
      <trkpt lat="42.88577" lon="0.23468">
        <ele>2069.241</ele>
        <time>2023-07-09T12:08:38Z</time>
      </trkpt>
      <trkpt lat="42.88573" lon="0.23464">
        <ele>2069.315</ele>
        <time>2023-07-09T12:08:43Z</time>
      </trkpt>
      <trkpt lat="42.88568" lon="0.23463">
        <ele>2069.365</ele>
        <time>2023-07-09T12:08:47Z</time>
      </trkpt>
      <trkpt lat="42.88561" lon="0.23455">
        <ele>2069.009</ele>
        <time>2023-07-09T12:08:58Z</time>
      </trkpt>
      <trkpt lat="42.88557" lon="0.23455">
        <ele>2068.832</ele>
        <time>2023-07-09T12:09:03Z</time>
      </trkpt>
      <trkpt lat="42.88552" lon="0.23452">
        <ele>2068.785</ele>
        <time>2023-07-09T12:09:10Z</time>
      </trkpt>
      <trkpt lat="42.88547" lon="0.23452">
        <ele>2068.611</ele>
        <time>2023-07-09T12:09:19Z</time>
      </trkpt>
      <trkpt lat="42.88542" lon="0.2345">
        <ele>2068.352</ele>
        <time>2023-07-09T12:09:25Z</time>
      </trkpt>
      <trkpt lat="42.88537" lon="0.23447">
        <ele>2068.652</ele>
        <time>2023-07-09T12:09:33Z</time>
      </trkpt>
      <trkpt lat="42.88533" lon="0.23445">
        <ele>2068.893</ele>
        <time>2023-07-09T12:09:42Z</time>
      </trkpt>
      <trkpt lat="42.88528" lon="0.23444">
        <ele>2068.945</ele>
        <time>2023-07-09T12:09:47Z</time>
      </trkpt>
      <trkpt lat="42.88522" lon="0.23443">
        <ele>2068.877</ele>
        <time>2023-07-09T12:09:52Z</time>
      </trkpt>
      <trkpt lat="42.88518" lon="0.2344">
        <ele>2068.848</ele>
        <time>2023-07-09T12:09:57Z</time>
      </trkpt>
      <trkpt lat="42.88513" lon="0.23437">
        <ele>2068.976</ele>
        <time>2023-07-09T12:10:01Z</time>
      </trkpt>
      <trkpt lat="42.88509" lon="0.23434">
        <ele>2068.99</ele>
        <time>2023-07-09T12:10:05Z</time>
      </trkpt>
      <trkpt lat="42.88505" lon="0.23429">
        <ele>2069.019</ele>
        <time>2023-07-09T12:10:11Z</time>
      </trkpt>
      <trkpt lat="42.885" lon="0.23429">
        <ele>2069.009</ele>
        <time>2023-07-09T12:10:16Z</time>
      </trkpt>
      <trkpt lat="42.88496" lon="0.23426">
        <ele>2069.618</ele>
        <time>2023-07-09T12:10:25Z</time>
      </trkpt>
      <trkpt lat="42.88492" lon="0.23421">
        <ele>2070.411</ele>
        <time>2023-07-09T12:10:32Z</time>
      </trkpt>
      <trkpt lat="42.88488" lon="0.23418">
        <ele>2071.057</ele>
        <time>2023-07-09T12:10:40Z</time>
      </trkpt>
      <trkpt lat="42.88482" lon="0.23415">
        <ele>2071.628</ele>
        <time>2023-07-09T12:10:47Z</time>
      </trkpt>
      <trkpt lat="42.88479" lon="0.23409">
        <ele>2071.728</ele>
        <time>2023-07-09T12:10:54Z</time>
      </trkpt>
      <trkpt lat="42.88476" lon="0.23404">
        <ele>2072.159</ele>
        <time>2023-07-09T12:11:05Z</time>
      </trkpt>
      <trkpt lat="42.88479" lon="0.23399">
        <ele>2072.251</ele>
        <time>2023-07-09T12:11:14Z</time>
      </trkpt>
      <trkpt lat="42.88481" lon="0.23394">
        <ele>2072.283</ele>
        <time>2023-07-09T12:11:24Z</time>
      </trkpt>
      <trkpt lat="42.88481" lon="0.23386">
        <ele>2073.054</ele>
        <time>2023-07-09T12:11:36Z</time>
      </trkpt>
      <trkpt lat="42.88478" lon="0.23379">
        <ele>2074.335</ele>
        <time>2023-07-09T12:11:47Z</time>
      </trkpt>
      <trkpt lat="42.88475" lon="0.23375">
        <ele>2075.786</ele>
        <time>2023-07-09T12:11:54Z</time>
      </trkpt>
      <trkpt lat="42.88471" lon="0.23372">
        <ele>2077.214</ele>
        <time>2023-07-09T12:12:02Z</time>
      </trkpt>
      <trkpt lat="42.88467" lon="0.23369">
        <ele>2078.709</ele>
        <time>2023-07-09T12:12:08Z</time>
      </trkpt>
      <trkpt lat="42.88463" lon="0.23365">
        <ele>2080.254</ele>
        <time>2023-07-09T12:12:15Z</time>
      </trkpt>
      <trkpt lat="42.88461" lon="0.23359">
        <ele>2081.387</ele>
        <time>2023-07-09T12:12:25Z</time>
      </trkpt>
      <trkpt lat="42.88457" lon="0.23355">
        <ele>2082.433</ele>
        <time>2023-07-09T12:12:29Z</time>
      </trkpt>
      <trkpt lat="42.88453" lon="0.23353">
        <ele>2083.434</ele>
        <time>2023-07-09T12:12:35Z</time>
      </trkpt>
      <trkpt lat="42.88449" lon="0.2335">
        <ele>2084.334</ele>
        <time>2023-07-09T12:12:46Z</time>
      </trkpt>
      <trkpt lat="42.8845" lon="0.23344">
        <ele>2085.655</ele>
        <time>2023-07-09T12:12:54Z</time>
      </trkpt>
      <trkpt lat="42.88446" lon="0.2334">
        <ele>2086.877</ele>
        <time>2023-07-09T12:13:06Z</time>
      </trkpt>
      <trkpt lat="42.88448" lon="0.23335">
        <ele>2088.169</ele>
        <time>2023-07-09T12:13:16Z</time>
      </trkpt>
      <trkpt lat="42.88446" lon="0.23329">
        <ele>2090.24</ele>
        <time>2023-07-09T12:13:33Z</time>
      </trkpt>
      <trkpt lat="42.88447" lon="0.23323">
        <ele>2091.983</ele>
        <time>2023-07-09T12:13:49Z</time>
      </trkpt>
      <trkpt lat="42.88445" lon="0.23317">
        <ele>2095.125</ele>
        <time>2023-07-09T12:14:04Z</time>
      </trkpt>
      <trkpt lat="42.88444" lon="0.23311">
        <ele>2099.417</ele>
        <time>2023-07-09T12:14:22Z</time>
      </trkpt>
      <trkpt lat="42.88445" lon="0.23304">
        <ele>2101.309</ele>
        <time>2023-07-09T12:14:36Z</time>
      </trkpt>
      <trkpt lat="42.88449" lon="0.233">
        <ele>2103.099</ele>
        <time>2023-07-09T12:14:43Z</time>
      </trkpt>
      <trkpt lat="42.88443" lon="0.23301">
        <ele>2105.342</ele>
        <time>2023-07-09T12:14:49Z</time>
      </trkpt>
      <trkpt lat="42.88444" lon="0.23295">
        <ele>2106.718</ele>
        <time>2023-07-09T12:15:15Z</time>
      </trkpt>
      <trkpt lat="42.8844" lon="0.2329">
        <ele>2107.339</ele>
        <time>2023-07-09T12:15:29Z</time>
      </trkpt>
      <trkpt lat="42.88445" lon="0.23288">
        <ele>2108.739</ele>
        <time>2023-07-09T12:15:33Z</time>
      </trkpt>
      <trkpt lat="42.88442" lon="0.23282">
        <ele>2110.43</ele>
        <time>2023-07-09T12:15:46Z</time>
      </trkpt>
      <trkpt lat="42.88443" lon="0.23276">
        <ele>2111.222</ele>
        <time>2023-07-09T12:16:00Z</time>
      </trkpt>
      <trkpt lat="42.88439" lon="0.23267">
        <ele>2113.244</ele>
        <time>2023-07-09T12:16:09Z</time>
      </trkpt>
      <trkpt lat="42.88438" lon="0.2326">
        <ele>2115.765</ele>
        <time>2023-07-09T12:16:34Z</time>
      </trkpt>
      <trkpt lat="42.88439" lon="0.23253">
        <ele>2116.414</ele>
        <time>2023-07-09T12:16:43Z</time>
      </trkpt>
      <trkpt lat="42.88437" lon="0.23247">
        <ele>2119.754</ele>
        <time>2023-07-09T12:16:56Z</time>
      </trkpt>
      <trkpt lat="42.88439" lon="0.23241">
        <ele>2122.509</ele>
        <time>2023-07-09T12:17:07Z</time>
      </trkpt>
      <trkpt lat="42.88443" lon="0.23236">
        <ele>2123.409</ele>
        <time>2023-07-09T12:17:16Z</time>
      </trkpt>
      <trkpt lat="42.88447" lon="0.23231">
        <ele>2124.742</ele>
        <time>2023-07-09T12:17:28Z</time>
      </trkpt>
      <trkpt lat="42.88448" lon="0.23224">
        <ele>2125.655</ele>
        <time>2023-07-09T12:17:35Z</time>
      </trkpt>
      <trkpt lat="42.88447" lon="0.23217">
        <ele>2126.431</ele>
        <time>2023-07-09T12:17:47Z</time>
      </trkpt>
      <trkpt lat="42.88444" lon="0.23211">
        <ele>2127.472</ele>
        <time>2023-07-09T12:17:58Z</time>
      </trkpt>
      <trkpt lat="42.8844" lon="0.23208">
        <ele>2129.092</ele>
        <time>2023-07-09T12:18:05Z</time>
      </trkpt>
      <trkpt lat="42.8844" lon="0.23201">
        <ele>2130.723</ele>
        <time>2023-07-09T12:18:12Z</time>
      </trkpt>
      <trkpt lat="42.88438" lon="0.23195">
        <ele>2132.075</ele>
        <time>2023-07-09T12:18:22Z</time>
      </trkpt>
      <trkpt lat="42.88437" lon="0.23189">
        <ele>2134.187</ele>
        <time>2023-07-09T12:18:32Z</time>
      </trkpt>
      <trkpt lat="42.88435" lon="0.23183">
        <ele>2135.528</ele>
        <time>2023-07-09T12:18:57Z</time>
      </trkpt>
      <trkpt lat="42.88438" lon="0.23177">
        <ele>2136.331</ele>
        <time>2023-07-09T12:19:02Z</time>
      </trkpt>
      <trkpt lat="42.88441" lon="0.23172">
        <ele>2137.561</ele>
        <time>2023-07-09T12:19:08Z</time>
      </trkpt>
      <trkpt lat="42.88442" lon="0.23165">
        <ele>2138.307</ele>
        <time>2023-07-09T12:19:20Z</time>
      </trkpt>
      <trkpt lat="42.88442" lon="0.23158">
        <ele>2139.009</ele>
        <time>2023-07-09T12:19:34Z</time>
      </trkpt>
      <trkpt lat="42.88439" lon="0.23153">
        <ele>2139.754</ele>
        <time>2023-07-09T12:19:50Z</time>
      </trkpt>
      <trkpt lat="42.88443" lon="0.23149">
        <ele>2140.787</ele>
        <time>2023-07-09T12:19:54Z</time>
      </trkpt>
      <trkpt lat="42.88441" lon="0.23141">
        <ele>2141.763</ele>
        <time>2023-07-09T12:20:04Z</time>
      </trkpt>
      <trkpt lat="42.88438" lon="0.23146">
        <ele>2142.564</ele>
        <time>2023-07-09T12:20:12Z</time>
      </trkpt>
      <trkpt lat="42.88434" lon="0.23142">
        <ele>2143.444</ele>
        <time>2023-07-09T12:20:23Z</time>
      </trkpt>
      <trkpt lat="42.88429" lon="0.23138">
        <ele>2144.455</ele>
        <time>2023-07-09T12:20:36Z</time>
      </trkpt>
      <trkpt lat="42.88427" lon="0.23131">
        <ele>2145.997</ele>
        <time>2023-07-09T12:20:46Z</time>
      </trkpt>
      <trkpt lat="42.88422" lon="0.2313">
        <ele>2149.289</ele>
        <time>2023-07-09T12:20:52Z</time>
      </trkpt>
      <trkpt lat="42.8842" lon="0.23125">
        <ele>2152.84</ele>
        <time>2023-07-09T12:21:09Z</time>
      </trkpt>
      <trkpt lat="42.88415" lon="0.23123">
        <ele>2154.636</ele>
        <time>2023-07-09T12:21:24Z</time>
      </trkpt>
      <trkpt lat="42.88411" lon="0.23119">
        <ele>2156.117</ele>
        <time>2023-07-09T12:21:31Z</time>
      </trkpt>
      <trkpt lat="42.88406" lon="0.23118">
        <ele>2159.318</ele>
        <time>2023-07-09T12:21:38Z</time>
      </trkpt>
      <trkpt lat="42.88401" lon="0.23117">
        <ele>2162.409</ele>
        <time>2023-07-09T12:21:42Z</time>
      </trkpt>
      <trkpt lat="42.88396" lon="0.23119">
        <ele>2163.914</ele>
        <time>2023-07-09T12:21:48Z</time>
      </trkpt>
      <trkpt lat="42.88393" lon="0.23125">
        <ele>2164.187</ele>
        <time>2023-07-09T12:21:55Z</time>
      </trkpt>
      <trkpt lat="42.88388" lon="0.23128">
        <ele>2164.173</ele>
        <time>2023-07-09T12:22:00Z</time>
      </trkpt>
      <trkpt lat="42.88385" lon="0.23132">
        <ele>2164.184</ele>
        <time>2023-07-09T12:22:05Z</time>
      </trkpt>
      <trkpt lat="42.8838" lon="0.23134">
        <ele>2163.584</ele>
        <time>2023-07-09T12:22:10Z</time>
      </trkpt>
      <trkpt lat="42.88377" lon="0.23129">
        <ele>2163.215</ele>
        <time>2023-07-09T12:22:16Z</time>
      </trkpt>
      <trkpt lat="42.88373" lon="0.23125">
        <ele>2163.267</ele>
        <time>2023-07-09T12:22:23Z</time>
      </trkpt>
      <trkpt lat="42.8837" lon="0.23121">
        <ele>2163.239</ele>
        <time>2023-07-09T12:22:28Z</time>
      </trkpt>
      <trkpt lat="42.88366" lon="0.23119">
        <ele>2164.34</ele>
        <time>2023-07-09T12:22:37Z</time>
      </trkpt>
      <trkpt lat="42.88361" lon="0.23118">
        <ele>2165.664</ele>
        <time>2023-07-09T12:22:49Z</time>
      </trkpt>
      <trkpt lat="42.88356" lon="0.23117">
        <ele>2166.806</ele>
        <time>2023-07-09T12:22:55Z</time>
      </trkpt>
      <trkpt lat="42.88353" lon="0.23112">
        <ele>2167.516</ele>
        <time>2023-07-09T12:23:17Z</time>
      </trkpt>
      <trkpt lat="42.88348" lon="0.23112">
        <ele>2167.709</ele>
        <time>2023-07-09T12:23:21Z</time>
      </trkpt>
      <trkpt lat="42.88343" lon="0.23112">
        <ele>2167.857</ele>
        <time>2023-07-09T12:23:28Z</time>
      </trkpt>
      <trkpt lat="42.88338" lon="0.23111">
        <ele>2167.83</ele>
        <time>2023-07-09T12:23:33Z</time>
      </trkpt>
      <trkpt lat="42.88333" lon="0.23109">
        <ele>2168.356</ele>
        <time>2023-07-09T12:23:39Z</time>
      </trkpt>
      <trkpt lat="42.88328" lon="0.23109">
        <ele>2169.637</ele>
        <time>2023-07-09T12:23:47Z</time>
      </trkpt>
      <trkpt lat="42.88324" lon="0.23105">
        <ele>2171.397</ele>
        <time>2023-07-09T12:23:58Z</time>
      </trkpt>
      <trkpt lat="42.88318" lon="0.23102">
        <ele>2173.418</ele>
        <time>2023-07-09T12:24:07Z</time>
      </trkpt>
      <trkpt lat="42.88314" lon="0.23105">
        <ele>2176.03</ele>
        <time>2023-07-09T12:24:12Z</time>
      </trkpt>
      <trkpt lat="42.8831" lon="0.23101">
        <ele>2178.022</ele>
        <time>2023-07-09T12:24:17Z</time>
      </trkpt>
      <trkpt lat="42.88305" lon="0.231">
        <ele>2178.743</ele>
        <time>2023-07-09T12:24:22Z</time>
      </trkpt>
      <trkpt lat="42.88302" lon="0.23094">
        <ele>2179.638</ele>
        <time>2023-07-09T12:24:33Z</time>
      </trkpt>
      <trkpt lat="42.883" lon="0.231">
        <ele>2180.87</ele>
        <time>2023-07-09T12:24:47Z</time>
      </trkpt>
      <trkpt lat="42.88295" lon="0.23103">
        <ele>2181.917</ele>
        <time>2023-07-09T12:24:54Z</time>
      </trkpt>
      <trkpt lat="42.8829" lon="0.23098">
        <ele>2183.109</ele>
        <time>2023-07-09T12:25:04Z</time>
      </trkpt>
      <trkpt lat="42.88286" lon="0.23093">
        <ele>2183.664</ele>
        <time>2023-07-09T12:25:09Z</time>
      </trkpt>
      <trkpt lat="42.88282" lon="0.23091">
        <ele>2183.397</ele>
        <time>2023-07-09T12:25:14Z</time>
      </trkpt>
      <trkpt lat="42.88278" lon="0.23087">
        <ele>2183.643</ele>
        <time>2023-07-09T12:25:19Z</time>
      </trkpt>
      <trkpt lat="42.88274" lon="0.23083">
        <ele>2183.394</ele>
        <time>2023-07-09T12:25:24Z</time>
      </trkpt>
      <trkpt lat="42.88272" lon="0.23089">
        <ele>2182.994</ele>
        <time>2023-07-09T12:25:45Z</time>
      </trkpt>
      <trkpt lat="42.88269" lon="0.23084">
        <ele>2182.925</ele>
        <time>2023-07-09T12:27:10Z</time>
      </trkpt>
      <trkpt lat="42.88266" lon="0.23078">
        <ele>2182.757</ele>
        <time>2023-07-09T12:27:15Z</time>
      </trkpt>
      <trkpt lat="42.88263" lon="0.23072">
        <ele>2182.699</ele>
        <time>2023-07-09T12:27:19Z</time>
      </trkpt>
      <trkpt lat="42.8826" lon="0.23066">
        <ele>2182.28</ele>
        <time>2023-07-09T12:27:24Z</time>
      </trkpt>
      <trkpt lat="42.88255" lon="0.2306">
        <ele>2181.515</ele>
        <time>2023-07-09T12:27:29Z</time>
      </trkpt>
      <trkpt lat="42.88252" lon="0.23055">
        <ele>2181.365</ele>
        <time>2023-07-09T12:27:34Z</time>
      </trkpt>
      <trkpt lat="42.88248" lon="0.23051">
        <ele>2181.311</ele>
        <time>2023-07-09T12:27:38Z</time>
      </trkpt>
      <trkpt lat="42.88244" lon="0.23047">
        <ele>2181.309</ele>
        <time>2023-07-09T12:27:42Z</time>
      </trkpt>
      <trkpt lat="42.88239" lon="0.23043">
        <ele>2181.382</ele>
        <time>2023-07-09T12:27:47Z</time>
      </trkpt>
      <trkpt lat="42.88235" lon="0.23038">
        <ele>2181.425</ele>
        <time>2023-07-09T12:27:51Z</time>
      </trkpt>
      <trkpt lat="42.88231" lon="0.23037">
        <ele>2181.791</ele>
        <time>2023-07-09T12:27:56Z</time>
      </trkpt>
      <trkpt lat="42.88225" lon="0.23033">
        <ele>2181.892</ele>
        <time>2023-07-09T12:28:01Z</time>
      </trkpt>
      <trkpt lat="42.8822" lon="0.23031">
        <ele>2181.832</ele>
        <time>2023-07-09T12:28:06Z</time>
      </trkpt>
      <trkpt lat="42.88214" lon="0.23032">
        <ele>2182.123</ele>
        <time>2023-07-09T12:28:12Z</time>
      </trkpt>
      <trkpt lat="42.88208" lon="0.2303">
        <ele>2182.235</ele>
        <time>2023-07-09T12:28:16Z</time>
      </trkpt>
      <trkpt lat="42.88202" lon="0.23029">
        <ele>2182.287</ele>
        <time>2023-07-09T12:28:22Z</time>
      </trkpt>
      <trkpt lat="42.88197" lon="0.23029">
        <ele>2184.298</ele>
        <time>2023-07-09T12:28:27Z</time>
      </trkpt>
      <trkpt lat="42.88192" lon="0.2303">
        <ele>2185.782</ele>
        <time>2023-07-09T12:28:32Z</time>
      </trkpt>
      <trkpt lat="42.88186" lon="0.23031">
        <ele>2187.443</ele>
        <time>2023-07-09T12:28:41Z</time>
      </trkpt>
      <trkpt lat="42.88182" lon="0.23033">
        <ele>2188.417</ele>
        <time>2023-07-09T12:28:45Z</time>
      </trkpt>
      <trkpt lat="42.88177" lon="0.23035">
        <ele>2189.409</ele>
        <time>2023-07-09T12:28:50Z</time>
      </trkpt>
      <trkpt lat="42.88172" lon="0.23034">
        <ele>2189.589</ele>
        <time>2023-07-09T12:28:55Z</time>
      </trkpt>
      <trkpt lat="42.88167" lon="0.23035">
        <ele>2190.282</ele>
        <time>2023-07-09T12:29:00Z</time>
      </trkpt>
      <trkpt lat="42.88163" lon="0.23038">
        <ele>2190.568</ele>
        <time>2023-07-09T12:29:05Z</time>
      </trkpt>
      <trkpt lat="42.88157" lon="0.23041">
        <ele>2190.949</ele>
        <time>2023-07-09T12:29:10Z</time>
      </trkpt>
      <trkpt lat="42.88152" lon="0.23038">
        <ele>2191.159</ele>
        <time>2023-07-09T12:29:14Z</time>
      </trkpt>
      <trkpt lat="42.88147" lon="0.23042">
        <ele>2191.52</ele>
        <time>2023-07-09T12:29:20Z</time>
      </trkpt>
      <trkpt lat="42.88145" lon="0.23047">
        <ele>2192.212</ele>
        <time>2023-07-09T12:29:25Z</time>
      </trkpt>
      <trkpt lat="42.88142" lon="0.23053">
        <ele>2193.014</ele>
        <time>2023-07-09T12:29:29Z</time>
      </trkpt>
      <trkpt lat="42.88138" lon="0.23055">
        <ele>2193.845</ele>
        <time>2023-07-09T12:29:36Z</time>
      </trkpt>
      <trkpt lat="42.88133" lon="0.23054">
        <ele>2194.628</ele>
        <time>2023-07-09T12:29:42Z</time>
      </trkpt>
      <trkpt lat="42.88128" lon="0.23053">
        <ele>2195.789</ele>
        <time>2023-07-09T12:29:47Z</time>
      </trkpt>
      <trkpt lat="42.88122" lon="0.23055">
        <ele>2196.817</ele>
        <time>2023-07-09T12:29:53Z</time>
      </trkpt>
      <trkpt lat="42.88117" lon="0.23055">
        <ele>2197.409</ele>
        <time>2023-07-09T12:29:59Z</time>
      </trkpt>
      <trkpt lat="42.88112" lon="0.23053">
        <ele>2197.443</ele>
        <time>2023-07-09T12:30:05Z</time>
      </trkpt>
      <trkpt lat="42.88107" lon="0.23053">
        <ele>2197.446</ele>
        <time>2023-07-09T12:30:11Z</time>
      </trkpt>
      <trkpt lat="42.88101" lon="0.23051">
        <ele>2198.092</ele>
        <time>2023-07-09T12:30:16Z</time>
      </trkpt>
      <trkpt lat="42.88097" lon="0.23049">
        <ele>2198.623</ele>
        <time>2023-07-09T12:30:20Z</time>
      </trkpt>
      <trkpt lat="42.88092" lon="0.2305">
        <ele>2198.643</ele>
        <time>2023-07-09T12:30:26Z</time>
      </trkpt>
      <trkpt lat="42.88087" lon="0.2305">
        <ele>2198.614</ele>
        <time>2023-07-09T12:30:32Z</time>
      </trkpt>
      <trkpt lat="42.88084" lon="0.23054">
        <ele>2199.986</ele>
        <time>2023-07-09T12:30:34Z</time>
      </trkpt>
      <trkpt lat="42.88079" lon="0.23053">
        <ele>2201.218</ele>
        <time>2023-07-09T12:30:41Z</time>
      </trkpt>
      <trkpt lat="42.88074" lon="0.23051">
        <ele>2202.149</ele>
        <time>2023-07-09T12:30:49Z</time>
      </trkpt>
      <trkpt lat="42.8807" lon="0.23048">
        <ele>2203.072</ele>
        <time>2023-07-09T12:30:54Z</time>
      </trkpt>
      <trkpt lat="42.88074" lon="0.23043">
        <ele>2204.013</ele>
        <time>2023-07-09T12:31:00Z</time>
      </trkpt>
      <trkpt lat="42.88069" lon="0.23043">
        <ele>2205.614</ele>
        <time>2023-07-09T12:31:09Z</time>
      </trkpt>
      <trkpt lat="42.88067" lon="0.23037">
        <ele>2207.109</ele>
        <time>2023-07-09T12:31:18Z</time>
      </trkpt>
      <trkpt lat="42.88063" lon="0.23032">
        <ele>2208.218</ele>
        <time>2023-07-09T12:31:27Z</time>
      </trkpt>
      <trkpt lat="42.88061" lon="0.23025">
        <ele>2209.661</ele>
        <time>2023-07-09T12:31:38Z</time>
      </trkpt>
      <trkpt lat="42.88056" lon="0.2303">
        <ele>2210.557</ele>
        <time>2023-07-09T12:31:43Z</time>
      </trkpt>
      <trkpt lat="42.88052" lon="0.23027">
        <ele>2211.048</ele>
        <time>2023-07-09T12:31:54Z</time>
      </trkpt>
      <trkpt lat="42.8805" lon="0.23021">
        <ele>2211.968</ele>
        <time>2023-07-09T12:32:06Z</time>
      </trkpt>
      <trkpt lat="42.88046" lon="0.23018">
        <ele>2213.029</ele>
        <time>2023-07-09T12:32:10Z</time>
      </trkpt>
      <trkpt lat="42.88041" lon="0.23014">
        <ele>2214.351</ele>
        <time>2023-07-09T12:32:17Z</time>
      </trkpt>
      <trkpt lat="42.88037" lon="0.23013">
        <ele>2215.243</ele>
        <time>2023-07-09T12:32:32Z</time>
      </trkpt>
      <trkpt lat="42.88032" lon="0.23011">
        <ele>2216.214</ele>
        <time>2023-07-09T12:32:38Z</time>
      </trkpt>
      <trkpt lat="42.88029" lon="0.23006">
        <ele>2219.455</ele>
        <time>2023-07-09T12:32:53Z</time>
      </trkpt>
      <trkpt lat="42.88027" lon="0.23001">
        <ele>2222.607</ele>
        <time>2023-07-09T12:33:01Z</time>
      </trkpt>
      <trkpt lat="42.88027" lon="0.23001">
        <ele>2224.409</ele>
        <time>2023-07-09T12:34:10Z</time>
      </trkpt>
      <trkpt lat="42.88026" lon="0.22994">
        <ele>2225.686</ele>
        <time>2023-07-09T12:36:20Z</time>
      </trkpt>
      <trkpt lat="42.88026" lon="0.22988">
        <ele>2226.099</ele>
        <time>2023-07-09T12:36:27Z</time>
      </trkpt>
      <trkpt lat="42.88023" lon="0.22982">
        <ele>2227.835</ele>
        <time>2023-07-09T12:36:36Z</time>
      </trkpt>
      <trkpt lat="42.88019" lon="0.22979">
        <ele>2229.696</ele>
        <time>2023-07-09T12:36:49Z</time>
      </trkpt>
      <trkpt lat="42.88022" lon="0.22973">
        <ele>2230.766</ele>
        <time>2023-07-09T12:36:58Z</time>
      </trkpt>
      <trkpt lat="42.8802" lon="0.22967">
        <ele>2233.337</ele>
        <time>2023-07-09T12:37:14Z</time>
      </trkpt>
      <trkpt lat="42.88015" lon="0.22969">
        <ele>2236.119</ele>
        <time>2023-07-09T12:37:22Z</time>
      </trkpt>
      <trkpt lat="42.88012" lon="0.22964">
        <ele>2238.421</ele>
        <time>2023-07-09T12:37:32Z</time>
      </trkpt>
      <trkpt lat="42.88015" lon="0.22958">
        <ele>2240.582</ele>
        <time>2023-07-09T12:37:42Z</time>
      </trkpt>
      <trkpt lat="42.88011" lon="0.22961">
        <ele>2242.243</ele>
        <time>2023-07-09T12:38:02Z</time>
      </trkpt>
      <trkpt lat="42.88008" lon="0.22967">
        <ele>2243.264</ele>
        <time>2023-07-09T12:38:11Z</time>
      </trkpt>
      <trkpt lat="42.88004" lon="0.2297">
        <ele>2245.21</ele>
        <time>2023-07-09T12:38:25Z</time>
      </trkpt>
      <trkpt lat="42.87999" lon="0.2297">
        <ele>2247.609</ele>
        <time>2023-07-09T12:38:36Z</time>
      </trkpt>
      <trkpt lat="42.87996" lon="0.22965">
        <ele>2248.925</ele>
        <time>2023-07-09T12:38:46Z</time>
      </trkpt>
      <trkpt lat="42.87994" lon="0.22959">
        <ele>2250.118</ele>
        <time>2023-07-09T12:38:54Z</time>
      </trkpt>
      <trkpt lat="42.8799" lon="0.22953">
        <ele>2251.484</ele>
        <time>2023-07-09T12:39:13Z</time>
      </trkpt>
      <trkpt lat="42.87987" lon="0.22948">
        <ele>2253.385</ele>
        <time>2023-07-09T12:39:33Z</time>
      </trkpt>
      <trkpt lat="42.87983" lon="0.22945">
        <ele>2255.555</ele>
        <time>2023-07-09T12:39:43Z</time>
      </trkpt>
      <trkpt lat="42.87979" lon="0.22941">
        <ele>2258.816</ele>
        <time>2023-07-09T12:39:58Z</time>
      </trkpt>
      <trkpt lat="42.87976" lon="0.22936">
        <ele>2261.318</ele>
        <time>2023-07-09T12:40:07Z</time>
      </trkpt>
      <trkpt lat="42.87972" lon="0.22933">
        <ele>2263.17</ele>
        <time>2023-07-09T12:40:15Z</time>
      </trkpt>
      <trkpt lat="42.87969" lon="0.22929">
        <ele>2265.851</ele>
        <time>2023-07-09T12:40:22Z</time>
      </trkpt>
      <trkpt lat="42.87966" lon="0.22935">
        <ele>2267.522</ele>
        <time>2023-07-09T12:40:32Z</time>
      </trkpt>
      <trkpt lat="42.87963" lon="0.2294">
        <ele>2268.562</ele>
        <time>2023-07-09T12:40:39Z</time>
      </trkpt>
      <trkpt lat="42.87958" lon="0.22938">
        <ele>2269.808</ele>
        <time>2023-07-09T12:40:59Z</time>
      </trkpt>
      <trkpt lat="42.87958" lon="0.22932">
        <ele>2271.009</ele>
        <time>2023-07-09T12:41:17Z</time>
      </trkpt>
      <trkpt lat="42.87954" lon="0.22927">
        <ele>2271.953</ele>
        <time>2023-07-09T12:41:34Z</time>
      </trkpt>
      <trkpt lat="42.87951" lon="0.22923">
        <ele>2274.126</ele>
        <time>2023-07-09T12:41:38Z</time>
      </trkpt>
      <trkpt lat="42.87947" lon="0.22918">
        <ele>2276.922</ele>
        <time>2023-07-09T12:41:48Z</time>
      </trkpt>
      <trkpt lat="42.87942" lon="0.22916">
        <ele>2277.923</ele>
        <time>2023-07-09T12:41:54Z</time>
      </trkpt>
      <trkpt lat="42.87937" lon="0.22915">
        <ele>2278.593</ele>
        <time>2023-07-09T12:42:01Z</time>
      </trkpt>
      <trkpt lat="42.87933" lon="0.2291">
        <ele>2279.244</ele>
        <time>2023-07-09T12:42:09Z</time>
      </trkpt>
      <trkpt lat="42.87934" lon="0.22904">
        <ele>2279.946</ele>
        <time>2023-07-09T12:42:14Z</time>
      </trkpt>
      <trkpt lat="42.87934" lon="0.22898">
        <ele>2279.928</ele>
        <time>2023-07-09T12:42:27Z</time>
      </trkpt>
      <trkpt lat="42.87923" lon="0.22891">
        <ele>2282.624</ele>
        <time>2023-07-09T12:43:20Z</time>
      </trkpt>
      <trkpt lat="42.87931" lon="0.22901">
        <ele>2285.133</ele>
        <time>2023-07-09T12:44:56Z</time>
      </trkpt>
      <trkpt lat="42.87931" lon="0.22907">
        <ele>2285.175</ele>
        <time>2023-07-09T12:45:02Z</time>
      </trkpt>
      <trkpt lat="42.87926" lon="0.2291">
        <ele>2284.996</ele>
        <time>2023-07-09T12:45:16Z</time>
      </trkpt>
      <trkpt lat="42.87922" lon="0.22905">
        <ele>2284.397</ele>
        <time>2023-07-09T12:45:22Z</time>
      </trkpt>
      <trkpt lat="42.87918" lon="0.22898">
        <ele>2283.023</ele>
        <time>2023-07-09T12:45:31Z</time>
      </trkpt>
      <trkpt lat="42.87912" lon="0.22899">
        <ele>2279.769</ele>
        <time>2023-07-09T12:50:57Z</time>
      </trkpt>
      <trkpt lat="42.87912" lon="0.22898">
        <ele>2281.093</ele>
        <time>2023-07-09T12:57:57Z</time>
      </trkpt>
      <trkpt lat="42.87912" lon="0.22901">
        <ele>2281.116</ele>
        <time>2023-07-09T13:04:07Z</time>
      </trkpt>
      <trkpt lat="42.87913" lon="0.22898">
        <ele>2281.015</ele>
        <time>2023-07-09T13:13:14Z</time>
      </trkpt>
      <trkpt lat="42.87914" lon="0.229">
        <ele>2281.267</ele>
        <time>2023-07-09T13:16:01Z</time>
      </trkpt>
      <trkpt lat="42.87914" lon="0.22894">
        <ele>2281.358</ele>
        <time>2023-07-09T13:16:07Z</time>
      </trkpt>
      <trkpt lat="42.87914" lon="0.22893">
        <ele>2281.433</ele>
        <time>2023-07-09T13:16:27Z</time>
      </trkpt>
      <trkpt lat="42.87914" lon="0.22899">
        <ele>2281.744</ele>
        <time>2023-07-09T13:16:33Z</time>
      </trkpt>
      <trkpt lat="42.87911" lon="0.22901">
        <ele>2280.909</ele>
        <time>2023-07-09T13:18:25Z</time>
      </trkpt>
      <trkpt lat="42.87908" lon="0.22893">
        <ele>2280.864</ele>
        <time>2023-07-09T13:21:10Z</time>
      </trkpt>
      <trkpt lat="42.87911" lon="0.22898">
        <ele>2281.174</ele>
        <time>2023-07-09T13:21:14Z</time>
      </trkpt>
      <trkpt lat="42.87916" lon="0.229">
        <ele>2281.104</ele>
        <time>2023-07-09T14:04:12Z</time>
      </trkpt>
      <trkpt lat="42.8792" lon="0.22898">
        <ele>2281.314</ele>
        <time>2023-07-09T14:04:18Z</time>
      </trkpt>
      <trkpt lat="42.87924" lon="0.22903">
        <ele>2281.609</ele>
        <time>2023-07-09T14:04:22Z</time>
      </trkpt>
      <trkpt lat="42.87927" lon="0.22908">
        <ele>2282.036</ele>
        <time>2023-07-09T14:04:27Z</time>
      </trkpt>
      <trkpt lat="42.8793" lon="0.22912">
        <ele>2282.119</ele>
        <time>2023-07-09T14:04:38Z</time>
      </trkpt>
      <trkpt lat="42.87935" lon="0.22913">
        <ele>2282.125</ele>
        <time>2023-07-09T14:04:46Z</time>
      </trkpt>
      <trkpt lat="42.87939" lon="0.22916">
        <ele>2282.156</ele>
        <time>2023-07-09T14:04:51Z</time>
      </trkpt>
      <trkpt lat="42.87943" lon="0.2291">
        <ele>2281.886</ele>
        <time>2023-07-09T14:04:56Z</time>
      </trkpt>
      <trkpt lat="42.87941" lon="0.22902">
        <ele>2281.847</ele>
        <time>2023-07-09T14:05:03Z</time>
      </trkpt>
      <trkpt lat="42.87941" lon="0.22911">
        <ele>2281.889</ele>
        <time>2023-07-09T14:07:05Z</time>
      </trkpt>
      <trkpt lat="42.87941" lon="0.22917">
        <ele>2281.881</ele>
        <time>2023-07-09T14:07:16Z</time>
      </trkpt>
      <trkpt lat="42.87941" lon="0.22919">
        <ele>2283.195</ele>
        <time>2023-07-09T14:07:42Z</time>
      </trkpt>
      <trkpt lat="42.87945" lon="0.22916">
        <ele>2283.249</ele>
        <time>2023-07-09T14:08:03Z</time>
      </trkpt>
      <trkpt lat="42.87939" lon="0.22914">
        <ele>2282.409</ele>
        <time>2023-07-09T14:09:29Z</time>
      </trkpt>
      <trkpt lat="42.87943" lon="0.22909">
        <ele>2282.22</ele>
        <time>2023-07-09T14:10:54Z</time>
      </trkpt>
      <trkpt lat="42.87947" lon="0.22911">
        <ele>2281.743</ele>
        <time>2023-07-09T14:11:03Z</time>
      </trkpt>
      <trkpt lat="42.8795" lon="0.22917">
        <ele>2281.729</ele>
        <time>2023-07-09T14:11:17Z</time>
      </trkpt>
      <trkpt lat="42.87953" lon="0.22921">
        <ele>2281.32</ele>
        <time>2023-07-09T14:11:50Z</time>
      </trkpt>
      <trkpt lat="42.87955" lon="0.22927">
        <ele>2280.97</ele>
        <time>2023-07-09T14:12:00Z</time>
      </trkpt>
      <trkpt lat="42.87958" lon="0.22932">
        <ele>2280.441</ele>
        <time>2023-07-09T14:12:12Z</time>
      </trkpt>
      <trkpt lat="42.87961" lon="0.22936">
        <ele>2279.833</ele>
        <time>2023-07-09T14:12:28Z</time>
      </trkpt>
      <trkpt lat="42.87966" lon="0.22935">
        <ele>2278.675</ele>
        <time>2023-07-09T14:12:37Z</time>
      </trkpt>
      <trkpt lat="42.8797" lon="0.22931">
        <ele>2276.186</ele>
        <time>2023-07-09T14:12:43Z</time>
      </trkpt>
      <trkpt lat="42.87974" lon="0.22935">
        <ele>2273.449</ele>
        <time>2023-07-09T14:12:55Z</time>
      </trkpt>
      <trkpt lat="42.87977" lon="0.22938">
        <ele>2271.702</ele>
        <time>2023-07-09T14:13:10Z</time>
      </trkpt>
      <trkpt lat="42.87981" lon="0.22943">
        <ele>2270.522</ele>
        <time>2023-07-09T14:13:26Z</time>
      </trkpt>
      <trkpt lat="42.87985" lon="0.22946">
        <ele>2269.009</ele>
        <time>2023-07-09T14:13:48Z</time>
      </trkpt>
      <trkpt lat="42.87988" lon="0.2295">
        <ele>2266.925</ele>
        <time>2023-07-09T14:13:59Z</time>
      </trkpt>
      <trkpt lat="42.8799" lon="0.22956">
        <ele>2264.678</ele>
        <time>2023-07-09T14:14:09Z</time>
      </trkpt>
      <trkpt lat="42.87993" lon="0.22961">
        <ele>2262.754</ele>
        <time>2023-07-09T14:14:31Z</time>
      </trkpt>
      <trkpt lat="42.87995" lon="0.22967">
        <ele>2261.685</ele>
        <time>2023-07-09T14:14:40Z</time>
      </trkpt>
      <trkpt lat="42.87997" lon="0.22973">
        <ele>2259.145</ele>
        <time>2023-07-09T14:14:48Z</time>
      </trkpt>
      <trkpt lat="42.88001" lon="0.22968">
        <ele>2256.256</ele>
        <time>2023-07-09T14:15:06Z</time>
      </trkpt>
      <trkpt lat="42.88006" lon="0.22968">
        <ele>2254.748</ele>
        <time>2023-07-09T14:15:12Z</time>
      </trkpt>
      <trkpt lat="42.8801" lon="0.22966">
        <ele>2252.87</ele>
        <time>2023-07-09T14:15:27Z</time>
      </trkpt>
      <trkpt lat="42.88014" lon="0.22962">
        <ele>2251.671</ele>
        <time>2023-07-09T14:16:17Z</time>
      </trkpt>
      <trkpt lat="42.88018" lon="0.22966">
        <ele>2251.329</ele>
        <time>2023-07-09T14:16:33Z</time>
      </trkpt>
      <trkpt lat="42.88022" lon="0.22969">
        <ele>2246.9</ele>
        <time>2023-07-09T14:16:42Z</time>
      </trkpt>
      <trkpt lat="42.88021" lon="0.22976">
        <ele>2242.42</ele>
        <time>2023-07-09T14:16:56Z</time>
      </trkpt>
      <trkpt lat="42.8802" lon="0.22981">
        <ele>2241.409</ele>
        <time>2023-07-09T14:17:07Z</time>
      </trkpt>
      <trkpt lat="42.88023" lon="0.22986">
        <ele>2238.543</ele>
        <time>2023-07-09T14:17:24Z</time>
      </trkpt>
      <trkpt lat="42.88027" lon="0.2299">
        <ele>2235.776</ele>
        <time>2023-07-09T14:17:33Z</time>
      </trkpt>
      <trkpt lat="42.88027" lon="0.22996">
        <ele>2234.062</ele>
        <time>2023-07-09T14:17:45Z</time>
      </trkpt>
      <trkpt lat="42.88028" lon="0.23003">
        <ele>2232.033</ele>
        <time>2023-07-09T14:17:59Z</time>
      </trkpt>
      <trkpt lat="42.8803" lon="0.23009">
        <ele>2229.933</ele>
        <time>2023-07-09T14:18:19Z</time>
      </trkpt>
      <trkpt lat="42.88032" lon="0.23015">
        <ele>2228.374</ele>
        <time>2023-07-09T14:18:31Z</time>
      </trkpt>
      <trkpt lat="42.88036" lon="0.23011">
        <ele>2227.136</ele>
        <time>2023-07-09T14:18:43Z</time>
      </trkpt>
      <trkpt lat="42.8804" lon="0.23014">
        <ele>2225.068</ele>
        <time>2023-07-09T14:18:50Z</time>
      </trkpt>
      <trkpt lat="42.88045" lon="0.23016">
        <ele>2222.569</ele>
        <time>2023-07-09T14:19:01Z</time>
      </trkpt>
      <trkpt lat="42.88049" lon="0.23023">
        <ele>2221.234</ele>
        <time>2023-07-09T14:19:11Z</time>
      </trkpt>
      <trkpt lat="42.88052" lon="0.23028">
        <ele>2220.155</ele>
        <time>2023-07-09T14:19:17Z</time>
      </trkpt>
      <trkpt lat="42.88056" lon="0.23032">
        <ele>2217.81</ele>
        <time>2023-07-09T14:19:28Z</time>
      </trkpt>
      <trkpt lat="42.88061" lon="0.23031">
        <ele>2216.209</ele>
        <time>2023-07-09T14:19:35Z</time>
      </trkpt>
      <trkpt lat="42.88065" lon="0.23036">
        <ele>2214.814</ele>
        <time>2023-07-09T14:19:44Z</time>
      </trkpt>
      <trkpt lat="42.88068" lon="0.2304">
        <ele>2212.727</ele>
        <time>2023-07-09T14:19:54Z</time>
      </trkpt>
      <trkpt lat="42.88069" lon="0.23046">
        <ele>2211.413</ele>
        <time>2023-07-09T14:20:02Z</time>
      </trkpt>
      <trkpt lat="42.88074" lon="0.23047">
        <ele>2210.334</ele>
        <time>2023-07-09T14:20:13Z</time>
      </trkpt>
      <trkpt lat="42.88074" lon="0.23054">
        <ele>2209.174</ele>
        <time>2023-07-09T14:20:24Z</time>
      </trkpt>
      <trkpt lat="42.88079" lon="0.23056">
        <ele>2207.315</ele>
        <time>2023-07-09T14:20:31Z</time>
      </trkpt>
      <trkpt lat="42.88084" lon="0.23057">
        <ele>2205.767</ele>
        <time>2023-07-09T14:20:35Z</time>
      </trkpt>
      <trkpt lat="42.88089" lon="0.23057">
        <ele>2205.249</ele>
        <time>2023-07-09T14:20:42Z</time>
      </trkpt>
      <trkpt lat="42.88094" lon="0.23054">
        <ele>2204.78</ele>
        <time>2023-07-09T14:20:49Z</time>
      </trkpt>
      <trkpt lat="42.88099" lon="0.23054">
        <ele>2204.358</ele>
        <time>2023-07-09T14:20:57Z</time>
      </trkpt>
      <trkpt lat="42.88105" lon="0.23054">
        <ele>2204.152</ele>
        <time>2023-07-09T14:21:03Z</time>
      </trkpt>
      <trkpt lat="42.88109" lon="0.23056">
        <ele>2203.317</ele>
        <time>2023-07-09T14:21:09Z</time>
      </trkpt>
      <trkpt lat="42.88114" lon="0.23055">
        <ele>2202.209</ele>
        <time>2023-07-09T14:21:14Z</time>
      </trkpt>
      <trkpt lat="42.88118" lon="0.23056">
        <ele>2200.916</ele>
        <time>2023-07-09T14:21:21Z</time>
      </trkpt>
      <trkpt lat="42.88123" lon="0.23056">
        <ele>2199.569</ele>
        <time>2023-07-09T14:21:35Z</time>
      </trkpt>
      <trkpt lat="42.88127" lon="0.23055">
        <ele>2198.955</ele>
        <time>2023-07-09T14:21:41Z</time>
      </trkpt>
      <trkpt lat="42.88133" lon="0.23055">
        <ele>2198.636</ele>
        <time>2023-07-09T14:21:48Z</time>
      </trkpt>
      <trkpt lat="42.88138" lon="0.23055">
        <ele>2198.316</ele>
        <time>2023-07-09T14:21:54Z</time>
      </trkpt>
      <trkpt lat="42.88142" lon="0.23053">
        <ele>2197.657</ele>
        <time>2023-07-09T14:22:01Z</time>
      </trkpt>
      <trkpt lat="42.88147" lon="0.23051">
        <ele>2196.839</ele>
        <time>2023-07-09T14:22:08Z</time>
      </trkpt>
      <trkpt lat="42.8815" lon="0.23046">
        <ele>2196.521</ele>
        <time>2023-07-09T14:22:18Z</time>
      </trkpt>
      <trkpt lat="42.88153" lon="0.23041">
        <ele>2196.172</ele>
        <time>2023-07-09T14:22:24Z</time>
      </trkpt>
      <trkpt lat="42.88158" lon="0.23039">
        <ele>2194.976</ele>
        <time>2023-07-09T14:22:31Z</time>
      </trkpt>
      <trkpt lat="42.88162" lon="0.2304">
        <ele>2194.09</ele>
        <time>2023-07-09T14:22:37Z</time>
      </trkpt>
      <trkpt lat="42.88167" lon="0.23038">
        <ele>2193.419</ele>
        <time>2023-07-09T14:22:44Z</time>
      </trkpt>
      <trkpt lat="42.88172" lon="0.23036">
        <ele>2192.709</ele>
        <time>2023-07-09T14:22:48Z</time>
      </trkpt>
      <trkpt lat="42.88177" lon="0.23034">
        <ele>2191.828</ele>
        <time>2023-07-09T14:23:03Z</time>
      </trkpt>
      <trkpt lat="42.88175" lon="0.2304">
        <ele>2191.341</ele>
        <time>2023-07-09T14:23:41Z</time>
      </trkpt>
      <trkpt lat="42.88179" lon="0.23036">
        <ele>2190.757</ele>
        <time>2023-07-09T14:24:42Z</time>
      </trkpt>
      <trkpt lat="42.88184" lon="0.23034">
        <ele>2190.188</ele>
        <time>2023-07-09T14:24:48Z</time>
      </trkpt>
      <trkpt lat="42.88188" lon="0.23032">
        <ele>2189.878</ele>
        <time>2023-07-09T14:24:53Z</time>
      </trkpt>
      <trkpt lat="42.88194" lon="0.23032">
        <ele>2189.549</ele>
        <time>2023-07-09T14:24:58Z</time>
      </trkpt>
      <trkpt lat="42.88198" lon="0.2303">
        <ele>2189.171</ele>
        <time>2023-07-09T14:25:03Z</time>
      </trkpt>
      <trkpt lat="42.88204" lon="0.23032">
        <ele>2188.823</ele>
        <time>2023-07-09T14:25:08Z</time>
      </trkpt>
      <trkpt lat="42.88208" lon="0.23031">
        <ele>2188.794</ele>
        <time>2023-07-09T14:25:13Z</time>
      </trkpt>
      <trkpt lat="42.88213" lon="0.23035">
        <ele>2188.267</ele>
        <time>2023-07-09T14:25:19Z</time>
      </trkpt>
      <trkpt lat="42.88218" lon="0.23035">
        <ele>2187.781</ele>
        <time>2023-07-09T14:25:25Z</time>
      </trkpt>
      <trkpt lat="42.88223" lon="0.23036">
        <ele>2187.119</ele>
        <time>2023-07-09T14:25:30Z</time>
      </trkpt>
      <trkpt lat="42.88227" lon="0.23038">
        <ele>2185.709</ele>
        <time>2023-07-09T14:25:35Z</time>
      </trkpt>
      <trkpt lat="42.88232" lon="0.2304">
        <ele>2184.537</ele>
        <time>2023-07-09T14:25:40Z</time>
      </trkpt>
      <trkpt lat="42.88236" lon="0.23043">
        <ele>2184.09</ele>
        <time>2023-07-09T14:25:45Z</time>
      </trkpt>
      <trkpt lat="42.88241" lon="0.23048">
        <ele>2183.796</ele>
        <time>2023-07-09T14:25:51Z</time>
      </trkpt>
      <trkpt lat="42.88246" lon="0.23052">
        <ele>2183.457</ele>
        <time>2023-07-09T14:25:57Z</time>
      </trkpt>
      <trkpt lat="42.8825" lon="0.23055">
        <ele>2183.177</ele>
        <time>2023-07-09T14:26:02Z</time>
      </trkpt>
      <trkpt lat="42.88254" lon="0.23059">
        <ele>2182.948</ele>
        <time>2023-07-09T14:26:07Z</time>
      </trkpt>
      <trkpt lat="42.88259" lon="0.23064">
        <ele>2182.78</ele>
        <time>2023-07-09T14:26:12Z</time>
      </trkpt>
      <trkpt lat="42.88263" lon="0.23069">
        <ele>2182.712</ele>
        <time>2023-07-09T14:26:18Z</time>
      </trkpt>
      <trkpt lat="42.88265" lon="0.23075">
        <ele>2182.733</ele>
        <time>2023-07-09T14:26:23Z</time>
      </trkpt>
      <trkpt lat="42.88268" lon="0.2308">
        <ele>2182.972</ele>
        <time>2023-07-09T14:26:31Z</time>
      </trkpt>
      <trkpt lat="42.88271" lon="0.23085">
        <ele>2183.313</ele>
        <time>2023-07-09T14:26:37Z</time>
      </trkpt>
      <trkpt lat="42.88276" lon="0.23088">
        <ele>2183.614</ele>
        <time>2023-07-09T14:26:44Z</time>
      </trkpt>
      <trkpt lat="42.88279" lon="0.23092">
        <ele>2183.809</ele>
        <time>2023-07-09T14:26:49Z</time>
      </trkpt>
      <trkpt lat="42.88284" lon="0.23095">
        <ele>2183.898</ele>
        <time>2023-07-09T14:26:54Z</time>
      </trkpt>
      <trkpt lat="42.88289" lon="0.23097">
        <ele>2184.161</ele>
        <time>2023-07-09T14:27:01Z</time>
      </trkpt>
      <trkpt lat="42.88292" lon="0.23101">
        <ele>2184.027</ele>
        <time>2023-07-09T14:27:06Z</time>
      </trkpt>
      <trkpt lat="42.88297" lon="0.23104">
        <ele>2183.828</ele>
        <time>2023-07-09T14:27:13Z</time>
      </trkpt>
      <trkpt lat="42.883" lon="0.23099">
        <ele>2183.798</ele>
        <time>2023-07-09T14:27:19Z</time>
      </trkpt>
      <trkpt lat="42.88304" lon="0.23099">
        <ele>2183.169</ele>
        <time>2023-07-09T14:27:27Z</time>
      </trkpt>
      <trkpt lat="42.88309" lon="0.23101">
        <ele>2181.281</ele>
        <time>2023-07-09T14:27:35Z</time>
      </trkpt>
      <trkpt lat="42.88313" lon="0.23105">
        <ele>2179.413</ele>
        <time>2023-07-09T14:27:40Z</time>
      </trkpt>
      <trkpt lat="42.88318" lon="0.23108">
        <ele>2178.964</ele>
        <time>2023-07-09T14:27:48Z</time>
      </trkpt>
      <trkpt lat="42.88322" lon="0.23108">
        <ele>2178.826</ele>
        <time>2023-07-09T14:27:54Z</time>
      </trkpt>
      <trkpt lat="42.88327" lon="0.23109">
        <ele>2178.547</ele>
        <time>2023-07-09T14:28:00Z</time>
      </trkpt>
      <trkpt lat="42.88331" lon="0.23111">
        <ele>2178.211</ele>
        <time>2023-07-09T14:28:09Z</time>
      </trkpt>
      <trkpt lat="42.88338" lon="0.23114">
        <ele>2177.909</ele>
        <time>2023-07-09T14:28:19Z</time>
      </trkpt>
      <trkpt lat="42.88343" lon="0.23114">
        <ele>2176.763</ele>
        <time>2023-07-09T14:28:26Z</time>
      </trkpt>
      <trkpt lat="42.88347" lon="0.23116">
        <ele>2175.186</ele>
        <time>2023-07-09T14:28:30Z</time>
      </trkpt>
      <trkpt lat="42.88352" lon="0.23118">
        <ele>2173.582</ele>
        <time>2023-07-09T14:28:36Z</time>
      </trkpt>
      <trkpt lat="42.88357" lon="0.2312">
        <ele>2172.663</ele>
        <time>2023-07-09T14:28:41Z</time>
      </trkpt>
      <trkpt lat="42.88361" lon="0.23121">
        <ele>2172.313</ele>
        <time>2023-07-09T14:28:49Z</time>
      </trkpt>
      <trkpt lat="42.88366" lon="0.2312">
        <ele>2171.874</ele>
        <time>2023-07-09T14:28:56Z</time>
      </trkpt>
      <trkpt lat="42.88371" lon="0.23122">
        <ele>2171.066</ele>
        <time>2023-07-09T14:29:02Z</time>
      </trkpt>
      <trkpt lat="42.88375" lon="0.23128">
        <ele>2169.388</ele>
        <time>2023-07-09T14:29:12Z</time>
      </trkpt>
      <trkpt lat="42.88379" lon="0.23131">
        <ele>2168.029</ele>
        <time>2023-07-09T14:29:17Z</time>
      </trkpt>
      <trkpt lat="42.88383" lon="0.23132">
        <ele>2166.781</ele>
        <time>2023-07-09T14:29:25Z</time>
      </trkpt>
      <trkpt lat="42.88386" lon="0.23127">
        <ele>2165.161</ele>
        <time>2023-07-09T14:29:29Z</time>
      </trkpt>
      <trkpt lat="42.88391" lon="0.23123">
        <ele>2164.317</ele>
        <time>2023-07-09T14:29:39Z</time>
      </trkpt>
      <trkpt lat="42.88395" lon="0.23119">
        <ele>2163.709</ele>
        <time>2023-07-09T14:29:45Z</time>
      </trkpt>
      <trkpt lat="42.88399" lon="0.23118">
        <ele>2162.889</ele>
        <time>2023-07-09T14:29:49Z</time>
      </trkpt>
      <trkpt lat="42.88404" lon="0.23117">
        <ele>2161.962</ele>
        <time>2023-07-09T14:29:54Z</time>
      </trkpt>
      <trkpt lat="42.88409" lon="0.23117">
        <ele>2161.878</ele>
        <time>2023-07-09T14:29:59Z</time>
      </trkpt>
      <trkpt lat="42.88414" lon="0.23121">
        <ele>2161.779</ele>
        <time>2023-07-09T14:30:06Z</time>
      </trkpt>
      <trkpt lat="42.88417" lon="0.23124">
        <ele>2161.449</ele>
        <time>2023-07-09T14:30:13Z</time>
      </trkpt>
      <trkpt lat="42.88423" lon="0.23126">
        <ele>2161.26</ele>
        <time>2023-07-09T14:30:22Z</time>
      </trkpt>
      <trkpt lat="42.88426" lon="0.23132">
        <ele>2161.162</ele>
        <time>2023-07-09T14:30:31Z</time>
      </trkpt>
      <trkpt lat="42.88429" lon="0.23137">
        <ele>2160.514</ele>
        <time>2023-07-09T14:30:47Z</time>
      </trkpt>
      <trkpt lat="42.88432" lon="0.23143">
        <ele>2159.845</ele>
        <time>2023-07-09T14:30:56Z</time>
      </trkpt>
      <trkpt lat="42.88437" lon="0.23145">
        <ele>2157.451</ele>
        <time>2023-07-09T14:31:05Z</time>
      </trkpt>
      <trkpt lat="42.88441" lon="0.23148">
        <ele>2154.201</ele>
        <time>2023-07-09T14:31:18Z</time>
      </trkpt>
      <trkpt lat="42.88439" lon="0.23154">
        <ele>2152.811</ele>
        <time>2023-07-09T14:31:31Z</time>
      </trkpt>
      <trkpt lat="42.88442" lon="0.23159">
        <ele>2150.909</ele>
        <time>2023-07-09T14:31:42Z</time>
      </trkpt>
      <trkpt lat="42.88442" lon="0.23166">
        <ele>2148.596</ele>
        <time>2023-07-09T14:31:51Z</time>
      </trkpt>
      <trkpt lat="42.8844" lon="0.23173">
        <ele>2145.439</ele>
        <time>2023-07-09T14:31:59Z</time>
      </trkpt>
      <trkpt lat="42.88438" lon="0.23179">
        <ele>2141.875</ele>
        <time>2023-07-09T14:32:06Z</time>
      </trkpt>
      <trkpt lat="42.88438" lon="0.23185">
        <ele>2139.776</ele>
        <time>2023-07-09T14:32:12Z</time>
      </trkpt>
      <trkpt lat="42.8844" lon="0.23193">
        <ele>2138.776</ele>
        <time>2023-07-09T14:32:19Z</time>
      </trkpt>
      <trkpt lat="42.88441" lon="0.232">
        <ele>2138.237</ele>
        <time>2023-07-09T14:32:27Z</time>
      </trkpt>
      <trkpt lat="42.88443" lon="0.23207">
        <ele>2137.369</ele>
        <time>2023-07-09T14:32:34Z</time>
      </trkpt>
      <trkpt lat="42.88445" lon="0.23213">
        <ele>2135.961</ele>
        <time>2023-07-09T14:32:42Z</time>
      </trkpt>
      <trkpt lat="42.88446" lon="0.23219">
        <ele>2135.252</ele>
        <time>2023-07-09T14:32:49Z</time>
      </trkpt>
      <trkpt lat="42.88445" lon="0.23226">
        <ele>2134.057</ele>
        <time>2023-07-09T14:32:57Z</time>
      </trkpt>
      <trkpt lat="42.88445" lon="0.23233">
        <ele>2132</ele>
        <time>2023-07-09T14:33:02Z</time>
      </trkpt>
      <trkpt lat="42.88441" lon="0.23235">
        <ele>2130.32</ele>
        <time>2023-07-09T14:33:12Z</time>
      </trkpt>
      <trkpt lat="42.88439" lon="0.23241">
        <ele>2129.109</ele>
        <time>2023-07-09T14:33:19Z</time>
      </trkpt>
      <trkpt lat="42.88436" lon="0.23246">
        <ele>2127.316</ele>
        <time>2023-07-09T14:33:25Z</time>
      </trkpt>
      <trkpt lat="42.88438" lon="0.23252">
        <ele>2125.719</ele>
        <time>2023-07-09T14:33:33Z</time>
      </trkpt>
      <trkpt lat="42.88438" lon="0.23259">
        <ele>2125.085</ele>
        <time>2023-07-09T14:33:37Z</time>
      </trkpt>
      <trkpt lat="42.8844" lon="0.23265">
        <ele>2124.286</ele>
        <time>2023-07-09T14:33:43Z</time>
      </trkpt>
      <trkpt lat="42.8844" lon="0.23273">
        <ele>2123.156</ele>
        <time>2023-07-09T14:33:54Z</time>
      </trkpt>
      <trkpt lat="42.88442" lon="0.23278">
        <ele>2121.777</ele>
        <time>2023-07-09T14:34:01Z</time>
      </trkpt>
      <trkpt lat="42.88442" lon="0.23285">
        <ele>2119.419</ele>
        <time>2023-07-09T14:34:09Z</time>
      </trkpt>
      <trkpt lat="42.88442" lon="0.23292">
        <ele>2116.971</ele>
        <time>2023-07-09T14:34:18Z</time>
      </trkpt>
      <trkpt lat="42.88445" lon="0.23296">
        <ele>2114.722</ele>
        <time>2023-07-09T14:34:29Z</time>
      </trkpt>
      <trkpt lat="42.88442" lon="0.23301">
        <ele>2112.198</ele>
        <time>2023-07-09T14:34:38Z</time>
      </trkpt>
      <trkpt lat="42.88446" lon="0.23305">
        <ele>2109.515</ele>
        <time>2023-07-09T14:34:49Z</time>
      </trkpt>
      <trkpt lat="42.88442" lon="0.23309">
        <ele>2107.926</ele>
        <time>2023-07-09T14:34:55Z</time>
      </trkpt>
      <trkpt lat="42.88442" lon="0.23316">
        <ele>2106.309</ele>
        <time>2023-07-09T14:35:02Z</time>
      </trkpt>
      <trkpt lat="42.88444" lon="0.23321">
        <ele>2104.92</ele>
        <time>2023-07-09T14:35:12Z</time>
      </trkpt>
      <trkpt lat="42.88447" lon="0.23327">
        <ele>2104.053</ele>
        <time>2023-07-09T14:35:25Z</time>
      </trkpt>
      <trkpt lat="42.88445" lon="0.23332">
        <ele>2102.169</ele>
        <time>2023-07-09T14:35:29Z</time>
      </trkpt>
      <trkpt lat="42.88446" lon="0.23339">
        <ele>2099.64</ele>
        <time>2023-07-09T14:35:45Z</time>
      </trkpt>
      <trkpt lat="42.88445" lon="0.23347">
        <ele>2098.07</ele>
        <time>2023-07-09T14:35:54Z</time>
      </trkpt>
      <trkpt lat="42.8845" lon="0.23348">
        <ele>2096.031</ele>
        <time>2023-07-09T14:36:01Z</time>
      </trkpt>
      <trkpt lat="42.8845" lon="0.23355">
        <ele>2093.193</ele>
        <time>2023-07-09T14:36:08Z</time>
      </trkpt>
      <trkpt lat="42.88455" lon="0.23355">
        <ele>2091.365</ele>
        <time>2023-07-09T14:36:14Z</time>
      </trkpt>
      <trkpt lat="42.8846" lon="0.23359">
        <ele>2089.646</ele>
        <time>2023-07-09T14:36:19Z</time>
      </trkpt>
      <trkpt lat="42.88464" lon="0.23363">
        <ele>2087.546</ele>
        <time>2023-07-09T14:36:23Z</time>
      </trkpt>
      <trkpt lat="42.88467" lon="0.23369">
        <ele>2086.088</ele>
        <time>2023-07-09T14:36:29Z</time>
      </trkpt>
      <trkpt lat="42.88471" lon="0.23372">
        <ele>2085.516</ele>
        <time>2023-07-09T14:36:35Z</time>
      </trkpt>
      <trkpt lat="42.88474" lon="0.23378">
        <ele>2084.609</ele>
        <time>2023-07-09T14:36:41Z</time>
      </trkpt>
      <trkpt lat="42.88478" lon="0.23383">
        <ele>2083.425</ele>
        <time>2023-07-09T14:36:46Z</time>
      </trkpt>
      <trkpt lat="42.88479" lon="0.23389">
        <ele>2082.248</ele>
        <time>2023-07-09T14:36:55Z</time>
      </trkpt>
      <trkpt lat="42.8848" lon="0.23395">
        <ele>2081.574</ele>
        <time>2023-07-09T14:37:02Z</time>
      </trkpt>
      <trkpt lat="42.88479" lon="0.23401">
        <ele>2079.855</ele>
        <time>2023-07-09T14:37:06Z</time>
      </trkpt>
      <trkpt lat="42.8848" lon="0.23408">
        <ele>2077.585</ele>
        <time>2023-07-09T14:37:21Z</time>
      </trkpt>
      <trkpt lat="42.88483" lon="0.23414">
        <ele>2076.476</ele>
        <time>2023-07-09T14:37:29Z</time>
      </trkpt>
      <trkpt lat="42.88485" lon="0.2342">
        <ele>2073.478</ele>
        <time>2023-07-09T14:37:34Z</time>
      </trkpt>
      <trkpt lat="42.88491" lon="0.2342">
        <ele>2071.22</ele>
        <time>2023-07-09T14:37:42Z</time>
      </trkpt>
      <trkpt lat="42.88494" lon="0.23426">
        <ele>2071.281</ele>
        <time>2023-07-09T14:37:45Z</time>
      </trkpt>
      <trkpt lat="42.885" lon="0.23429">
        <ele>2071.613</ele>
        <time>2023-07-09T14:37:51Z</time>
      </trkpt>
      <trkpt lat="42.88504" lon="0.23431">
        <ele>2071.643</ele>
        <time>2023-07-09T14:37:57Z</time>
      </trkpt>
      <trkpt lat="42.88509" lon="0.23433">
        <ele>2071.807</ele>
        <time>2023-07-09T14:38:02Z</time>
      </trkpt>
      <trkpt lat="42.88513" lon="0.23438">
        <ele>2071.809</ele>
        <time>2023-07-09T14:38:10Z</time>
      </trkpt>
      <trkpt lat="42.88518" lon="0.23439">
        <ele>2071.822</ele>
        <time>2023-07-09T14:38:16Z</time>
      </trkpt>
      <trkpt lat="42.88524" lon="0.23442">
        <ele>2071.665</ele>
        <time>2023-07-09T14:38:23Z</time>
      </trkpt>
      <trkpt lat="42.88528" lon="0.23445">
        <ele>2071.551</ele>
        <time>2023-07-09T14:38:28Z</time>
      </trkpt>
      <trkpt lat="42.88533" lon="0.23444">
        <ele>2071.072</ele>
        <time>2023-07-09T14:38:33Z</time>
      </trkpt>
      <trkpt lat="42.88537" lon="0.23445">
        <ele>2070.392</ele>
        <time>2023-07-09T14:38:39Z</time>
      </trkpt>
      <trkpt lat="42.88542" lon="0.23449">
        <ele>2070.133</ele>
        <time>2023-07-09T14:38:46Z</time>
      </trkpt>
      <trkpt lat="42.88547" lon="0.23449">
        <ele>2070.155</ele>
        <time>2023-07-09T14:38:53Z</time>
      </trkpt>
      <trkpt lat="42.88551" lon="0.23451">
        <ele>2070.197</ele>
        <time>2023-07-09T14:38:59Z</time>
      </trkpt>
      <trkpt lat="42.88556" lon="0.23452">
        <ele>2070.478</ele>
        <time>2023-07-09T14:39:06Z</time>
      </trkpt>
      <trkpt lat="42.88561" lon="0.23454">
        <ele>2071.434</ele>
        <time>2023-07-09T14:39:13Z</time>
      </trkpt>
      <trkpt lat="42.88562" lon="0.23456">
        <ele>2071.61</ele>
        <time>2023-07-09T14:39:43Z</time>
      </trkpt>
      <trkpt lat="42.88562" lon="0.23453">
        <ele>2071.284</ele>
        <time>2023-07-09T14:42:55Z</time>
      </trkpt>
      <trkpt lat="42.8857" lon="0.23462">
        <ele>2072.445</ele>
        <time>2023-07-09T14:43:29Z</time>
      </trkpt>
      <trkpt lat="42.88562" lon="0.23458">
        <ele>2071.559</ele>
        <time>2023-07-09T14:44:14Z</time>
      </trkpt>
      <trkpt lat="42.8857" lon="0.23465">
        <ele>2069.373</ele>
        <time>2023-07-09T14:44:53Z</time>
      </trkpt>
      <trkpt lat="42.88576" lon="0.23465">
        <ele>2068.985</ele>
        <time>2023-07-09T14:45:01Z</time>
      </trkpt>
      <trkpt lat="42.88582" lon="0.23468">
        <ele>2068.913</ele>
        <time>2023-07-09T14:45:07Z</time>
      </trkpt>
      <trkpt lat="42.88587" lon="0.23468">
        <ele>2068.909</ele>
        <time>2023-07-09T14:45:11Z</time>
      </trkpt>
      <trkpt lat="42.88591" lon="0.23468">
        <ele>2069.058</ele>
        <time>2023-07-09T14:45:16Z</time>
      </trkpt>
      <trkpt lat="42.88596" lon="0.2347">
        <ele>2069.331</ele>
        <time>2023-07-09T14:45:21Z</time>
      </trkpt>
      <trkpt lat="42.88601" lon="0.2347">
        <ele>2069.417</ele>
        <time>2023-07-09T14:45:25Z</time>
      </trkpt>
      <trkpt lat="42.88606" lon="0.23469">
        <ele>2069.588</ele>
        <time>2023-07-09T14:45:31Z</time>
      </trkpt>
      <trkpt lat="42.88612" lon="0.23468">
        <ele>2070.148</ele>
        <time>2023-07-09T14:45:36Z</time>
      </trkpt>
      <trkpt lat="42.88617" lon="0.23467">
        <ele>2069.919</ele>
        <time>2023-07-09T14:45:41Z</time>
      </trkpt>
      <trkpt lat="42.88621" lon="0.2347">
        <ele>2070.451</ele>
        <time>2023-07-09T14:45:47Z</time>
      </trkpt>
      <trkpt lat="42.88626" lon="0.23473">
        <ele>2070.763</ele>
        <time>2023-07-09T14:45:52Z</time>
      </trkpt>
      <trkpt lat="42.88631" lon="0.23474">
        <ele>2071.164</ele>
        <time>2023-07-09T14:46:00Z</time>
      </trkpt>
      <trkpt lat="42.88636" lon="0.23476">
        <ele>2071.918</ele>
        <time>2023-07-09T14:46:06Z</time>
      </trkpt>
      <trkpt lat="42.88642" lon="0.23477">
        <ele>2072.498</ele>
        <time>2023-07-09T14:46:11Z</time>
      </trkpt>
      <trkpt lat="42.88647" lon="0.2348">
        <ele>2072.517</ele>
        <time>2023-07-09T14:46:16Z</time>
      </trkpt>
      <trkpt lat="42.88652" lon="0.23483">
        <ele>2074.509</ele>
        <time>2023-07-09T14:46:22Z</time>
      </trkpt>
      <trkpt lat="42.88657" lon="0.23482">
        <ele>2075.412</ele>
        <time>2023-07-09T14:46:30Z</time>
      </trkpt>
      <trkpt lat="42.88661" lon="0.23486">
        <ele>2075.675</ele>
        <time>2023-07-09T14:46:35Z</time>
      </trkpt>
      <trkpt lat="42.88665" lon="0.23489">
        <ele>2076.591</ele>
        <time>2023-07-09T14:46:39Z</time>
      </trkpt>
      <trkpt lat="42.88668" lon="0.23484">
        <ele>2077.122</ele>
        <time>2023-07-09T14:46:45Z</time>
      </trkpt>
      <trkpt lat="42.88674" lon="0.23482">
        <ele>2077.112</ele>
        <time>2023-07-09T14:46:49Z</time>
      </trkpt>
      <trkpt lat="42.88678" lon="0.23479">
        <ele>2077.183</ele>
        <time>2023-07-09T14:46:54Z</time>
      </trkpt>
      <trkpt lat="42.88683" lon="0.2348">
        <ele>2076.845</ele>
        <time>2023-07-09T14:46:59Z</time>
      </trkpt>
      <trkpt lat="42.88687" lon="0.23484">
        <ele>2075.917</ele>
        <time>2023-07-09T14:47:04Z</time>
      </trkpt>
      <trkpt lat="42.88691" lon="0.23487">
        <ele>2074.958</ele>
        <time>2023-07-09T14:47:10Z</time>
      </trkpt>
      <trkpt lat="42.88696" lon="0.2349">
        <ele>2074.336</ele>
        <time>2023-07-09T14:47:15Z</time>
      </trkpt>
      <trkpt lat="42.887" lon="0.23494">
        <ele>2073.717</ele>
        <time>2023-07-09T14:47:20Z</time>
      </trkpt>
      <trkpt lat="42.88705" lon="0.23496">
        <ele>2073.718</ele>
        <time>2023-07-09T14:47:25Z</time>
      </trkpt>
      <trkpt lat="42.8871" lon="0.23495">
        <ele>2073.709</ele>
        <time>2023-07-09T14:47:29Z</time>
      </trkpt>
      <trkpt lat="42.88716" lon="0.23497">
        <ele>2073.814</ele>
        <time>2023-07-09T14:47:34Z</time>
      </trkpt>
      <trkpt lat="42.88721" lon="0.23499">
        <ele>2073.617</ele>
        <time>2023-07-09T14:47:42Z</time>
      </trkpt>
      <trkpt lat="42.88727" lon="0.23501">
        <ele>2074.383</ele>
        <time>2023-07-09T14:47:48Z</time>
      </trkpt>
      <trkpt lat="42.88732" lon="0.235">
        <ele>2073.634</ele>
        <time>2023-07-09T14:47:54Z</time>
      </trkpt>
      <trkpt lat="42.88736" lon="0.23502">
        <ele>2073.264</ele>
        <time>2023-07-09T14:48:00Z</time>
      </trkpt>
      <trkpt lat="42.88742" lon="0.23504">
        <ele>2073.075</ele>
        <time>2023-07-09T14:48:06Z</time>
      </trkpt>
      <trkpt lat="42.88747" lon="0.23501">
        <ele>2073.127</ele>
        <time>2023-07-09T14:48:13Z</time>
      </trkpt>
      <trkpt lat="42.88753" lon="0.23501">
        <ele>2073.439</ele>
        <time>2023-07-09T14:48:19Z</time>
      </trkpt>
      <trkpt lat="42.88759" lon="0.23501">
        <ele>2074.29</ele>
        <time>2023-07-09T14:48:24Z</time>
      </trkpt>
      <trkpt lat="42.88763" lon="0.23503">
        <ele>2074.438</ele>
        <time>2023-07-09T14:48:29Z</time>
      </trkpt>
      <trkpt lat="42.88768" lon="0.23506">
        <ele>2074.37</ele>
        <time>2023-07-09T14:48:35Z</time>
      </trkpt>
      <trkpt lat="42.88773" lon="0.23507">
        <ele>2074.317</ele>
        <time>2023-07-09T14:48:40Z</time>
      </trkpt>
      <trkpt lat="42.88778" lon="0.23507">
        <ele>2073.409</ele>
        <time>2023-07-09T14:48:47Z</time>
      </trkpt>
      <trkpt lat="42.88783" lon="0.23508">
        <ele>2071.834</ele>
        <time>2023-07-09T14:48:53Z</time>
      </trkpt>
      <trkpt lat="42.88788" lon="0.23509">
        <ele>2071.057</ele>
        <time>2023-07-09T14:48:58Z</time>
      </trkpt>
      <trkpt lat="42.88792" lon="0.23512">
        <ele>2069.953</ele>
        <time>2023-07-09T14:49:03Z</time>
      </trkpt>
      <trkpt lat="42.88797" lon="0.23514">
        <ele>2068.574</ele>
        <time>2023-07-09T14:49:09Z</time>
      </trkpt>
      <trkpt lat="42.88803" lon="0.23515">
        <ele>2067.724</ele>
        <time>2023-07-09T14:49:13Z</time>
      </trkpt>
      <trkpt lat="42.88807" lon="0.23518">
        <ele>2067.265</ele>
        <time>2023-07-09T14:49:17Z</time>
      </trkpt>
      <trkpt lat="42.8881" lon="0.23522">
        <ele>2066.977</ele>
        <time>2023-07-09T14:49:22Z</time>
      </trkpt>
      <trkpt lat="42.88815" lon="0.23524">
        <ele>2066.549</ele>
        <time>2023-07-09T14:49:27Z</time>
      </trkpt>
      <trkpt lat="42.8882" lon="0.23526">
        <ele>2066.24</ele>
        <time>2023-07-09T14:49:30Z</time>
      </trkpt>
      <trkpt lat="42.88825" lon="0.23524">
        <ele>2065.663</ele>
        <time>2023-07-09T14:49:35Z</time>
      </trkpt>
      <trkpt lat="42.8883" lon="0.23523">
        <ele>2065.144</ele>
        <time>2023-07-09T14:49:41Z</time>
      </trkpt>
      <trkpt lat="42.88835" lon="0.23521">
        <ele>2064.918</ele>
        <time>2023-07-09T14:49:47Z</time>
      </trkpt>
      <trkpt lat="42.8884" lon="0.23521">
        <ele>2064.509</ele>
        <time>2023-07-09T14:49:52Z</time>
      </trkpt>
      <trkpt lat="42.88845" lon="0.23524">
        <ele>2063.477</ele>
        <time>2023-07-09T14:49:57Z</time>
      </trkpt>
      <trkpt lat="42.88851" lon="0.23524">
        <ele>2062.38</ele>
        <time>2023-07-09T14:50:04Z</time>
      </trkpt>
      <trkpt lat="42.88855" lon="0.23527">
        <ele>2061.756</ele>
        <time>2023-07-09T14:50:10Z</time>
      </trkpt>
      <trkpt lat="42.8886" lon="0.23528">
        <ele>2061.237</ele>
        <time>2023-07-09T14:50:15Z</time>
      </trkpt>
      <trkpt lat="42.88864" lon="0.23528">
        <ele>2060.997</ele>
        <time>2023-07-09T14:50:20Z</time>
      </trkpt>
      <trkpt lat="42.88868" lon="0.23524">
        <ele>2060.878</ele>
        <time>2023-07-09T14:50:26Z</time>
      </trkpt>
      <trkpt lat="42.88872" lon="0.23527">
        <ele>2060.61</ele>
        <time>2023-07-09T14:50:30Z</time>
      </trkpt>
      <trkpt lat="42.88878" lon="0.23526">
        <ele>2059.862</ele>
        <time>2023-07-09T14:50:35Z</time>
      </trkpt>
      <trkpt lat="42.88883" lon="0.23524">
        <ele>2059.223</ele>
        <time>2023-07-09T14:50:39Z</time>
      </trkpt>
      <trkpt lat="42.88889" lon="0.23521">
        <ele>2058.023</ele>
        <time>2023-07-09T14:50:43Z</time>
      </trkpt>
      <trkpt lat="42.88893" lon="0.23525">
        <ele>2056.783</ele>
        <time>2023-07-09T14:50:47Z</time>
      </trkpt>
      <trkpt lat="42.88897" lon="0.23524">
        <ele>2056.511</ele>
        <time>2023-07-09T14:50:51Z</time>
      </trkpt>
      <trkpt lat="42.88902" lon="0.23526">
        <ele>2056.209</ele>
        <time>2023-07-09T14:50:57Z</time>
      </trkpt>
      <trkpt lat="42.88905" lon="0.23531">
        <ele>2056.073</ele>
        <time>2023-07-09T14:51:03Z</time>
      </trkpt>
      <trkpt lat="42.88908" lon="0.23537">
        <ele>2055.436</ele>
        <time>2023-07-09T14:51:09Z</time>
      </trkpt>
      <trkpt lat="42.88911" lon="0.23542">
        <ele>2054.252</ele>
        <time>2023-07-09T14:51:14Z</time>
      </trkpt>
      <trkpt lat="42.88916" lon="0.23542">
        <ele>2053.263</ele>
        <time>2023-07-09T14:51:18Z</time>
      </trkpt>
      <trkpt lat="42.88921" lon="0.23543">
        <ele>2052.853</ele>
        <time>2023-07-09T14:51:22Z</time>
      </trkpt>
      <trkpt lat="42.88925" lon="0.23545">
        <ele>2052.754</ele>
        <time>2023-07-09T14:51:28Z</time>
      </trkpt>
      <trkpt lat="42.8893" lon="0.23546">
        <ele>2052.796</ele>
        <time>2023-07-09T14:51:32Z</time>
      </trkpt>
      <trkpt lat="42.88933" lon="0.2355">
        <ele>2052.338</ele>
        <time>2023-07-09T14:51:37Z</time>
      </trkpt>
      <trkpt lat="42.88938" lon="0.23555">
        <ele>2051.919</ele>
        <time>2023-07-09T14:51:43Z</time>
      </trkpt>
      <trkpt lat="42.88943" lon="0.23556">
        <ele>2051.874</ele>
        <time>2023-07-09T14:51:49Z</time>
      </trkpt>
      <trkpt lat="42.88949" lon="0.23558">
        <ele>2051.656</ele>
        <time>2023-07-09T14:51:54Z</time>
      </trkpt>
      <trkpt lat="42.88953" lon="0.2356">
        <ele>2051.421</ele>
        <time>2023-07-09T14:51:59Z</time>
      </trkpt>
      <trkpt lat="42.88958" lon="0.2356">
        <ele>2051.309</ele>
        <time>2023-07-09T14:52:03Z</time>
      </trkpt>
      <trkpt lat="42.88963" lon="0.23558">
        <ele>2050.458</ele>
        <time>2023-07-09T14:52:08Z</time>
      </trkpt>
      <trkpt lat="42.88967" lon="0.23554">
        <ele>2049.571</ele>
        <time>2023-07-09T14:52:13Z</time>
      </trkpt>
      <trkpt lat="42.88972" lon="0.23555">
        <ele>2049.297</ele>
        <time>2023-07-09T14:52:18Z</time>
      </trkpt>
      <trkpt lat="42.88976" lon="0.23554">
        <ele>2047.758</ele>
        <time>2023-07-09T14:52:23Z</time>
      </trkpt>
      <trkpt lat="42.88982" lon="0.23552">
        <ele>2046.418</ele>
        <time>2023-07-09T14:52:28Z</time>
      </trkpt>
      <trkpt lat="42.88986" lon="0.23551">
        <ele>2046.179</ele>
        <time>2023-07-09T14:52:36Z</time>
      </trkpt>
      <trkpt lat="42.88991" lon="0.2355">
        <ele>2045.181</ele>
        <time>2023-07-09T14:52:44Z</time>
      </trkpt>
      <trkpt lat="42.88996" lon="0.23547">
        <ele>2043.983</ele>
        <time>2023-07-09T14:52:49Z</time>
      </trkpt>
      <trkpt lat="42.89001" lon="0.23545">
        <ele>2042.814</ele>
        <time>2023-07-09T14:52:55Z</time>
      </trkpt>
      <trkpt lat="42.89006" lon="0.23544">
        <ele>2041.371</ele>
        <time>2023-07-09T14:53:00Z</time>
      </trkpt>
      <trkpt lat="42.8901" lon="0.23543">
        <ele>2039.841</ele>
        <time>2023-07-09T14:53:04Z</time>
      </trkpt>
      <trkpt lat="42.89016" lon="0.23542">
        <ele>2038.815</ele>
        <time>2023-07-09T14:53:11Z</time>
      </trkpt>
      <trkpt lat="42.89021" lon="0.23542">
        <ele>2038.209</ele>
        <time>2023-07-09T14:53:16Z</time>
      </trkpt>
      <trkpt lat="42.89025" lon="0.23545">
        <ele>2037.258</ele>
        <time>2023-07-09T14:53:22Z</time>
      </trkpt>
      <trkpt lat="42.89029" lon="0.23545">
        <ele>2036.121</ele>
        <time>2023-07-09T14:53:28Z</time>
      </trkpt>
      <trkpt lat="42.89034" lon="0.23546">
        <ele>2035.467</ele>
        <time>2023-07-09T14:53:33Z</time>
      </trkpt>
      <trkpt lat="42.89039" lon="0.23548">
        <ele>2034.538</ele>
        <time>2023-07-09T14:53:38Z</time>
      </trkpt>
      <trkpt lat="42.89044" lon="0.23549">
        <ele>2033.998</ele>
        <time>2023-07-09T14:53:45Z</time>
      </trkpt>
      <trkpt lat="42.89049" lon="0.23549">
        <ele>2033.759</ele>
        <time>2023-07-09T14:53:49Z</time>
      </trkpt>
      <trkpt lat="42.89052" lon="0.23544">
        <ele>2032.561</ele>
        <time>2023-07-09T14:53:54Z</time>
      </trkpt>
      <trkpt lat="42.89057" lon="0.23544">
        <ele>2031.133</ele>
        <time>2023-07-09T14:53:57Z</time>
      </trkpt>
      <trkpt lat="42.89062" lon="0.23544">
        <ele>2029.824</ele>
        <time>2023-07-09T14:54:04Z</time>
      </trkpt>
      <trkpt lat="42.89067" lon="0.23543">
        <ele>2028.481</ele>
        <time>2023-07-09T14:54:10Z</time>
      </trkpt>
      <trkpt lat="42.89072" lon="0.23543">
        <ele>2027.261</ele>
        <time>2023-07-09T14:54:14Z</time>
      </trkpt>
      <trkpt lat="42.89076" lon="0.23541">
        <ele>2026.017</ele>
        <time>2023-07-09T14:54:20Z</time>
      </trkpt>
      <trkpt lat="42.89082" lon="0.2354">
        <ele>2025.509</ele>
        <time>2023-07-09T14:54:25Z</time>
      </trkpt>
      <trkpt lat="42.89086" lon="0.23538">
        <ele>2024.739</ele>
        <time>2023-07-09T14:54:28Z</time>
      </trkpt>
      <trkpt lat="42.89091" lon="0.23539">
        <ele>2023.742</ele>
        <time>2023-07-09T14:54:32Z</time>
      </trkpt>
      <trkpt lat="42.89097" lon="0.2354">
        <ele>2023.278</ele>
        <time>2023-07-09T14:54:38Z</time>
      </trkpt>
      <trkpt lat="42.89102" lon="0.23541">
        <ele>2023.139</ele>
        <time>2023-07-09T14:54:45Z</time>
      </trkpt>
      <trkpt lat="42.89107" lon="0.23541">
        <ele>2021.919</ele>
        <time>2023-07-09T14:54:50Z</time>
      </trkpt>
      <trkpt lat="42.89112" lon="0.2354">
        <ele>2019.41</ele>
        <time>2023-07-09T14:54:56Z</time>
      </trkpt>
      <trkpt lat="42.89118" lon="0.23539">
        <ele>2017.312</ele>
        <time>2023-07-09T14:55:01Z</time>
      </trkpt>
      <trkpt lat="42.89122" lon="0.23536">
        <ele>2015.364</ele>
        <time>2023-07-09T14:55:07Z</time>
      </trkpt>
      <trkpt lat="42.89126" lon="0.23533">
        <ele>2014.175</ele>
        <time>2023-07-09T14:55:10Z</time>
      </trkpt>
      <trkpt lat="42.89129" lon="0.23527">
        <ele>2013.564</ele>
        <time>2023-07-09T14:55:16Z</time>
      </trkpt>
      <trkpt lat="42.89133" lon="0.23523">
        <ele>2013.506</ele>
        <time>2023-07-09T14:55:21Z</time>
      </trkpt>
      <trkpt lat="42.89138" lon="0.23522">
        <ele>2013.016</ele>
        <time>2023-07-09T14:55:36Z</time>
      </trkpt>
      <trkpt lat="42.89142" lon="0.23519">
        <ele>2012.709</ele>
        <time>2023-07-09T14:55:41Z</time>
      </trkpt>
      <trkpt lat="42.89147" lon="0.23517">
        <ele>2012.827</ele>
        <time>2023-07-09T14:55:47Z</time>
      </trkpt>
      <trkpt lat="42.89151" lon="0.23512">
        <ele>2012.81</ele>
        <time>2023-07-09T14:55:53Z</time>
      </trkpt>
      <trkpt lat="42.89156" lon="0.2351">
        <ele>2012.646</ele>
        <time>2023-07-09T14:55:59Z</time>
      </trkpt>
      <trkpt lat="42.89162" lon="0.23509">
        <ele>2011.577</ele>
        <time>2023-07-09T14:56:03Z</time>
      </trkpt>
      <trkpt lat="42.89167" lon="0.23506">
        <ele>2009.317</ele>
        <time>2023-07-09T14:56:09Z</time>
      </trkpt>
      <trkpt lat="42.89172" lon="0.23504">
        <ele>2009.188</ele>
        <time>2023-07-09T14:56:15Z</time>
      </trkpt>
      <trkpt lat="42.89177" lon="0.23503">
        <ele>2008.69</ele>
        <time>2023-07-09T14:56:19Z</time>
      </trkpt>
      <trkpt lat="42.89181" lon="0.23501">
        <ele>2007.072</ele>
        <time>2023-07-09T14:56:24Z</time>
      </trkpt>
      <trkpt lat="42.89185" lon="0.23503">
        <ele>2005.613</ele>
        <time>2023-07-09T14:56:29Z</time>
      </trkpt>
      <trkpt lat="42.8919" lon="0.23505">
        <ele>2004.972</ele>
        <time>2023-07-09T14:56:36Z</time>
      </trkpt>
      <trkpt lat="42.89194" lon="0.23508">
        <ele>2003.413</ele>
        <time>2023-07-09T14:56:42Z</time>
      </trkpt>
      <trkpt lat="42.89198" lon="0.23511">
        <ele>2000.914</ele>
        <time>2023-07-09T14:56:47Z</time>
      </trkpt>
      <trkpt lat="42.89204" lon="0.23514">
        <ele>1998.609</ele>
        <time>2023-07-09T14:56:52Z</time>
      </trkpt>
      <trkpt lat="42.89208" lon="0.23513">
        <ele>1997.128</ele>
        <time>2023-07-09T14:56:58Z</time>
      </trkpt>
      <trkpt lat="42.89213" lon="0.23512">
        <ele>1996.191</ele>
        <time>2023-07-09T14:57:02Z</time>
      </trkpt>
      <trkpt lat="42.89218" lon="0.23514">
        <ele>1995.297</ele>
        <time>2023-07-09T14:57:07Z</time>
      </trkpt>
      <trkpt lat="42.89224" lon="0.23516">
        <ele>1994.248</ele>
        <time>2023-07-09T14:57:12Z</time>
      </trkpt>
      <trkpt lat="42.89229" lon="0.23518">
        <ele>1993.768</ele>
        <time>2023-07-09T14:57:30Z</time>
      </trkpt>
      <trkpt lat="42.89234" lon="0.23518">
        <ele>1993.359</ele>
        <time>2023-07-09T14:57:33Z</time>
      </trkpt>
      <trkpt lat="42.89239" lon="0.23518">
        <ele>1993.151</ele>
        <time>2023-07-09T14:57:37Z</time>
      </trkpt>
      <trkpt lat="42.89244" lon="0.23516">
        <ele>1993.083</ele>
        <time>2023-07-09T14:57:41Z</time>
      </trkpt>
      <trkpt lat="42.89249" lon="0.23515">
        <ele>1993.164</ele>
        <time>2023-07-09T14:57:44Z</time>
      </trkpt>
      <trkpt lat="42.89254" lon="0.23513">
        <ele>1993.174</ele>
        <time>2023-07-09T14:57:50Z</time>
      </trkpt>
      <trkpt lat="42.89259" lon="0.23514">
        <ele>1993.556</ele>
        <time>2023-07-09T14:57:55Z</time>
      </trkpt>
      <trkpt lat="42.89266" lon="0.23515">
        <ele>1994.621</ele>
        <time>2023-07-09T14:58:01Z</time>
      </trkpt>
      <trkpt lat="42.89271" lon="0.23515">
        <ele>1994.809</ele>
        <time>2023-07-09T14:58:06Z</time>
      </trkpt>
      <trkpt lat="42.89275" lon="0.23516">
        <ele>1994.888</ele>
        <time>2023-07-09T14:58:11Z</time>
      </trkpt>
      <trkpt lat="42.8928" lon="0.23515">
        <ele>1994.771</ele>
        <time>2023-07-09T14:58:16Z</time>
      </trkpt>
      <trkpt lat="42.89285" lon="0.23518">
        <ele>1994.787</ele>
        <time>2023-07-09T14:58:23Z</time>
      </trkpt>
      <trkpt lat="42.89291" lon="0.23516">
        <ele>1994.378</ele>
        <time>2023-07-09T14:58:28Z</time>
      </trkpt>
      <trkpt lat="42.89296" lon="0.23514">
        <ele>1993.578</ele>
        <time>2023-07-09T14:58:35Z</time>
      </trkpt>
      <trkpt lat="42.89301" lon="0.23513">
        <ele>1992.729</ele>
        <time>2023-07-09T14:58:40Z</time>
      </trkpt>
      <trkpt lat="42.89305" lon="0.23511">
        <ele>1991.231</ele>
        <time>2023-07-09T14:58:44Z</time>
      </trkpt>
      <trkpt lat="42.89311" lon="0.23509">
        <ele>1989.443</ele>
        <time>2023-07-09T14:58:51Z</time>
      </trkpt>
      <trkpt lat="42.89316" lon="0.23509">
        <ele>1988.564</ele>
        <time>2023-07-09T14:58:58Z</time>
      </trkpt>
      <trkpt lat="42.89321" lon="0.2351">
        <ele>1986.732</ele>
        <time>2023-07-09T14:59:02Z</time>
      </trkpt>
      <trkpt lat="42.89326" lon="0.2351">
        <ele>1984.192</ele>
        <time>2023-07-09T14:59:06Z</time>
      </trkpt>
      <trkpt lat="42.89332" lon="0.23508">
        <ele>1982.611</ele>
        <time>2023-07-09T14:59:11Z</time>
      </trkpt>
      <trkpt lat="42.89337" lon="0.23505">
        <ele>1982.509</ele>
        <time>2023-07-09T14:59:17Z</time>
      </trkpt>
      <trkpt lat="42.89342" lon="0.23502">
        <ele>1982.284</ele>
        <time>2023-07-09T14:59:21Z</time>
      </trkpt>
      <trkpt lat="42.89347" lon="0.235">
        <ele>1981.377</ele>
        <time>2023-07-09T14:59:25Z</time>
      </trkpt>
      <trkpt lat="42.89352" lon="0.235">
        <ele>1981.493</ele>
        <time>2023-07-09T14:59:29Z</time>
      </trkpt>
      <trkpt lat="42.89356" lon="0.23496">
        <ele>1981.274</ele>
        <time>2023-07-09T14:59:34Z</time>
      </trkpt>
      <trkpt lat="42.89361" lon="0.23496">
        <ele>1980.834</ele>
        <time>2023-07-09T14:59:39Z</time>
      </trkpt>
      <trkpt lat="42.89365" lon="0.23496">
        <ele>1980.855</ele>
        <time>2023-07-09T14:59:43Z</time>
      </trkpt>
      <trkpt lat="42.8937" lon="0.23498">
        <ele>1980.057</ele>
        <time>2023-07-09T14:59:48Z</time>
      </trkpt>
      <trkpt lat="42.89375" lon="0.23499">
        <ele>1978.869</ele>
        <time>2023-07-09T14:59:54Z</time>
      </trkpt>
      <trkpt lat="42.8938" lon="0.23501">
        <ele>1978.08</ele>
        <time>2023-07-09T14:59:59Z</time>
      </trkpt>
      <trkpt lat="42.89385" lon="0.235">
        <ele>1977.724</ele>
        <time>2023-07-09T15:00:05Z</time>
      </trkpt>
      <trkpt lat="42.89391" lon="0.23502">
        <ele>1977.004</ele>
        <time>2023-07-09T15:00:09Z</time>
      </trkpt>
      <trkpt lat="42.89397" lon="0.23502">
        <ele>1976.514</ele>
        <time>2023-07-09T15:00:14Z</time>
      </trkpt>
      <trkpt lat="42.89402" lon="0.23504">
        <ele>1976.609</ele>
        <time>2023-07-09T15:00:19Z</time>
      </trkpt>
      <trkpt lat="42.89407" lon="0.23503">
        <ele>1976.413</ele>
        <time>2023-07-09T15:00:25Z</time>
      </trkpt>
      <trkpt lat="42.89412" lon="0.23503">
        <ele>1976.526</ele>
        <time>2023-07-09T15:00:29Z</time>
      </trkpt>
      <trkpt lat="42.89416" lon="0.23502">
        <ele>1976.722</ele>
        <time>2023-07-09T15:00:32Z</time>
      </trkpt>
      <trkpt lat="42.89421" lon="0.23501">
        <ele>1976.793</ele>
        <time>2023-07-09T15:00:36Z</time>
      </trkpt>
      <trkpt lat="42.89426" lon="0.23499">
        <ele>1976.813</ele>
        <time>2023-07-09T15:00:43Z</time>
      </trkpt>
      <trkpt lat="42.89431" lon="0.23498">
        <ele>1977.084</ele>
        <time>2023-07-09T15:00:48Z</time>
      </trkpt>
      <trkpt lat="42.89436" lon="0.235">
        <ele>1977.096</ele>
        <time>2023-07-09T15:00:53Z</time>
      </trkpt>
      <trkpt lat="42.89442" lon="0.23499">
        <ele>1976.878</ele>
        <time>2023-07-09T15:00:58Z</time>
      </trkpt>
      <trkpt lat="42.89448" lon="0.235">
        <ele>1976.959</ele>
        <time>2023-07-09T15:01:03Z</time>
      </trkpt>
      <trkpt lat="42.89452" lon="0.23504">
        <ele>1976.851</ele>
        <time>2023-07-09T15:01:08Z</time>
      </trkpt>
      <trkpt lat="42.89457" lon="0.23506">
        <ele>1976.701</ele>
        <time>2023-07-09T15:01:15Z</time>
      </trkpt>
      <trkpt lat="42.89462" lon="0.23507">
        <ele>1976.711</ele>
        <time>2023-07-09T15:01:21Z</time>
      </trkpt>
      <trkpt lat="42.89467" lon="0.23507">
        <ele>1976.809</ele>
        <time>2023-07-09T15:01:25Z</time>
      </trkpt>
      <trkpt lat="42.89472" lon="0.23508">
        <ele>1976.886</ele>
        <time>2023-07-09T15:01:30Z</time>
      </trkpt>
      <trkpt lat="42.89477" lon="0.23506">
        <ele>1976.199</ele>
        <time>2023-07-09T15:01:35Z</time>
      </trkpt>
      <trkpt lat="42.89482" lon="0.23506">
        <ele>1975.495</ele>
        <time>2023-07-09T15:01:42Z</time>
      </trkpt>
      <trkpt lat="42.89487" lon="0.23509">
        <ele>1974.676</ele>
        <time>2023-07-09T15:01:48Z</time>
      </trkpt>
      <trkpt lat="42.89492" lon="0.23508">
        <ele>1973.446</ele>
        <time>2023-07-09T15:01:52Z</time>
      </trkpt>
      <trkpt lat="42.89497" lon="0.23508">
        <ele>1972.327</ele>
        <time>2023-07-09T15:01:55Z</time>
      </trkpt>
      <trkpt lat="42.89502" lon="0.23509">
        <ele>1971.689</ele>
        <time>2023-07-09T15:02:00Z</time>
      </trkpt>
      <trkpt lat="42.89507" lon="0.23511">
        <ele>1971.281</ele>
        <time>2023-07-09T15:02:04Z</time>
      </trkpt>
      <trkpt lat="42.89512" lon="0.23511">
        <ele>1970.652</ele>
        <time>2023-07-09T15:02:08Z</time>
      </trkpt>
      <trkpt lat="42.89516" lon="0.23515">
        <ele>1970.276</ele>
        <time>2023-07-09T15:02:14Z</time>
      </trkpt>
      <trkpt lat="42.89521" lon="0.23515">
        <ele>1969.99</ele>
        <time>2023-07-09T15:02:19Z</time>
      </trkpt>
      <trkpt lat="42.89527" lon="0.23517">
        <ele>1969.419</ele>
        <time>2023-07-09T15:02:24Z</time>
      </trkpt>
      <trkpt lat="42.89532" lon="0.23519">
        <ele>1968.909</ele>
        <time>2023-07-09T15:02:28Z</time>
      </trkpt>
      <trkpt lat="42.89537" lon="0.23517">
        <ele>1968.538</ele>
        <time>2023-07-09T15:02:31Z</time>
      </trkpt>
      <trkpt lat="42.89542" lon="0.23515">
        <ele>1968.271</ele>
        <time>2023-07-09T15:02:36Z</time>
      </trkpt>
      <trkpt lat="42.89547" lon="0.23515">
        <ele>1968.137</ele>
        <time>2023-07-09T15:02:41Z</time>
      </trkpt>
      <trkpt lat="42.89552" lon="0.23515">
        <ele>1967.898</ele>
        <time>2023-07-09T15:02:46Z</time>
      </trkpt>
      <trkpt lat="42.89558" lon="0.23513">
        <ele>1967.598</ele>
        <time>2023-07-09T15:02:50Z</time>
      </trkpt>
      <trkpt lat="42.89562" lon="0.23517">
        <ele>1967.439</ele>
        <time>2023-07-09T15:02:55Z</time>
      </trkpt>
      <trkpt lat="42.89568" lon="0.23519">
        <ele>1967.471</ele>
        <time>2023-07-09T15:03:01Z</time>
      </trkpt>
      <trkpt lat="42.89572" lon="0.23522">
        <ele>1966.973</ele>
        <time>2023-07-09T15:03:07Z</time>
      </trkpt>
      <trkpt lat="42.89576" lon="0.23527">
        <ele>1966.844</ele>
        <time>2023-07-09T15:03:11Z</time>
      </trkpt>
      <trkpt lat="42.89581" lon="0.23528">
        <ele>1965.123</ele>
        <time>2023-07-09T15:03:16Z</time>
      </trkpt>
      <trkpt lat="42.89586" lon="0.2353">
        <ele>1963.183</ele>
        <time>2023-07-09T15:03:21Z</time>
      </trkpt>
      <trkpt lat="42.89591" lon="0.23531">
        <ele>1962.311</ele>
        <time>2023-07-09T15:03:25Z</time>
      </trkpt>
      <trkpt lat="42.89595" lon="0.23528">
        <ele>1961.509</ele>
        <time>2023-07-09T15:03:29Z</time>
      </trkpt>
      <trkpt lat="42.89599" lon="0.23524">
        <ele>1960.813</ele>
        <time>2023-07-09T15:03:34Z</time>
      </trkpt>
      <trkpt lat="42.89604" lon="0.23522">
        <ele>1960.256</ele>
        <time>2023-07-09T15:03:39Z</time>
      </trkpt>
      <trkpt lat="42.89609" lon="0.2352">
        <ele>1958.932</ele>
        <time>2023-07-09T15:03:45Z</time>
      </trkpt>
      <trkpt lat="42.89613" lon="0.23519">
        <ele>1957.473</ele>
        <time>2023-07-09T15:03:48Z</time>
      </trkpt>
      <trkpt lat="42.89618" lon="0.23517">
        <ele>1956.273</ele>
        <time>2023-07-09T15:03:52Z</time>
      </trkpt>
      <trkpt lat="42.89622" lon="0.23513">
        <ele>1955.514</ele>
        <time>2023-07-09T15:03:57Z</time>
      </trkpt>
      <trkpt lat="42.89628" lon="0.23512">
        <ele>1955.266</ele>
        <time>2023-07-09T15:04:04Z</time>
      </trkpt>
      <trkpt lat="42.89633" lon="0.23511">
        <ele>1954.458</ele>
        <time>2023-07-09T15:04:12Z</time>
      </trkpt>
      <trkpt lat="42.89638" lon="0.23511">
        <ele>1953.499</ele>
        <time>2023-07-09T15:04:17Z</time>
      </trkpt>
      <trkpt lat="42.89643" lon="0.2351">
        <ele>1951.468</ele>
        <time>2023-07-09T15:04:22Z</time>
      </trkpt>
      <trkpt lat="42.89648" lon="0.23509">
        <ele>1949.442</ele>
        <time>2023-07-09T15:04:26Z</time>
      </trkpt>
      <trkpt lat="42.89653" lon="0.23509">
        <ele>1948.426</ele>
        <time>2023-07-09T15:04:31Z</time>
      </trkpt>
      <trkpt lat="42.89658" lon="0.23509">
        <ele>1947.409</ele>
        <time>2023-07-09T15:04:35Z</time>
      </trkpt>
      <trkpt lat="42.89662" lon="0.23506">
        <ele>1946.197</ele>
        <time>2023-07-09T15:04:39Z</time>
      </trkpt>
      <trkpt lat="42.89668" lon="0.23506">
        <ele>1944.94</ele>
        <time>2023-07-09T15:04:45Z</time>
      </trkpt>
      <trkpt lat="42.89673" lon="0.23509">
        <ele>1944.786</ele>
        <time>2023-07-09T15:04:50Z</time>
      </trkpt>
      <trkpt lat="42.89677" lon="0.23512">
        <ele>1944.237</ele>
        <time>2023-07-09T15:04:55Z</time>
      </trkpt>
      <trkpt lat="42.89683" lon="0.23512">
        <ele>1943.247</ele>
        <time>2023-07-09T15:05:02Z</time>
      </trkpt>
      <trkpt lat="42.89689" lon="0.23512">
        <ele>1941.688</ele>
        <time>2023-07-09T15:05:11Z</time>
      </trkpt>
      <trkpt lat="42.89694" lon="0.2351">
        <ele>1939.85</ele>
        <time>2023-07-09T15:05:16Z</time>
      </trkpt>
      <trkpt lat="42.89698" lon="0.23509">
        <ele>1936.892</ele>
        <time>2023-07-09T15:05:20Z</time>
      </trkpt>
      <trkpt lat="42.89703" lon="0.23509">
        <ele>1934.923</ele>
        <time>2023-07-09T15:05:25Z</time>
      </trkpt>
      <trkpt lat="42.89708" lon="0.2351">
        <ele>1933.832</ele>
        <time>2023-07-09T15:05:29Z</time>
      </trkpt>
      <trkpt lat="42.89712" lon="0.23513">
        <ele>1932.792</ele>
        <time>2023-07-09T15:05:34Z</time>
      </trkpt>
      <trkpt lat="42.89716" lon="0.23518">
        <ele>1931.211</ele>
        <time>2023-07-09T15:05:39Z</time>
      </trkpt>
      <trkpt lat="42.89719" lon="0.23525">
        <ele>1929.809</ele>
        <time>2023-07-09T15:05:45Z</time>
      </trkpt>
      <trkpt lat="42.89721" lon="0.23532">
        <ele>1928.914</ele>
        <time>2023-07-09T15:05:50Z</time>
      </trkpt>
      <trkpt lat="42.89726" lon="0.23537">
        <ele>1925.577</ele>
        <time>2023-07-09T15:05:55Z</time>
      </trkpt>
      <trkpt lat="42.8973" lon="0.23542">
        <ele>1924.183</ele>
        <time>2023-07-09T15:06:00Z</time>
      </trkpt>
      <trkpt lat="42.89735" lon="0.23543">
        <ele>1922.634</ele>
        <time>2023-07-09T15:06:07Z</time>
      </trkpt>
      <trkpt lat="42.89741" lon="0.23544">
        <ele>1921.664</ele>
        <time>2023-07-09T15:06:12Z</time>
      </trkpt>
      <trkpt lat="42.89746" lon="0.23547">
        <ele>1920.045</ele>
        <time>2023-07-09T15:06:18Z</time>
      </trkpt>
      <trkpt lat="42.8975" lon="0.23549">
        <ele>1919.567</ele>
        <time>2023-07-09T15:06:26Z</time>
      </trkpt>
      <trkpt lat="42.89754" lon="0.23546">
        <ele>1918.259</ele>
        <time>2023-07-09T15:06:30Z</time>
      </trkpt>
      <trkpt lat="42.89757" lon="0.23541">
        <ele>1915.83</ele>
        <time>2023-07-09T15:06:35Z</time>
      </trkpt>
      <trkpt lat="42.8976" lon="0.23535">
        <ele>1913.844</ele>
        <time>2023-07-09T15:06:43Z</time>
      </trkpt>
      <trkpt lat="42.89762" lon="0.2353">
        <ele>1913.405</ele>
        <time>2023-07-09T15:06:48Z</time>
      </trkpt>
      <trkpt lat="42.89763" lon="0.23522">
        <ele>1912.315</ele>
        <time>2023-07-09T15:06:53Z</time>
      </trkpt>
      <trkpt lat="42.89768" lon="0.23521">
        <ele>1910.809</ele>
        <time>2023-07-09T15:06:59Z</time>
      </trkpt>
      <trkpt lat="42.89768" lon="0.23514">
        <ele>1910.335</ele>
        <time>2023-07-09T15:07:06Z</time>
      </trkpt>
      <trkpt lat="42.8977" lon="0.23508">
        <ele>1910.328</ele>
        <time>2023-07-09T15:07:12Z</time>
      </trkpt>
      <trkpt lat="42.89774" lon="0.23504">
        <ele>1910.394</ele>
        <time>2023-07-09T15:07:21Z</time>
      </trkpt>
      <trkpt lat="42.8978" lon="0.23504">
        <ele>1910.975</ele>
        <time>2023-07-09T15:07:28Z</time>
      </trkpt>
      <trkpt lat="42.89784" lon="0.23503">
        <ele>1912.785</ele>
        <time>2023-07-09T15:07:35Z</time>
      </trkpt>
      <trkpt lat="42.89789" lon="0.23499">
        <ele>1913.976</ele>
        <time>2023-07-09T15:07:41Z</time>
      </trkpt>
      <trkpt lat="42.89794" lon="0.235">
        <ele>1913.938</ele>
        <time>2023-07-09T15:07:47Z</time>
      </trkpt>
      <trkpt lat="42.898" lon="0.23501">
        <ele>1914.28</ele>
        <time>2023-07-09T15:07:50Z</time>
      </trkpt>
      <trkpt lat="42.89804" lon="0.23502">
        <ele>1914.271</ele>
        <time>2023-07-09T15:07:58Z</time>
      </trkpt>
      <trkpt lat="42.89808" lon="0.23498">
        <ele>1913.924</ele>
        <time>2023-07-09T15:08:04Z</time>
      </trkpt>
      <trkpt lat="42.89812" lon="0.23492">
        <ele>1912.804</ele>
        <time>2023-07-09T15:08:10Z</time>
      </trkpt>
      <trkpt lat="42.89816" lon="0.23491">
        <ele>1912.414</ele>
        <time>2023-07-09T15:08:14Z</time>
      </trkpt>
      <trkpt lat="42.8982" lon="0.23487">
        <ele>1912.409</ele>
        <time>2023-07-09T15:08:20Z</time>
      </trkpt>
      <trkpt lat="42.89826" lon="0.23485">
        <ele>1912.443</ele>
        <time>2023-07-09T15:08:25Z</time>
      </trkpt>
      <trkpt lat="42.8983" lon="0.23481">
        <ele>1912.756</ele>
        <time>2023-07-09T15:08:30Z</time>
      </trkpt>
      <trkpt lat="42.89834" lon="0.23477">
        <ele>1912.972</ele>
        <time>2023-07-09T15:08:36Z</time>
      </trkpt>
      <trkpt lat="42.89838" lon="0.23477">
        <ele>1913.143</ele>
        <time>2023-07-09T15:08:42Z</time>
      </trkpt>
      <trkpt lat="42.89843" lon="0.23475">
        <ele>1913.423</ele>
        <time>2023-07-09T15:08:48Z</time>
      </trkpt>
      <trkpt lat="42.89847" lon="0.23473">
        <ele>1913.724</ele>
        <time>2023-07-09T15:08:56Z</time>
      </trkpt>
      <trkpt lat="42.89849" lon="0.23479">
        <ele>1913.796</ele>
        <time>2023-07-09T15:09:04Z</time>
      </trkpt>
      <trkpt lat="42.89854" lon="0.23478">
        <ele>1913.758</ele>
        <time>2023-07-09T15:09:09Z</time>
      </trkpt>
      <trkpt lat="42.89856" lon="0.23485">
        <ele>1913.059</ele>
        <time>2023-07-09T15:09:28Z</time>
      </trkpt>
      <trkpt lat="42.89857" lon="0.23478">
        <ele>1912.626</ele>
        <time>2023-07-09T15:12:40Z</time>
      </trkpt>
      <trkpt lat="42.89861" lon="0.23483">
        <ele>1912.647</ele>
        <time>2023-07-09T15:13:31Z</time>
      </trkpt>
      <trkpt lat="42.89866" lon="0.23485">
        <ele>1912.611</ele>
        <time>2023-07-09T15:13:38Z</time>
      </trkpt>
      <trkpt lat="42.89871" lon="0.23486">
        <ele>1913.409</ele>
        <time>2023-07-09T15:13:44Z</time>
      </trkpt>
      <trkpt lat="42.89876" lon="0.23489">
        <ele>1914.423</ele>
        <time>2023-07-09T15:13:50Z</time>
      </trkpt>
      <trkpt lat="42.8988" lon="0.23491">
        <ele>1915.436</ele>
        <time>2023-07-09T15:13:55Z</time>
      </trkpt>
      <trkpt lat="42.89886" lon="0.23492">
        <ele>1916.412</ele>
        <time>2023-07-09T15:14:00Z</time>
      </trkpt>
      <trkpt lat="42.89889" lon="0.23496">
        <ele>1916.413</ele>
        <time>2023-07-09T15:14:06Z</time>
      </trkpt>
      <trkpt lat="42.89892" lon="0.23501">
        <ele>1916.443</ele>
        <time>2023-07-09T15:14:10Z</time>
      </trkpt>
      <trkpt lat="42.89897" lon="0.23506">
        <ele>1916.274</ele>
        <time>2023-07-09T15:14:15Z</time>
      </trkpt>
      <trkpt lat="42.89902" lon="0.2351">
        <ele>1915.616</ele>
        <time>2023-07-09T15:14:21Z</time>
      </trkpt>
      <trkpt lat="42.89906" lon="0.23505">
        <ele>1915.588</ele>
        <time>2023-07-09T15:14:26Z</time>
      </trkpt>
      <trkpt lat="42.8991" lon="0.23502">
        <ele>1915.369</ele>
        <time>2023-07-09T15:14:35Z</time>
      </trkpt>
      <trkpt lat="42.89915" lon="0.23502">
        <ele>1914.221</ele>
        <time>2023-07-09T15:14:45Z</time>
      </trkpt>
      <trkpt lat="42.8992" lon="0.23506">
        <ele>1911.441</ele>
        <time>2023-07-09T15:14:55Z</time>
      </trkpt>
      <trkpt lat="42.89926" lon="0.23506">
        <ele>1908.205</ele>
        <time>2023-07-09T15:15:00Z</time>
      </trkpt>
      <trkpt lat="42.8993" lon="0.23504">
        <ele>1905.709</ele>
        <time>2023-07-09T15:15:07Z</time>
      </trkpt>
      <trkpt lat="42.89935" lon="0.23506">
        <ele>1904.523</ele>
        <time>2023-07-09T15:15:11Z</time>
      </trkpt>
      <trkpt lat="42.8994" lon="0.23507">
        <ele>1902.966</ele>
        <time>2023-07-09T15:15:16Z</time>
      </trkpt>
      <trkpt lat="42.89944" lon="0.23505">
        <ele>1901.052</ele>
        <time>2023-07-09T15:15:22Z</time>
      </trkpt>
      <trkpt lat="42.89949" lon="0.23505">
        <ele>1900.573</ele>
        <time>2023-07-09T15:15:26Z</time>
      </trkpt>
      <trkpt lat="42.89954" lon="0.23509">
        <ele>1898.943</ele>
        <time>2023-07-09T15:15:32Z</time>
      </trkpt>
      <trkpt lat="42.89959" lon="0.23512">
        <ele>1897.424</ele>
        <time>2023-07-09T15:15:37Z</time>
      </trkpt>
      <trkpt lat="42.89963" lon="0.23515">
        <ele>1896.536</ele>
        <time>2023-07-09T15:15:44Z</time>
      </trkpt>
      <trkpt lat="42.89967" lon="0.23517">
        <ele>1895.558</ele>
        <time>2023-07-09T15:15:51Z</time>
      </trkpt>
      <trkpt lat="42.89972" lon="0.2352">
        <ele>1893.399</ele>
        <time>2023-07-09T15:15:57Z</time>
      </trkpt>
      <trkpt lat="42.89976" lon="0.23521">
        <ele>1890.077</ele>
        <time>2023-07-09T15:16:02Z</time>
      </trkpt>
      <trkpt lat="42.89981" lon="0.23522">
        <ele>1888.161</ele>
        <time>2023-07-09T15:16:08Z</time>
      </trkpt>
      <trkpt lat="42.89985" lon="0.23526">
        <ele>1887.227</ele>
        <time>2023-07-09T15:16:13Z</time>
      </trkpt>
      <trkpt lat="42.89992" lon="0.23526">
        <ele>1886.509</ele>
        <time>2023-07-09T15:16:18Z</time>
      </trkpt>
      <trkpt lat="42.89997" lon="0.23525">
        <ele>1885.818</ele>
        <time>2023-07-09T15:16:23Z</time>
      </trkpt>
      <trkpt lat="42.90002" lon="0.23527">
        <ele>1885.241</ele>
        <time>2023-07-09T15:16:28Z</time>
      </trkpt>
      <trkpt lat="42.90007" lon="0.23527">
        <ele>1884.787</ele>
        <time>2023-07-09T15:16:36Z</time>
      </trkpt>
      <trkpt lat="42.90012" lon="0.2353">
        <ele>1884.428</ele>
        <time>2023-07-09T15:16:41Z</time>
      </trkpt>
      <trkpt lat="42.90016" lon="0.23533">
        <ele>1883.378</ele>
        <time>2023-07-09T15:16:45Z</time>
      </trkpt>
      <trkpt lat="42.9002" lon="0.23536">
        <ele>1882.239</ele>
        <time>2023-07-09T15:16:51Z</time>
      </trkpt>
      <trkpt lat="42.90025" lon="0.23536">
        <ele>1881.621</ele>
        <time>2023-07-09T15:16:55Z</time>
      </trkpt>
      <trkpt lat="42.9003" lon="0.23538">
        <ele>1879.783</ele>
        <time>2023-07-09T15:17:00Z</time>
      </trkpt>
      <trkpt lat="42.90035" lon="0.23542">
        <ele>1878.254</ele>
        <time>2023-07-09T15:17:04Z</time>
      </trkpt>
      <trkpt lat="42.90039" lon="0.23543">
        <ele>1877.389</ele>
        <time>2023-07-09T15:17:11Z</time>
      </trkpt>
      <trkpt lat="42.90044" lon="0.23541">
        <ele>1876.206</ele>
        <time>2023-07-09T15:17:18Z</time>
      </trkpt>
      <trkpt lat="42.90048" lon="0.23542">
        <ele>1874.426</ele>
        <time>2023-07-09T15:17:23Z</time>
      </trkpt>
      <trkpt lat="42.90053" lon="0.23545">
        <ele>1871.209</ele>
        <time>2023-07-09T15:17:28Z</time>
      </trkpt>
      <trkpt lat="42.90059" lon="0.23545">
        <ele>1868.719</ele>
        <time>2023-07-09T15:17:34Z</time>
      </trkpt>
      <trkpt lat="42.90063" lon="0.23546">
        <ele>1867.352</ele>
        <time>2023-07-09T15:17:41Z</time>
      </trkpt>
      <trkpt lat="42.90068" lon="0.23548">
        <ele>1865.648</ele>
        <time>2023-07-09T15:17:45Z</time>
      </trkpt>
      <trkpt lat="42.90073" lon="0.23548">
        <ele>1863.649</ele>
        <time>2023-07-09T15:17:51Z</time>
      </trkpt>
      <trkpt lat="42.90077" lon="0.23544">
        <ele>1862.429</ele>
        <time>2023-07-09T15:17:56Z</time>
      </trkpt>
      <trkpt lat="42.90082" lon="0.23545">
        <ele>1861.94</ele>
        <time>2023-07-09T15:18:01Z</time>
      </trkpt>
      <trkpt lat="42.90087" lon="0.23543">
        <ele>1861.242</ele>
        <time>2023-07-09T15:18:06Z</time>
      </trkpt>
      <trkpt lat="42.90092" lon="0.23544">
        <ele>1860.644</ele>
        <time>2023-07-09T15:18:12Z</time>
      </trkpt>
      <trkpt lat="42.90096" lon="0.23542">
        <ele>1860.115</ele>
        <time>2023-07-09T15:18:16Z</time>
      </trkpt>
      <trkpt lat="42.90102" lon="0.23544">
        <ele>1858.888</ele>
        <time>2023-07-09T15:18:22Z</time>
      </trkpt>
      <trkpt lat="42.90107" lon="0.23542">
        <ele>1856.924</ele>
        <time>2023-07-09T15:18:29Z</time>
      </trkpt>
      <trkpt lat="42.90112" lon="0.23537">
        <ele>1855.426</ele>
        <time>2023-07-09T15:18:34Z</time>
      </trkpt>
      <trkpt lat="42.90116" lon="0.23533">
        <ele>1854.209</ele>
        <time>2023-07-09T15:18:37Z</time>
      </trkpt>
      <trkpt lat="42.90119" lon="0.23528">
        <ele>1853.759</ele>
        <time>2023-07-09T15:18:41Z</time>
      </trkpt>
      <trkpt lat="42.90122" lon="0.23522">
        <ele>1853.222</ele>
        <time>2023-07-09T15:18:47Z</time>
      </trkpt>
      <trkpt lat="42.90124" lon="0.23516">
        <ele>1852.738</ele>
        <time>2023-07-09T15:18:52Z</time>
      </trkpt>
      <trkpt lat="42.90127" lon="0.23509">
        <ele>1852.039</ele>
        <time>2023-07-09T15:18:57Z</time>
      </trkpt>
      <trkpt lat="42.90132" lon="0.23505">
        <ele>1851.969</ele>
        <time>2023-07-09T15:19:02Z</time>
      </trkpt>
      <trkpt lat="42.90137" lon="0.23507">
        <ele>1851.91</ele>
        <time>2023-07-09T15:19:07Z</time>
      </trkpt>
      <trkpt lat="42.90141" lon="0.23508">
        <ele>1851.922</ele>
        <time>2023-07-09T15:19:12Z</time>
      </trkpt>
      <trkpt lat="42.90146" lon="0.23507">
        <ele>1852.494</ele>
        <time>2023-07-09T15:19:16Z</time>
      </trkpt>
      <trkpt lat="42.9015" lon="0.23505">
        <ele>1852.485</ele>
        <time>2023-07-09T15:19:20Z</time>
      </trkpt>
      <trkpt lat="42.90156" lon="0.23505">
        <ele>1852.422</ele>
        <time>2023-07-09T15:19:26Z</time>
      </trkpt>
      <trkpt lat="42.90161" lon="0.23506">
        <ele>1852.462</ele>
        <time>2023-07-09T15:19:32Z</time>
      </trkpt>
      <trkpt lat="42.90166" lon="0.23507">
        <ele>1851.808</ele>
        <time>2023-07-09T15:19:40Z</time>
      </trkpt>
      <trkpt lat="42.90172" lon="0.23507">
        <ele>1851.309</ele>
        <time>2023-07-09T15:19:44Z</time>
      </trkpt>
      <trkpt lat="42.90177" lon="0.23502">
        <ele>1851.083</ele>
        <time>2023-07-09T15:19:51Z</time>
      </trkpt>
      <trkpt lat="42.90182" lon="0.23501">
        <ele>1849.446</ele>
        <time>2023-07-09T15:19:56Z</time>
      </trkpt>
      <trkpt lat="42.90186" lon="0.23505">
        <ele>1849.332</ele>
        <time>2023-07-09T15:20:01Z</time>
      </trkpt>
      <trkpt lat="42.90189" lon="0.23501">
        <ele>1849.143</ele>
        <time>2023-07-09T15:20:06Z</time>
      </trkpt>
      <trkpt lat="42.90193" lon="0.23498">
        <ele>1848.433</ele>
        <time>2023-07-09T15:20:11Z</time>
      </trkpt>
      <trkpt lat="42.90199" lon="0.23496">
        <ele>1847.284</ele>
        <time>2023-07-09T15:20:16Z</time>
      </trkpt>
      <trkpt lat="42.90204" lon="0.23497">
        <ele>1846.456</ele>
        <time>2023-07-09T15:20:20Z</time>
      </trkpt>
      <trkpt lat="42.90208" lon="0.235">
        <ele>1846.028</ele>
        <time>2023-07-09T15:20:25Z</time>
      </trkpt>
      <trkpt lat="42.90213" lon="0.23499">
        <ele>1845.969</ele>
        <time>2023-07-09T15:20:31Z</time>
      </trkpt>
      <trkpt lat="42.90218" lon="0.23498">
        <ele>1845.111</ele>
        <time>2023-07-09T15:20:37Z</time>
      </trkpt>
      <trkpt lat="42.90222" lon="0.23495">
        <ele>1843.521</ele>
        <time>2023-07-09T15:20:43Z</time>
      </trkpt>
      <trkpt lat="42.90227" lon="0.23497">
        <ele>1842.603</ele>
        <time>2023-07-09T15:20:50Z</time>
      </trkpt>
      <trkpt lat="42.9023" lon="0.23501">
        <ele>1841.409</ele>
        <time>2023-07-09T15:20:54Z</time>
      </trkpt>
      <trkpt lat="42.90234" lon="0.23497">
        <ele>1838.952</ele>
        <time>2023-07-09T15:20:58Z</time>
      </trkpt>
      <trkpt lat="42.9024" lon="0.23502">
        <ele>1836.945</ele>
        <time>2023-07-09T15:21:03Z</time>
      </trkpt>
      <trkpt lat="42.90245" lon="0.23501">
        <ele>1835.391</ele>
        <time>2023-07-09T15:21:09Z</time>
      </trkpt>
      <trkpt lat="42.90251" lon="0.23501">
        <ele>1834.152</ele>
        <time>2023-07-09T15:21:13Z</time>
      </trkpt>
      <trkpt lat="42.90256" lon="0.23502">
        <ele>1833.372</ele>
        <time>2023-07-09T15:21:17Z</time>
      </trkpt>
      <trkpt lat="42.90261" lon="0.23502">
        <ele>1832.073</ele>
        <time>2023-07-09T15:21:23Z</time>
      </trkpt>
      <trkpt lat="42.90267" lon="0.23501">
        <ele>1832.455</ele>
        <time>2023-07-09T15:21:28Z</time>
      </trkpt>
      <trkpt lat="42.90272" lon="0.235">
        <ele>1832.167</ele>
        <time>2023-07-09T15:21:36Z</time>
      </trkpt>
      <trkpt lat="42.90277" lon="0.23499">
        <ele>1832.068</ele>
        <time>2023-07-09T15:21:42Z</time>
      </trkpt>
      <trkpt lat="42.90283" lon="0.23499">
        <ele>1831.882</ele>
        <time>2023-07-09T15:21:47Z</time>
      </trkpt>
      <trkpt lat="42.90288" lon="0.23497">
        <ele>1831.843</ele>
        <time>2023-07-09T15:21:52Z</time>
      </trkpt>
      <trkpt lat="42.90293" lon="0.23498">
        <ele>1831.617</ele>
        <time>2023-07-09T15:21:58Z</time>
      </trkpt>
      <trkpt lat="42.90297" lon="0.23498">
        <ele>1831.309</ele>
        <time>2023-07-09T15:22:02Z</time>
      </trkpt>
      <trkpt lat="42.90302" lon="0.23502">
        <ele>1830.939</ele>
        <time>2023-07-09T15:22:09Z</time>
      </trkpt>
      <trkpt lat="42.90307" lon="0.23503">
        <ele>1830.322</ele>
        <time>2023-07-09T15:22:14Z</time>
      </trkpt>
      <trkpt lat="42.90312" lon="0.23506">
        <ele>1828.568</ele>
        <time>2023-07-09T15:22:19Z</time>
      </trkpt>
      <trkpt lat="42.90315" lon="0.23509">
        <ele>1826.619</ele>
        <time>2023-07-09T15:22:25Z</time>
      </trkpt>
      <trkpt lat="42.9032" lon="0.23512">
        <ele>1826.199</ele>
        <time>2023-07-09T15:22:29Z</time>
      </trkpt>
      <trkpt lat="42.90325" lon="0.23512">
        <ele>1825.11</ele>
        <time>2023-07-09T15:22:34Z</time>
      </trkpt>
      <trkpt lat="42.9033" lon="0.23513">
        <ele>1823.812</ele>
        <time>2023-07-09T15:22:39Z</time>
      </trkpt>
      <trkpt lat="42.90335" lon="0.23513">
        <ele>1823.364</ele>
        <time>2023-07-09T15:22:44Z</time>
      </trkpt>
      <trkpt lat="42.90341" lon="0.2351">
        <ele>1822.725</ele>
        <time>2023-07-09T15:22:49Z</time>
      </trkpt>
      <trkpt lat="42.90346" lon="0.2351">
        <ele>1822.087</ele>
        <time>2023-07-09T15:22:54Z</time>
      </trkpt>
      <trkpt lat="42.9035" lon="0.23508">
        <ele>1820.942</ele>
        <time>2023-07-09T15:22:59Z</time>
      </trkpt>
      <trkpt lat="42.90355" lon="0.23505">
        <ele>1819.926</ele>
        <time>2023-07-09T15:23:04Z</time>
      </trkpt>
      <trkpt lat="42.90359" lon="0.23501">
        <ele>1819.209</ele>
        <time>2023-07-09T15:23:08Z</time>
      </trkpt>
      <trkpt lat="42.90365" lon="0.23499">
        <ele>1818.639</ele>
        <time>2023-07-09T15:23:13Z</time>
      </trkpt>
      <trkpt lat="42.90367" lon="0.23493">
        <ele>1818.522</ele>
        <time>2023-07-09T15:23:18Z</time>
      </trkpt>
      <trkpt lat="42.90371" lon="0.23489">
        <ele>1818.428</ele>
        <time>2023-07-09T15:23:24Z</time>
      </trkpt>
      <trkpt lat="42.90377" lon="0.23487">
        <ele>1817.869</ele>
        <time>2023-07-09T15:23:31Z</time>
      </trkpt>
      <trkpt lat="42.90382" lon="0.23487">
        <ele>1816.929</ele>
        <time>2023-07-09T15:23:38Z</time>
      </trkpt>
      <trkpt lat="42.90387" lon="0.23487">
        <ele>1816.42</ele>
        <time>2023-07-09T15:23:53Z</time>
      </trkpt>
      <trkpt lat="42.90392" lon="0.23487">
        <ele>1815.672</ele>
        <time>2023-07-09T15:24:21Z</time>
      </trkpt>
      <trkpt lat="42.90395" lon="0.23492">
        <ele>1814.334</ele>
        <time>2023-07-09T15:24:28Z</time>
      </trkpt>
      <trkpt lat="42.904" lon="0.23492">
        <ele>1812.325</ele>
        <time>2023-07-09T15:24:55Z</time>
      </trkpt>
      <trkpt lat="42.90405" lon="0.23496">
        <ele>1809.049</ele>
        <time>2023-07-09T15:25:02Z</time>
      </trkpt>
      <trkpt lat="42.90409" lon="0.23497">
        <ele>1806.802</ele>
        <time>2023-07-09T15:25:08Z</time>
      </trkpt>
      <trkpt lat="42.90414" lon="0.235">
        <ele>1805.022</ele>
        <time>2023-07-09T15:25:14Z</time>
      </trkpt>
      <trkpt lat="42.90418" lon="0.23503">
        <ele>1803.109</ele>
        <time>2023-07-09T15:25:19Z</time>
      </trkpt>
      <trkpt lat="42.90423" lon="0.23501">
        <ele>1801.915</ele>
        <time>2023-07-09T15:25:23Z</time>
      </trkpt>
      <trkpt lat="42.90427" lon="0.23498">
        <ele>1800.478</ele>
        <time>2023-07-09T15:25:28Z</time>
      </trkpt>
      <trkpt lat="42.90431" lon="0.23496">
        <ele>1799.684</ele>
        <time>2023-07-09T15:25:34Z</time>
      </trkpt>
      <trkpt lat="42.90436" lon="0.23494">
        <ele>1798.825</ele>
        <time>2023-07-09T15:25:40Z</time>
      </trkpt>
      <trkpt lat="42.90441" lon="0.23495">
        <ele>1796.585</ele>
        <time>2023-07-09T15:25:46Z</time>
      </trkpt>
      <trkpt lat="42.90446" lon="0.23494">
        <ele>1794.746</ele>
        <time>2023-07-09T15:25:49Z</time>
      </trkpt>
      <trkpt lat="42.90451" lon="0.23492">
        <ele>1793.238</ele>
        <time>2023-07-09T15:25:53Z</time>
      </trkpt>
      <trkpt lat="42.90457" lon="0.23492">
        <ele>1792.06</ele>
        <time>2023-07-09T15:25:56Z</time>
      </trkpt>
      <trkpt lat="42.90462" lon="0.23493">
        <ele>1791.991</ele>
        <time>2023-07-09T15:26:01Z</time>
      </trkpt>
      <trkpt lat="42.90465" lon="0.23499">
        <ele>1791.721</ele>
        <time>2023-07-09T15:26:07Z</time>
      </trkpt>
      <trkpt lat="42.90466" lon="0.23506">
        <ele>1791.041</ele>
        <time>2023-07-09T15:26:10Z</time>
      </trkpt>
      <trkpt lat="42.90469" lon="0.23511">
        <ele>1789.105</ele>
        <time>2023-07-09T15:26:13Z</time>
      </trkpt>
      <trkpt lat="42.90472" lon="0.23517">
        <ele>1788.009</ele>
        <time>2023-07-09T15:26:18Z</time>
      </trkpt>
      <trkpt lat="42.90473" lon="0.23524">
        <ele>1787.543</ele>
        <time>2023-07-09T15:26:25Z</time>
      </trkpt>
      <trkpt lat="42.90476" lon="0.23529">
        <ele>1787.256</ele>
        <time>2023-07-09T15:26:31Z</time>
      </trkpt>
      <trkpt lat="42.90476" lon="0.23536">
        <ele>1785.932</ele>
        <time>2023-07-09T15:26:38Z</time>
      </trkpt>
      <trkpt lat="42.90471" lon="0.23537">
        <ele>1783.973</ele>
        <time>2023-07-09T15:26:43Z</time>
      </trkpt>
      <trkpt lat="42.9047" lon="0.23543">
        <ele>1782.153</ele>
        <time>2023-07-09T15:26:51Z</time>
      </trkpt>
      <trkpt lat="42.90467" lon="0.2355">
        <ele>1779.844</ele>
        <time>2023-07-09T15:27:05Z</time>
      </trkpt>
      <trkpt lat="42.90463" lon="0.23553">
        <ele>1777.526</ele>
        <time>2023-07-09T15:27:12Z</time>
      </trkpt>
      <trkpt lat="42.9046" lon="0.23558">
        <ele>1775.018</ele>
        <time>2023-07-09T15:27:18Z</time>
      </trkpt>
      <trkpt lat="42.90464" lon="0.23563">
        <ele>1773.079</ele>
        <time>2023-07-09T15:27:29Z</time>
      </trkpt>
      <trkpt lat="42.90469" lon="0.23566">
        <ele>1771.252</ele>
        <time>2023-07-09T15:27:36Z</time>
      </trkpt>
      <trkpt lat="42.90472" lon="0.2357">
        <ele>1769.953</ele>
        <time>2023-07-09T15:27:42Z</time>
      </trkpt>
      <trkpt lat="42.90477" lon="0.23571">
        <ele>1769.608</ele>
        <time>2023-07-09T15:28:32Z</time>
      </trkpt>
      <trkpt lat="42.90481" lon="0.23575">
        <ele>1768.909</ele>
        <time>2023-07-09T15:28:37Z</time>
      </trkpt>
      <trkpt lat="42.90487" lon="0.23576">
        <ele>1766.956</ele>
        <time>2023-07-09T15:28:46Z</time>
      </trkpt>
      <trkpt lat="42.90492" lon="0.23572">
        <ele>1765.379</ele>
        <time>2023-07-09T15:28:54Z</time>
      </trkpt>
      <trkpt lat="42.90496" lon="0.23568">
        <ele>1763.395</ele>
        <time>2023-07-09T15:28:58Z</time>
      </trkpt>
      <trkpt lat="42.905" lon="0.23563">
        <ele>1759.546</ele>
        <time>2023-07-09T15:29:04Z</time>
      </trkpt>
      <trkpt lat="42.90504" lon="0.23558">
        <ele>1759.266</ele>
        <time>2023-07-09T15:29:08Z</time>
      </trkpt>
      <trkpt lat="42.90509" lon="0.23558">
        <ele>1758.447</ele>
        <time>2023-07-09T15:29:12Z</time>
      </trkpt>
      <trkpt lat="42.90514" lon="0.23556">
        <ele>1757.319</ele>
        <time>2023-07-09T15:29:16Z</time>
      </trkpt>
      <trkpt lat="42.9052" lon="0.23555">
        <ele>1756.861</ele>
        <time>2023-07-09T15:29:20Z</time>
      </trkpt>
      <trkpt lat="42.90525" lon="0.23555">
        <ele>1756.892</ele>
        <time>2023-07-09T15:29:25Z</time>
      </trkpt>
      <trkpt lat="42.9053" lon="0.23553">
        <ele>1756.613</ele>
        <time>2023-07-09T15:29:29Z</time>
      </trkpt>
      <trkpt lat="42.90535" lon="0.23551">
        <ele>1756.243</ele>
        <time>2023-07-09T15:29:35Z</time>
      </trkpt>
      <trkpt lat="42.90539" lon="0.23548">
        <ele>1755.407</ele>
        <time>2023-07-09T15:29:40Z</time>
      </trkpt>
      <trkpt lat="42.90543" lon="0.23545">
        <ele>1754.009</ele>
        <time>2023-07-09T15:29:44Z</time>
      </trkpt>
      <trkpt lat="42.90547" lon="0.23539">
        <ele>1752.532</ele>
        <time>2023-07-09T15:29:50Z</time>
      </trkpt>
      <trkpt lat="42.90551" lon="0.23537">
        <ele>1751.765</ele>
        <time>2023-07-09T15:29:58Z</time>
      </trkpt>
      <trkpt lat="42.90556" lon="0.23534">
        <ele>1751.571</ele>
        <time>2023-07-09T15:30:04Z</time>
      </trkpt>
      <trkpt lat="42.90561" lon="0.23534">
        <ele>1751.362</ele>
        <time>2023-07-09T15:30:08Z</time>
      </trkpt>
      <trkpt lat="42.90566" lon="0.23534">
        <ele>1751.032</ele>
        <time>2023-07-09T15:30:12Z</time>
      </trkpt>
      <trkpt lat="42.9057" lon="0.2353">
        <ele>1750.873</ele>
        <time>2023-07-09T15:30:16Z</time>
      </trkpt>
      <trkpt lat="42.90574" lon="0.23528">
        <ele>1750.245</ele>
        <time>2023-07-09T15:30:21Z</time>
      </trkpt>
      <trkpt lat="42.90578" lon="0.23532">
        <ele>1749.697</ele>
        <time>2023-07-09T15:30:28Z</time>
      </trkpt>
      <trkpt lat="42.90582" lon="0.23537">
        <ele>1749.248</ele>
        <time>2023-07-09T15:30:31Z</time>
      </trkpt>
      <trkpt lat="42.90586" lon="0.23536">
        <ele>1747.369</ele>
        <time>2023-07-09T15:30:36Z</time>
      </trkpt>
      <trkpt lat="42.90592" lon="0.23538">
        <ele>1745.904</ele>
        <time>2023-07-09T15:30:40Z</time>
      </trkpt>
      <trkpt lat="42.90596" lon="0.23538">
        <ele>1745.424</ele>
        <time>2023-07-09T15:30:44Z</time>
      </trkpt>
      <trkpt lat="42.90602" lon="0.23539">
        <ele>1744.709</ele>
        <time>2023-07-09T15:30:48Z</time>
      </trkpt>
      <trkpt lat="42.90607" lon="0.23541">
        <ele>1744.237</ele>
        <time>2023-07-09T15:30:52Z</time>
      </trkpt>
      <trkpt lat="42.90613" lon="0.23542">
        <ele>1743.81</ele>
        <time>2023-07-09T15:30:56Z</time>
      </trkpt>
      <trkpt lat="42.90617" lon="0.23546">
        <ele>1743.746</ele>
        <time>2023-07-09T15:31:00Z</time>
      </trkpt>
      <trkpt lat="42.90622" lon="0.23548">
        <ele>1743.517</ele>
        <time>2023-07-09T15:31:04Z</time>
      </trkpt>
      <trkpt lat="42.90626" lon="0.23551">
        <ele>1743.057</ele>
        <time>2023-07-09T15:31:09Z</time>
      </trkpt>
      <trkpt lat="42.90631" lon="0.23553">
        <ele>1742.258</ele>
        <time>2023-07-09T15:31:14Z</time>
      </trkpt>
      <trkpt lat="42.90636" lon="0.23553">
        <ele>1741.83</ele>
        <time>2023-07-09T15:31:19Z</time>
      </trkpt>
      <trkpt lat="42.9064" lon="0.23551">
        <ele>1740.782</ele>
        <time>2023-07-09T15:31:25Z</time>
      </trkpt>
      <trkpt lat="42.90646" lon="0.23553">
        <ele>1739.043</ele>
        <time>2023-07-09T15:31:31Z</time>
      </trkpt>
      <trkpt lat="42.90651" lon="0.23553">
        <ele>1738.274</ele>
        <time>2023-07-09T15:31:35Z</time>
      </trkpt>
      <trkpt lat="42.90655" lon="0.23555">
        <ele>1737.256</ele>
        <time>2023-07-09T15:31:39Z</time>
      </trkpt>
      <trkpt lat="42.90658" lon="0.23559">
        <ele>1736.421</ele>
        <time>2023-07-09T15:31:42Z</time>
      </trkpt>
      <trkpt lat="42.90659" lon="0.23566">
        <ele>1736.309</ele>
        <time>2023-07-09T15:31:46Z</time>
      </trkpt>
      <trkpt lat="42.90662" lon="0.23571">
        <ele>1736.258</ele>
        <time>2023-07-09T15:31:51Z</time>
      </trkpt>
      <trkpt lat="42.90666" lon="0.23576">
        <ele>1736.081</ele>
        <time>2023-07-09T15:31:56Z</time>
      </trkpt>
      <trkpt lat="42.90669" lon="0.23582">
        <ele>1735.577</ele>
        <time>2023-07-09T15:32:01Z</time>
      </trkpt>
      <trkpt lat="42.90671" lon="0.23588">
        <ele>1734.678</ele>
        <time>2023-07-09T15:32:05Z</time>
      </trkpt>
      <trkpt lat="42.90673" lon="0.23595">
        <ele>1733.968</ele>
        <time>2023-07-09T15:32:09Z</time>
      </trkpt>
      <trkpt lat="42.90674" lon="0.23602">
        <ele>1733.339</ele>
        <time>2023-07-09T15:32:14Z</time>
      </trkpt>
      <trkpt lat="42.90676" lon="0.23608">
        <ele>1733.021</ele>
        <time>2023-07-09T15:32:18Z</time>
      </trkpt>
      <trkpt lat="42.90681" lon="0.2361">
        <ele>1732.673</ele>
        <time>2023-07-09T15:32:23Z</time>
      </trkpt>
      <trkpt lat="42.90684" lon="0.23615">
        <ele>1732.064</ele>
        <time>2023-07-09T15:32:29Z</time>
      </trkpt>
      <trkpt lat="42.90687" lon="0.23619">
        <ele>1731.691</ele>
        <time>2023-07-09T15:32:33Z</time>
      </trkpt>
      <trkpt lat="42.90692" lon="0.23623">
        <ele>1730.081</ele>
        <time>2023-07-09T15:32:38Z</time>
      </trkpt>
      <trkpt lat="42.90696" lon="0.23627">
        <ele>1729.119</ele>
        <time>2023-07-09T15:32:42Z</time>
      </trkpt>
      <trkpt lat="42.90699" lon="0.23634">
        <ele>1728.909</ele>
        <time>2023-07-09T15:32:47Z</time>
      </trkpt>
      <trkpt lat="42.90702" lon="0.23638">
        <ele>1728.97</ele>
        <time>2023-07-09T15:32:51Z</time>
      </trkpt>
      <trkpt lat="42.90705" lon="0.23645">
        <ele>1729.193</ele>
        <time>2023-07-09T15:32:56Z</time>
      </trkpt>
      <trkpt lat="42.90707" lon="0.23652">
        <ele>1729.179</ele>
        <time>2023-07-09T15:33:01Z</time>
      </trkpt>
      <trkpt lat="42.90708" lon="0.23658">
        <ele>1729.11</ele>
        <time>2023-07-09T15:33:05Z</time>
      </trkpt>
      <trkpt lat="42.90711" lon="0.23663">
        <ele>1729.13</ele>
        <time>2023-07-09T15:33:08Z</time>
      </trkpt>
      <trkpt lat="42.90714" lon="0.23669">
        <ele>1729.081</ele>
        <time>2023-07-09T15:33:12Z</time>
      </trkpt>
      <trkpt lat="42.90716" lon="0.23676">
        <ele>1729.033</ele>
        <time>2023-07-09T15:33:17Z</time>
      </trkpt>
      <trkpt lat="42.90718" lon="0.23682">
        <ele>1729.045</ele>
        <time>2023-07-09T15:33:21Z</time>
      </trkpt>
      <trkpt lat="42.9072" lon="0.23688">
        <ele>1729.066</ele>
        <time>2023-07-09T15:33:26Z</time>
      </trkpt>
      <trkpt lat="42.90723" lon="0.23695">
        <ele>1729.155</ele>
        <time>2023-07-09T15:33:31Z</time>
      </trkpt>
      <trkpt lat="42.90723" lon="0.23701">
        <ele>1729.107</ele>
        <time>2023-07-09T15:33:35Z</time>
      </trkpt>
      <trkpt lat="42.90724" lon="0.23708">
        <ele>1729.117</ele>
        <time>2023-07-09T15:33:39Z</time>
      </trkpt>
      <trkpt lat="42.90727" lon="0.23713">
        <ele>1729.009</ele>
        <time>2023-07-09T15:33:43Z</time>
      </trkpt>
      <trkpt lat="42.90731" lon="0.23719">
        <ele>1728.826</ele>
        <time>2023-07-09T15:33:49Z</time>
      </trkpt>
      <trkpt lat="42.90734" lon="0.23724">
        <ele>1728.789</ele>
        <time>2023-07-09T15:33:55Z</time>
      </trkpt>
      <trkpt lat="42.90739" lon="0.23726">
        <ele>1727.985</ele>
        <time>2023-07-09T15:33:59Z</time>
      </trkpt>
      <trkpt lat="42.90743" lon="0.23732">
        <ele>1726.286</ele>
        <time>2023-07-09T15:34:04Z</time>
      </trkpt>
      <trkpt lat="42.90746" lon="0.23737">
        <ele>1725.166</ele>
        <time>2023-07-09T15:34:11Z</time>
      </trkpt>
      <trkpt lat="42.90748" lon="0.23744">
        <ele>1724.437</ele>
        <time>2023-07-09T15:34:16Z</time>
      </trkpt>
      <trkpt lat="42.90748" lon="0.2375">
        <ele>1723.139</ele>
        <time>2023-07-09T15:34:20Z</time>
      </trkpt>
      <trkpt lat="42.90749" lon="0.23758">
        <ele>1722.471</ele>
        <time>2023-07-09T15:34:25Z</time>
      </trkpt>
      <trkpt lat="42.90749" lon="0.23764">
        <ele>1721.722</ele>
        <time>2023-07-09T15:34:30Z</time>
      </trkpt>
      <trkpt lat="42.9075" lon="0.23772">
        <ele>1720.763</ele>
        <time>2023-07-09T15:34:35Z</time>
      </trkpt>
      <trkpt lat="42.90751" lon="0.23778">
        <ele>1720.044</ele>
        <time>2023-07-09T15:34:40Z</time>
      </trkpt>
      <trkpt lat="42.90755" lon="0.23784">
        <ele>1719.118</ele>
        <time>2023-07-09T15:34:48Z</time>
      </trkpt>
      <trkpt lat="42.90756" lon="0.2379">
        <ele>1718.309</ele>
        <time>2023-07-09T15:34:52Z</time>
      </trkpt>
      <trkpt lat="42.90759" lon="0.23797">
        <ele>1717.347</ele>
        <time>2023-07-09T15:34:57Z</time>
      </trkpt>
      <trkpt lat="42.90762" lon="0.23802">
        <ele>1716.58</ele>
        <time>2023-07-09T15:35:03Z</time>
      </trkpt>
      <trkpt lat="42.90765" lon="0.23807">
        <ele>1716.056</ele>
        <time>2023-07-09T15:35:06Z</time>
      </trkpt>
      <trkpt lat="42.90768" lon="0.23812">
        <ele>1715.197</ele>
        <time>2023-07-09T15:35:12Z</time>
      </trkpt>
      <trkpt lat="42.90771" lon="0.23817">
        <ele>1714.497</ele>
        <time>2023-07-09T15:35:18Z</time>
      </trkpt>
      <trkpt lat="42.90774" lon="0.23822">
        <ele>1713.638</ele>
        <time>2023-07-09T15:35:23Z</time>
      </trkpt>
      <trkpt lat="42.90778" lon="0.23828">
        <ele>1712.03</ele>
        <time>2023-07-09T15:35:28Z</time>
      </trkpt>
      <trkpt lat="42.90781" lon="0.23833">
        <ele>1711.052</ele>
        <time>2023-07-09T15:35:33Z</time>
      </trkpt>
      <trkpt lat="42.90782" lon="0.23839">
        <ele>1709.853</ele>
        <time>2023-07-09T15:35:37Z</time>
      </trkpt>
      <trkpt lat="42.90783" lon="0.23845">
        <ele>1708.232</ele>
        <time>2023-07-09T15:35:43Z</time>
      </trkpt>
      <trkpt lat="42.90787" lon="0.2385">
        <ele>1707.592</ele>
        <time>2023-07-09T15:35:48Z</time>
      </trkpt>
      <trkpt lat="42.90789" lon="0.23856">
        <ele>1706.011</ele>
        <time>2023-07-09T15:35:53Z</time>
      </trkpt>
      <trkpt lat="42.90791" lon="0.23862">
        <ele>1703.909</ele>
        <time>2023-07-09T15:35:57Z</time>
      </trkpt>
      <trkpt lat="42.90791" lon="0.23868">
        <ele>1703.134</ele>
        <time>2023-07-09T15:36:02Z</time>
      </trkpt>
      <trkpt lat="42.9079" lon="0.23874">
        <ele>1702.617</ele>
        <time>2023-07-09T15:36:07Z</time>
      </trkpt>
      <trkpt lat="42.9079" lon="0.23881">
        <ele>1701.583</ele>
        <time>2023-07-09T15:36:13Z</time>
      </trkpt>
      <trkpt lat="42.9079" lon="0.23888">
        <ele>1699.894</ele>
        <time>2023-07-09T15:36:17Z</time>
      </trkpt>
      <trkpt lat="42.90791" lon="0.23895">
        <ele>1698.164</ele>
        <time>2023-07-09T15:36:22Z</time>
      </trkpt>
      <trkpt lat="42.90791" lon="0.23903">
        <ele>1696.395</ele>
        <time>2023-07-09T15:36:27Z</time>
      </trkpt>
      <trkpt lat="42.90792" lon="0.23911">
        <ele>1694.157</ele>
        <time>2023-07-09T15:36:31Z</time>
      </trkpt>
      <trkpt lat="42.90793" lon="0.23918">
        <ele>1694.029</ele>
        <time>2023-07-09T15:36:36Z</time>
      </trkpt>
      <trkpt lat="42.90795" lon="0.23925">
        <ele>1693.79</ele>
        <time>2023-07-09T15:36:41Z</time>
      </trkpt>
      <trkpt lat="42.90797" lon="0.23931">
        <ele>1692.157</ele>
        <time>2023-07-09T15:36:46Z</time>
      </trkpt>
      <trkpt lat="42.90798" lon="0.23938">
        <ele>1691.9</ele>
        <time>2023-07-09T15:36:51Z</time>
      </trkpt>
      <trkpt lat="42.90798" lon="0.23944">
        <ele>1691.32</ele>
        <time>2023-07-09T15:36:55Z</time>
      </trkpt>
      <trkpt lat="42.90798" lon="0.23951">
        <ele>1690.309</ele>
        <time>2023-07-09T15:36:58Z</time>
      </trkpt>
      <trkpt lat="42.90799" lon="0.23958">
        <ele>1689.486</ele>
        <time>2023-07-09T15:37:02Z</time>
      </trkpt>
      <trkpt lat="42.908" lon="0.23965">
        <ele>1688.989</ele>
        <time>2023-07-09T15:37:07Z</time>
      </trkpt>
      <trkpt lat="42.90802" lon="0.23971">
        <ele>1688.565</ele>
        <time>2023-07-09T15:37:12Z</time>
      </trkpt>
      <trkpt lat="42.90804" lon="0.23977">
        <ele>1687.546</ele>
        <time>2023-07-09T15:37:16Z</time>
      </trkpt>
      <trkpt lat="42.90806" lon="0.23983">
        <ele>1685.916</ele>
        <time>2023-07-09T15:37:21Z</time>
      </trkpt>
      <trkpt lat="42.90809" lon="0.23988">
        <ele>1684.837</ele>
        <time>2023-07-09T15:37:25Z</time>
      </trkpt>
      <trkpt lat="42.90809" lon="0.23996">
        <ele>1684.249</ele>
        <time>2023-07-09T15:37:29Z</time>
      </trkpt>
      <trkpt lat="42.90807" lon="0.24002">
        <ele>1683.551</ele>
        <time>2023-07-09T15:37:34Z</time>
      </trkpt>
      <trkpt lat="42.90809" lon="0.24009">
        <ele>1683.052</ele>
        <time>2023-07-09T15:37:39Z</time>
      </trkpt>
      <trkpt lat="42.90809" lon="0.24016">
        <ele>1681.372</ele>
        <time>2023-07-09T15:37:44Z</time>
      </trkpt>
      <trkpt lat="42.90811" lon="0.24023">
        <ele>1679.413</ele>
        <time>2023-07-09T15:37:49Z</time>
      </trkpt>
      <trkpt lat="42.90812" lon="0.24029">
        <ele>1678.114</ele>
        <time>2023-07-09T15:37:55Z</time>
      </trkpt>
      <trkpt lat="42.90812" lon="0.24035">
        <ele>1676.409</ele>
        <time>2023-07-09T15:38:00Z</time>
      </trkpt>
      <trkpt lat="42.90815" lon="0.24041">
        <ele>1675.288</ele>
        <time>2023-07-09T15:38:04Z</time>
      </trkpt>
      <trkpt lat="42.90818" lon="0.24048">
        <ele>1674.661</ele>
        <time>2023-07-09T15:38:08Z</time>
      </trkpt>
      <trkpt lat="42.90822" lon="0.24051">
        <ele>1674.597</ele>
        <time>2023-07-09T15:38:12Z</time>
      </trkpt>
      <trkpt lat="42.90825" lon="0.24047">
        <ele>1674.528</ele>
        <time>2023-07-09T15:38:15Z</time>
      </trkpt>
      <trkpt lat="42.90829" lon="0.24041">
        <ele>1674.298</ele>
        <time>2023-07-09T15:38:20Z</time>
      </trkpt>
      <trkpt lat="42.90832" lon="0.24035">
        <ele>1674.289</ele>
        <time>2023-07-09T15:38:25Z</time>
      </trkpt>
      <trkpt lat="42.90835" lon="0.24029">
        <ele>1672.851</ele>
        <time>2023-07-09T15:38:30Z</time>
      </trkpt>
      <trkpt lat="42.90836" lon="0.24022">
        <ele>1670.993</ele>
        <time>2023-07-09T15:38:35Z</time>
      </trkpt>
      <trkpt lat="42.90839" lon="0.24017">
        <ele>1669.724</ele>
        <time>2023-07-09T15:38:40Z</time>
      </trkpt>
      <trkpt lat="42.90842" lon="0.24011">
        <ele>1668.743</ele>
        <time>2023-07-09T15:38:44Z</time>
      </trkpt>
      <trkpt lat="42.90846" lon="0.24006">
        <ele>1668.764</ele>
        <time>2023-07-09T15:38:47Z</time>
      </trkpt>
      <trkpt lat="42.90841" lon="0.24006">
        <ele>1668.71</ele>
        <time>2023-07-09T15:41:29Z</time>
      </trkpt>
      <trkpt lat="42.90845" lon="0.24">
        <ele>1668.709</ele>
        <time>2023-07-09T15:41:44Z</time>
      </trkpt>
      <trkpt lat="42.90849" lon="0.23994">
        <ele>1670.235</ele>
        <time>2023-07-09T15:41:47Z</time>
      </trkpt>
      <trkpt lat="42.90852" lon="0.2399">
        <ele>1670.498</ele>
        <time>2023-07-09T15:41:50Z</time>
      </trkpt>
      <trkpt lat="42.90856" lon="0.23985">
        <ele>1670.414</ele>
        <time>2023-07-09T15:41:54Z</time>
      </trkpt>
      <trkpt lat="42.90859" lon="0.2398">
        <ele>1670.445</ele>
        <time>2023-07-09T15:41:59Z</time>
      </trkpt>
      <trkpt lat="42.90863" lon="0.23975">
        <ele>1670.355</ele>
        <time>2023-07-09T15:42:02Z</time>
      </trkpt>
      <trkpt lat="42.90866" lon="0.2397">
        <ele>1670.036</ele>
        <time>2023-07-09T15:42:06Z</time>
      </trkpt>
      <trkpt lat="42.90869" lon="0.23965">
        <ele>1669.668</ele>
        <time>2023-07-09T15:42:09Z</time>
      </trkpt>
      <trkpt lat="42.90872" lon="0.23959">
        <ele>1669.49</ele>
        <time>2023-07-09T15:42:13Z</time>
      </trkpt>
      <trkpt lat="42.90875" lon="0.23955">
        <ele>1669.241</ele>
        <time>2023-07-09T15:42:17Z</time>
      </trkpt>
      <trkpt lat="42.90878" lon="0.23949">
        <ele>1668.623</ele>
        <time>2023-07-09T15:42:23Z</time>
      </trkpt>
      <trkpt lat="42.90881" lon="0.23942">
        <ele>1668.083</ele>
        <time>2023-07-09T15:42:28Z</time>
      </trkpt>
      <trkpt lat="42.90883" lon="0.23936">
        <ele>1667.811</ele>
        <time>2023-07-09T15:42:34Z</time>
      </trkpt>
      <trkpt lat="42.90888" lon="0.23936">
        <ele>1667.809</ele>
        <time>2023-07-09T15:42:37Z</time>
      </trkpt>
      <trkpt lat="42.90893" lon="0.23936">
        <ele>1667.813</ele>
        <time>2023-07-09T15:42:42Z</time>
      </trkpt>
      <trkpt lat="42.90898" lon="0.23936">
        <ele>1667.616</ele>
        <time>2023-07-09T15:42:49Z</time>
      </trkpt>
      <trkpt lat="42.90903" lon="0.23939">
        <ele>1667.962</ele>
        <time>2023-07-09T15:42:53Z</time>
      </trkpt>
      <trkpt lat="42.90906" lon="0.23945">
        <ele>1667.953</ele>
        <time>2023-07-09T15:42:56Z</time>
      </trkpt>
      <trkpt lat="42.9091" lon="0.23947">
        <ele>1667.913</ele>
        <time>2023-07-09T15:43:01Z</time>
      </trkpt>
      <trkpt lat="42.90914" lon="0.2395">
        <ele>1667.534</ele>
        <time>2023-07-09T15:43:05Z</time>
      </trkpt>
      <trkpt lat="42.90918" lon="0.23955">
        <ele>1667.046</ele>
        <time>2023-07-09T15:43:10Z</time>
      </trkpt>
      <trkpt lat="42.90922" lon="0.23959">
        <ele>1667.278</ele>
        <time>2023-07-09T15:43:15Z</time>
      </trkpt>
      <trkpt lat="42.90927" lon="0.23963">
        <ele>1667.019</ele>
        <time>2023-07-09T15:43:19Z</time>
      </trkpt>
      <trkpt lat="42.90932" lon="0.23968">
        <ele>1667.083</ele>
        <time>2023-07-09T15:43:23Z</time>
      </trkpt>
      <trkpt lat="42.90936" lon="0.23973">
        <ele>1666.725</ele>
        <time>2023-07-09T15:43:29Z</time>
      </trkpt>
      <trkpt lat="42.90941" lon="0.23975">
        <ele>1667.317</ele>
        <time>2023-07-09T15:43:33Z</time>
      </trkpt>
      <trkpt lat="42.90945" lon="0.23981">
        <ele>1667.409</ele>
        <time>2023-07-09T15:43:38Z</time>
      </trkpt>
      <trkpt lat="42.90948" lon="0.23985">
        <ele>1667.879</ele>
        <time>2023-07-09T15:43:42Z</time>
      </trkpt>
      <trkpt lat="42.90952" lon="0.23989">
        <ele>1667.632</ele>
        <time>2023-07-09T15:43:47Z</time>
      </trkpt>
      <trkpt lat="42.90957" lon="0.23994">
        <ele>1667.238</ele>
        <time>2023-07-09T15:43:51Z</time>
      </trkpt>
      <trkpt lat="42.9096" lon="0.23999">
        <ele>1667.249</ele>
        <time>2023-07-09T15:43:57Z</time>
      </trkpt>
      <trkpt lat="42.90964" lon="0.24002">
        <ele>1666.699</ele>
        <time>2023-07-09T15:44:01Z</time>
      </trkpt>
      <trkpt lat="42.90969" lon="0.24006">
        <ele>1665.45</ele>
        <time>2023-07-09T15:44:05Z</time>
      </trkpt>
      <trkpt lat="42.90973" lon="0.24008">
        <ele>1664.252</ele>
        <time>2023-07-09T15:44:09Z</time>
      </trkpt>
      <trkpt lat="42.90977" lon="0.24012">
        <ele>1664.014</ele>
        <time>2023-07-09T15:44:13Z</time>
      </trkpt>
      <trkpt lat="42.90981" lon="0.24016">
        <ele>1663.675</ele>
        <time>2023-07-09T15:44:17Z</time>
      </trkpt>
      <trkpt lat="42.90985" lon="0.24021">
        <ele>1663.453</ele>
        <time>2023-07-09T15:44:22Z</time>
      </trkpt>
      <trkpt lat="42.9099" lon="0.24025">
        <ele>1663.304</ele>
        <time>2023-07-09T15:44:27Z</time>
      </trkpt>
      <trkpt lat="42.90994" lon="0.24028">
        <ele>1662.914</ele>
        <time>2023-07-09T15:44:31Z</time>
      </trkpt>
      <trkpt lat="42.90998" lon="0.24031">
        <ele>1662.309</ele>
        <time>2023-07-09T15:44:35Z</time>
      </trkpt>
      <trkpt lat="42.91002" lon="0.24036">
        <ele>1661.876</ele>
        <time>2023-07-09T15:44:40Z</time>
      </trkpt>
      <trkpt lat="42.91005" lon="0.24042">
        <ele>1661.499</ele>
        <time>2023-07-09T15:44:45Z</time>
      </trkpt>
      <trkpt lat="42.91008" lon="0.24048">
        <ele>1660.625</ele>
        <time>2023-07-09T15:44:49Z</time>
      </trkpt>
      <trkpt lat="42.9101" lon="0.24054">
        <ele>1659.986</ele>
        <time>2023-07-09T15:44:53Z</time>
      </trkpt>
      <trkpt lat="42.91013" lon="0.24059">
        <ele>1659.666</ele>
        <time>2023-07-09T15:44:57Z</time>
      </trkpt>
      <trkpt lat="42.91016" lon="0.24064">
        <ele>1659.367</ele>
        <time>2023-07-09T15:45:01Z</time>
      </trkpt>
      <trkpt lat="42.9102" lon="0.24069">
        <ele>1659.049</ele>
        <time>2023-07-09T15:45:07Z</time>
      </trkpt>
      <trkpt lat="42.91023" lon="0.24075">
        <ele>1658.911</ele>
        <time>2023-07-09T15:45:12Z</time>
      </trkpt>
      <trkpt lat="42.91027" lon="0.24081">
        <ele>1658.872</ele>
        <time>2023-07-09T15:45:17Z</time>
      </trkpt>
      <trkpt lat="42.9103" lon="0.24085">
        <ele>1658.452</ele>
        <time>2023-07-09T15:45:21Z</time>
      </trkpt>
      <trkpt lat="42.91035" lon="0.24089">
        <ele>1657.453</ele>
        <time>2023-07-09T15:45:26Z</time>
      </trkpt>
      <trkpt lat="42.91038" lon="0.24094">
        <ele>1656.408</ele>
        <time>2023-07-09T15:45:30Z</time>
      </trkpt>
      <trkpt lat="42.91041" lon="0.24099">
        <ele>1656.009</ele>
        <time>2023-07-09T15:45:34Z</time>
      </trkpt>
      <trkpt lat="42.91044" lon="0.24104">
        <ele>1656.066</ele>
        <time>2023-07-09T15:45:37Z</time>
      </trkpt>
      <trkpt lat="42.91048" lon="0.24109">
        <ele>1655.889</ele>
        <time>2023-07-09T15:45:43Z</time>
      </trkpt>
      <trkpt lat="42.91052" lon="0.24114">
        <ele>1655.835</ele>
        <time>2023-07-09T15:45:47Z</time>
      </trkpt>
      <trkpt lat="42.91056" lon="0.24118">
        <ele>1655.696</ele>
        <time>2023-07-09T15:45:53Z</time>
      </trkpt>
      <trkpt lat="42.91058" lon="0.24125">
        <ele>1655.236</ele>
        <time>2023-07-09T15:45:57Z</time>
      </trkpt>
      <trkpt lat="42.91061" lon="0.24131">
        <ele>1654.757</ele>
        <time>2023-07-09T15:46:03Z</time>
      </trkpt>
      <trkpt lat="42.91064" lon="0.24137">
        <ele>1654.349</ele>
        <time>2023-07-09T15:46:07Z</time>
      </trkpt>
      <trkpt lat="42.91068" lon="0.24141">
        <ele>1654.111</ele>
        <time>2023-07-09T15:46:13Z</time>
      </trkpt>
      <trkpt lat="42.91072" lon="0.24147">
        <ele>1653.532</ele>
        <time>2023-07-09T15:46:18Z</time>
      </trkpt>
      <trkpt lat="42.91074" lon="0.24153">
        <ele>1652.324</ele>
        <time>2023-07-09T15:46:23Z</time>
      </trkpt>
      <trkpt lat="42.91075" lon="0.2416">
        <ele>1651.204</ele>
        <time>2023-07-09T15:46:27Z</time>
      </trkpt>
      <trkpt lat="42.91076" lon="0.24167">
        <ele>1650.414</ele>
        <time>2023-07-09T15:46:32Z</time>
      </trkpt>
      <trkpt lat="42.91077" lon="0.24173">
        <ele>1649.509</ele>
        <time>2023-07-09T15:46:37Z</time>
      </trkpt>
      <trkpt lat="42.91078" lon="0.2418">
        <ele>1648.213</ele>
        <time>2023-07-09T15:46:42Z</time>
      </trkpt>
      <trkpt lat="42.91079" lon="0.24186">
        <ele>1646.886</ele>
        <time>2023-07-09T15:46:46Z</time>
      </trkpt>
      <trkpt lat="42.9108" lon="0.24193">
        <ele>1645.452</ele>
        <time>2023-07-09T15:46:51Z</time>
      </trkpt>
      <trkpt lat="42.91081" lon="0.24199">
        <ele>1644.683</ele>
        <time>2023-07-09T15:46:55Z</time>
      </trkpt>
      <trkpt lat="42.91083" lon="0.24206">
        <ele>1644.083</ele>
        <time>2023-07-09T15:47:00Z</time>
      </trkpt>
      <trkpt lat="42.91087" lon="0.2421">
        <ele>1642.714</ele>
        <time>2023-07-09T15:47:06Z</time>
      </trkpt>
      <trkpt lat="42.91095" lon="0.24209">
        <ele>1641.036</ele>
        <time>2023-07-09T15:47:14Z</time>
      </trkpt>
      <trkpt lat="42.91095" lon="0.24216">
        <ele>1639.148</ele>
        <time>2023-07-09T15:47:18Z</time>
      </trkpt>
      <trkpt lat="42.91096" lon="0.24222">
        <ele>1637.079</ele>
        <time>2023-07-09T15:47:22Z</time>
      </trkpt>
      <trkpt lat="42.911" lon="0.24227">
        <ele>1635.789</ele>
        <time>2023-07-09T15:47:29Z</time>
      </trkpt>
      <trkpt lat="42.91106" lon="0.24229">
        <ele>1635.606</ele>
        <time>2023-07-09T15:47:36Z</time>
      </trkpt>
      <trkpt lat="42.9111" lon="0.24233">
        <ele>1634.726</ele>
        <time>2023-07-09T15:47:42Z</time>
      </trkpt>
      <trkpt lat="42.91114" lon="0.24236">
        <ele>1632.809</ele>
        <time>2023-07-09T15:47:48Z</time>
      </trkpt>
      <trkpt lat="42.91117" lon="0.24242">
        <ele>1630.649</ele>
        <time>2023-07-09T15:47:54Z</time>
      </trkpt>
      <trkpt lat="42.91121" lon="0.24245">
        <ele>1628.262</ele>
        <time>2023-07-09T15:47:59Z</time>
      </trkpt>
      <trkpt lat="42.91124" lon="0.2425">
        <ele>1626.038</ele>
        <time>2023-07-09T15:48:04Z</time>
      </trkpt>
      <trkpt lat="42.91125" lon="0.24256">
        <ele>1623.869</ele>
        <time>2023-07-09T15:48:08Z</time>
      </trkpt>
      <trkpt lat="42.91129" lon="0.24261">
        <ele>1621.719</ele>
        <time>2023-07-09T15:48:14Z</time>
      </trkpt>
      <trkpt lat="42.91133" lon="0.24266">
        <ele>1620.88</ele>
        <time>2023-07-09T15:48:20Z</time>
      </trkpt>
      <trkpt lat="42.91136" lon="0.24272">
        <ele>1620.162</ele>
        <time>2023-07-09T15:48:25Z</time>
      </trkpt>
      <trkpt lat="42.91139" lon="0.24279">
        <ele>1618.594</ele>
        <time>2023-07-09T15:48:30Z</time>
      </trkpt>
      <trkpt lat="42.91141" lon="0.24284">
        <ele>1616.825</ele>
        <time>2023-07-09T15:48:34Z</time>
      </trkpt>
      <trkpt lat="42.91145" lon="0.24288">
        <ele>1615.317</ele>
        <time>2023-07-09T15:48:39Z</time>
      </trkpt>
      <trkpt lat="42.9115" lon="0.2429">
        <ele>1614.387</ele>
        <time>2023-07-09T15:48:46Z</time>
      </trkpt>
      <trkpt lat="42.91152" lon="0.24295">
        <ele>1613.115</ele>
        <time>2023-07-09T15:48:51Z</time>
      </trkpt>
      <trkpt lat="42.91154" lon="0.24301">
        <ele>1610.609</ele>
        <time>2023-07-09T15:48:54Z</time>
      </trkpt>
      <trkpt lat="42.91158" lon="0.24307">
        <ele>1608.412</ele>
        <time>2023-07-09T15:48:59Z</time>
      </trkpt>
      <trkpt lat="42.91163" lon="0.24311">
        <ele>1607.645</ele>
        <time>2023-07-09T15:49:03Z</time>
      </trkpt>
      <trkpt lat="42.91167" lon="0.24316">
        <ele>1607.091</ele>
        <time>2023-07-09T15:49:07Z</time>
      </trkpt>
      <trkpt lat="42.91171" lon="0.24319">
        <ele>1606.042</ele>
        <time>2023-07-09T15:49:11Z</time>
      </trkpt>
      <trkpt lat="42.91175" lon="0.24322">
        <ele>1605.192</ele>
        <time>2023-07-09T15:49:16Z</time>
      </trkpt>
      <trkpt lat="42.9118" lon="0.24323">
        <ele>1604.473</ele>
        <time>2023-07-09T15:49:20Z</time>
      </trkpt>
      <trkpt lat="42.91184" lon="0.24324">
        <ele>1603.975</ele>
        <time>2023-07-09T15:49:24Z</time>
      </trkpt>
      <trkpt lat="42.91189" lon="0.24323">
        <ele>1603.337</ele>
        <time>2023-07-09T15:49:29Z</time>
      </trkpt>
      <trkpt lat="42.91194" lon="0.24324">
        <ele>1602.438</ele>
        <time>2023-07-09T15:49:34Z</time>
      </trkpt>
      <trkpt lat="42.91199" lon="0.24325">
        <ele>1601.128</ele>
        <time>2023-07-09T15:49:40Z</time>
      </trkpt>
      <trkpt lat="42.91204" lon="0.24325">
        <ele>1600.289</ele>
        <time>2023-07-09T15:49:45Z</time>
      </trkpt>
      <trkpt lat="42.91209" lon="0.24326">
        <ele>1599.417</ele>
        <time>2023-07-09T15:49:50Z</time>
      </trkpt>
      <trkpt lat="42.91213" lon="0.24326">
        <ele>1598.109</ele>
        <time>2023-07-09T15:49:55Z</time>
      </trkpt>
      <trkpt lat="42.91218" lon="0.24327">
        <ele>1597.343</ele>
        <time>2023-07-09T15:50:01Z</time>
      </trkpt>
      <trkpt lat="42.91223" lon="0.2433">
        <ele>1596.746</ele>
        <time>2023-07-09T15:50:05Z</time>
      </trkpt>
      <trkpt lat="42.91228" lon="0.24332">
        <ele>1595.732</ele>
        <time>2023-07-09T15:50:10Z</time>
      </trkpt>
      <trkpt lat="42.91233" lon="0.24333">
        <ele>1595.093</ele>
        <time>2023-07-09T15:50:15Z</time>
      </trkpt>
      <trkpt lat="42.91239" lon="0.24335">
        <ele>1595.093</ele>
        <time>2023-07-09T15:50:20Z</time>
      </trkpt>
      <trkpt lat="42.91244" lon="0.24338">
        <ele>1594.154</ele>
        <time>2023-07-09T15:50:26Z</time>
      </trkpt>
      <trkpt lat="42.91248" lon="0.2434">
        <ele>1594.456</ele>
        <time>2023-07-09T15:50:29Z</time>
      </trkpt>
      <trkpt lat="42.91252" lon="0.24344">
        <ele>1593.968</ele>
        <time>2023-07-09T15:50:36Z</time>
      </trkpt>
      <trkpt lat="42.91258" lon="0.24344">
        <ele>1593.549</ele>
        <time>2023-07-09T15:50:40Z</time>
      </trkpt>
      <trkpt lat="42.91263" lon="0.24345">
        <ele>1592.797</ele>
        <time>2023-07-09T15:50:45Z</time>
      </trkpt>
      <trkpt lat="42.91268" lon="0.24347">
        <ele>1592.123</ele>
        <time>2023-07-09T15:50:50Z</time>
      </trkpt>
      <trkpt lat="42.91273" lon="0.24348">
        <ele>1591.825</ele>
        <time>2023-07-09T15:50:55Z</time>
      </trkpt>
      <trkpt lat="42.91278" lon="0.2435">
        <ele>1591.509</ele>
        <time>2023-07-09T15:51:00Z</time>
      </trkpt>
      <trkpt lat="42.91282" lon="0.24351">
        <ele>1591.31</ele>
        <time>2023-07-09T15:51:04Z</time>
      </trkpt>
      <trkpt lat="42.91287" lon="0.24353">
        <ele>1591.023</ele>
        <time>2023-07-09T15:51:08Z</time>
      </trkpt>
      <trkpt lat="42.91293" lon="0.24354">
        <ele>1590.959</ele>
        <time>2023-07-09T15:51:13Z</time>
      </trkpt>
      <trkpt lat="42.91297" lon="0.24359">
        <ele>1591.08</ele>
        <time>2023-07-09T15:51:19Z</time>
      </trkpt>
      <trkpt lat="42.91301" lon="0.24363">
        <ele>1590.78</ele>
        <time>2023-07-09T15:51:26Z</time>
      </trkpt>
      <trkpt lat="42.91307" lon="0.24365">
        <ele>1590.091</ele>
        <time>2023-07-09T15:51:32Z</time>
      </trkpt>
      <trkpt lat="42.91312" lon="0.24367">
        <ele>1590.083</ele>
        <time>2023-07-09T15:51:36Z</time>
      </trkpt>
      <trkpt lat="42.91317" lon="0.24366">
        <ele>1589.815</ele>
        <time>2023-07-09T15:51:40Z</time>
      </trkpt>
      <trkpt lat="42.91322" lon="0.24365">
        <ele>1589.346</ele>
        <time>2023-07-09T15:51:44Z</time>
      </trkpt>
      <trkpt lat="42.91327" lon="0.24363">
        <ele>1588.961</ele>
        <time>2023-07-09T15:51:48Z</time>
      </trkpt>
      <trkpt lat="42.91333" lon="0.24365">
        <ele>1588.421</ele>
        <time>2023-07-09T15:51:52Z</time>
      </trkpt>
      <trkpt lat="42.91339" lon="0.24366">
        <ele>1588.313</ele>
        <time>2023-07-09T15:51:57Z</time>
      </trkpt>
      <trkpt lat="42.91343" lon="0.24366">
        <ele>1588.009</ele>
        <time>2023-07-09T15:52:01Z</time>
      </trkpt>
      <trkpt lat="42.91348" lon="0.24367">
        <ele>1587.527</ele>
        <time>2023-07-09T15:52:05Z</time>
      </trkpt>
      <trkpt lat="42.91353" lon="0.24369">
        <ele>1587.19</ele>
        <time>2023-07-09T15:52:09Z</time>
      </trkpt>
      <trkpt lat="42.91358" lon="0.2437">
        <ele>1587.086</ele>
        <time>2023-07-09T15:52:14Z</time>
      </trkpt>
      <trkpt lat="42.91363" lon="0.24371">
        <ele>1586.617</ele>
        <time>2023-07-09T15:52:18Z</time>
      </trkpt>
      <trkpt lat="42.91371" lon="0.24371">
        <ele>1586.457</ele>
        <time>2023-07-09T15:52:23Z</time>
      </trkpt>
      <trkpt lat="42.91377" lon="0.24371">
        <ele>1585.948</ele>
        <time>2023-07-09T15:52:28Z</time>
      </trkpt>
      <trkpt lat="42.91382" lon="0.24371">
        <ele>1585.94</ele>
        <time>2023-07-09T15:52:31Z</time>
      </trkpt>
      <trkpt lat="42.91387" lon="0.24371">
        <ele>1585.912</ele>
        <time>2023-07-09T15:52:35Z</time>
      </trkpt>
      <trkpt lat="42.91392" lon="0.2437">
        <ele>1585.933</ele>
        <time>2023-07-09T15:52:39Z</time>
      </trkpt>
      <trkpt lat="42.91397" lon="0.24368">
        <ele>1585.719</ele>
        <time>2023-07-09T15:52:42Z</time>
      </trkpt>
      <trkpt lat="42.91401" lon="0.24371">
        <ele>1585.509</ele>
        <time>2023-07-09T15:53:20Z</time>
      </trkpt>
      <trkpt lat="42.91406" lon="0.24369">
        <ele>1585.119</ele>
        <time>2023-07-09T15:54:17Z</time>
      </trkpt>
      <trkpt lat="42.91411" lon="0.24369">
        <ele>1584.509</ele>
        <time>2023-07-09T15:54:22Z</time>
      </trkpt>
      <trkpt lat="42.91415" lon="0.24368">
        <ele>1583.862</ele>
        <time>2023-07-09T15:54:25Z</time>
      </trkpt>
      <trkpt lat="42.91422" lon="0.24369">
        <ele>1583.315</ele>
        <time>2023-07-09T15:54:30Z</time>
      </trkpt>
      <trkpt lat="42.91428" lon="0.24369">
        <ele>1583.321</ele>
        <time>2023-07-09T15:54:40Z</time>
      </trkpt>
      <trkpt lat="42.91433" lon="0.24368">
        <ele>1583.322</ele>
        <time>2023-07-09T15:54:44Z</time>
      </trkpt>
      <trkpt lat="42.91438" lon="0.24369">
        <ele>1583.312</ele>
        <time>2023-07-09T15:54:47Z</time>
      </trkpt>
      <trkpt lat="42.91444" lon="0.2437">
        <ele>1582.713</ele>
        <time>2023-07-09T15:54:52Z</time>
      </trkpt>
      <trkpt lat="42.91449" lon="0.24368">
        <ele>1582.715</ele>
        <time>2023-07-09T15:54:55Z</time>
      </trkpt>
      <trkpt lat="42.91453" lon="0.24367">
        <ele>1582.667</ele>
        <time>2023-07-09T15:54:58Z</time>
      </trkpt>
      <trkpt lat="42.91458" lon="0.24367">
        <ele>1582.418</ele>
        <time>2023-07-09T15:55:01Z</time>
      </trkpt>
      <trkpt lat="42.91463" lon="0.24364">
        <ele>1582.587</ele>
        <time>2023-07-09T15:55:05Z</time>
      </trkpt>
      <trkpt lat="42.91469" lon="0.24362">
        <ele>1582.342</ele>
        <time>2023-07-09T15:55:09Z</time>
      </trkpt>
      <trkpt lat="42.91475" lon="0.24363">
        <ele>1582.126</ele>
        <time>2023-07-09T15:55:15Z</time>
      </trkpt>
      <trkpt lat="42.9148" lon="0.2436">
        <ele>1581.909</ele>
        <time>2023-07-09T15:55:19Z</time>
      </trkpt>
      <trkpt lat="42.91485" lon="0.24358">
        <ele>1581.719</ele>
        <time>2023-07-09T15:55:24Z</time>
      </trkpt>
      <trkpt lat="42.91488" lon="0.24353">
        <ele>1581.362</ele>
        <time>2023-07-09T15:55:28Z</time>
      </trkpt>
      <trkpt lat="42.91493" lon="0.24354">
        <ele>1581.348</ele>
        <time>2023-07-09T15:55:32Z</time>
      </trkpt>
      <trkpt lat="42.91498" lon="0.24351">
        <ele>1581.069</ele>
        <time>2023-07-09T15:55:37Z</time>
      </trkpt>
      <trkpt lat="42.91504" lon="0.24354">
        <ele>1580.429</ele>
        <time>2023-07-09T15:55:41Z</time>
      </trkpt>
      <trkpt lat="42.91509" lon="0.24353">
        <ele>1580.01</ele>
        <time>2023-07-09T15:55:46Z</time>
      </trkpt>
      <trkpt lat="42.91514" lon="0.2435">
        <ele>1579.162</ele>
        <time>2023-07-09T15:55:50Z</time>
      </trkpt>
      <trkpt lat="42.91519" lon="0.24351">
        <ele>1579.164</ele>
        <time>2023-07-09T15:55:53Z</time>
      </trkpt>
      <trkpt lat="42.91525" lon="0.24348">
        <ele>1579.445</ele>
        <time>2023-07-09T15:55:58Z</time>
      </trkpt>
      <trkpt lat="42.9153" lon="0.24347">
        <ele>1579.134</ele>
        <time>2023-07-09T15:56:02Z</time>
      </trkpt>
      <trkpt lat="42.91535" lon="0.24347">
        <ele>1578.855</ele>
        <time>2023-07-09T15:56:06Z</time>
      </trkpt>
      <trkpt lat="42.9154" lon="0.24347">
        <ele>1578.61</ele>
        <time>2023-07-09T15:56:10Z</time>
      </trkpt>
      <trkpt lat="42.91546" lon="0.24346">
        <ele>1578.609</ele>
        <time>2023-07-09T15:56:14Z</time>
      </trkpt>
      <trkpt lat="42.9155" lon="0.24344">
        <ele>1578.234</ele>
        <time>2023-07-09T15:56:18Z</time>
      </trkpt>
      <trkpt lat="42.91555" lon="0.24344">
        <ele>1578.217</ele>
        <time>2023-07-09T15:56:21Z</time>
      </trkpt>
      <trkpt lat="42.9156" lon="0.24341">
        <ele>1578.033</ele>
        <time>2023-07-09T15:56:25Z</time>
      </trkpt>
      <trkpt lat="42.91564" lon="0.24337">
        <ele>1578.024</ele>
        <time>2023-07-09T15:56:29Z</time>
      </trkpt>
      <trkpt lat="42.91568" lon="0.24332">
        <ele>1578.074</ele>
        <time>2023-07-09T15:56:34Z</time>
      </trkpt>
      <trkpt lat="42.91569" lon="0.24326">
        <ele>1577.665</ele>
        <time>2023-07-09T15:56:38Z</time>
      </trkpt>
      <trkpt lat="42.91575" lon="0.24323">
        <ele>1577.217</ele>
        <time>2023-07-09T15:56:45Z</time>
      </trkpt>
      <trkpt lat="42.91578" lon="0.24327">
        <ele>1576.799</ele>
        <time>2023-07-09T15:56:50Z</time>
      </trkpt>
      <trkpt lat="42.91584" lon="0.24327">
        <ele>1576.25</ele>
        <time>2023-07-09T15:56:53Z</time>
      </trkpt>
      <trkpt lat="42.91588" lon="0.24324">
        <ele>1576.278</ele>
        <time>2023-07-09T15:56:58Z</time>
      </trkpt>
      <trkpt lat="42.91591" lon="0.24318">
        <ele>1576.133</ele>
        <time>2023-07-09T15:57:02Z</time>
      </trkpt>
      <trkpt lat="42.91595" lon="0.24315">
        <ele>1575.726</ele>
        <time>2023-07-09T15:57:06Z</time>
      </trkpt>
      <trkpt lat="42.91599" lon="0.24312">
        <ele>1575.309</ele>
        <time>2023-07-09T15:57:10Z</time>
      </trkpt>
      <trkpt lat="42.91604" lon="0.24312">
        <ele>1574.858</ele>
        <time>2023-07-09T15:57:15Z</time>
      </trkpt>
      <trkpt lat="42.91609" lon="0.24309">
        <ele>1574.331</ele>
        <time>2023-07-09T15:57:21Z</time>
      </trkpt>
      <trkpt lat="42.91614" lon="0.24306">
        <ele>1574.177</ele>
        <time>2023-07-09T15:57:27Z</time>
      </trkpt>
      <trkpt lat="42.91619" lon="0.24307">
        <ele>1573.598</ele>
        <time>2023-07-09T15:57:31Z</time>
      </trkpt>
      <trkpt lat="42.91624" lon="0.24304">
        <ele>1573.028</ele>
        <time>2023-07-09T15:57:35Z</time>
      </trkpt>
      <trkpt lat="42.91629" lon="0.24304">
        <ele>1573.089</ele>
        <time>2023-07-09T15:57:39Z</time>
      </trkpt>
      <trkpt lat="42.91634" lon="0.24303">
        <ele>1573.041</ele>
        <time>2023-07-09T15:57:42Z</time>
      </trkpt>
      <trkpt lat="42.91638" lon="0.243">
        <ele>1573.013</ele>
        <time>2023-07-09T15:57:47Z</time>
      </trkpt>
      <trkpt lat="42.91643" lon="0.24296">
        <ele>1573.034</ele>
        <time>2023-07-09T15:57:51Z</time>
      </trkpt>
      <trkpt lat="42.91647" lon="0.24294">
        <ele>1572.577</ele>
        <time>2023-07-09T15:57:55Z</time>
      </trkpt>
      <trkpt lat="42.91651" lon="0.24291">
        <ele>1571.561</ele>
        <time>2023-07-09T15:57:59Z</time>
      </trkpt>
      <trkpt lat="42.91655" lon="0.24287">
        <ele>1570.627</ele>
        <time>2023-07-09T15:58:03Z</time>
      </trkpt>
      <trkpt lat="42.91659" lon="0.24285">
        <ele>1570.209</ele>
        <time>2023-07-09T15:58:07Z</time>
      </trkpt>
      <trkpt lat="42.91664" lon="0.24281">
        <ele>1570.268</ele>
        <time>2023-07-09T15:58:11Z</time>
      </trkpt>
      <trkpt lat="42.91669" lon="0.24279">
        <ele>1570.291</ele>
        <time>2023-07-09T15:58:15Z</time>
      </trkpt>
      <trkpt lat="42.91674" lon="0.24278">
        <ele>1570.297</ele>
        <time>2023-07-09T15:58:19Z</time>
      </trkpt>
      <trkpt lat="42.91678" lon="0.24275">
        <ele>1569.918</ele>
        <time>2023-07-09T15:58:23Z</time>
      </trkpt>
      <trkpt lat="42.91682" lon="0.24269">
        <ele>1569.918</ele>
        <time>2023-07-09T15:58:28Z</time>
      </trkpt>
      <trkpt lat="42.91684" lon="0.24263">
        <ele>1569.459</ele>
        <time>2023-07-09T15:58:33Z</time>
      </trkpt>
      <trkpt lat="42.91689" lon="0.24258">
        <ele>1568.821</ele>
        <time>2023-07-09T15:58:39Z</time>
      </trkpt>
      <trkpt lat="42.91693" lon="0.24255">
        <ele>1568.093</ele>
        <time>2023-07-09T15:58:44Z</time>
      </trkpt>
      <trkpt lat="42.91698" lon="0.24252">
        <ele>1568.044</ele>
        <time>2023-07-09T15:58:49Z</time>
      </trkpt>
      <trkpt lat="42.91702" lon="0.24256">
        <ele>1568.083</ele>
        <time>2023-07-09T15:58:53Z</time>
      </trkpt>
      <trkpt lat="42.91708" lon="0.24256">
        <ele>1567.525</ele>
        <time>2023-07-09T15:59:01Z</time>
      </trkpt>
      <trkpt lat="42.91714" lon="0.24255">
        <ele>1567.517</ele>
        <time>2023-07-09T15:59:06Z</time>
      </trkpt>
      <trkpt lat="42.91721" lon="0.24253">
        <ele>1568.109</ele>
        <time>2023-07-09T15:59:10Z</time>
      </trkpt>
      <trkpt lat="42.91725" lon="0.24254">
        <ele>1568.129</ele>
        <time>2023-07-09T15:59:16Z</time>
      </trkpt>
      <trkpt lat="42.9173" lon="0.24252">
        <ele>1568.132</ele>
        <time>2023-07-09T15:59:21Z</time>
      </trkpt>
      <trkpt lat="42.91735" lon="0.2425">
        <ele>1568.138</ele>
        <time>2023-07-09T15:59:26Z</time>
      </trkpt>
      <trkpt lat="42.9174" lon="0.24247">
        <ele>1568.189</ele>
        <time>2023-07-09T15:59:31Z</time>
      </trkpt>
      <trkpt lat="42.91745" lon="0.24246">
        <ele>1568.129</ele>
        <time>2023-07-09T15:59:35Z</time>
      </trkpt>
      <trkpt lat="42.91749" lon="0.24244">
        <ele>1567.74</ele>
        <time>2023-07-09T15:59:38Z</time>
      </trkpt>
      <trkpt lat="42.91753" lon="0.24239">
        <ele>1567.192</ele>
        <time>2023-07-09T15:59:43Z</time>
      </trkpt>
      <trkpt lat="42.91758" lon="0.24236">
        <ele>1566.544</ele>
        <time>2023-07-09T15:59:49Z</time>
      </trkpt>
      <trkpt lat="42.91762" lon="0.24233">
        <ele>1565.855</ele>
        <time>2023-07-09T15:59:54Z</time>
      </trkpt>
      <trkpt lat="42.91768" lon="0.24234">
        <ele>1564.619</ele>
        <time>2023-07-09T16:00:01Z</time>
      </trkpt>
      <trkpt lat="42.91773" lon="0.24234">
        <ele>1563.709</ele>
        <time>2023-07-09T16:00:06Z</time>
      </trkpt>
      <trkpt lat="42.91778" lon="0.24232">
        <ele>1563.719</ele>
        <time>2023-07-09T16:00:10Z</time>
      </trkpt>
      <trkpt lat="42.91783" lon="0.24233">
        <ele>1563.709</ele>
        <time>2023-07-09T16:00:16Z</time>
      </trkpt>
      <trkpt lat="42.91788" lon="0.24232">
        <ele>1564.352</ele>
        <time>2023-07-09T16:00:21Z</time>
      </trkpt>
      <trkpt lat="42.91794" lon="0.24231">
        <ele>1565.225</ele>
        <time>2023-07-09T16:00:25Z</time>
      </trkpt>
      <trkpt lat="42.91799" lon="0.24232">
        <ele>1565.761</ele>
        <time>2023-07-09T16:00:30Z</time>
      </trkpt>
      <trkpt lat="42.91805" lon="0.24232">
        <ele>1566.312</ele>
        <time>2023-07-09T16:00:35Z</time>
      </trkpt>
      <trkpt lat="42.9181" lon="0.24231">
        <ele>1566.012</ele>
        <time>2023-07-09T16:00:41Z</time>
      </trkpt>
      <trkpt lat="42.91814" lon="0.2423">
        <ele>1565.993</ele>
        <time>2023-07-09T16:00:45Z</time>
      </trkpt>
      <trkpt lat="42.9182" lon="0.24229">
        <ele>1565.995</ele>
        <time>2023-07-09T16:00:50Z</time>
      </trkpt>
      <trkpt lat="42.91826" lon="0.24228">
        <ele>1565.247</ele>
        <time>2023-07-09T16:00:54Z</time>
      </trkpt>
      <trkpt lat="42.91831" lon="0.24228">
        <ele>1563.718</ele>
        <time>2023-07-09T16:00:58Z</time>
      </trkpt>
      <trkpt lat="42.91836" lon="0.24228">
        <ele>1562.447</ele>
        <time>2023-07-09T16:01:02Z</time>
      </trkpt>
      <trkpt lat="42.91841" lon="0.24228">
        <ele>1561.329</ele>
        <time>2023-07-09T16:01:06Z</time>
      </trkpt>
      <trkpt lat="42.91845" lon="0.24227">
        <ele>1560.421</ele>
        <time>2023-07-09T16:01:09Z</time>
      </trkpt>
      <trkpt lat="42.9185" lon="0.24228">
        <ele>1559.209</ele>
        <time>2023-07-09T16:01:13Z</time>
      </trkpt>
      <trkpt lat="42.91855" lon="0.24229">
        <ele>1558.165</ele>
        <time>2023-07-09T16:01:18Z</time>
      </trkpt>
      <trkpt lat="42.91859" lon="0.24228">
        <ele>1557.878</ele>
        <time>2023-07-09T16:01:22Z</time>
      </trkpt>
      <trkpt lat="42.91865" lon="0.24228">
        <ele>1557.774</ele>
        <time>2023-07-09T16:01:26Z</time>
      </trkpt>
      <trkpt lat="42.9187" lon="0.24226">
        <ele>1557.645</ele>
        <time>2023-07-09T16:01:30Z</time>
      </trkpt>
      <trkpt lat="42.91875" lon="0.24225">
        <ele>1557.465</ele>
        <time>2023-07-09T16:01:34Z</time>
      </trkpt>
      <trkpt lat="42.91879" lon="0.24225">
        <ele>1557.246</ele>
        <time>2023-07-09T16:01:39Z</time>
      </trkpt>
      <trkpt lat="42.91885" lon="0.24224">
        <ele>1557.138</ele>
        <time>2023-07-09T16:01:43Z</time>
      </trkpt>
      <trkpt lat="42.91889" lon="0.24223">
        <ele>1556.65</ele>
        <time>2023-07-09T16:01:49Z</time>
      </trkpt>
      <trkpt lat="42.91894" lon="0.24223">
        <ele>1555.941</ele>
        <time>2023-07-09T16:01:59Z</time>
      </trkpt>
      <trkpt lat="42.91899" lon="0.24221">
        <ele>1554.245</ele>
        <time>2023-07-09T16:02:02Z</time>
      </trkpt>
      <trkpt lat="42.91904" lon="0.24221">
        <ele>1552.647</ele>
        <time>2023-07-09T16:02:05Z</time>
      </trkpt>
      <trkpt lat="42.9191" lon="0.24221">
        <ele>1552.411</ele>
        <time>2023-07-09T16:02:09Z</time>
      </trkpt>
      <trkpt lat="42.91915" lon="0.2422">
        <ele>1552.009</ele>
        <time>2023-07-09T16:02:13Z</time>
      </trkpt>
      <trkpt lat="42.91919" lon="0.24222">
        <ele>1551.635</ele>
        <time>2023-07-09T16:02:18Z</time>
      </trkpt>
      <trkpt lat="42.91925" lon="0.24222">
        <ele>1551.668</ele>
        <time>2023-07-09T16:02:22Z</time>
      </trkpt>
      <trkpt lat="42.9193" lon="0.2422">
        <ele>1551.294</ele>
        <time>2023-07-09T16:02:28Z</time>
      </trkpt>
      <trkpt lat="42.91935" lon="0.24221">
        <ele>1551.065</ele>
        <time>2023-07-09T16:02:32Z</time>
      </trkpt>
      <trkpt lat="42.91941" lon="0.2422">
        <ele>1550.535</ele>
        <time>2023-07-09T16:02:37Z</time>
      </trkpt>
      <trkpt lat="42.91945" lon="0.2422">
        <ele>1550.036</ele>
        <time>2023-07-09T16:02:41Z</time>
      </trkpt>
      <trkpt lat="42.9195" lon="0.24222">
        <ele>1549.728</ele>
        <time>2023-07-09T16:02:46Z</time>
      </trkpt>
      <trkpt lat="42.91955" lon="0.24222">
        <ele>1549.49</ele>
        <time>2023-07-09T16:02:51Z</time>
      </trkpt>
      <trkpt lat="42.9196" lon="0.24222">
        <ele>1549.261</ele>
        <time>2023-07-09T16:02:55Z</time>
      </trkpt>
      <trkpt lat="42.91966" lon="0.24223">
        <ele>1548.374</ele>
        <time>2023-07-09T16:03:00Z</time>
      </trkpt>
      <trkpt lat="42.91971" lon="0.24223">
        <ele>1547.156</ele>
        <time>2023-07-09T16:03:04Z</time>
      </trkpt>
      <trkpt lat="42.91977" lon="0.24223">
        <ele>1546.721</ele>
        <time>2023-07-09T16:03:08Z</time>
      </trkpt>
      <trkpt lat="42.91982" lon="0.24224">
        <ele>1546.609</ele>
        <time>2023-07-09T16:03:13Z</time>
      </trkpt>
      <trkpt lat="42.91987" lon="0.24223">
        <ele>1546.418</ele>
        <time>2023-07-09T16:03:18Z</time>
      </trkpt>
      <trkpt lat="42.91993" lon="0.24222">
        <ele>1546.191</ele>
        <time>2023-07-09T16:03:22Z</time>
      </trkpt>
      <trkpt lat="42.91997" lon="0.2422">
        <ele>1545.297</ele>
        <time>2023-07-09T16:03:25Z</time>
      </trkpt>
      <trkpt lat="42.92004" lon="0.2422">
        <ele>1544.128</ele>
        <time>2023-07-09T16:03:30Z</time>
      </trkpt>
      <trkpt lat="42.92009" lon="0.2422">
        <ele>1543.978</ele>
        <time>2023-07-09T16:03:35Z</time>
      </trkpt>
      <trkpt lat="42.92013" lon="0.24217">
        <ele>1543.119</ele>
        <time>2023-07-09T16:03:38Z</time>
      </trkpt>
      <trkpt lat="42.92019" lon="0.24217">
        <ele>1542.211</ele>
        <time>2023-07-09T16:03:45Z</time>
      </trkpt>
      <trkpt lat="42.92023" lon="0.24216">
        <ele>1542.263</ele>
        <time>2023-07-09T16:03:49Z</time>
      </trkpt>
      <trkpt lat="42.92028" lon="0.24216">
        <ele>1542.344</ele>
        <time>2023-07-09T16:03:53Z</time>
      </trkpt>
      <trkpt lat="42.92032" lon="0.24214">
        <ele>1542.395</ele>
        <time>2023-07-09T16:03:58Z</time>
      </trkpt>
      <trkpt lat="42.92037" lon="0.24213">
        <ele>1542.349</ele>
        <time>2023-07-09T16:04:02Z</time>
      </trkpt>
      <trkpt lat="42.92042" lon="0.24211">
        <ele>1541.723</ele>
        <time>2023-07-09T16:04:05Z</time>
      </trkpt>
      <trkpt lat="42.92047" lon="0.2421">
        <ele>1540.909</ele>
        <time>2023-07-09T16:04:09Z</time>
      </trkpt>
      <trkpt lat="42.92053" lon="0.24209">
        <ele>1540.57</ele>
        <time>2023-07-09T16:04:14Z</time>
      </trkpt>
      <trkpt lat="42.92057" lon="0.24207">
        <ele>1540.473</ele>
        <time>2023-07-09T16:04:18Z</time>
      </trkpt>
      <trkpt lat="42.92062" lon="0.24206">
        <ele>1539.859</ele>
        <time>2023-07-09T16:04:22Z</time>
      </trkpt>
      <trkpt lat="42.92066" lon="0.24205">
        <ele>1539.15</ele>
        <time>2023-07-09T16:04:26Z</time>
      </trkpt>
      <trkpt lat="42.92072" lon="0.24204">
        <ele>1538.73</ele>
        <time>2023-07-09T16:04:31Z</time>
      </trkpt>
      <trkpt lat="42.92078" lon="0.24198">
        <ele>1538.231</ele>
        <time>2023-07-09T16:05:13Z</time>
      </trkpt>
      <trkpt lat="42.92074" lon="0.24203">
        <ele>1537.493</ele>
        <time>2023-07-09T16:05:52Z</time>
      </trkpt>
      <trkpt lat="42.92076" lon="0.24197">
        <ele>1537.225</ele>
        <time>2023-07-09T16:08:12Z</time>
      </trkpt>
      <trkpt lat="42.92081" lon="0.24198">
        <ele>1536.436</ele>
        <time>2023-07-09T16:08:17Z</time>
      </trkpt>
      <trkpt lat="42.92087" lon="0.24199">
        <ele>1535.876</ele>
        <time>2023-07-09T16:08:23Z</time>
      </trkpt>
      <trkpt lat="42.92091" lon="0.24196">
        <ele>1535.89</ele>
        <time>2023-07-09T16:08:27Z</time>
      </trkpt>
      <trkpt lat="42.92096" lon="0.24194">
        <ele>1536.219</ele>
        <time>2023-07-09T16:08:30Z</time>
      </trkpt>
      <trkpt lat="42.92101" lon="0.24193">
        <ele>1536.009</ele>
        <time>2023-07-09T16:08:35Z</time>
      </trkpt>
      <trkpt lat="42.92107" lon="0.24191">
        <ele>1535.868</ele>
        <time>2023-07-09T16:08:40Z</time>
      </trkpt>
      <trkpt lat="42.92112" lon="0.2419">
        <ele>1535.851</ele>
        <time>2023-07-09T16:08:44Z</time>
      </trkpt>
      <trkpt lat="42.92118" lon="0.2419">
        <ele>1535.827</ele>
        <time>2023-07-09T16:08:48Z</time>
      </trkpt>
      <trkpt lat="42.92123" lon="0.24188">
        <ele>1535.188</ele>
        <time>2023-07-09T16:08:53Z</time>
      </trkpt>
      <trkpt lat="42.92129" lon="0.24187">
        <ele>1534.448</ele>
        <time>2023-07-09T16:08:57Z</time>
      </trkpt>
      <trkpt lat="42.92134" lon="0.24185">
        <ele>1534.279</ele>
        <time>2023-07-09T16:09:01Z</time>
      </trkpt>
      <trkpt lat="42.92139" lon="0.24184">
        <ele>1534.031</ele>
        <time>2023-07-09T16:09:05Z</time>
      </trkpt>
      <trkpt lat="42.92142" lon="0.24179">
        <ele>1534.053</ele>
        <time>2023-07-09T16:09:09Z</time>
      </trkpt>
      <trkpt lat="42.92147" lon="0.24178">
        <ele>1533.974</ele>
        <time>2023-07-09T16:09:14Z</time>
      </trkpt>
      <trkpt lat="42.92152" lon="0.24179">
        <ele>1533.941</ele>
        <time>2023-07-09T16:09:20Z</time>
      </trkpt>
      <trkpt lat="42.92157" lon="0.24179">
        <ele>1533.481</ele>
        <time>2023-07-09T16:09:25Z</time>
      </trkpt>
      <trkpt lat="42.92162" lon="0.24178">
        <ele>1532.109</ele>
        <time>2023-07-09T16:09:29Z</time>
      </trkpt>
      <trkpt lat="42.92167" lon="0.24176">
        <ele>1530.609</ele>
        <time>2023-07-09T16:09:33Z</time>
      </trkpt>
      <trkpt lat="42.92173" lon="0.24176">
        <ele>1529.645</ele>
        <time>2023-07-09T16:09:37Z</time>
      </trkpt>
      <trkpt lat="42.92178" lon="0.24174">
        <ele>1529.218</ele>
        <time>2023-07-09T16:09:41Z</time>
      </trkpt>
      <trkpt lat="42.92183" lon="0.24172">
        <ele>1528.994</ele>
        <time>2023-07-09T16:09:45Z</time>
      </trkpt>
      <trkpt lat="42.92187" lon="0.24171">
        <ele>1528.225</ele>
        <time>2023-07-09T16:09:49Z</time>
      </trkpt>
      <trkpt lat="42.92192" lon="0.24169">
        <ele>1527.655</ele>
        <time>2023-07-09T16:09:54Z</time>
      </trkpt>
      <trkpt lat="42.92197" lon="0.24166">
        <ele>1527.516</ele>
        <time>2023-07-09T16:09:59Z</time>
      </trkpt>
      <trkpt lat="42.92202" lon="0.24166">
        <ele>1527.148</ele>
        <time>2023-07-09T16:10:03Z</time>
      </trkpt>
      <trkpt lat="42.92208" lon="0.24164">
        <ele>1526.76</ele>
        <time>2023-07-09T16:10:08Z</time>
      </trkpt>
      <trkpt lat="42.92213" lon="0.24163">
        <ele>1526.011</ele>
        <time>2023-07-09T16:10:14Z</time>
      </trkpt>
      <trkpt lat="42.92218" lon="0.24162">
        <ele>1525.132</ele>
        <time>2023-07-09T16:10:18Z</time>
      </trkpt>
      <trkpt lat="42.92223" lon="0.24161">
        <ele>1524.392</ele>
        <time>2023-07-09T16:10:22Z</time>
      </trkpt>
      <trkpt lat="42.92228" lon="0.24161">
        <ele>1523.611</ele>
        <time>2023-07-09T16:10:26Z</time>
      </trkpt>
      <trkpt lat="42.92234" lon="0.24159">
        <ele>1523.609</ele>
        <time>2023-07-09T16:10:30Z</time>
      </trkpt>
      <trkpt lat="42.92238" lon="0.24158">
        <ele>1523.394</ele>
        <time>2023-07-09T16:10:34Z</time>
      </trkpt>
      <trkpt lat="42.92244" lon="0.24156">
        <ele>1522.977</ele>
        <time>2023-07-09T16:10:39Z</time>
      </trkpt>
      <trkpt lat="42.92249" lon="0.24154">
        <ele>1522.813</ele>
        <time>2023-07-09T16:10:43Z</time>
      </trkpt>
      <trkpt lat="42.92254" lon="0.24155">
        <ele>1522.434</ele>
        <time>2023-07-09T16:10:47Z</time>
      </trkpt>
      <trkpt lat="42.92259" lon="0.24154">
        <ele>1521.824</ele>
        <time>2023-07-09T16:10:50Z</time>
      </trkpt>
      <trkpt lat="42.92265" lon="0.24153">
        <ele>1521.035</ele>
        <time>2023-07-09T16:10:54Z</time>
      </trkpt>
      <trkpt lat="42.9227" lon="0.24151">
        <ele>1520.647</ele>
        <time>2023-07-09T16:10:58Z</time>
      </trkpt>
      <trkpt lat="42.92276" lon="0.2415">
        <ele>1520.259</ele>
        <time>2023-07-09T16:11:03Z</time>
      </trkpt>
      <trkpt lat="42.92281" lon="0.2415">
        <ele>1519.69</ele>
        <time>2023-07-09T16:11:09Z</time>
      </trkpt>
      <trkpt lat="42.92285" lon="0.24148">
        <ele>1519.375</ele>
        <time>2023-07-09T16:11:13Z</time>
      </trkpt>
      <trkpt lat="42.9229" lon="0.24149">
        <ele>1518.328</ele>
        <time>2023-07-09T16:11:18Z</time>
      </trkpt>
      <trkpt lat="42.92296" lon="0.24148">
        <ele>1517.02</ele>
        <time>2023-07-09T16:11:23Z</time>
      </trkpt>
      <trkpt lat="42.92301" lon="0.24146">
        <ele>1516.009</ele>
        <time>2023-07-09T16:11:27Z</time>
      </trkpt>
      <trkpt lat="42.92305" lon="0.24146">
        <ele>1515.498</ele>
        <time>2023-07-09T16:11:31Z</time>
      </trkpt>
      <trkpt lat="42.9231" lon="0.24144">
        <ele>1514.821</ele>
        <time>2023-07-09T16:11:36Z</time>
      </trkpt>
      <trkpt lat="42.92315" lon="0.24142">
        <ele>1514.037</ele>
        <time>2023-07-09T16:11:39Z</time>
      </trkpt>
      <trkpt lat="42.92319" lon="0.24141">
        <ele>1513.518</ele>
        <time>2023-07-09T16:11:43Z</time>
      </trkpt>
      <trkpt lat="42.92325" lon="0.2414">
        <ele>1513.468</ele>
        <time>2023-07-09T16:11:47Z</time>
      </trkpt>
      <trkpt lat="42.92329" lon="0.24139">
        <ele>1513.369</ele>
        <time>2023-07-09T16:11:52Z</time>
      </trkpt>
      <trkpt lat="42.92334" lon="0.24138">
        <ele>1512.851</ele>
        <time>2023-07-09T16:11:57Z</time>
      </trkpt>
      <trkpt lat="42.92339" lon="0.24136">
        <ele>1511.723</ele>
        <time>2023-07-09T16:12:00Z</time>
      </trkpt>
      <trkpt lat="42.92344" lon="0.24134">
        <ele>1510.994</ele>
        <time>2023-07-09T16:12:04Z</time>
      </trkpt>
      <trkpt lat="42.9235" lon="0.24133">
        <ele>1510.434</ele>
        <time>2023-07-09T16:12:09Z</time>
      </trkpt>
      <trkpt lat="42.92356" lon="0.24132">
        <ele>1510.155</ele>
        <time>2023-07-09T16:12:12Z</time>
      </trkpt>
      <trkpt lat="42.92361" lon="0.24132">
        <ele>1510.11</ele>
        <time>2023-07-09T16:12:17Z</time>
      </trkpt>
      <trkpt lat="42.92367" lon="0.2413">
        <ele>1510.109</ele>
        <time>2023-07-09T16:12:22Z</time>
      </trkpt>
      <trkpt lat="42.92371" lon="0.2413">
        <ele>1509.524</ele>
        <time>2023-07-09T16:12:27Z</time>
      </trkpt>
      <trkpt lat="42.92376" lon="0.2413">
        <ele>1509.437</ele>
        <time>2023-07-09T16:12:32Z</time>
      </trkpt>
      <trkpt lat="42.92382" lon="0.2413">
        <ele>1509.213</ele>
        <time>2023-07-09T16:12:38Z</time>
      </trkpt>
      <trkpt lat="42.92388" lon="0.2413">
        <ele>1508.444</ele>
        <time>2023-07-09T16:12:42Z</time>
      </trkpt>
      <trkpt lat="42.92393" lon="0.2413">
        <ele>1507.544</ele>
        <time>2023-07-09T16:12:46Z</time>
      </trkpt>
      <trkpt lat="42.92398" lon="0.24129">
        <ele>1506.165</ele>
        <time>2023-07-09T16:12:50Z</time>
      </trkpt>
      <trkpt lat="42.92404" lon="0.24128">
        <ele>1506.147</ele>
        <time>2023-07-09T16:12:54Z</time>
      </trkpt>
      <trkpt lat="42.92409" lon="0.24127">
        <ele>1505.949</ele>
        <time>2023-07-09T16:12:58Z</time>
      </trkpt>
      <trkpt lat="42.92415" lon="0.24127">
        <ele>1505.59</ele>
        <time>2023-07-09T16:13:03Z</time>
      </trkpt>
      <trkpt lat="42.9242" lon="0.24128">
        <ele>1505.368</ele>
        <time>2023-07-09T16:13:08Z</time>
      </trkpt>
      <trkpt lat="42.92426" lon="0.24127">
        <ele>1505.042</ele>
        <time>2023-07-09T16:13:12Z</time>
      </trkpt>
      <trkpt lat="42.92431" lon="0.24128">
        <ele>1502.826</ele>
        <time>2023-07-09T16:13:18Z</time>
      </trkpt>
      <trkpt lat="42.92436" lon="0.24128">
        <ele>1502.709</ele>
        <time>2023-07-09T16:13:23Z</time>
      </trkpt>
      <trkpt lat="42.92441" lon="0.24127">
        <ele>1502.657</ele>
        <time>2023-07-09T16:13:29Z</time>
      </trkpt>
      <trkpt lat="42.92446" lon="0.24128">
        <ele>1502.38</ele>
        <time>2023-07-09T16:13:33Z</time>
      </trkpt>
      <trkpt lat="42.92451" lon="0.24126">
        <ele>1501.686</ele>
        <time>2023-07-09T16:13:37Z</time>
      </trkpt>
      <trkpt lat="42.92456" lon="0.24126">
        <ele>1501.017</ele>
        <time>2023-07-09T16:13:42Z</time>
      </trkpt>
      <trkpt lat="42.92461" lon="0.24126">
        <ele>1500.847</ele>
        <time>2023-07-09T16:13:46Z</time>
      </trkpt>
      <trkpt lat="42.92465" lon="0.24125">
        <ele>1500.698</ele>
        <time>2023-07-09T16:13:50Z</time>
      </trkpt>
      <trkpt lat="42.9247" lon="0.24125">
        <ele>1500.26</ele>
        <time>2023-07-09T16:13:54Z</time>
      </trkpt>
      <trkpt lat="42.92475" lon="0.24124">
        <ele>1499.932</ele>
        <time>2023-07-09T16:13:58Z</time>
      </trkpt>
      <trkpt lat="42.9248" lon="0.24124">
        <ele>1499.813</ele>
        <time>2023-07-09T16:14:02Z</time>
      </trkpt>
      <trkpt lat="42.92485" lon="0.24125">
        <ele>1499.586</ele>
        <time>2023-07-09T16:14:06Z</time>
      </trkpt>
      <trkpt lat="42.9249" lon="0.24124">
        <ele>1498.36</ele>
        <time>2023-07-09T16:14:11Z</time>
      </trkpt>
      <trkpt lat="42.92495" lon="0.24121">
        <ele>1497.126</ele>
        <time>2023-07-09T16:14:15Z</time>
      </trkpt>
      <trkpt lat="42.925" lon="0.2412">
        <ele>1496.609</ele>
        <time>2023-07-09T16:14:20Z</time>
      </trkpt>
      <trkpt lat="42.92506" lon="0.2412">
        <ele>1495.919</ele>
        <time>2023-07-09T16:14:25Z</time>
      </trkpt>
      <trkpt lat="42.92511" lon="0.24118">
        <ele>1495.162</ele>
        <time>2023-07-09T16:14:29Z</time>
      </trkpt>
      <trkpt lat="42.92516" lon="0.24118">
        <ele>1494.838</ele>
        <time>2023-07-09T16:14:33Z</time>
      </trkpt>
      <trkpt lat="42.92522" lon="0.24117">
        <ele>1494.189</ele>
        <time>2023-07-09T16:14:37Z</time>
      </trkpt>
      <trkpt lat="42.92527" lon="0.24117">
        <ele>1493.949</ele>
        <time>2023-07-09T16:14:40Z</time>
      </trkpt>
      <trkpt lat="42.92532" lon="0.24119">
        <ele>1493.98</ele>
        <time>2023-07-09T16:14:45Z</time>
      </trkpt>
      <trkpt lat="42.92536" lon="0.24122">
        <ele>1492.722</ele>
        <time>2023-07-09T16:14:48Z</time>
      </trkpt>
      <trkpt lat="42.9254" lon="0.24126">
        <ele>1491.574</ele>
        <time>2023-07-09T16:14:52Z</time>
      </trkpt>
      <trkpt lat="42.92543" lon="0.24132">
        <ele>1491.415</ele>
        <time>2023-07-09T16:14:57Z</time>
      </trkpt>
      <trkpt lat="42.92549" lon="0.24135">
        <ele>1491.222</ele>
        <time>2023-07-09T16:15:03Z</time>
      </trkpt>
      <trkpt lat="42.92553" lon="0.24139">
        <ele>1490.562</ele>
        <time>2023-07-09T16:15:07Z</time>
      </trkpt>
      <trkpt lat="42.92557" lon="0.24143">
        <ele>1489.908</ele>
        <time>2023-07-09T16:15:11Z</time>
      </trkpt>
      <trkpt lat="42.92561" lon="0.24147">
        <ele>1489.809</ele>
        <time>2023-07-09T16:15:14Z</time>
      </trkpt>
      <trkpt lat="42.92564" lon="0.24152">
        <ele>1489.623</ele>
        <time>2023-07-09T16:15:18Z</time>
      </trkpt>
      <trkpt lat="42.92568" lon="0.24155">
        <ele>1489.136</ele>
        <time>2023-07-09T16:15:22Z</time>
      </trkpt>
      <trkpt lat="42.92574" lon="0.24155">
        <ele>1489.112</ele>
        <time>2023-07-09T16:15:29Z</time>
      </trkpt>
      <trkpt lat="42.92578" lon="0.24156">
        <ele>1488.693</ele>
        <time>2023-07-09T16:15:37Z</time>
      </trkpt>
      <trkpt lat="42.92584" lon="0.24157">
        <ele>1486.323</ele>
        <time>2023-07-09T16:15:41Z</time>
      </trkpt>
      <trkpt lat="42.92589" lon="0.24159">
        <ele>1482.584</ele>
        <time>2023-07-09T16:15:46Z</time>
      </trkpt>
      <trkpt lat="42.92595" lon="0.24161">
        <ele>1479.996</ele>
        <time>2023-07-09T16:15:50Z</time>
      </trkpt>
      <trkpt lat="42.926" lon="0.24161">
        <ele>1479.318</ele>
        <time>2023-07-09T16:15:54Z</time>
      </trkpt>
      <trkpt lat="42.92605" lon="0.2416">
        <ele>1479.339</ele>
        <time>2023-07-09T16:15:58Z</time>
      </trkpt>
      <trkpt lat="42.9261" lon="0.24161">
        <ele>1478.926</ele>
        <time>2023-07-09T16:16:03Z</time>
      </trkpt>
      <trkpt lat="42.92615" lon="0.2416">
        <ele>1478.647</ele>
        <time>2023-07-09T16:16:07Z</time>
      </trkpt>
      <trkpt lat="42.92618" lon="0.24165">
        <ele>1478.111</ele>
        <time>2023-07-09T16:16:13Z</time>
      </trkpt>
      <trkpt lat="42.92623" lon="0.24168">
        <ele>1477.109</ele>
        <time>2023-07-09T16:16:18Z</time>
      </trkpt>
      <trkpt lat="42.92629" lon="0.24171">
        <ele>1474.883</ele>
        <time>2023-07-09T16:16:25Z</time>
      </trkpt>
      <trkpt lat="42.92633" lon="0.24172">
        <ele>1473.316</ele>
        <time>2023-07-09T16:16:29Z</time>
      </trkpt>
      <trkpt lat="42.92638" lon="0.24175">
        <ele>1471.792</ele>
        <time>2023-07-09T16:16:33Z</time>
      </trkpt>
      <trkpt lat="42.92642" lon="0.24172">
        <ele>1470.083</ele>
        <time>2023-07-09T16:16:38Z</time>
      </trkpt>
      <trkpt lat="42.92647" lon="0.24175">
        <ele>1469.693</ele>
        <time>2023-07-09T16:16:47Z</time>
      </trkpt>
      <trkpt lat="42.92652" lon="0.24176">
        <ele>1469.184</ele>
        <time>2023-07-09T16:16:52Z</time>
      </trkpt>
      <trkpt lat="42.92656" lon="0.24178">
        <ele>1467.936</ele>
        <time>2023-07-09T16:16:58Z</time>
      </trkpt>
      <trkpt lat="42.92661" lon="0.24179">
        <ele>1466.298</ele>
        <time>2023-07-09T16:17:09Z</time>
      </trkpt>
      <trkpt lat="42.92665" lon="0.24183">
        <ele>1465.669</ele>
        <time>2023-07-09T16:17:16Z</time>
      </trkpt>
      <trkpt lat="42.9267" lon="0.24184">
        <ele>1464.788</ele>
        <time>2023-07-09T16:17:20Z</time>
      </trkpt>
      <trkpt lat="42.92675" lon="0.24186">
        <ele>1462.524</ele>
        <time>2023-07-09T16:17:23Z</time>
      </trkpt>
      <trkpt lat="42.92677" lon="0.24193">
        <ele>1460.826</ele>
        <time>2023-07-09T16:17:27Z</time>
      </trkpt>
      <trkpt lat="42.92682" lon="0.24196">
        <ele>1460.309</ele>
        <time>2023-07-09T16:17:33Z</time>
      </trkpt>
      <trkpt lat="42.92688" lon="0.24198">
        <ele>1460.169</ele>
        <time>2023-07-09T16:17:39Z</time>
      </trkpt>
      <trkpt lat="42.92692" lon="0.24201">
        <ele>1459.812</ele>
        <time>2023-07-09T16:17:43Z</time>
      </trkpt>
      <trkpt lat="42.92697" lon="0.24201">
        <ele>1458.588</ele>
        <time>2023-07-09T16:17:47Z</time>
      </trkpt>
      <trkpt lat="42.92702" lon="0.24203">
        <ele>1457.049</ele>
        <time>2023-07-09T16:17:52Z</time>
      </trkpt>
      <trkpt lat="42.92707" lon="0.24204">
        <ele>1456.029</ele>
        <time>2023-07-09T16:17:56Z</time>
      </trkpt>
      <trkpt lat="42.92711" lon="0.24206">
        <ele>1454.48</ele>
        <time>2023-07-09T16:18:01Z</time>
      </trkpt>
      <trkpt lat="42.92716" lon="0.24209">
        <ele>1452.622</ele>
        <time>2023-07-09T16:18:09Z</time>
      </trkpt>
      <trkpt lat="42.9272" lon="0.2421">
        <ele>1451.864</ele>
        <time>2023-07-09T16:18:14Z</time>
      </trkpt>
      <trkpt lat="42.92725" lon="0.24213">
        <ele>1449.775</ele>
        <time>2023-07-09T16:18:18Z</time>
      </trkpt>
      <trkpt lat="42.92729" lon="0.24214">
        <ele>1446.748</ele>
        <time>2023-07-09T16:18:24Z</time>
      </trkpt>
      <trkpt lat="42.92734" lon="0.24215">
        <ele>1445.761</ele>
        <time>2023-07-09T16:18:28Z</time>
      </trkpt>
      <trkpt lat="42.92739" lon="0.24218">
        <ele>1444.817</ele>
        <time>2023-07-09T16:18:33Z</time>
      </trkpt>
      <trkpt lat="42.92744" lon="0.2422">
        <ele>1443.309</ele>
        <time>2023-07-09T16:18:38Z</time>
      </trkpt>
      <trkpt lat="42.92749" lon="0.24222">
        <ele>1442.355</ele>
        <time>2023-07-09T16:18:44Z</time>
      </trkpt>
      <trkpt lat="42.92754" lon="0.24225">
        <ele>1441.248</ele>
        <time>2023-07-09T16:18:49Z</time>
      </trkpt>
      <trkpt lat="42.92759" lon="0.24227">
        <ele>1439.564</ele>
        <time>2023-07-09T16:18:53Z</time>
      </trkpt>
      <trkpt lat="42.92762" lon="0.24231">
        <ele>1438.595</ele>
        <time>2023-07-09T16:18:58Z</time>
      </trkpt>
      <trkpt lat="42.92767" lon="0.24234">
        <ele>1437.975</ele>
        <time>2023-07-09T16:19:03Z</time>
      </trkpt>
      <trkpt lat="42.92773" lon="0.24236">
        <ele>1437.096</ele>
        <time>2023-07-09T16:19:09Z</time>
      </trkpt>
      <trkpt lat="42.92777" lon="0.24241">
        <ele>1436.158</ele>
        <time>2023-07-09T16:19:16Z</time>
      </trkpt>
      <trkpt lat="42.92782" lon="0.24245">
        <ele>1434.22</ele>
        <time>2023-07-09T16:19:21Z</time>
      </trkpt>
      <trkpt lat="42.92786" lon="0.2425">
        <ele>1431.781</ele>
        <time>2023-07-09T16:19:28Z</time>
      </trkpt>
      <trkpt lat="42.92791" lon="0.24252">
        <ele>1429.972</ele>
        <time>2023-07-09T16:19:33Z</time>
      </trkpt>
      <trkpt lat="42.92795" lon="0.24255">
        <ele>1428.813</ele>
        <time>2023-07-09T16:19:39Z</time>
      </trkpt>
      <trkpt lat="42.92799" lon="0.24257">
        <ele>1426.714</ele>
        <time>2023-07-09T16:19:43Z</time>
      </trkpt>
      <trkpt lat="42.92803" lon="0.2426">
        <ele>1424.209</ele>
        <time>2023-07-09T16:19:47Z</time>
      </trkpt>
      <trkpt lat="42.92807" lon="0.24262">
        <ele>1422.258</ele>
        <time>2023-07-09T16:19:52Z</time>
      </trkpt>
      <trkpt lat="42.92812" lon="0.24265">
        <ele>1421.611</ele>
        <time>2023-07-09T16:19:57Z</time>
      </trkpt>
      <trkpt lat="42.92816" lon="0.24269">
        <ele>1420.617</ele>
        <time>2023-07-09T16:20:01Z</time>
      </trkpt>
      <trkpt lat="42.92821" lon="0.24271">
        <ele>1419.058</ele>
        <time>2023-07-09T16:20:05Z</time>
      </trkpt>
      <trkpt lat="42.92825" lon="0.24276">
        <ele>1417.888</ele>
        <time>2023-07-09T16:20:09Z</time>
      </trkpt>
      <trkpt lat="42.92828" lon="0.24283">
        <ele>1417.389</ele>
        <time>2023-07-09T16:20:14Z</time>
      </trkpt>
      <trkpt lat="42.92832" lon="0.24288">
        <ele>1416.751</ele>
        <time>2023-07-09T16:20:19Z</time>
      </trkpt>
      <trkpt lat="42.92836" lon="0.24293">
        <ele>1416.463</ele>
        <time>2023-07-09T16:20:24Z</time>
      </trkpt>
      <trkpt lat="42.92839" lon="0.24298">
        <ele>1415.214</ele>
        <time>2023-07-09T16:20:34Z</time>
      </trkpt>
      <trkpt lat="42.92841" lon="0.24303">
        <ele>1413.177</ele>
        <time>2023-07-09T16:20:40Z</time>
      </trkpt>
      <trkpt lat="42.92845" lon="0.24309">
        <ele>1411.961</ele>
        <time>2023-07-09T16:20:48Z</time>
      </trkpt>
      <trkpt lat="42.92849" lon="0.24311">
        <ele>1410.627</ele>
        <time>2023-07-09T16:20:53Z</time>
      </trkpt>
      <trkpt lat="42.92853" lon="0.24316">
        <ele>1407.209</ele>
        <time>2023-07-09T16:20:57Z</time>
      </trkpt>
      <trkpt lat="42.92859" lon="0.24318">
        <ele>1404.738</ele>
        <time>2023-07-09T16:21:01Z</time>
      </trkpt>
      <trkpt lat="42.92862" lon="0.24322">
        <ele>1404.091</ele>
        <time>2023-07-09T16:21:07Z</time>
      </trkpt>
      <trkpt lat="42.92865" lon="0.24329">
        <ele>1403.637</ele>
        <time>2023-07-09T16:21:12Z</time>
      </trkpt>
      <trkpt lat="42.92869" lon="0.24334">
        <ele>1401.938</ele>
        <time>2023-07-09T16:21:17Z</time>
      </trkpt>
      <trkpt lat="42.92873" lon="0.24339">
        <ele>1401.648</ele>
        <time>2023-07-09T16:21:23Z</time>
      </trkpt>
      <trkpt lat="42.92877" lon="0.24344">
        <ele>1400.739</ele>
        <time>2023-07-09T16:21:29Z</time>
      </trkpt>
      <trkpt lat="42.92881" lon="0.24345">
        <ele>1398.961</ele>
        <time>2023-07-09T16:21:33Z</time>
      </trkpt>
      <trkpt lat="42.92885" lon="0.24349">
        <ele>1396.873</ele>
        <time>2023-07-09T16:21:38Z</time>
      </trkpt>
      <trkpt lat="42.92888" lon="0.24354">
        <ele>1395.924</ele>
        <time>2023-07-09T16:21:42Z</time>
      </trkpt>
      <trkpt lat="42.92893" lon="0.24355">
        <ele>1395.391</ele>
        <time>2023-07-09T16:21:47Z</time>
      </trkpt>
      <trkpt lat="42.929" lon="0.24357">
        <ele>1394.581</ele>
        <time>2023-07-09T16:21:52Z</time>
      </trkpt>
      <trkpt lat="42.92902" lon="0.24363">
        <ele>1394.019</ele>
        <time>2023-07-09T16:21:58Z</time>
      </trkpt>
      <trkpt lat="42.92905" lon="0.24369">
        <ele>1393.309</ele>
        <time>2023-07-09T16:22:03Z</time>
      </trkpt>
      <trkpt lat="42.92908" lon="0.24375">
        <ele>1391.26</ele>
        <time>2023-07-09T16:22:07Z</time>
      </trkpt>
      <trkpt lat="42.92912" lon="0.2438">
        <ele>1390.053</ele>
        <time>2023-07-09T16:22:11Z</time>
      </trkpt>
      <trkpt lat="42.92917" lon="0.24379">
        <ele>1389.869</ele>
        <time>2023-07-09T16:22:15Z</time>
      </trkpt>
      <trkpt lat="42.92922" lon="0.2438">
        <ele>1389.65</ele>
        <time>2023-07-09T16:22:20Z</time>
      </trkpt>
      <trkpt lat="42.92926" lon="0.24383">
        <ele>1389.16</ele>
        <time>2023-07-09T16:22:25Z</time>
      </trkpt>
      <trkpt lat="42.92931" lon="0.24387">
        <ele>1388.611</ele>
        <time>2023-07-09T16:22:30Z</time>
      </trkpt>
      <trkpt lat="42.92933" lon="0.24393">
        <ele>1388.583</ele>
        <time>2023-07-09T16:22:35Z</time>
      </trkpt>
      <trkpt lat="42.92938" lon="0.24397">
        <ele>1388.455</ele>
        <time>2023-07-09T16:22:39Z</time>
      </trkpt>
      <trkpt lat="42.92943" lon="0.24399">
        <ele>1387.976</ele>
        <time>2023-07-09T16:22:43Z</time>
      </trkpt>
      <trkpt lat="42.92947" lon="0.24402">
        <ele>1387.386</ele>
        <time>2023-07-09T16:22:49Z</time>
      </trkpt>
      <trkpt lat="42.92952" lon="0.24405">
        <ele>1387.16</ele>
        <time>2023-07-09T16:22:54Z</time>
      </trkpt>
      <trkpt lat="42.92955" lon="0.2441">
        <ele>1386.926</ele>
        <time>2023-07-09T16:23:00Z</time>
      </trkpt>
      <trkpt lat="42.92959" lon="0.24414">
        <ele>1386.409</ele>
        <time>2023-07-09T16:23:04Z</time>
      </trkpt>
      <trkpt lat="42.92962" lon="0.24419">
        <ele>1385.739</ele>
        <time>2023-07-09T16:23:10Z</time>
      </trkpt>
      <trkpt lat="42.92966" lon="0.24423">
        <ele>1385.092</ele>
        <time>2023-07-09T16:23:14Z</time>
      </trkpt>
      <trkpt lat="42.92968" lon="0.24429">
        <ele>1384.268</ele>
        <time>2023-07-09T16:23:18Z</time>
      </trkpt>
      <trkpt lat="42.92971" lon="0.24433">
        <ele>1383.719</ele>
        <time>2023-07-09T16:23:22Z</time>
      </trkpt>
      <trkpt lat="42.92975" lon="0.24437">
        <ele>1383.379</ele>
        <time>2023-07-09T16:23:28Z</time>
      </trkpt>
      <trkpt lat="42.92979" lon="0.24443">
        <ele>1382.33</ele>
        <time>2023-07-09T16:23:33Z</time>
      </trkpt>
      <trkpt lat="42.92984" lon="0.24446">
        <ele>1380.842</ele>
        <time>2023-07-09T16:23:38Z</time>
      </trkpt>
      <trkpt lat="42.92988" lon="0.24451">
        <ele>1379.484</ele>
        <time>2023-07-09T16:23:42Z</time>
      </trkpt>
      <trkpt lat="42.92993" lon="0.24453">
        <ele>1378.875</ele>
        <time>2023-07-09T16:23:48Z</time>
      </trkpt>
      <trkpt lat="42.92996" lon="0.24458">
        <ele>1378.648</ele>
        <time>2023-07-09T16:23:51Z</time>
      </trkpt>
      <trkpt lat="42.93" lon="0.24463">
        <ele>1378.261</ele>
        <time>2023-07-09T16:23:56Z</time>
      </trkpt>
      <trkpt lat="42.93003" lon="0.24467">
        <ele>1377.917</ele>
        <time>2023-07-09T16:24:01Z</time>
      </trkpt>
      <trkpt lat="42.93007" lon="0.24472">
        <ele>1377.609</ele>
        <time>2023-07-09T16:24:06Z</time>
      </trkpt>
      <trkpt lat="42.9301" lon="0.24477">
        <ele>1377.275</ele>
        <time>2023-07-09T16:24:11Z</time>
      </trkpt>
      <trkpt lat="42.93013" lon="0.24481">
        <ele>1376.938</ele>
        <time>2023-07-09T16:24:16Z</time>
      </trkpt>
      <trkpt lat="42.93017" lon="0.24487">
        <ele>1376.164</ele>
        <time>2023-07-09T16:24:23Z</time>
      </trkpt>
      <trkpt lat="42.93019" lon="0.24493">
        <ele>1375.485</ele>
        <time>2023-07-09T16:24:27Z</time>
      </trkpt>
      <trkpt lat="42.93022" lon="0.24499">
        <ele>1374.695</ele>
        <time>2023-07-09T16:24:31Z</time>
      </trkpt>
      <trkpt lat="42.93024" lon="0.24504">
        <ele>1373.746</ele>
        <time>2023-07-09T16:24:37Z</time>
      </trkpt>
      <trkpt lat="42.93026" lon="0.24511">
        <ele>1373.568</ele>
        <time>2023-07-09T16:24:43Z</time>
      </trkpt>
      <trkpt lat="42.9303" lon="0.24516">
        <ele>1373.29</ele>
        <time>2023-07-09T16:24:48Z</time>
      </trkpt>
      <trkpt lat="42.93034" lon="0.24521">
        <ele>1372.651</ele>
        <time>2023-07-09T16:24:55Z</time>
      </trkpt>
      <trkpt lat="42.93038" lon="0.24526">
        <ele>1371.784</ele>
        <time>2023-07-09T16:25:00Z</time>
      </trkpt>
      <trkpt lat="42.9304" lon="0.24533">
        <ele>1369.707</ele>
        <time>2023-07-09T16:25:06Z</time>
      </trkpt>
      <trkpt lat="42.93042" lon="0.2454">
        <ele>1368.017</ele>
        <time>2023-07-09T16:25:14Z</time>
      </trkpt>
      <trkpt lat="42.93043" lon="0.24546">
        <ele>1367.309</ele>
        <time>2023-07-09T16:25:19Z</time>
      </trkpt>
      <trkpt lat="42.93046" lon="0.24553">
        <ele>1365.589</ele>
        <time>2023-07-09T16:25:23Z</time>
      </trkpt>
      <trkpt lat="42.9305" lon="0.24556">
        <ele>1363.792</ele>
        <time>2023-07-09T16:25:27Z</time>
      </trkpt>
      <trkpt lat="42.93054" lon="0.24562">
        <ele>1363.448</ele>
        <time>2023-07-09T16:25:31Z</time>
      </trkpt>
      <trkpt lat="42.93054" lon="0.24568">
        <ele>1363.339</ele>
        <time>2023-07-09T16:25:36Z</time>
      </trkpt>
      <trkpt lat="42.93056" lon="0.24576">
        <ele>1362.969</ele>
        <time>2023-07-09T16:25:41Z</time>
      </trkpt>
      <trkpt lat="42.9306" lon="0.24581">
        <ele>1362.49</ele>
        <time>2023-07-09T16:25:45Z</time>
      </trkpt>
      <trkpt lat="42.93063" lon="0.24586">
        <ele>1361.482</ele>
        <time>2023-07-09T16:25:49Z</time>
      </trkpt>
      <trkpt lat="42.93066" lon="0.24591">
        <ele>1360.524</ele>
        <time>2023-07-09T16:25:55Z</time>
      </trkpt>
      <trkpt lat="42.93069" lon="0.24597">
        <ele>1360.495</ele>
        <time>2023-07-09T16:25:59Z</time>
      </trkpt>
      <trkpt lat="42.93072" lon="0.24604">
        <ele>1359.294</ele>
        <time>2023-07-09T16:26:03Z</time>
      </trkpt>
      <trkpt lat="42.93074" lon="0.2461">
        <ele>1357.757</ele>
        <time>2023-07-09T16:26:07Z</time>
      </trkpt>
      <trkpt lat="42.93074" lon="0.24616">
        <ele>1357.322</ele>
        <time>2023-07-09T16:26:14Z</time>
      </trkpt>
      <trkpt lat="42.93077" lon="0.24622">
        <ele>1357.109</ele>
        <time>2023-07-09T16:26:17Z</time>
      </trkpt>
      <trkpt lat="42.9308" lon="0.24627">
        <ele>1355.56</ele>
        <time>2023-07-09T16:26:21Z</time>
      </trkpt>
      <trkpt lat="42.93084" lon="0.24631">
        <ele>1354.013</ele>
        <time>2023-07-09T16:26:25Z</time>
      </trkpt>
      <trkpt lat="42.93088" lon="0.24635">
        <ele>1354.099</ele>
        <time>2023-07-09T16:26:29Z</time>
      </trkpt>
      <trkpt lat="42.93092" lon="0.2464">
        <ele>1353.87</ele>
        <time>2023-07-09T16:26:36Z</time>
      </trkpt>
      <trkpt lat="42.93096" lon="0.24643">
        <ele>1353.81</ele>
        <time>2023-07-09T16:26:51Z</time>
      </trkpt>
      <trkpt lat="42.93101" lon="0.24647">
        <ele>1353.081</ele>
        <time>2023-07-09T16:27:07Z</time>
      </trkpt>
      <trkpt lat="42.93098" lon="0.24651">
        <ele>1351.933</ele>
        <time>2023-07-09T16:28:06Z</time>
      </trkpt>
      <trkpt lat="42.93102" lon="0.24651">
        <ele>1351.035</ele>
        <time>2023-07-09T16:30:19Z</time>
      </trkpt>
      <trkpt lat="42.93107" lon="0.24653">
        <ele>1350.666</ele>
        <time>2023-07-09T16:31:30Z</time>
      </trkpt>
      <trkpt lat="42.9311" lon="0.24658">
        <ele>1350.589</ele>
        <time>2023-07-09T16:31:37Z</time>
      </trkpt>
      <trkpt lat="42.93114" lon="0.24663">
        <ele>1350.306</ele>
        <time>2023-07-09T16:31:42Z</time>
      </trkpt>
      <trkpt lat="42.93119" lon="0.24666">
        <ele>1350.126</ele>
        <time>2023-07-09T16:31:47Z</time>
      </trkpt>
      <trkpt lat="42.93123" lon="0.24671">
        <ele>1350.309</ele>
        <time>2023-07-09T16:31:52Z</time>
      </trkpt>
      <trkpt lat="42.93127" lon="0.24675">
        <ele>1350.349</ele>
        <time>2023-07-09T16:31:57Z</time>
      </trkpt>
      <trkpt lat="42.93131" lon="0.24681">
        <ele>1350.272</ele>
        <time>2023-07-09T16:32:03Z</time>
      </trkpt>
      <trkpt lat="42.93135" lon="0.24685">
        <ele>1350.028</ele>
        <time>2023-07-09T16:32:08Z</time>
      </trkpt>
      <trkpt lat="42.93139" lon="0.2469">
        <ele>1350.189</ele>
        <time>2023-07-09T16:32:13Z</time>
      </trkpt>
      <trkpt lat="42.93143" lon="0.24694">
        <ele>1349.959</ele>
        <time>2023-07-09T16:32:18Z</time>
      </trkpt>
      <trkpt lat="42.93147" lon="0.24698">
        <ele>1349.79</ele>
        <time>2023-07-09T16:32:22Z</time>
      </trkpt>
      <trkpt lat="42.9315" lon="0.24704">
        <ele>1349.552</ele>
        <time>2023-07-09T16:32:28Z</time>
      </trkpt>
      <trkpt lat="42.93155" lon="0.24707">
        <ele>1349.124</ele>
        <time>2023-07-09T16:32:32Z</time>
      </trkpt>
      <trkpt lat="42.93159" lon="0.2471">
        <ele>1348.965</ele>
        <time>2023-07-09T16:32:37Z</time>
      </trkpt>
      <trkpt lat="42.93163" lon="0.24713">
        <ele>1348.646</ele>
        <time>2023-07-09T16:32:41Z</time>
      </trkpt>
      <trkpt lat="42.93167" lon="0.24716">
        <ele>1348.188</ele>
        <time>2023-07-09T16:32:45Z</time>
      </trkpt>
      <trkpt lat="42.93173" lon="0.24717">
        <ele>1348.116</ele>
        <time>2023-07-09T16:32:49Z</time>
      </trkpt>
      <trkpt lat="42.93176" lon="0.24722">
        <ele>1348.309</ele>
        <time>2023-07-09T16:32:54Z</time>
      </trkpt>
      <trkpt lat="42.9318" lon="0.24727">
        <ele>1348.555</ele>
        <time>2023-07-09T16:32:59Z</time>
      </trkpt>
      <trkpt lat="42.93183" lon="0.24732">
        <ele>1349.288</ele>
        <time>2023-07-09T16:33:04Z</time>
      </trkpt>
      <trkpt lat="42.93187" lon="0.24737">
        <ele>1349.234</ele>
        <time>2023-07-09T16:33:09Z</time>
      </trkpt>
      <trkpt lat="42.93191" lon="0.24742">
        <ele>1349.225</ele>
        <time>2023-07-09T16:33:14Z</time>
      </trkpt>
      <trkpt lat="42.93194" lon="0.24747">
        <ele>1349.265</ele>
        <time>2023-07-09T16:33:18Z</time>
      </trkpt>
      <trkpt lat="42.93197" lon="0.24752">
        <ele>1348.656</ele>
        <time>2023-07-09T16:33:23Z</time>
      </trkpt>
      <trkpt lat="42.93201" lon="0.24757">
        <ele>1348.068</ele>
        <time>2023-07-09T16:33:27Z</time>
      </trkpt>
      <trkpt lat="42.93205" lon="0.24762">
        <ele>1347.91</ele>
        <time>2023-07-09T16:33:33Z</time>
      </trkpt>
      <trkpt lat="42.93209" lon="0.24766">
        <ele>1347.871</ele>
        <time>2023-07-09T16:33:38Z</time>
      </trkpt>
      <trkpt lat="42.93213" lon="0.2477">
        <ele>1347.783</ele>
        <time>2023-07-09T16:33:42Z</time>
      </trkpt>
      <trkpt lat="42.93217" lon="0.24773">
        <ele>1347.625</ele>
        <time>2023-07-09T16:33:47Z</time>
      </trkpt>
      <trkpt lat="42.9322" lon="0.24779">
        <ele>1347.617</ele>
        <time>2023-07-09T16:33:51Z</time>
      </trkpt>
      <trkpt lat="42.93224" lon="0.24783">
        <ele>1347.709</ele>
        <time>2023-07-09T16:33:55Z</time>
      </trkpt>
      <trkpt lat="42.93228" lon="0.24786">
        <ele>1347.499</ele>
        <time>2023-07-09T16:34:01Z</time>
      </trkpt>
      <trkpt lat="42.93232" lon="0.24791">
        <ele>1347.352</ele>
        <time>2023-07-09T16:34:07Z</time>
      </trkpt>
      <trkpt lat="42.93237" lon="0.24794">
        <ele>1347.018</ele>
        <time>2023-07-09T16:34:12Z</time>
      </trkpt>
      <trkpt lat="42.9324" lon="0.24799">
        <ele>1347.039</ele>
        <time>2023-07-09T16:34:15Z</time>
      </trkpt>
      <trkpt lat="42.93242" lon="0.24805">
        <ele>1347.019</ele>
        <time>2023-07-09T16:34:43Z</time>
      </trkpt>
      <trkpt lat="42.9326" lon="0.2482">
        <ele>1341.767</ele>
        <time>2023-07-09T16:44:41Z</time>
      </trkpt>
      <trkpt lat="42.93264" lon="0.24816">
        <ele>1342.088</ele>
        <time>2023-07-09T16:44:54Z</time>
      </trkpt>
      <trkpt lat="42.93267" lon="0.24821">
        <ele>1342.54</ele>
        <time>2023-07-09T16:44:59Z</time>
      </trkpt>
      <trkpt lat="42.93272" lon="0.24826">
        <ele>1344.722</ele>
        <time>2023-07-09T16:45:04Z</time>
      </trkpt>
      <trkpt lat="42.93276" lon="0.24831">
        <ele>1346.893</ele>
        <time>2023-07-09T16:45:09Z</time>
      </trkpt>
      <trkpt lat="42.9328" lon="0.24836">
        <ele>1347.198</ele>
        <time>2023-07-09T16:45:14Z</time>
      </trkpt>
      <trkpt lat="42.93284" lon="0.24839">
        <ele>1347.315</ele>
        <time>2023-07-09T16:45:18Z</time>
      </trkpt>
      <trkpt lat="42.93287" lon="0.24844">
        <ele>1347.326</ele>
        <time>2023-07-09T16:45:23Z</time>
      </trkpt>
      <trkpt lat="42.9329" lon="0.24848">
        <ele>1347.409</ele>
        <time>2023-07-09T16:45:27Z</time>
      </trkpt>
      <trkpt lat="42.93294" lon="0.24851">
        <ele>1347.44</ele>
        <time>2023-07-09T16:45:31Z</time>
      </trkpt>
      <trkpt lat="42.93297" lon="0.24856">
        <ele>1347.183</ele>
        <time>2023-07-09T16:45:36Z</time>
      </trkpt>
      <trkpt lat="42.933" lon="0.24861">
        <ele>1346.789</ele>
        <time>2023-07-09T16:45:39Z</time>
      </trkpt>
      <trkpt lat="42.93306" lon="0.24865">
        <ele>1346.24</ele>
        <time>2023-07-09T16:45:44Z</time>
      </trkpt>
      <trkpt lat="42.93309" lon="0.2487">
        <ele>1346.23</ele>
        <time>2023-07-09T16:45:48Z</time>
      </trkpt>
      <trkpt lat="42.93313" lon="0.24873">
        <ele>1346.121</ele>
        <time>2023-07-09T16:45:52Z</time>
      </trkpt>
      <trkpt lat="42.93318" lon="0.24873">
        <ele>1345.823</ele>
        <time>2023-07-09T16:45:57Z</time>
      </trkpt>
      <trkpt lat="42.93321" lon="0.24878">
        <ele>1345.525</ele>
        <time>2023-07-09T16:46:01Z</time>
      </trkpt>
      <trkpt lat="42.93324" lon="0.24884">
        <ele>1345.946</ele>
        <time>2023-07-09T16:46:05Z</time>
      </trkpt>
      <trkpt lat="42.93328" lon="0.24888">
        <ele>1346.296</ele>
        <time>2023-07-09T16:46:09Z</time>
      </trkpt>
      <trkpt lat="42.93333" lon="0.24893">
        <ele>1346.231</ele>
        <time>2023-07-09T16:46:14Z</time>
      </trkpt>
      <trkpt lat="42.93338" lon="0.24897">
        <ele>1346.924</ele>
        <time>2023-07-09T16:46:19Z</time>
      </trkpt>
      <trkpt lat="42.93342" lon="0.24901">
        <ele>1347.809</ele>
        <time>2023-07-09T16:46:24Z</time>
      </trkpt>
      <trkpt lat="42.93346" lon="0.24905">
        <ele>1347.82</ele>
        <time>2023-07-09T16:46:29Z</time>
      </trkpt>
      <trkpt lat="42.9335" lon="0.24907">
        <ele>1347.823</ele>
        <time>2023-07-09T16:46:33Z</time>
      </trkpt>
      <trkpt lat="42.93355" lon="0.2491">
        <ele>1347.619</ele>
        <time>2023-07-09T16:46:37Z</time>
      </trkpt>
      <trkpt lat="42.93359" lon="0.24914">
        <ele>1347.68</ele>
        <time>2023-07-09T16:46:41Z</time>
      </trkpt>
      <trkpt lat="42.93364" lon="0.24917">
        <ele>1347.34</ele>
        <time>2023-07-09T16:46:46Z</time>
      </trkpt>
      <trkpt lat="42.93369" lon="0.24919">
        <ele>1347.351</ele>
        <time>2023-07-09T16:46:50Z</time>
      </trkpt>
      <trkpt lat="42.93374" lon="0.24922">
        <ele>1347.633</ele>
        <time>2023-07-09T16:46:55Z</time>
      </trkpt>
      <trkpt lat="42.93379" lon="0.24924">
        <ele>1348.635</ele>
        <time>2023-07-09T16:46:59Z</time>
      </trkpt>
      <trkpt lat="42.93384" lon="0.24926">
        <ele>1349.296</ele>
        <time>2023-07-09T16:47:04Z</time>
      </trkpt>
      <trkpt lat="42.9339" lon="0.24927">
        <ele>1349.458</ele>
        <time>2023-07-09T16:47:09Z</time>
      </trkpt>
      <trkpt lat="42.93394" lon="0.2493">
        <ele>1349.552</ele>
        <time>2023-07-09T16:47:15Z</time>
      </trkpt>
      <trkpt lat="42.93398" lon="0.24932">
        <ele>1349.517</ele>
        <time>2023-07-09T16:47:19Z</time>
      </trkpt>
      <trkpt lat="42.93403" lon="0.24932">
        <ele>1349.509</ele>
        <time>2023-07-09T16:47:22Z</time>
      </trkpt>
      <trkpt lat="42.93408" lon="0.24932">
        <ele>1349.536</ele>
        <time>2023-07-09T16:47:27Z</time>
      </trkpt>
      <trkpt lat="42.93414" lon="0.24934">
        <ele>1349.749</ele>
        <time>2023-07-09T16:47:31Z</time>
      </trkpt>
      <trkpt lat="42.93418" lon="0.24937">
        <ele>1350.065</ele>
        <time>2023-07-09T16:47:36Z</time>
      </trkpt>
      <trkpt lat="42.93423" lon="0.24938">
        <ele>1350.266</ele>
        <time>2023-07-09T16:47:41Z</time>
      </trkpt>
      <trkpt lat="42.93427" lon="0.24939">
        <ele>1350.256</ele>
        <time>2023-07-09T16:47:45Z</time>
      </trkpt>
      <trkpt lat="42.93433" lon="0.24941">
        <ele>1350.227</ele>
        <time>2023-07-09T16:47:50Z</time>
      </trkpt>
      <trkpt lat="42.93438" lon="0.24942">
        <ele>1350.249</ele>
        <time>2023-07-09T16:47:54Z</time>
      </trkpt>
      <trkpt lat="42.93443" lon="0.24943">
        <ele>1350.281</ele>
        <time>2023-07-09T16:47:58Z</time>
      </trkpt>
      <trkpt lat="42.93449" lon="0.24946">
        <ele>1350.242</ele>
        <time>2023-07-09T16:48:03Z</time>
      </trkpt>
      <trkpt lat="42.93454" lon="0.24948">
        <ele>1352.917</ele>
        <time>2023-07-09T16:48:08Z</time>
      </trkpt>
      <trkpt lat="42.93459" lon="0.2495">
        <ele>1352.987</ele>
        <time>2023-07-09T16:48:12Z</time>
      </trkpt>
      <trkpt lat="42.93465" lon="0.24949">
        <ele>1352.915</ele>
        <time>2023-07-09T16:48:17Z</time>
      </trkpt>
      <trkpt lat="42.93469" lon="0.24949">
        <ele>1354.109</ele>
        <time>2023-07-09T16:48:21Z</time>
      </trkpt>
      <trkpt lat="42.93475" lon="0.2495">
        <ele>1353.792</ele>
        <time>2023-07-09T16:48:27Z</time>
      </trkpt>
      <trkpt lat="42.9348" lon="0.24952">
        <ele>1353.175</ele>
        <time>2023-07-09T16:48:33Z</time>
      </trkpt>
      <trkpt lat="42.93486" lon="0.24951">
        <ele>1353.141</ele>
        <time>2023-07-09T16:48:37Z</time>
      </trkpt>
      <trkpt lat="42.9349" lon="0.2495">
        <ele>1353.122</ele>
        <time>2023-07-09T16:48:41Z</time>
      </trkpt>
      <trkpt lat="42.93495" lon="0.24951">
        <ele>1353.812</ele>
        <time>2023-07-09T16:48:44Z</time>
      </trkpt>
      <trkpt lat="42.935" lon="0.24951">
        <ele>1353.373</ele>
        <time>2023-07-09T16:48:48Z</time>
      </trkpt>
      <trkpt lat="42.93504" lon="0.24951">
        <ele>1353.455</ele>
        <time>2023-07-09T16:48:54Z</time>
      </trkpt>
      <trkpt lat="42.93509" lon="0.24952">
        <ele>1353.437</ele>
        <time>2023-07-09T16:48:57Z</time>
      </trkpt>
      <trkpt lat="42.93514" lon="0.2495">
        <ele>1352.928</ele>
        <time>2023-07-09T16:49:01Z</time>
      </trkpt>
      <trkpt lat="42.93519" lon="0.24947">
        <ele>1353.025</ele>
        <time>2023-07-09T16:49:05Z</time>
      </trkpt>
      <trkpt lat="42.93525" lon="0.24945">
        <ele>1352.526</ele>
        <time>2023-07-09T16:49:10Z</time>
      </trkpt>
      <trkpt lat="42.93531" lon="0.24947">
        <ele>1352.408</ele>
        <time>2023-07-09T16:49:15Z</time>
      </trkpt>
      <trkpt lat="42.93537" lon="0.24949">
        <ele>1352.609</ele>
        <time>2023-07-09T16:49:20Z</time>
      </trkpt>
      <trkpt lat="42.93542" lon="0.2495">
        <ele>1355.863</ele>
        <time>2023-07-09T16:49:24Z</time>
      </trkpt>
      <trkpt lat="42.93548" lon="0.24952">
        <ele>1356.446</ele>
        <time>2023-07-09T16:49:31Z</time>
      </trkpt>
      <trkpt lat="42.93553" lon="0.24952">
        <ele>1356.662</ele>
        <time>2023-07-09T16:49:36Z</time>
      </trkpt>
      <trkpt lat="42.93559" lon="0.24953">
        <ele>1356.613</ele>
        <time>2023-07-09T16:49:40Z</time>
      </trkpt>
      <trkpt lat="42.93564" lon="0.24952">
        <ele>1356.633</ele>
        <time>2023-07-09T16:49:44Z</time>
      </trkpt>
      <trkpt lat="42.93569" lon="0.24954">
        <ele>1356.634</ele>
        <time>2023-07-09T16:49:48Z</time>
      </trkpt>
      <trkpt lat="42.93574" lon="0.24955">
        <ele>1355.566</ele>
        <time>2023-07-09T16:49:53Z</time>
      </trkpt>
      <trkpt lat="42.93579" lon="0.24957">
        <ele>1354.168</ele>
        <time>2023-07-09T16:49:57Z</time>
      </trkpt>
      <trkpt lat="42.93583" lon="0.24956">
        <ele>1353.849</ele>
        <time>2023-07-09T16:50:00Z</time>
      </trkpt>
      <trkpt lat="42.93588" lon="0.24957">
        <ele>1353.839</ele>
        <time>2023-07-09T16:50:03Z</time>
      </trkpt>
      <trkpt lat="42.93594" lon="0.24958">
        <ele>1353.601</ele>
        <time>2023-07-09T16:50:09Z</time>
      </trkpt>
      <trkpt lat="42.93598" lon="0.24959">
        <ele>1353.521</ele>
        <time>2023-07-09T16:50:13Z</time>
      </trkpt>
      <trkpt lat="42.93603" lon="0.2496">
        <ele>1353.709</ele>
        <time>2023-07-09T16:50:17Z</time>
      </trkpt>
      <trkpt lat="42.93608" lon="0.24961">
        <ele>1354.074</ele>
        <time>2023-07-09T16:50:21Z</time>
      </trkpt>
      <trkpt lat="42.93613" lon="0.24961">
        <ele>1353.997</ele>
        <time>2023-07-09T16:50:26Z</time>
      </trkpt>
      <trkpt lat="42.93618" lon="0.24964">
        <ele>1354.093</ele>
        <time>2023-07-09T16:50:29Z</time>
      </trkpt>
      <trkpt lat="42.93625" lon="0.24964">
        <ele>1354.354</ele>
        <time>2023-07-09T16:50:34Z</time>
      </trkpt>
      <trkpt lat="42.9363" lon="0.24965">
        <ele>1354.384</ele>
        <time>2023-07-09T16:50:40Z</time>
      </trkpt>
      <trkpt lat="42.93635" lon="0.24968">
        <ele>1354.175</ele>
        <time>2023-07-09T16:50:44Z</time>
      </trkpt>
      <trkpt lat="42.9364" lon="0.24968">
        <ele>1353.967</ele>
        <time>2023-07-09T16:50:48Z</time>
      </trkpt>
      <trkpt lat="42.93645" lon="0.24969">
        <ele>1353.719</ele>
        <time>2023-07-09T16:50:53Z</time>
      </trkpt>
      <trkpt lat="42.9365" lon="0.2497">
        <ele>1353.96</ele>
        <time>2023-07-09T16:50:57Z</time>
      </trkpt>
      <trkpt lat="42.93655" lon="0.24971">
        <ele>1353.779</ele>
        <time>2023-07-09T16:51:01Z</time>
      </trkpt>
      <trkpt lat="42.9366" lon="0.24972">
        <ele>1353.605</ele>
        <time>2023-07-09T16:51:06Z</time>
      </trkpt>
      <trkpt lat="42.93665" lon="0.24973">
        <ele>1353.625</ele>
        <time>2023-07-09T16:51:10Z</time>
      </trkpt>
      <trkpt lat="42.93671" lon="0.24974">
        <ele>1353.609</ele>
        <time>2023-07-09T16:51:14Z</time>
      </trkpt>
      <trkpt lat="42.93675" lon="0.24975">
        <ele>1353.878</ele>
        <time>2023-07-09T16:51:19Z</time>
      </trkpt>
      <trkpt lat="42.9368" lon="0.24976">
        <ele>1353.621</ele>
        <time>2023-07-09T16:51:24Z</time>
      </trkpt>
      <trkpt lat="42.93686" lon="0.24978">
        <ele>1353.527</ele>
        <time>2023-07-09T16:51:29Z</time>
      </trkpt>
      <trkpt lat="42.93691" lon="0.2498">
        <ele>1353.368</ele>
        <time>2023-07-09T16:51:33Z</time>
      </trkpt>
      <trkpt lat="42.93696" lon="0.24982">
        <ele>1353.078</ele>
        <time>2023-07-09T16:51:37Z</time>
      </trkpt>
      <trkpt lat="42.93702" lon="0.24982">
        <ele>1352.979</ele>
        <time>2023-07-09T16:51:42Z</time>
      </trkpt>
      <trkpt lat="42.93706" lon="0.24984">
        <ele>1352.951</ele>
        <time>2023-07-09T16:51:45Z</time>
      </trkpt>
      <trkpt lat="42.93711" lon="0.24986">
        <ele>1352.923</ele>
        <time>2023-07-09T16:51:50Z</time>
      </trkpt>
      <trkpt lat="42.93717" lon="0.24987">
        <ele>1352.334</ele>
        <time>2023-07-09T16:51:55Z</time>
      </trkpt>
      <trkpt lat="42.93723" lon="0.24988">
        <ele>1351.647</ele>
        <time>2023-07-09T16:52:00Z</time>
      </trkpt>
      <trkpt lat="42.93728" lon="0.2499">
        <ele>1351.629</ele>
        <time>2023-07-09T16:52:05Z</time>
      </trkpt>
      <trkpt lat="42.93732" lon="0.24991">
        <ele>1351.621</ele>
        <time>2023-07-09T16:52:09Z</time>
      </trkpt>
      <trkpt lat="42.93737" lon="0.24992">
        <ele>1351.509</ele>
        <time>2023-07-09T16:52:13Z</time>
      </trkpt>
      <trkpt lat="42.93742" lon="0.24993">
        <ele>1351.335</ele>
        <time>2023-07-09T16:52:17Z</time>
      </trkpt>
      <trkpt lat="42.93746" lon="0.24996">
        <ele>1351.188</ele>
        <time>2023-07-09T16:52:22Z</time>
      </trkpt>
      <trkpt lat="42.93751" lon="0.24997">
        <ele>1350.834</ele>
        <time>2023-07-09T16:52:26Z</time>
      </trkpt>
      <trkpt lat="42.93756" lon="0.24999">
        <ele>1350.445</ele>
        <time>2023-07-09T16:52:30Z</time>
      </trkpt>
      <trkpt lat="42.93761" lon="0.25003">
        <ele>1349.955</ele>
        <time>2023-07-09T16:52:34Z</time>
      </trkpt>
      <trkpt lat="42.93765" lon="0.25004">
        <ele>1349.766</ele>
        <time>2023-07-09T16:52:39Z</time>
      </trkpt>
      <trkpt lat="42.9377" lon="0.25007">
        <ele>1349.528</ele>
        <time>2023-07-09T16:52:43Z</time>
      </trkpt>
      <trkpt lat="42.93775" lon="0.2501">
        <ele>1348.58</ele>
        <time>2023-07-09T16:52:47Z</time>
      </trkpt>
      <trkpt lat="42.93779" lon="0.25012">
        <ele>1347.341</ele>
        <time>2023-07-09T16:52:51Z</time>
      </trkpt>
      <trkpt lat="42.93783" lon="0.25016">
        <ele>1347.372</ele>
        <time>2023-07-09T16:52:55Z</time>
      </trkpt>
      <trkpt lat="42.93788" lon="0.25018">
        <ele>1347.113</ele>
        <time>2023-07-09T16:53:00Z</time>
      </trkpt>
      <trkpt lat="42.93793" lon="0.25016">
        <ele>1346.914</ele>
        <time>2023-07-09T16:53:05Z</time>
      </trkpt>
      <trkpt lat="42.93795" lon="0.2501">
        <ele>1346.809</ele>
        <time>2023-07-09T16:53:10Z</time>
      </trkpt>
      <trkpt lat="42.93794" lon="0.25003">
        <ele>1345.948</ele>
        <time>2023-07-09T16:53:15Z</time>
      </trkpt>
      <trkpt lat="42.93791" lon="0.24998">
        <ele>1344.741</ele>
        <time>2023-07-09T16:53:20Z</time>
      </trkpt>
      <trkpt lat="42.93789" lon="0.24991">
        <ele>1344.117</ele>
        <time>2023-07-09T16:53:25Z</time>
      </trkpt>
      <trkpt lat="42.93786" lon="0.24985">
        <ele>1343.258</ele>
        <time>2023-07-09T16:53:29Z</time>
      </trkpt>
      <trkpt lat="42.93784" lon="0.2498">
        <ele>1342.428</ele>
        <time>2023-07-09T16:53:33Z</time>
      </trkpt>
      <trkpt lat="42.93781" lon="0.24974">
        <ele>1342.079</ele>
        <time>2023-07-09T16:53:38Z</time>
      </trkpt>
      <trkpt lat="42.93778" lon="0.24968">
        <ele>1341.761</ele>
        <time>2023-07-09T16:53:42Z</time>
      </trkpt>
      <trkpt lat="42.93775" lon="0.24963">
        <ele>1341.783</ele>
        <time>2023-07-09T16:53:46Z</time>
      </trkpt>
      <trkpt lat="42.93772" lon="0.24959">
        <ele>1341.554</ele>
        <time>2023-07-09T16:53:51Z</time>
      </trkpt>
      <trkpt lat="42.93769" lon="0.24952">
        <ele>1341.557</ele>
        <time>2023-07-09T16:53:56Z</time>
      </trkpt>
      <trkpt lat="42.93766" lon="0.24946">
        <ele>1341.5</ele>
        <time>2023-07-09T16:54:00Z</time>
      </trkpt>
      <trkpt lat="42.93764" lon="0.24941">
        <ele>1341.32</ele>
        <time>2023-07-09T16:54:06Z</time>
      </trkpt>
      <trkpt lat="42.93761" lon="0.24934">
        <ele>1341.109</ele>
        <time>2023-07-09T16:54:11Z</time>
      </trkpt>
      <trkpt lat="42.93757" lon="0.24929">
        <ele>1341.156</ele>
        <time>2023-07-09T16:54:15Z</time>
      </trkpt>
      <trkpt lat="42.93754" lon="0.24924">
        <ele>1340.739</ele>
        <time>2023-07-09T16:54:20Z</time>
      </trkpt>
      <trkpt lat="42.93751" lon="0.24918">
        <ele>1340.295</ele>
        <time>2023-07-09T16:54:24Z</time>
      </trkpt>
      <trkpt lat="42.93748" lon="0.24912">
        <ele>1339.476</ele>
        <time>2023-07-09T16:54:29Z</time>
      </trkpt>
      <trkpt lat="42.93744" lon="0.24906">
        <ele>1338.446</ele>
        <time>2023-07-09T16:54:34Z</time>
      </trkpt>
      <trkpt lat="42.93742" lon="0.249">
        <ele>1337.967</ele>
        <time>2023-07-09T16:54:39Z</time>
      </trkpt>
      <trkpt lat="42.9374" lon="0.24894">
        <ele>1337.239</ele>
        <time>2023-07-09T16:54:42Z</time>
      </trkpt>
      <trkpt lat="42.93737" lon="0.24888">
        <ele>1336.421</ele>
        <time>2023-07-09T16:54:46Z</time>
      </trkpt>
      <trkpt lat="42.93736" lon="0.24882">
        <ele>1335.992</ele>
        <time>2023-07-09T16:54:50Z</time>
      </trkpt>
      <trkpt lat="42.93733" lon="0.24876">
        <ele>1335.324</ele>
        <time>2023-07-09T16:54:55Z</time>
      </trkpt>
      <trkpt lat="42.93731" lon="0.2487">
        <ele>1334.704</ele>
        <time>2023-07-09T16:54:59Z</time>
      </trkpt>
      <trkpt lat="42.9373" lon="0.24862">
        <ele>1334.514</ele>
        <time>2023-07-09T16:55:04Z</time>
      </trkpt>
      <trkpt lat="42.93729" lon="0.24856">
        <ele>1334.109</ele>
        <time>2023-07-09T16:55:08Z</time>
      </trkpt>
      <trkpt lat="42.93731" lon="0.24848">
        <ele>1333.413</ele>
        <time>2023-07-09T16:55:13Z</time>
      </trkpt>
      <trkpt lat="42.93733" lon="0.24842">
        <ele>1332.776</ele>
        <time>2023-07-09T16:55:17Z</time>
      </trkpt>
      <trkpt lat="42.93737" lon="0.24836">
        <ele>1332.762</ele>
        <time>2023-07-09T16:55:22Z</time>
      </trkpt>
      <trkpt lat="42.93739" lon="0.2483">
        <ele>1332.813</ele>
        <time>2023-07-09T16:55:26Z</time>
      </trkpt>
      <trkpt lat="42.9374" lon="0.24823">
        <ele>1332.833</ele>
        <time>2023-07-09T16:55:31Z</time>
      </trkpt>
      <trkpt lat="42.9374" lon="0.24815">
        <ele>1333.154</ele>
        <time>2023-07-09T16:55:35Z</time>
      </trkpt>
      <trkpt lat="42.9374" lon="0.24809">
        <ele>1333.116</ele>
        <time>2023-07-09T16:55:40Z</time>
      </trkpt>
      <trkpt lat="42.93739" lon="0.24802">
        <ele>1333.188</ele>
        <time>2023-07-09T16:55:45Z</time>
      </trkpt>
      <trkpt lat="42.93738" lon="0.24796">
        <ele>1331.889</ele>
        <time>2023-07-09T16:55:50Z</time>
      </trkpt>
      <trkpt lat="42.93735" lon="0.2479">
        <ele>1329.799</ele>
        <time>2023-07-09T16:55:54Z</time>
      </trkpt>
      <trkpt lat="42.93733" lon="0.24784">
        <ele>1329.007</ele>
        <time>2023-07-09T16:55:58Z</time>
      </trkpt>
      <trkpt lat="42.9373" lon="0.24778">
        <ele>1328.927</ele>
        <time>2023-07-09T16:56:03Z</time>
      </trkpt>
      <trkpt lat="42.93727" lon="0.24774">
        <ele>1328.609</ele>
        <time>2023-07-09T16:56:08Z</time>
      </trkpt>
      <trkpt lat="42.93725" lon="0.24768">
        <ele>1328.66</ele>
        <time>2023-07-09T16:56:12Z</time>
      </trkpt>
      <trkpt lat="42.93723" lon="0.24762">
        <ele>1328.663</ele>
        <time>2023-07-09T16:56:17Z</time>
      </trkpt>
      <trkpt lat="42.93721" lon="0.24755">
        <ele>1328.649</ele>
        <time>2023-07-09T16:56:21Z</time>
      </trkpt>
      <trkpt lat="42.93719" lon="0.2475">
        <ele>1329.39</ele>
        <time>2023-07-09T16:56:24Z</time>
      </trkpt>
      <trkpt lat="42.93718" lon="0.24743">
        <ele>1329.73</ele>
        <time>2023-07-09T16:56:28Z</time>
      </trkpt>
      <trkpt lat="42.93717" lon="0.24736">
        <ele>1329.751</ele>
        <time>2023-07-09T16:56:32Z</time>
      </trkpt>
      <trkpt lat="42.93718" lon="0.24729">
        <ele>1329.363</ele>
        <time>2023-07-09T16:56:37Z</time>
      </trkpt>
      <trkpt lat="42.93721" lon="0.24722">
        <ele>1329.165</ele>
        <time>2023-07-09T16:56:42Z</time>
      </trkpt>
      <trkpt lat="42.93723" lon="0.24716">
        <ele>1328.036</ele>
        <time>2023-07-09T16:56:47Z</time>
      </trkpt>
      <trkpt lat="42.93724" lon="0.24709">
        <ele>1327.497</ele>
        <time>2023-07-09T16:56:51Z</time>
      </trkpt>
      <trkpt lat="42.93725" lon="0.24702">
        <ele>1326.823</ele>
        <time>2023-07-09T16:56:56Z</time>
      </trkpt>
      <trkpt lat="42.93724" lon="0.24696">
        <ele>1325.725</ele>
        <time>2023-07-09T16:57:01Z</time>
      </trkpt>
      <trkpt lat="42.93723" lon="0.24688">
        <ele>1324.909</ele>
        <time>2023-07-09T16:57:06Z</time>
      </trkpt>
      <trkpt lat="42.93722" lon="0.24682">
        <ele>1324.26</ele>
        <time>2023-07-09T16:57:11Z</time>
      </trkpt>
      <trkpt lat="42.93721" lon="0.24674">
        <ele>1323.243</ele>
        <time>2023-07-09T16:57:16Z</time>
      </trkpt>
      <trkpt lat="42.93719" lon="0.24667">
        <ele>1322.279</ele>
        <time>2023-07-09T16:57:22Z</time>
      </trkpt>
      <trkpt lat="42.93719" lon="0.24661">
        <ele>1321.51</ele>
        <time>2023-07-09T16:57:27Z</time>
      </trkpt>
      <trkpt lat="42.93718" lon="0.24652">
        <ele>1320.92</ele>
        <time>2023-07-09T16:57:31Z</time>
      </trkpt>
      <trkpt lat="42.93718" lon="0.24646">
        <ele>1320.311</ele>
        <time>2023-07-09T16:57:36Z</time>
      </trkpt>
      <trkpt lat="42.93717" lon="0.24638">
        <ele>1320.123</ele>
        <time>2023-07-09T16:57:40Z</time>
      </trkpt>
      <trkpt lat="42.93715" lon="0.24632">
        <ele>1320.345</ele>
        <time>2023-07-09T16:57:44Z</time>
      </trkpt>
      <trkpt lat="42.93713" lon="0.24627">
        <ele>1321.546</ele>
        <time>2023-07-09T16:57:48Z</time>
      </trkpt>
      <trkpt lat="42.9371" lon="0.24621">
        <ele>1321.557</ele>
        <time>2023-07-09T16:57:52Z</time>
      </trkpt>
      <trkpt lat="42.93706" lon="0.24616">
        <ele>1321.5</ele>
        <time>2023-07-09T16:57:57Z</time>
      </trkpt>
      <trkpt lat="42.93703" lon="0.24611">
        <ele>1321.52</ele>
        <time>2023-07-09T16:58:02Z</time>
      </trkpt>
      <trkpt lat="42.93699" lon="0.24606">
        <ele>1319.609</ele>
        <time>2023-07-09T16:58:07Z</time>
      </trkpt>
      <trkpt lat="42.93696" lon="0.24599">
        <ele>1319.036</ele>
        <time>2023-07-09T16:58:12Z</time>
      </trkpt>
      <trkpt lat="42.93692" lon="0.24595">
        <ele>1318.749</ele>
        <time>2023-07-09T16:58:17Z</time>
      </trkpt>
      <trkpt lat="42.93688" lon="0.2459">
        <ele>1318.965</ele>
        <time>2023-07-09T16:58:24Z</time>
      </trkpt>
      <trkpt lat="42.93687" lon="0.24585">
        <ele>1318.586</ele>
        <time>2023-07-09T16:58:28Z</time>
      </trkpt>
      <trkpt lat="42.93689" lon="0.24579">
        <ele>1318.626</ele>
        <time>2023-07-09T16:58:36Z</time>
      </trkpt>
      <trkpt lat="42.93694" lon="0.24577">
        <ele>1318.787</ele>
        <time>2023-07-09T16:58:42Z</time>
      </trkpt>
      <trkpt lat="42.93699" lon="0.24577">
        <ele>1318.719</ele>
        <time>2023-07-09T16:58:46Z</time>
      </trkpt>
      <trkpt lat="42.93703" lon="0.24577">
        <ele>1318.911</ele>
        <time>2023-07-09T16:58:53Z</time>
      </trkpt>
      <trkpt lat="42.93709" lon="0.24575">
        <ele>1319.832</ele>
        <time>2023-07-09T16:58:59Z</time>
      </trkpt>
      <trkpt lat="42.93714" lon="0.24572">
        <ele>1321.082</ele>
        <time>2023-07-09T16:59:05Z</time>
      </trkpt>
      <trkpt lat="42.93719" lon="0.24571">
        <ele>1321.843</ele>
        <time>2023-07-09T16:59:10Z</time>
      </trkpt>
      <trkpt lat="42.93724" lon="0.24572">
        <ele>1322.617</ele>
        <time>2023-07-09T16:59:16Z</time>
      </trkpt>
      <trkpt lat="42.93729" lon="0.24575">
        <ele>1322.709</ele>
        <time>2023-07-09T16:59:20Z</time>
      </trkpt>
      <trkpt lat="42.93734" lon="0.2458">
        <ele>1322.849</ele>
        <time>2023-07-09T16:59:26Z</time>
      </trkpt>
      <trkpt lat="42.93738" lon="0.24584">
        <ele>1322.852</ele>
        <time>2023-07-09T16:59:31Z</time>
      </trkpt>
      <trkpt lat="42.93743" lon="0.24586">
        <ele>1322.858</ele>
        <time>2023-07-09T16:59:36Z</time>
      </trkpt>
      <trkpt lat="42.93748" lon="0.24588">
        <ele>1322.869</ele>
        <time>2023-07-09T16:59:40Z</time>
      </trkpt>
      <trkpt lat="42.93753" lon="0.24591">
        <ele>1322.349</ele>
        <time>2023-07-09T16:59:45Z</time>
      </trkpt>
      <trkpt lat="42.93758" lon="0.24593">
        <ele>1321.93</ele>
        <time>2023-07-09T16:59:50Z</time>
      </trkpt>
      <trkpt lat="42.93764" lon="0.24594">
        <ele>1321.932</ele>
        <time>2023-07-09T16:59:54Z</time>
      </trkpt>
      <trkpt lat="42.93769" lon="0.24594">
        <ele>1321.724</ele>
        <time>2023-07-09T17:00:00Z</time>
      </trkpt>
      <trkpt lat="42.93774" lon="0.24594">
        <ele>1321.475</ele>
        <time>2023-07-09T17:00:05Z</time>
      </trkpt>
      <trkpt lat="42.93779" lon="0.24594">
        <ele>1320.251</ele>
        <time>2023-07-09T17:00:10Z</time>
      </trkpt>
      <trkpt lat="42.93785" lon="0.24594">
        <ele>1319.001</ele>
        <time>2023-07-09T17:00:15Z</time>
      </trkpt>
      <trkpt lat="42.93791" lon="0.24596">
        <ele>1318.611</ele>
        <time>2023-07-09T17:00:20Z</time>
      </trkpt>
      <trkpt lat="42.93794" lon="0.24599">
        <ele>1318.309</ele>
        <time>2023-07-09T17:00:25Z</time>
      </trkpt>
      <trkpt lat="42.938" lon="0.24602">
        <ele>1318.236</ele>
        <time>2023-07-09T17:00:30Z</time>
      </trkpt>
      <trkpt lat="42.93806" lon="0.24603">
        <ele>1318.179</ele>
        <time>2023-07-09T17:00:35Z</time>
      </trkpt>
      <trkpt lat="42.9381" lon="0.24603">
        <ele>1317.645</ele>
        <time>2023-07-09T17:00:39Z</time>
      </trkpt>
      <trkpt lat="42.93816" lon="0.24605">
        <ele>1317.046</ele>
        <time>2023-07-09T17:00:44Z</time>
      </trkpt>
      <trkpt lat="42.93821" lon="0.24607">
        <ele>1317.046</ele>
        <time>2023-07-09T17:00:49Z</time>
      </trkpt>
      <trkpt lat="42.93827" lon="0.24608">
        <ele>1316.957</ele>
        <time>2023-07-09T17:00:54Z</time>
      </trkpt>
      <trkpt lat="42.93831" lon="0.24608">
        <ele>1316.749</ele>
        <time>2023-07-09T17:00:58Z</time>
      </trkpt>
      <trkpt lat="42.93837" lon="0.24609">
        <ele>1316.341</ele>
        <time>2023-07-09T17:01:02Z</time>
      </trkpt>
      <trkpt lat="42.93841" lon="0.24608">
        <ele>1316.232</ele>
        <time>2023-07-09T17:01:07Z</time>
      </trkpt>
      <trkpt lat="42.93846" lon="0.24607">
        <ele>1316.085</ele>
        <time>2023-07-09T17:01:12Z</time>
      </trkpt>
      <trkpt lat="42.93851" lon="0.24606">
        <ele>1315.489</ele>
        <time>2023-07-09T17:01:17Z</time>
      </trkpt>
      <trkpt lat="42.93858" lon="0.24604">
        <ele>1315.217</ele>
        <time>2023-07-09T17:01:22Z</time>
      </trkpt>
      <trkpt lat="42.93862" lon="0.24604">
        <ele>1315.009</ele>
        <time>2023-07-09T17:01:27Z</time>
      </trkpt>
      <trkpt lat="42.93867" lon="0.24602">
        <ele>1314.869</ele>
        <time>2023-07-09T17:01:31Z</time>
      </trkpt>
      <trkpt lat="42.93872" lon="0.246">
        <ele>1314.982</ele>
        <time>2023-07-09T17:01:35Z</time>
      </trkpt>
      <trkpt lat="42.93876" lon="0.24598">
        <ele>1314.918</ele>
        <time>2023-07-09T17:01:39Z</time>
      </trkpt>
      <trkpt lat="42.93881" lon="0.24596">
        <ele>1314.959</ele>
        <time>2023-07-09T17:01:43Z</time>
      </trkpt>
      <trkpt lat="42.93886" lon="0.24595">
        <ele>1314.679</ele>
        <time>2023-07-09T17:01:47Z</time>
      </trkpt>
      <trkpt lat="42.93891" lon="0.24596">
        <ele>1314.48</ele>
        <time>2023-07-09T17:01:52Z</time>
      </trkpt>
      <trkpt lat="42.93896" lon="0.24596">
        <ele>1314.322</ele>
        <time>2023-07-09T17:01:57Z</time>
      </trkpt>
      <trkpt lat="42.93901" lon="0.24598">
        <ele>1313.994</ele>
        <time>2023-07-09T17:02:02Z</time>
      </trkpt>
      <trkpt lat="42.93907" lon="0.24599">
        <ele>1313.625</ele>
        <time>2023-07-09T17:02:07Z</time>
      </trkpt>
      <trkpt lat="42.93913" lon="0.24599">
        <ele>1313.395</ele>
        <time>2023-07-09T17:02:12Z</time>
      </trkpt>
      <trkpt lat="42.93918" lon="0.24599">
        <ele>1313.249</ele>
        <time>2023-07-09T17:02:17Z</time>
      </trkpt>
      <trkpt lat="42.93923" lon="0.24599">
        <ele>1313.023</ele>
        <time>2023-07-09T17:02:21Z</time>
      </trkpt>
      <trkpt lat="42.93928" lon="0.24599">
        <ele>1312.709</ele>
        <time>2023-07-09T17:02:27Z</time>
      </trkpt>
      <trkpt lat="42.93933" lon="0.24598">
        <ele>1312.02</ele>
        <time>2023-07-09T17:02:31Z</time>
      </trkpt>
      <trkpt lat="42.93938" lon="0.24596">
        <ele>1311.473</ele>
        <time>2023-07-09T17:02:36Z</time>
      </trkpt>
      <trkpt lat="42.93943" lon="0.24595">
        <ele>1311.129</ele>
        <time>2023-07-09T17:02:40Z</time>
      </trkpt>
      <trkpt lat="42.93949" lon="0.24593">
        <ele>1310.97</ele>
        <time>2023-07-09T17:02:45Z</time>
      </trkpt>
      <trkpt lat="42.93954" lon="0.24592">
        <ele>1310.64</ele>
        <time>2023-07-09T17:02:50Z</time>
      </trkpt>
      <trkpt lat="42.93958" lon="0.24589">
        <ele>1310.131</ele>
        <time>2023-07-09T17:02:55Z</time>
      </trkpt>
      <trkpt lat="42.93963" lon="0.24586">
        <ele>1309.863</ele>
        <time>2023-07-09T17:03:00Z</time>
      </trkpt>
      <trkpt lat="42.93967" lon="0.24585">
        <ele>1309.795</ele>
        <time>2023-07-09T17:03:04Z</time>
      </trkpt>
      <trkpt lat="42.93973" lon="0.24584">
        <ele>1309.536</ele>
        <time>2023-07-09T17:03:09Z</time>
      </trkpt>
      <trkpt lat="42.93978" lon="0.24582">
        <ele>1309.512</ele>
        <time>2023-07-09T17:03:14Z</time>
      </trkpt>
      <trkpt lat="42.93984" lon="0.24581">
        <ele>1308.932</ele>
        <time>2023-07-09T17:03:19Z</time>
      </trkpt>
      <trkpt lat="42.93988" lon="0.24577">
        <ele>1308.705</ele>
        <time>2023-07-09T17:03:24Z</time>
      </trkpt>
      <trkpt lat="42.93993" lon="0.24575">
        <ele>1308.709</ele>
        <time>2023-07-09T17:03:29Z</time>
      </trkpt>
      <trkpt lat="42.93997" lon="0.24573">
        <ele>1308.842</ele>
        <time>2023-07-09T17:03:34Z</time>
      </trkpt>
      <trkpt lat="42.94002" lon="0.24571">
        <ele>1308.865</ele>
        <time>2023-07-09T17:03:38Z</time>
      </trkpt>
      <trkpt lat="42.94006" lon="0.24569">
        <ele>1308.731</ele>
        <time>2023-07-09T17:03:42Z</time>
      </trkpt>
      <trkpt lat="42.94011" lon="0.24566">
        <ele>1309.182</ele>
        <time>2023-07-09T17:03:47Z</time>
      </trkpt>
      <trkpt lat="42.94015" lon="0.24563">
        <ele>1308.762</ele>
        <time>2023-07-09T17:03:52Z</time>
      </trkpt>
      <trkpt lat="42.9402" lon="0.2456">
        <ele>1308.533</ele>
        <time>2023-07-09T17:03:56Z</time>
      </trkpt>
      <trkpt lat="42.94025" lon="0.24558">
        <ele>1308.775</ele>
        <time>2023-07-09T17:04:00Z</time>
      </trkpt>
      <trkpt lat="42.9403" lon="0.24554">
        <ele>1308.967</ele>
        <time>2023-07-09T17:04:05Z</time>
      </trkpt>
      <trkpt lat="42.94035" lon="0.24552">
        <ele>1308.958</ele>
        <time>2023-07-09T17:04:10Z</time>
      </trkpt>
      <trkpt lat="42.9404" lon="0.24548">
        <ele>1308.978</ele>
        <time>2023-07-09T17:04:15Z</time>
      </trkpt>
      <trkpt lat="42.94044" lon="0.24544">
        <ele>1309.433</ele>
        <time>2023-07-09T17:04:19Z</time>
      </trkpt>
      <trkpt lat="42.94048" lon="0.2454">
        <ele>1309.626</ele>
        <time>2023-07-09T17:04:24Z</time>
      </trkpt>
      <trkpt lat="42.9405" lon="0.24535">
        <ele>1309.609</ele>
        <time>2023-07-09T17:04:28Z</time>
      </trkpt>
      <trkpt lat="42.94054" lon="0.2453">
        <ele>1309.698</ele>
        <time>2023-07-09T17:04:32Z</time>
      </trkpt>
      <trkpt lat="42.94058" lon="0.24526">
        <ele>1309.231</ele>
        <time>2023-07-09T17:04:37Z</time>
      </trkpt>
      <trkpt lat="42.94063" lon="0.24524">
        <ele>1309.277</ele>
        <time>2023-07-09T17:04:41Z</time>
      </trkpt>
      <trkpt lat="42.94067" lon="0.24521">
        <ele>1309.228</ele>
        <time>2023-07-09T17:04:46Z</time>
      </trkpt>
      <trkpt lat="42.94072" lon="0.24518">
        <ele>1309.458</ele>
        <time>2023-07-09T17:04:51Z</time>
      </trkpt>
      <trkpt lat="42.94077" lon="0.24517">
        <ele>1309.539</ele>
        <time>2023-07-09T17:04:56Z</time>
      </trkpt>
      <trkpt lat="42.94082" lon="0.24518">
        <ele>1309.941</ele>
        <time>2023-07-09T17:05:00Z</time>
      </trkpt>
      <trkpt lat="42.94086" lon="0.24521">
        <ele>1310.063</ele>
        <time>2023-07-09T17:05:04Z</time>
      </trkpt>
      <trkpt lat="42.9409" lon="0.24526">
        <ele>1309.984</ele>
        <time>2023-07-09T17:05:09Z</time>
      </trkpt>
      <trkpt lat="42.94095" lon="0.2453">
        <ele>1309.587</ele>
        <time>2023-07-09T17:05:14Z</time>
      </trkpt>
      <trkpt lat="42.94099" lon="0.24533">
        <ele>1309.242</ele>
        <time>2023-07-09T17:05:18Z</time>
      </trkpt>
      <trkpt lat="42.94103" lon="0.24537">
        <ele>1308.826</ele>
        <time>2023-07-09T17:05:23Z</time>
      </trkpt>
      <trkpt lat="42.94107" lon="0.24539">
        <ele>1308.409</ele>
        <time>2023-07-09T17:05:28Z</time>
      </trkpt>
      <trkpt lat="42.94112" lon="0.24541">
        <ele>1308.499</ele>
        <time>2023-07-09T17:05:32Z</time>
      </trkpt>
      <trkpt lat="42.94116" lon="0.24542">
        <ele>1308.452</ele>
        <time>2023-07-09T17:05:36Z</time>
      </trkpt>
      <trkpt lat="42.94121" lon="0.24544">
        <ele>1308.248</ele>
        <time>2023-07-09T17:05:42Z</time>
      </trkpt>
      <trkpt lat="42.94125" lon="0.24546">
        <ele>1308.189</ele>
        <time>2023-07-09T17:05:47Z</time>
      </trkpt>
      <trkpt lat="42.9413" lon="0.24546">
        <ele>1306.719</ele>
        <time>2023-07-09T17:05:51Z</time>
      </trkpt>
      <trkpt lat="42.94135" lon="0.24546">
        <ele>1304.97</ele>
        <time>2023-07-09T17:05:55Z</time>
      </trkpt>
      <trkpt lat="42.9414" lon="0.24546">
        <ele>1303.832</ele>
        <time>2023-07-09T17:05:59Z</time>
      </trkpt>
      <trkpt lat="42.94146" lon="0.24546">
        <ele>1303.494</ele>
        <time>2023-07-09T17:06:04Z</time>
      </trkpt>
      <trkpt lat="42.94152" lon="0.24545">
        <ele>1303.295</ele>
        <time>2023-07-09T17:06:09Z</time>
      </trkpt>
      <trkpt lat="42.94157" lon="0.24545">
        <ele>1303.098</ele>
        <time>2023-07-09T17:06:13Z</time>
      </trkpt>
      <trkpt lat="42.94162" lon="0.24543">
        <ele>1301.515</ele>
        <time>2023-07-09T17:06:18Z</time>
      </trkpt>
      <trkpt lat="42.94167" lon="0.24543">
        <ele>1301.426</ele>
        <time>2023-07-09T17:06:22Z</time>
      </trkpt>
      <trkpt lat="42.94171" lon="0.24541">
        <ele>1301.009</ele>
        <time>2023-07-09T17:06:26Z</time>
      </trkpt>
      <trkpt lat="42.94177" lon="0.2454">
        <ele>1300.49</ele>
        <time>2023-07-09T17:06:31Z</time>
      </trkpt>
      <trkpt lat="42.94182" lon="0.24538">
        <ele>1300.173</ele>
        <time>2023-07-09T17:06:35Z</time>
      </trkpt>
      <trkpt lat="42.94187" lon="0.24534">
        <ele>1299.639</ele>
        <time>2023-07-09T17:06:40Z</time>
      </trkpt>
      <trkpt lat="42.94192" lon="0.24531">
        <ele>1299.26</ele>
        <time>2023-07-09T17:06:45Z</time>
      </trkpt>
      <trkpt lat="42.94196" lon="0.24527">
        <ele>1298.53</ele>
        <time>2023-07-09T17:06:49Z</time>
      </trkpt>
      <trkpt lat="42.942" lon="0.24523">
        <ele>1297.451</ele>
        <time>2023-07-09T17:06:54Z</time>
      </trkpt>
      <trkpt lat="42.94205" lon="0.24519">
        <ele>1296.813</ele>
        <time>2023-07-09T17:06:59Z</time>
      </trkpt>
      <trkpt lat="42.94209" lon="0.24515">
        <ele>1296.715</ele>
        <time>2023-07-09T17:07:03Z</time>
      </trkpt>
      <trkpt lat="42.94213" lon="0.24512">
        <ele>1296.676</ele>
        <time>2023-07-09T17:07:07Z</time>
      </trkpt>
      <trkpt lat="42.94218" lon="0.24509">
        <ele>1296.614</ele>
        <time>2023-07-09T17:07:11Z</time>
      </trkpt>
      <trkpt lat="42.94222" lon="0.24504">
        <ele>1296.454</ele>
        <time>2023-07-09T17:07:15Z</time>
      </trkpt>
      <trkpt lat="42.94226" lon="0.245">
        <ele>1295.909</ele>
        <time>2023-07-09T17:07:20Z</time>
      </trkpt>
      <trkpt lat="42.9423" lon="0.24496">
        <ele>1295.509</ele>
        <time>2023-07-09T17:07:24Z</time>
      </trkpt>
      <trkpt lat="42.94233" lon="0.24491">
        <ele>1294.772</ele>
        <time>2023-07-09T17:07:27Z</time>
      </trkpt>
      <trkpt lat="42.94237" lon="0.24488">
        <ele>1293.855</ele>
        <time>2023-07-09T17:07:32Z</time>
      </trkpt>
      <trkpt lat="42.94241" lon="0.24483">
        <ele>1293.421</ele>
        <time>2023-07-09T17:07:37Z</time>
      </trkpt>
      <trkpt lat="42.94245" lon="0.24478">
        <ele>1293.062</ele>
        <time>2023-07-09T17:07:42Z</time>
      </trkpt>
      <trkpt lat="42.94248" lon="0.24474">
        <ele>1292.112</ele>
        <time>2023-07-09T17:07:45Z</time>
      </trkpt>
      <trkpt lat="42.94251" lon="0.24469">
        <ele>1291.433</ele>
        <time>2023-07-09T17:07:49Z</time>
      </trkpt>
      <trkpt lat="42.94255" lon="0.24464">
        <ele>1291.315</ele>
        <time>2023-07-09T17:07:53Z</time>
      </trkpt>
      <trkpt lat="42.94259" lon="0.2446">
        <ele>1291.147</ele>
        <time>2023-07-09T17:07:57Z</time>
      </trkpt>
      <trkpt lat="42.94262" lon="0.24454">
        <ele>1291.028</ele>
        <time>2023-07-09T17:08:01Z</time>
      </trkpt>
      <trkpt lat="42.94265" lon="0.24449">
        <ele>1290.548</ele>
        <time>2023-07-09T17:08:05Z</time>
      </trkpt>
      <trkpt lat="42.94268" lon="0.24445">
        <ele>1289.661</ele>
        <time>2023-07-09T17:08:09Z</time>
      </trkpt>
      <trkpt lat="42.94272" lon="0.2444">
        <ele>1289.217</ele>
        <time>2023-07-09T17:08:14Z</time>
      </trkpt>
      <trkpt lat="42.94275" lon="0.24435">
        <ele>1289.209</ele>
        <time>2023-07-09T17:08:18Z</time>
      </trkpt>
      <trkpt lat="42.94278" lon="0.2443">
        <ele>1289.275</ele>
        <time>2023-07-09T17:08:22Z</time>
      </trkpt>
      <trkpt lat="42.94281" lon="0.24424">
        <ele>1289.298</ele>
        <time>2023-07-09T17:08:26Z</time>
      </trkpt>
      <trkpt lat="42.94285" lon="0.24418">
        <ele>1289.534</ele>
        <time>2023-07-09T17:08:31Z</time>
      </trkpt>
      <trkpt lat="42.94288" lon="0.24413">
        <ele>1289.585</ele>
        <time>2023-07-09T17:08:36Z</time>
      </trkpt>
      <trkpt lat="42.94292" lon="0.24408">
        <ele>1289.585</ele>
        <time>2023-07-09T17:08:40Z</time>
      </trkpt>
      <trkpt lat="42.94295" lon="0.24401">
        <ele>1289.526</ele>
        <time>2023-07-09T17:08:45Z</time>
      </trkpt>
      <trkpt lat="42.94298" lon="0.24395">
        <ele>1288.918</ele>
        <time>2023-07-09T17:08:49Z</time>
      </trkpt>
      <trkpt lat="42.943" lon="0.2439">
        <ele>1288.23</ele>
        <time>2023-07-09T17:08:53Z</time>
      </trkpt>
      <trkpt lat="42.94303" lon="0.24382">
        <ele>1287.521</ele>
        <time>2023-07-09T17:08:58Z</time>
      </trkpt>
      <trkpt lat="42.94307" lon="0.24375">
        <ele>1286.723</ele>
        <time>2023-07-09T17:09:03Z</time>
      </trkpt>
      <trkpt lat="42.94309" lon="0.24369">
        <ele>1285.883</ele>
        <time>2023-07-09T17:09:08Z</time>
      </trkpt>
      <trkpt lat="42.94312" lon="0.24364">
        <ele>1285.511</ele>
        <time>2023-07-09T17:09:13Z</time>
      </trkpt>
      <trkpt lat="42.94314" lon="0.24357">
        <ele>1284.009</ele>
        <time>2023-07-09T17:09:17Z</time>
      </trkpt>
      <trkpt lat="42.94315" lon="0.2435">
        <ele>1284.273</ele>
        <time>2023-07-09T17:09:21Z</time>
      </trkpt>
      <trkpt lat="42.94318" lon="0.24344">
        <ele>1283.636</ele>
        <time>2023-07-09T17:09:26Z</time>
      </trkpt>
      <trkpt lat="42.9432" lon="0.24338">
        <ele>1283.342</ele>
        <time>2023-07-09T17:09:30Z</time>
      </trkpt>
      <trkpt lat="42.94321" lon="0.24331">
        <ele>1283.053</ele>
        <time>2023-07-09T17:09:35Z</time>
      </trkpt>
      <trkpt lat="42.94323" lon="0.24325">
        <ele>1283.053</ele>
        <time>2023-07-09T17:09:39Z</time>
      </trkpt>
      <trkpt lat="42.94323" lon="0.24319">
        <ele>1282.854</ele>
        <time>2023-07-09T17:09:45Z</time>
      </trkpt>
      <trkpt lat="42.94326" lon="0.24312">
        <ele>1282.546</ele>
        <time>2023-07-09T17:09:49Z</time>
      </trkpt>
      <trkpt lat="42.94327" lon="0.24305">
        <ele>1281.958</ele>
        <time>2023-07-09T17:09:54Z</time>
      </trkpt>
      <trkpt lat="42.94328" lon="0.24299">
        <ele>1281.459</ele>
        <time>2023-07-09T17:09:58Z</time>
      </trkpt>
      <trkpt lat="42.94329" lon="0.24292">
        <ele>1281.081</ele>
        <time>2023-07-09T17:10:02Z</time>
      </trkpt>
      <trkpt lat="42.9433" lon="0.24286">
        <ele>1280.661</ele>
        <time>2023-07-09T17:10:06Z</time>
      </trkpt>
      <trkpt lat="42.9433" lon="0.24278">
        <ele>1280.217</ele>
        <time>2023-07-09T17:10:11Z</time>
      </trkpt>
      <trkpt lat="42.94329" lon="0.24272">
        <ele>1280.009</ele>
        <time>2023-07-09T17:10:15Z</time>
      </trkpt>
      <trkpt lat="42.94329" lon="0.24265">
        <ele>1279.819</ele>
        <time>2023-07-09T17:10:19Z</time>
      </trkpt>
      <trkpt lat="42.94328" lon="0.24259">
        <ele>1279.632</ele>
        <time>2023-07-09T17:10:24Z</time>
      </trkpt>
      <trkpt lat="42.94327" lon="0.24252">
        <ele>1279.328</ele>
        <time>2023-07-09T17:10:28Z</time>
      </trkpt>
      <trkpt lat="42.94326" lon="0.24245">
        <ele>1278.099</ele>
        <time>2023-07-09T17:10:33Z</time>
      </trkpt>
      <trkpt lat="42.94324" lon="0.24239">
        <ele>1276.789</ele>
        <time>2023-07-09T17:10:38Z</time>
      </trkpt>
      <trkpt lat="42.94324" lon="0.24231">
        <ele>1276.12</ele>
        <time>2023-07-09T17:10:42Z</time>
      </trkpt>
      <trkpt lat="42.94322" lon="0.24224">
        <ele>1275.432</ele>
        <time>2023-07-09T17:10:47Z</time>
      </trkpt>
      <trkpt lat="42.94321" lon="0.24217">
        <ele>1275.394</ele>
        <time>2023-07-09T17:10:51Z</time>
      </trkpt>
      <trkpt lat="42.94319" lon="0.2421">
        <ele>1274.525</ele>
        <time>2023-07-09T17:10:56Z</time>
      </trkpt>
      <trkpt lat="42.94318" lon="0.24203">
        <ele>1274.599</ele>
        <time>2023-07-09T17:11:00Z</time>
      </trkpt>
      <trkpt lat="42.94316" lon="0.24197">
        <ele>1274.407</ele>
        <time>2023-07-09T17:11:04Z</time>
      </trkpt>
      <trkpt lat="42.94314" lon="0.24191">
        <ele>1274.227</ele>
        <time>2023-07-09T17:11:08Z</time>
      </trkpt>
      <trkpt lat="42.94312" lon="0.24185">
        <ele>1273.909</ele>
        <time>2023-07-09T17:11:13Z</time>
      </trkpt>
      <trkpt lat="42.9431" lon="0.24178">
        <ele>1273.78</ele>
        <time>2023-07-09T17:11:18Z</time>
      </trkpt>
      <trkpt lat="42.94308" lon="0.24172">
        <ele>1272.193</ele>
        <time>2023-07-09T17:11:23Z</time>
      </trkpt>
      <trkpt lat="42.94306" lon="0.24166">
        <ele>1270.379</ele>
        <time>2023-07-09T17:11:27Z</time>
      </trkpt>
      <trkpt lat="42.94304" lon="0.2416">
        <ele>1269.73</ele>
        <time>2023-07-09T17:11:31Z</time>
      </trkpt>
      <trkpt lat="42.94301" lon="0.24154">
        <ele>1269.03</ele>
        <time>2023-07-09T17:11:35Z</time>
      </trkpt>
      <trkpt lat="42.94299" lon="0.24148">
        <ele>1268.811</ele>
        <time>2023-07-09T17:11:40Z</time>
      </trkpt>
      <trkpt lat="42.94298" lon="0.24141">
        <ele>1268.593</ele>
        <time>2023-07-09T17:11:44Z</time>
      </trkpt>
      <trkpt lat="42.94299" lon="0.24133">
        <ele>1268.345</ele>
        <time>2023-07-09T17:11:48Z</time>
      </trkpt>
      <trkpt lat="42.94301" lon="0.24126">
        <ele>1268.056</ele>
        <time>2023-07-09T17:11:53Z</time>
      </trkpt>
      <trkpt lat="42.94305" lon="0.24122">
        <ele>1268.124</ele>
        <time>2023-07-09T17:11:58Z</time>
      </trkpt>
      <trkpt lat="42.9431" lon="0.24118">
        <ele>1267.804</ele>
        <time>2023-07-09T17:12:03Z</time>
      </trkpt>
      <trkpt lat="42.94315" lon="0.24113">
        <ele>1267.814</ele>
        <time>2023-07-09T17:12:16Z</time>
      </trkpt>
      <trkpt lat="42.94318" lon="0.24106">
        <ele>1267.809</ele>
        <time>2023-07-09T17:12:21Z</time>
      </trkpt>
      <trkpt lat="42.94322" lon="0.24101">
        <ele>1267.873</ele>
        <time>2023-07-09T17:12:25Z</time>
      </trkpt>
      <trkpt lat="42.94319" lon="0.24096">
        <ele>1267.546</ele>
        <time>2023-07-09T17:12:38Z</time>
      </trkpt>
      <trkpt lat="42.94319" lon="0.24104">
        <ele>1267.822</ele>
        <time>2023-07-09T17:13:11Z</time>
      </trkpt>
      <trkpt lat="42.94321" lon="0.24098">
        <ele>1267.713</ele>
        <time>2023-07-09T17:13:29Z</time>
      </trkpt>
      <trkpt lat="42.94325" lon="0.24094">
        <ele>1267.533</ele>
        <time>2023-07-09T17:14:07Z</time>
      </trkpt>
      <trkpt lat="42.94327" lon="0.24088">
        <ele>1266.944</ele>
        <time>2023-07-09T17:14:12Z</time>
      </trkpt>
      <trkpt lat="42.94329" lon="0.24081">
        <ele>1266.516</ele>
        <time>2023-07-09T17:14:16Z</time>
      </trkpt>
      <trkpt lat="42.94331" lon="0.24074">
        <ele>1266.588</ele>
        <time>2023-07-09T17:14:21Z</time>
      </trkpt>
      <trkpt lat="42.94332" lon="0.24067">
        <ele>1265.749</ele>
        <time>2023-07-09T17:14:26Z</time>
      </trkpt>
      <trkpt lat="42.94335" lon="0.24059">
        <ele>1263.795</ele>
        <time>2023-07-09T17:14:31Z</time>
      </trkpt>
      <trkpt lat="42.94337" lon="0.24052">
        <ele>1261.749</ele>
        <time>2023-07-09T17:14:35Z</time>
      </trkpt>
      <trkpt lat="42.94342" lon="0.24048">
        <ele>1260.523</ele>
        <time>2023-07-09T17:14:39Z</time>
      </trkpt>
      <trkpt lat="42.94346" lon="0.24046">
        <ele>1259.709</ele>
        <time>2023-07-09T17:14:43Z</time>
      </trkpt>
      <trkpt lat="42.94351" lon="0.24048">
        <ele>1259.56</ele>
        <time>2023-07-09T17:14:47Z</time>
      </trkpt>
      <trkpt lat="42.94357" lon="0.2405">
        <ele>1259.683</ele>
        <time>2023-07-09T17:14:51Z</time>
      </trkpt>
      <trkpt lat="42.94362" lon="0.24053">
        <ele>1259.489</ele>
        <time>2023-07-09T17:14:56Z</time>
      </trkpt>
      <trkpt lat="42.94367" lon="0.24054">
        <ele>1259.43</ele>
        <time>2023-07-09T17:14:59Z</time>
      </trkpt>
      <trkpt lat="42.94371" lon="0.24055">
        <ele>1259.23</ele>
        <time>2023-07-09T17:15:02Z</time>
      </trkpt>
      <trkpt lat="42.94377" lon="0.24057">
        <ele>1258.881</ele>
        <time>2023-07-09T17:15:06Z</time>
      </trkpt>
      <trkpt lat="42.94381" lon="0.24058">
        <ele>1258.553</ele>
        <time>2023-07-09T17:15:10Z</time>
      </trkpt>
      <trkpt lat="42.94387" lon="0.2406">
        <ele>1258.275</ele>
        <time>2023-07-09T17:15:15Z</time>
      </trkpt>
      <trkpt lat="42.94392" lon="0.2406">
        <ele>1257.736</ele>
        <time>2023-07-09T17:15:20Z</time>
      </trkpt>
      <trkpt lat="42.94397" lon="0.24061">
        <ele>1257.733</ele>
        <time>2023-07-09T17:15:25Z</time>
      </trkpt>
      <trkpt lat="42.94403" lon="0.24061">
        <ele>1256.823</ele>
        <time>2023-07-09T17:15:28Z</time>
      </trkpt>
      <trkpt lat="42.94408" lon="0.2406">
        <ele>1256.015</ele>
        <time>2023-07-09T17:15:32Z</time>
      </trkpt>
      <trkpt lat="42.94413" lon="0.24059">
        <ele>1255.309</ele>
        <time>2023-07-09T17:15:36Z</time>
      </trkpt>
      <trkpt lat="42.94418" lon="0.24056">
        <ele>1254.754</ele>
        <time>2023-07-09T17:15:40Z</time>
      </trkpt>
      <trkpt lat="42.94422" lon="0.24053">
        <ele>1254.497</ele>
        <time>2023-07-09T17:15:43Z</time>
      </trkpt>
      <trkpt lat="42.94426" lon="0.24049">
        <ele>1254.053</ele>
        <time>2023-07-09T17:15:47Z</time>
      </trkpt>
      <trkpt lat="42.9443" lon="0.24045">
        <ele>1253.834</ele>
        <time>2023-07-09T17:15:50Z</time>
      </trkpt>
      <trkpt lat="42.94434" lon="0.24042">
        <ele>1253.514</ele>
        <time>2023-07-09T17:15:54Z</time>
      </trkpt>
      <trkpt lat="42.94438" lon="0.24036">
        <ele>1253.125</ele>
        <time>2023-07-09T17:15:58Z</time>
      </trkpt>
      <trkpt lat="42.94442" lon="0.2403">
        <ele>1252.687</ele>
        <time>2023-07-09T17:16:02Z</time>
      </trkpt>
      <trkpt lat="42.94445" lon="0.24024">
        <ele>1252.279</ele>
        <time>2023-07-09T17:16:06Z</time>
      </trkpt>
      <trkpt lat="42.94449" lon="0.24019">
        <ele>1252.28</ele>
        <time>2023-07-09T17:16:10Z</time>
      </trkpt>
      <trkpt lat="42.94451" lon="0.24014">
        <ele>1251.952</ele>
        <time>2023-07-09T17:16:14Z</time>
      </trkpt>
      <trkpt lat="42.94454" lon="0.24007">
        <ele>1251.453</ele>
        <time>2023-07-09T17:16:18Z</time>
      </trkpt>
      <trkpt lat="42.94456" lon="0.24001">
        <ele>1251.108</ele>
        <time>2023-07-09T17:16:22Z</time>
      </trkpt>
      <trkpt lat="42.9446" lon="0.23996">
        <ele>1250.909</ele>
        <time>2023-07-09T17:16:26Z</time>
      </trkpt>
      <trkpt lat="42.94462" lon="0.23991">
        <ele>1250.856</ele>
        <time>2023-07-09T17:16:29Z</time>
      </trkpt>
      <trkpt lat="42.94464" lon="0.23984">
        <ele>1250.679</ele>
        <time>2023-07-09T17:16:33Z</time>
      </trkpt>
      <trkpt lat="42.94467" lon="0.23979">
        <ele>1250.265</ele>
        <time>2023-07-09T17:16:37Z</time>
      </trkpt>
      <trkpt lat="42.94471" lon="0.23973">
        <ele>1249.886</ele>
        <time>2023-07-09T17:16:41Z</time>
      </trkpt>
      <trkpt lat="42.94473" lon="0.23967">
        <ele>1249.556</ele>
        <time>2023-07-09T17:16:46Z</time>
      </trkpt>
      <trkpt lat="42.94476" lon="0.23961">
        <ele>1249.227</ele>
        <time>2023-07-09T17:16:50Z</time>
      </trkpt>
      <trkpt lat="42.94479" lon="0.23955">
        <ele>1249.039</ele>
        <time>2023-07-09T17:16:54Z</time>
      </trkpt>
      <trkpt lat="42.94482" lon="0.2395">
        <ele>1248.961</ele>
        <time>2023-07-09T17:16:58Z</time>
      </trkpt>
      <trkpt lat="42.94485" lon="0.23943">
        <ele>1249.072</ele>
        <time>2023-07-09T17:17:02Z</time>
      </trkpt>
      <trkpt lat="42.94487" lon="0.23936">
        <ele>1248.535</ele>
        <time>2023-07-09T17:17:06Z</time>
      </trkpt>
      <trkpt lat="42.94491" lon="0.23931">
        <ele>1247.886</ele>
        <time>2023-07-09T17:17:10Z</time>
      </trkpt>
      <trkpt lat="42.94494" lon="0.23926">
        <ele>1247.614</ele>
        <time>2023-07-09T17:17:14Z</time>
      </trkpt>
      <trkpt lat="42.94498" lon="0.23919">
        <ele>1247.809</ele>
        <time>2023-07-09T17:17:18Z</time>
      </trkpt>
      <trkpt lat="42.94501" lon="0.23914">
        <ele>1247.544</ele>
        <time>2023-07-09T17:17:22Z</time>
      </trkpt>
      <trkpt lat="42.94505" lon="0.23909">
        <ele>1247.177</ele>
        <time>2023-07-09T17:17:26Z</time>
      </trkpt>
      <trkpt lat="42.94509" lon="0.23905">
        <ele>1246.753</ele>
        <time>2023-07-09T17:17:30Z</time>
      </trkpt>
      <trkpt lat="42.94512" lon="0.23899">
        <ele>1245.984</ele>
        <time>2023-07-09T17:17:34Z</time>
      </trkpt>
      <trkpt lat="42.94515" lon="0.23895">
        <ele>1245.534</ele>
        <time>2023-07-09T17:17:38Z</time>
      </trkpt>
      <trkpt lat="42.94518" lon="0.2389">
        <ele>1245.545</ele>
        <time>2023-07-09T17:17:41Z</time>
      </trkpt>
      <trkpt lat="42.94522" lon="0.23886">
        <ele>1245.217</ele>
        <time>2023-07-09T17:17:45Z</time>
      </trkpt>
      <trkpt lat="42.94525" lon="0.23881">
        <ele>1245.589</ele>
        <time>2023-07-09T17:17:48Z</time>
      </trkpt>
      <trkpt lat="42.94529" lon="0.23876">
        <ele>1245.77</ele>
        <time>2023-07-09T17:17:52Z</time>
      </trkpt>
      <trkpt lat="42.94533" lon="0.23873">
        <ele>1245.745</ele>
        <time>2023-07-09T17:17:56Z</time>
      </trkpt>
      <trkpt lat="42.94538" lon="0.23871">
        <ele>1245.547</ele>
        <time>2023-07-09T17:18:00Z</time>
      </trkpt>
      <trkpt lat="42.94542" lon="0.23869">
        <ele>1245.611</ele>
        <time>2023-07-09T17:18:03Z</time>
      </trkpt>
      <trkpt lat="42.94548" lon="0.23868">
        <ele>1245.609</ele>
        <time>2023-07-09T17:18:07Z</time>
      </trkpt>
      <trkpt lat="42.94553" lon="0.23867">
        <ele>1245.185</ele>
        <time>2023-07-09T17:18:11Z</time>
      </trkpt>
      <trkpt lat="42.94557" lon="0.23866">
        <ele>1245.198</ele>
        <time>2023-07-09T17:18:14Z</time>
      </trkpt>
      <trkpt lat="42.94562" lon="0.23867">
        <ele>1244.854</ele>
        <time>2023-07-09T17:18:18Z</time>
      </trkpt>
      <trkpt lat="42.94568" lon="0.23868">
        <ele>1244.545</ele>
        <time>2023-07-09T17:18:22Z</time>
      </trkpt>
      <trkpt lat="42.94573" lon="0.23871">
        <ele>1244.095</ele>
        <time>2023-07-09T17:18:27Z</time>
      </trkpt>
      <trkpt lat="42.94578" lon="0.23871">
        <ele>1243.616</ele>
        <time>2023-07-09T17:18:31Z</time>
      </trkpt>
      <trkpt lat="42.94583" lon="0.23872">
        <ele>1243.158</ele>
        <time>2023-07-09T17:18:34Z</time>
      </trkpt>
      <trkpt lat="42.94588" lon="0.23871">
        <ele>1242.78</ele>
        <time>2023-07-09T17:18:39Z</time>
      </trkpt>
      <trkpt lat="42.94592" lon="0.23874">
        <ele>1242.491</ele>
        <time>2023-07-09T17:18:42Z</time>
      </trkpt>
      <trkpt lat="42.94597" lon="0.23874">
        <ele>1242.273</ele>
        <time>2023-07-09T17:18:45Z</time>
      </trkpt>
      <trkpt lat="42.94602" lon="0.23877">
        <ele>1242.185</ele>
        <time>2023-07-09T17:18:48Z</time>
      </trkpt>
      <trkpt lat="42.94607" lon="0.23879">
        <ele>1241.913</ele>
        <time>2023-07-09T17:18:52Z</time>
      </trkpt>
      <trkpt lat="42.94612" lon="0.23881">
        <ele>1241.709</ele>
        <time>2023-07-09T17:18:56Z</time>
      </trkpt>
      <trkpt lat="42.94617" lon="0.23884">
        <ele>1241.358</ele>
        <time>2023-07-09T17:19:00Z</time>
      </trkpt>
      <trkpt lat="42.94622" lon="0.23888">
        <ele>1240.831</ele>
        <time>2023-07-09T17:19:05Z</time>
      </trkpt>
      <trkpt lat="42.94627" lon="0.23891">
        <ele>1240.587</ele>
        <time>2023-07-09T17:19:09Z</time>
      </trkpt>
      <trkpt lat="42.94631" lon="0.23896">
        <ele>1239.718</ele>
        <time>2023-07-09T17:19:13Z</time>
      </trkpt>
      <trkpt lat="42.94634" lon="0.23901">
        <ele>1238.918</ele>
        <time>2023-07-09T17:19:18Z</time>
      </trkpt>
      <trkpt lat="42.94637" lon="0.23906">
        <ele>1238.049</ele>
        <time>2023-07-09T17:19:21Z</time>
      </trkpt>
      <trkpt lat="42.94642" lon="0.2391">
        <ele>1237.131</ele>
        <time>2023-07-09T17:19:26Z</time>
      </trkpt>
      <trkpt lat="42.94646" lon="0.23914">
        <ele>1235.763</ele>
        <time>2023-07-09T17:19:30Z</time>
      </trkpt>
      <trkpt lat="42.9465" lon="0.23918">
        <ele>1234.984</ele>
        <time>2023-07-09T17:19:34Z</time>
      </trkpt>
      <trkpt lat="42.94655" lon="0.2392">
        <ele>1234.264</ele>
        <time>2023-07-09T17:19:38Z</time>
      </trkpt>
    </trkseg>
  </trk>
</gpx>